GEFSMA_prec_meanprecacc_006.txt.gz
Total_Precipitation_Accumulation
0.11 0.10 0.06 0.05 0.08 0.19 0.24 0.20 0.14 0.10 0.07 0.06 0.03 0.01 0.00 0.00 0.00 0.00 0.00 0.03 0.07 0.06 0.04 0.05 0.06 0.06 0.05 0.04 0.05 0.06 0.05 0.05 0.04 0.03 0.03 0.05 0.04 0.03 0.03 0.05 0.07 0.10 0.09
0.16 0.17 0.16 0.18 0.16 0.24 0.28 0.28 0.22 0.21 0.14 0.11 0.05 0.02 0.02 0.00 0.00 0.00 0.00 0.01 0.04 0.06 0.03 0.06 0.09 0.08 0.07 0.06 0.06 0.05 0.05 0.03 0.03 0.02 0.01 0.01 0.02 0.02 0.03 0.04 0.06 0.09 0.10
0.29 0.41 0.44 0.33 0.22 0.29 0.31 0.26 0.21 0.28 0.21 0.18 0.11 0.11 0.08 0.03 0.01 0.01 0.01 0.01 0.01 0.04 0.04 0.08 0.11 0.10 0.12 0.12 0.13 0.12 0.10 0.05 0.03 0.02 0.02 0.02 0.01 0.01 0.01 0.01 0.01 0.06 0.10
0.35 0.48 0.38 0.18 0.20 0.39 0.45 0.38 0.34 0.37 0.27 0.17 0.10 0.18 0.17 0.06 0.03 0.02 0.02 0.01 0.00 0.00 0.02 0.06 0.13 0.16 0.19 0.21 0.20 0.21 0.20 0.12 0.04 0.02 0.02 0.02 0.02 0.01 0.00 0.00 0.04 0.10 0.10
0.27 0.33 0.20 0.11 0.25 0.41 0.32 0.26 0.24 0.31 0.30 0.21 0.16 0.11 0.09 0.05 0.03 0.03 0.01 0.02 0.02 0.02 0.01 0.02 0.12 0.22 0.24 0.28 0.26 0.23 0.24 0.19 0.12 0.08 0.05 0.04 0.03 0.02 0.00 0.02 0.08 0.12 0.11
0.14 0.20 0.19 0.13 0.20 0.20 0.13 0.21 0.35 0.39 0.28 0.22 0.23 0.09 0.06 0.07 0.06 0.04 0.04 0.03 0.03 0.03 0.01 0.01 0.07 0.16 0.21 0.26 0.26 0.20 0.16 0.16 0.14 0.13 0.09 0.07 0.07 0.03 0.01 0.03 0.09 0.07 0.07
0.08 0.09 0.10 0.09 0.13 0.10 0.05 0.14 0.26 0.22 0.11 0.22 0.23 0.09 0.03 0.03 0.03 0.02 0.03 0.02 0.02 0.02 0.02 0.03 0.05 0.10 0.11 0.14 0.16 0.18 0.15 0.13 0.12 0.10 0.08 0.10 0.09 0.05 0.01 0.02 0.03 0.02 0.04
0.02 0.02 0.03 0.04 0.04 0.05 0.03 0.06 0.17 0.20 0.16 0.22 0.23 0.14 0.02 0.00 0.00 0.00 0.00 0.01 0.01 0.01 0.01 0.03 0.07 0.10 0.11 0.11 0.12 0.17 0.18 0.15 0.13 0.12 0.14 0.14 0.12 0.07 0.03 0.03 0.03 0.01 0.02
0.00 0.00 0.00 0.01 0.01 0.02 0.02 0.03 0.09 0.13 0.13 0.12 0.16 0.17 0.05 0.00 0.00 0.00 0.00 0.01 0.01 0.01 0.03 0.08 0.12 0.14 0.16 0.17 0.16 0.13 0.12 0.11 0.14 0.17 0.19 0.14 0.07 0.05 0.05 0.07 0.06 0.03 0.01
0.00 0.00 0.00 0.00 0.00 0.00 0.01 0.01 0.02 0.05 0.07 0.06 0.04 0.04 0.06 0.06 0.03 0.01 0.01 0.01 0.00 0.01 0.05 0.09 0.16 0.23 0.20 0.16 0.14 0.12 0.11 0.09 0.12 0.17 0.19 0.18 0.12 0.09 0.13 0.20 0.20 0.11 0.03
0.00 0.00 0.00 0.00 0.00 0.00 0.01 0.03 0.03 0.03 0.03 0.03 0.04 0.04 0.06 0.07 0.06 0.03 0.01 0.01 0.01 0.02 0.06 0.10 0.20 0.23 0.19 0.20 0.22 0.20 0.17 0.13 0.10 0.09 0.11 0.15 0.20 0.24 0.28 0.32 0.35 0.31 0.22
0.00 0.00 0.00 0.00 0.01 0.01 0.02 0.02 0.02 0.03 0.04 0.05 0.06 0.07 0.07 0.06 0.03 0.03 0.01 0.01 0.01 0.03 0.11 0.18 0.24 0.26 0.22 0.24 0.27 0.20 0.13 0.09 0.06 0.04 0.04 0.06 0.09 0.10 0.13 0.17 0.25 0.34 0.38
0.00 0.00 0.01 0.00 0.00 0.00 0.02 0.02 0.03 0.03 0.04 0.05 0.06 0.06 0.06 0.06 0.06 0.05 0.05 0.04 0.02 0.01 0.07 0.18 0.26 0.24 0.18 0.18 0.18 0.12 0.07 0.03 0.01 0.00 0.00 0.01 0.03 0.09 0.14 0.16 0.20 0.26 0.32
0.00 0.00 0.00 0.00 0.00 0.01 0.03 0.04 0.05 0.06 0.06 0.05 0.05 0.05 0.04 0.07 0.11 0.11 0.13 0.15 0.09 0.04 0.07 0.15 0.21 0.24 0.23 0.20 0.16 0.10 0.04 0.01 0.00 0.00 0.00 0.00 0.01 0.02 0.07 0.15 0.25 0.33 0.36
0.00 0.00 0.00 0.00 0.00 0.00 0.01 0.02 0.03 0.04 0.04 0.04 0.06 0.09 0.08 0.11 0.15 0.13 0.13 0.16 0.14 0.10 0.14 0.15 0.12 0.11 0.12 0.11 0.09 0.05 0.02 0.01 0.00 0.00 0.00 0.00 0.00 0.00 0.00 0.01 0.03 0.06 0.10
0.00 0.00 0.00 0.00 0.00 0.01 0.01 0.01 0.02 0.04 0.06 0.06 0.10 0.14 0.14 0.14 0.15 0.13 0.15 0.16 0.10 0.08 0.13 0.15 0.09 0.07 0.05 0.03 0.02 0.01 0.00 0.00 0.00 0.00 0.00 0.00 0.00 0.00 0.00 0.00 0.00 0.00 0.00
0.00 0.00 0.00 0.00 0.01 0.01 0.03 0.05 0.08 0.10 0.13 0.14 0.16 0.18 0.19 0.18 0.18 0.16 0.18 0.15 0.07 0.04 0.04 0.04 0.03 0.02 0.01 0.01 0.00 0.00 0.00 0.00 0.00 0.00 0.00 0.00 0.01 0.00 0.00 0.00 0.00 0.00 0.00
0.00 0.00 0.00 0.01 0.01 0.01 0.02 0.07 0.15 0.14 0.13 0.16 0.23 0.32 0.32 0.31 0.21 0.13 0.15 0.11 0.05 0.03 0.02 0.01 0.00 0.00 0.00 0.00 0.00 0.00 0.00 0.00 0.00 0.00 0.00 0.00 0.01 0.00 0.00 0.00 0.00 0.00 0.00
0.00 0.00 0.00 0.01 0.01 0.00 0.01 0.06 0.14 0.14 0.17 0.26 0.36 0.35 0.29 0.29 0.19 0.12 0.10 0.07 0.04 0.02 0.01 0.00 0.00 0.00 0.00 0.00 0.00 0.00 0.00 0.00 0.00 0.00 0.00 0.00 0.01 0.02 0.01 0.00 0.00 0.00 0.00
0.00 0.00 0.00 0.01 0.02 0.01 0.02 0.06 0.12 0.16 0.25 0.38 0.36 0.19 0.15 0.16 0.12 0.08 0.05 0.02 0.01 0.00 0.00 0.00 0.00 0.00 0.00 0.00 0.00 0.00 0.00 0.00 0.00 0.00 0.00 0.00 0.00 0.00 0.00 0.00 0.00 0.00 0.00
0.00 0.00 0.00 0.01 0.01 0.00 0.02 0.07 0.14 0.11 0.12 0.17 0.15 0.08 0.05 0.04 0.03 0.02 0.01 0.00 0.00 0.00 0.00 0.00 0.00 0.00 0.00 0.00 0.00 0.00 0.00 0.00 0.00 0.00 0.00 0.00 0.00 0.00 0.00 0.00 0.00 0.00 0.00
0.00 0.00 0.00 0.00 0.00 0.00 0.01 0.04 0.05 0.05 0.05 0.05 0.03 0.02 0.01 0.00 0.00 0.00 0.00 0.00 0.00 0.00 0.00 0.00 0.00 0.00 0.00 0.00 0.00 0.00 0.00 0.00 0.00 0.00 0.00 0.00 0.00 0.00 0.00 0.00 0.00 0.00 0.00
0.00 0.00 0.01 0.00 0.00 0.00 0.00 0.00 0.00 0.01 0.01 0.00 0.00 0.00 0.00 0.00 0.00 0.00 0.00 0.00 0.00 0.00 0.00 0.00 0.00 0.00 0.00 0.00 0.00 0.00 0.00 0.00 0.00 0.00 0.00 0.00 0.00 0.00 0.00 0.00 0.00 0.00 0.00
0.00 0.00 0.00 0.00 0.00 0.00 0.00 0.00 0.00 0.00 0.00 0.00 0.00 0.00 0.00 0.00 0.00 0.00 0.00 0.00 0.00 0.00 0.00 0.00 0.00 0.00 0.00 0.00 0.00 0.00 0.00 0.00 0.00 0.00 0.00 0.00 0.00 0.00 0.00 0.00 0.00 0.00 0.00
0.02 0.01 0.00 0.00 0.00 0.00 0.00 0.00 0.00 0.00 0.00 0.00 0.00 0.00 0.00 0.00 0.00 0.00 0.00 0.00 0.00 0.00 0.00 0.00 0.00 0.00 0.00 0.00 0.00 0.00 0.00 0.00 0.00 0.00 0.00 0.00 0.00 0.00 0.00 0.00 0.00 0.00 0.00
0.05 0.02 0.00 0.00 0.00 0.00 0.00 0.00 0.00 0.00 0.00 0.00 0.00 0.00 0.00 0.00 0.00 0.00 0.00 0.00 0.00 0.00 0.00 0.00 0.00 0.00 0.00 0.00 0.00 0.00 0.00 0.00 0.00 0.00 0.00 0.00 0.00 0.00 0.00 0.00 0.00 0.00 0.00

GEFSMA_prec_meanprecacc_012.txt.gz
Total_Precipitation_Accumulation
0.27 0.25 0.15 0.13 0.14 0.31 0.39 0.33 0.26 0.24 0.24 0.23 0.16 0.11 0.11 0.11 0.10 0.11 0.08 0.07 0.10 0.09 0.10 0.13 0.13 0.13 0.14 0.13 0.13 0.16 0.14 0.13 0.10 0.09 0.11 0.12 0.09 0.04 0.04 0.07 0.10 0.13 0.11
0.37 0.37 0.33 0.32 0.25 0.35 0.48 0.54 0.49 0.51 0.38 0.36 0.23 0.16 0.14 0.12 0.11 0.13 0.10 0.08 0.08 0.08 0.07 0.12 0.17 0.16 0.15 0.15 0.15 0.13 0.11 0.10 0.10 0.10 0.10 0.11 0.11 0.07 0.06 0.07 0.11 0.14 0.14
0.71 0.83 0.75 0.49 0.34 0.45 0.54 0.51 0.46 0.62 0.49 0.42 0.32 0.31 0.28 0.20 0.16 0.14 0.13 0.08 0.05 0.07 0.06 0.11 0.16 0.17 0.19 0.19 0.22 0.21 0.17 0.11 0.08 0.07 0.07 0.09 0.09 0.07 0.07 0.07 0.09 0.15 0.16
0.80 0.89 0.66 0.35 0.38 0.60 0.67 0.60 0.54 0.68 0.60 0.49 0.39 0.41 0.39 0.28 0.20 0.17 0.13 0.10 0.07 0.02 0.03 0.07 0.14 0.19 0.25 0.28 0.30 0.33 0.28 0.16 0.07 0.04 0.03 0.06 0.07 0.05 0.04 0.05 0.07 0.14 0.13
0.45 0.52 0.34 0.24 0.38 0.51 0.43 0.37 0.40 0.59 0.60 0.55 0.52 0.34 0.26 0.20 0.14 0.12 0.09 0.06 0.06 0.05 0.01 0.04 0.13 0.22 0.26 0.32 0.33 0.32 0.33 0.25 0.15 0.10 0.06 0.06 0.07 0.04 0.02 0.03 0.10 0.13 0.12
0.19 0.25 0.23 0.18 0.26 0.25 0.17 0.27 0.41 0.50 0.40 0.42 0.46 0.24 0.16 0.15 0.13 0.10 0.07 0.05 0.05 0.04 0.02 0.02 0.08 0.16 0.21 0.27 0.28 0.22 0.20 0.22 0.19 0.17 0.12 0.09 0.12 0.07 0.02 0.04 0.11 0.09 0.09
0.08 0.10 0.10 0.10 0.14 0.11 0.06 0.16 0.27 0.24 0.14 0.30 0.34 0.18 0.10 0.07 0.07 0.06 0.05 0.04 0.02 0.02 0.02 0.03 0.06 0.10 0.11 0.14 0.17 0.18 0.15 0.15 0.16 0.16 0.13 0.13 0.14 0.09 0.03 0.04 0.05 0.04 0.07
0.02 0.02 0.03 0.04 0.04 0.05 0.03 0.06 0.17 0.20 0.17 0.25 0.27 0.21 0.08 0.05 0.03 0.02 0.02 0.02 0.01 0.01 0.01 0.03 0.07 0.10 0.11 0.11 0.12 0.17 0.19 0.17 0.17 0.20 0.22 0.20 0.16 0.11 0.07 0.07 0.06 0.04 0.05
0.00 0.00 0.00 0.01 0.01 0.02 0.02 0.03 0.09 0.13 0.14 0.13 0.18 0.22 0.09 0.03 0.03 0.02 0.02 0.02 0.01 0.01 0.03 0.08 0.12 0.14 0.16 0.17 0.17 0.15 0.14 0.14 0.20 0.26 0.28 0.21 0.10 0.06 0.09 0.14 0.14 0.08 0.04
0.00 0.00 0.00 0.00 0.00 0.01 0.01 0.02 0.03 0.07 0.09 0.07 0.05 0.06 0.08 0.08 0.06 0.03 0.02 0.01 0.01 0.02 0.05 0.09 0.17 0.23 0.21 0.17 0.16 0.15 0.14 0.14 0.18 0.23 0.25 0.22 0.15 0.11 0.15 0.26 0.29 0.21 0.11
0.00 0.00 0.00 0.00 0.01 0.01 0.02 0.04 0.05 0.06 0.07 0.07 0.07 0.08 0.10 0.11 0.08 0.05 0.02 0.01 0.03 0.03 0.06 0.11 0.20 0.24 0.21 0.22 0.29 0.28 0.25 0.23 0.19 0.16 0.17 0.20 0.24 0.27 0.30 0.36 0.44 0.43 0.32
0.00 0.00 0.00 0.01 0.01 0.01 0.03 0.04 0.04 0.06 0.08 0.10 0.12 0.13 0.13 0.11 0.07 0.06 0.04 0.03 0.06 0.09 0.17 0.23 0.27 0.30 0.27 0.33 0.40 0.33 0.24 0.19 0.14 0.12 0.11 0.13 0.14 0.14 0.16 0.22 0.34 0.49 0.58
0.00 0.00 0.01 0.01 0.00 0.01 0.02 0.03 0.04 0.05 0.07 0.09 0.10 0.11 0.13 0.15 0.16 0.17 0.16 0.14 0.13 0.14 0.20 0.27 0.33 0.32 0.26 0.30 0.33 0.30 0.21 0.11 0.06 0.04 0.03 0.04 0.07 0.14 0.21 0.24 0.28 0.35 0.45
0.00 0.00 0.00 0.00 0.00 0.01 0.03 0.05 0.06 0.08 0.08 0.08 0.07 0.09 0.12 0.15 0.23 0.24 0.26 0.30 0.23 0.20 0.25 0.30 0.34 0.35 0.33 0.31 0.29 0.24 0.16 0.09 0.03 0.02 0.01 0.01 0.02 0.04 0.09 0.20 0.31 0.41 0.49
0.00 0.00 0.00 0.00 0.00 0.01 0.02 0.03 0.05 0.07 0.08 0.07 0.09 0.14 0.15 0.19 0.25 0.24 0.26 0.31 0.31 0.26 0.31 0.32 0.24 0.20 0.22 0.20 0.19 0.14 0.08 0.04 0.02 0.01 0.01 0.00 0.00 0.00 0.01 0.01 0.04 0.07 0.12
0.00 0.00 0.00 0.00 0.00 0.01 0.01 0.02 0.04 0.06 0.08 0.10 0.14 0.19 0.20 0.22 0.25 0.23 0.27 0.30 0.27 0.28 0.31 0.28 0.19 0.16 0.13 0.09 0.06 0.04 0.02 0.01 0.01 0.01 0.01 0.01 0.01 0.01 0.00 0.00 0.00 0.00 0.01
0.00 0.00 0.00 0.00 0.01 0.01 0.03 0.07 0.10 0.12 0.16 0.18 0.20 0.24 0.27 0.28 0.28 0.26 0.30 0.29 0.22 0.23 0.21 0.15 0.15 0.14 0.11 0.07 0.03 0.02 0.01 0.01 0.01 0.01 0.01 0.01 0.01 0.01 0.00 0.00 0.00 0.00 0.00
0.01 0.01 0.01 0.01 0.01 0.01 0.03 0.08 0.16 0.15 0.15 0.18 0.27 0.38 0.41 0.43 0.34 0.27 0.29 0.25 0.19 0.20 0.17 0.13 0.12 0.11 0.10 0.06 0.03 0.01 0.00 0.00 0.00 0.00 0.01 0.01 0.01 0.01 0.00 0.00 0.00 0.00 0.00
0.03 0.02 0.01 0.01 0.01 0.01 0.02 0.07 0.15 0.16 0.19 0.28 0.39 0.41 0.39 0.43 0.35 0.28 0.24 0.19 0.15 0.14 0.12 0.10 0.11 0.11 0.09 0.04 0.02 0.01 0.00 0.00 0.00 0.00 0.00 0.00 0.01 0.02 0.01 0.00 0.00 0.00 0.00
0.04 0.03 0.02 0.02 0.02 0.01 0.02 0.07 0.13 0.18 0.27 0.40 0.39 0.26 0.27 0.34 0.32 0.25 0.19 0.13 0.10 0.09 0.08 0.08 0.09 0.09 0.06 0.04 0.02 0.01 0.00 0.00 0.00 0.00 0.00 0.00 0.00 0.00 0.00 0.00 0.00 0.00 0.00
0.03 0.04 0.03 0.02 0.01 0.00 0.02 0.08 0.14 0.12 0.14 0.19 0.18 0.12 0.13 0.19 0.26 0.23 0.17 0.12 0.09 0.08 0.07 0.05 0.04 0.05 0.04 0.03 0.02 0.01 0.00 0.00 0.00 0.00 0.00 0.00 0.00 0.00 0.00 0.00 0.00 0.00 0.00
0.03 0.05 0.05 0.03 0.01 0.00 0.01 0.04 0.06 0.06 0.06 0.05 0.04 0.04 0.03 0.03 0.07 0.11 0.12 0.11 0.09 0.07 0.05 0.03 0.02 0.02 0.02 0.02 0.01 0.00 0.00 0.00 0.00 0.00 0.00 0.00 0.00 0.00 0.00 0.00 0.00 0.00 0.00
0.04 0.07 0.08 0.06 0.03 0.01 0.00 0.00 0.00 0.02 0.01 0.01 0.01 0.01 0.01 0.01 0.01 0.02 0.03 0.03 0.03 0.02 0.01 0.01 0.01 0.01 0.01 0.00 0.00 0.00 0.00 0.00 0.00 0.00 0.00 0.00 0.00 0.00 0.00 0.00 0.00 0.00 0.00
0.05 0.08 0.11 0.10 0.08 0.03 0.00 0.00 0.00 0.00 0.00 0.00 0.00 0.00 0.00 0.00 0.00 0.00 0.00 0.00 0.00 0.00 0.00 0.00 0.00 0.00 0.00 0.00 0.00 0.00 0.00 0.00 0.00 0.00 0.00 0.00 0.00 0.01 0.01 0.01 0.00 0.00 0.00
0.10 0.10 0.12 0.14 0.11 0.07 0.01 0.00 0.00 0.00 0.00 0.00 0.00 0.00 0.00 0.00 0.00 0.00 0.00 0.00 0.00 0.00 0.00 0.00 0.00 0.00 0.00 0.00 0.00 0.00 0.00 0.00 0.00 0.00 0.00 0.00 0.00 0.01 0.02 0.02 0.00 0.00 0.00
0.14 0.15 0.14 0.15 0.15 0.11 0.03 0.00 0.00 0.00 0.00 0.00 0.00 0.00 0.00 0.00 0.00 0.00 0.00 0.00 0.00 0.00 0.00 0.00 0.00 0.00 0.00 0.00 0.00 0.00 0.00 0.00 0.00 0.00 0.00 0.00 0.00 0.00 0.01 0.01 0.00 0.00 0.00

GEFSMA_prec_meanprecacc_018.txt.gz
Total_Precipitation_Accumulation
0.40 0.41 0.28 0.25 0.20 0.39 0.56 0.55 0.46 0.46 0.42 0.38 0.30 0.25 0.25 0.22 0.18 0.18 0.20 0.22 0.21 0.19 0.20 0.22 0.21 0.22 0.23 0.19 0.18 0.19 0.16 0.14 0.12 0.10 0.13 0.17 0.13 0.06 0.04 0.07 0.11 0.13 0.11
0.59 0.55 0.49 0.47 0.38 0.49 0.66 0.75 0.67 0.72 0.56 0.53 0.36 0.28 0.26 0.24 0.25 0.25 0.20 0.21 0.21 0.18 0.15 0.21 0.25 0.23 0.22 0.20 0.19 0.16 0.14 0.11 0.11 0.10 0.10 0.12 0.12 0.09 0.07 0.07 0.11 0.14 0.14
0.99 1.09 0.99 0.72 0.59 0.70 0.78 0.72 0.69 0.90 0.70 0.62 0.50 0.51 0.46 0.37 0.33 0.31 0.27 0.23 0.17 0.19 0.17 0.18 0.23 0.23 0.23 0.24 0.27 0.25 0.20 0.12 0.08 0.07 0.07 0.09 0.09 0.08 0.08 0.07 0.09 0.15 0.16
1.00 1.10 0.86 0.57 0.61 0.83 0.92 0.83 0.80 0.96 0.87 0.74 0.63 0.60 0.52 0.40 0.30 0.26 0.21 0.16 0.11 0.06 0.07 0.12 0.20 0.24 0.29 0.31 0.34 0.38 0.33 0.17 0.07 0.04 0.03 0.06 0.07 0.05 0.04 0.05 0.08 0.14 0.13
0.51 0.62 0.44 0.36 0.50 0.64 0.58 0.48 0.60 0.78 0.76 0.74 0.70 0.47 0.35 0.26 0.18 0.15 0.11 0.07 0.07 0.06 0.03 0.06 0.16 0.25 0.29 0.35 0.37 0.37 0.37 0.29 0.16 0.10 0.06 0.06 0.07 0.04 0.02 0.04 0.10 0.13 0.12
0.20 0.26 0.25 0.20 0.28 0.28 0.21 0.31 0.46 0.56 0.45 0.48 0.50 0.30 0.22 0.18 0.16 0.14 0.10 0.06 0.05 0.04 0.02 0.03 0.10 0.18 0.24 0.30 0.32 0.27 0.25 0.26 0.21 0.19 0.12 0.10 0.12 0.07 0.02 0.04 0.11 0.09 0.09
0.08 0.10 0.10 0.10 0.14 0.11 0.06 0.16 0.28 0.25 0.15 0.31 0.35 0.19 0.11 0.08 0.09 0.09 0.08 0.04 0.03 0.03 0.02 0.04 0.07 0.12 0.16 0.18 0.23 0.25 0.22 0.20 0.19 0.18 0.15 0.14 0.14 0.10 0.04 0.04 0.05 0.04 0.07
0.02 0.02 0.03 0.04 0.04 0.05 0.03 0.06 0.17 0.21 0.17 0.25 0.28 0.21 0.09 0.05 0.04 0.02 0.03 0.03 0.01 0.01 0.01 0.04 0.10 0.14 0.17 0.19 0.24 0.23 0.26 0.22 0.22 0.23 0.24 0.21 0.17 0.11 0.08 0.07 0.07 0.04 0.05
0.00 0.00 0.00 0.01 0.01 0.02 0.02 0.04 0.10 0.14 0.15 0.14 0.19 0.23 0.10 0.03 0.03 0.03 0.03 0.03 0.03 0.02 0.04 0.09 0.15 0.23 0.30 0.31 0.27 0.22 0.17 0.18 0.24 0.30 0.31 0.22 0.11 0.06 0.09 0.14 0.15 0.09 0.05
0.00 0.00 0.00 0.00 0.01 0.01 0.03 0.03 0.05 0.09 0.12 0.09 0.08 0.10 0.12 0.12 0.09 0.04 0.03 0.02 0.03 0.03 0.06 0.10 0.19 0.29 0.32 0.35 0.30 0.25 0.19 0.18 0.21 0.26 0.27 0.24 0.16 0.11 0.16 0.27 0.33 0.27 0.15
0.00 0.00 0.00 0.00 0.01 0.02 0.04 0.06 0.07 0.09 0.11 0.11 0.12 0.13 0.16 0.20 0.17 0.12 0.05 0.03 0.07 0.07 0.09 0.13 0.23 0.30 0.31 0.39 0.49 0.43 0.35 0.28 0.22 0.18 0.19 0.22 0.26 0.30 0.33 0.41 0.52 0.55 0.46
0.00 0.00 0.00 0.01 0.01 0.02 0.03 0.05 0.06 0.08 0.12 0.15 0.18 0.18 0.19 0.18 0.16 0.18 0.13 0.10 0.12 0.13 0.23 0.31 0.36 0.40 0.39 0.50 0.55 0.48 0.35 0.23 0.16 0.12 0.12 0.14 0.16 0.18 0.22 0.30 0.45 0.64 0.75
0.00 0.01 0.01 0.01 0.01 0.01 0.03 0.04 0.05 0.06 0.09 0.13 0.15 0.16 0.19 0.22 0.26 0.29 0.29 0.25 0.26 0.28 0.36 0.43 0.49 0.50 0.44 0.47 0.46 0.41 0.28 0.14 0.07 0.04 0.03 0.04 0.08 0.17 0.26 0.31 0.37 0.47 0.58
0.01 0.01 0.01 0.00 0.00 0.01 0.03 0.06 0.07 0.09 0.10 0.11 0.10 0.16 0.19 0.22 0.34 0.37 0.39 0.45 0.39 0.39 0.47 0.52 0.55 0.58 0.60 0.52 0.43 0.32 0.19 0.10 0.04 0.02 0.02 0.02 0.02 0.05 0.11 0.22 0.36 0.49 0.60
0.03 0.02 0.01 0.01 0.00 0.01 0.02 0.04 0.05 0.08 0.10 0.10 0.14 0.20 0.24 0.28 0.37 0.39 0.43 0.49 0.49 0.45 0.53 0.57 0.44 0.40 0.42 0.35 0.27 0.19 0.10 0.05 0.03 0.01 0.01 0.01 0.01 0.01 0.02 0.03 0.06 0.10 0.17
0.09 0.07 0.05 0.03 0.02 0.02 0.02 0.03 0.04 0.07 0.10 0.14 0.20 0.26 0.29 0.33 0.38 0.37 0.44 0.49 0.49 0.51 0.56 0.52 0.36 0.31 0.30 0.19 0.12 0.08 0.04 0.02 0.02 0.01 0.01 0.01 0.01 0.01 0.01 0.02 0.01 0.02 0.03
0.10 0.09 0.09 0.08 0.06 0.05 0.05 0.07 0.11 0.13 0.18 0.21 0.24 0.30 0.35 0.39 0.41 0.39 0.46 0.48 0.44 0.50 0.47 0.36 0.31 0.28 0.23 0.15 0.08 0.06 0.04 0.02 0.02 0.02 0.02 0.02 0.02 0.01 0.01 0.01 0.01 0.01 0.01
0.11 0.11 0.11 0.11 0.09 0.06 0.06 0.10 0.17 0.16 0.17 0.20 0.31 0.42 0.46 0.49 0.44 0.40 0.45 0.43 0.41 0.50 0.48 0.31 0.26 0.22 0.19 0.13 0.09 0.07 0.04 0.02 0.01 0.02 0.01 0.02 0.01 0.01 0.00 0.00 0.00 0.00 0.00
0.10 0.10 0.11 0.10 0.10 0.08 0.07 0.10 0.17 0.17 0.20 0.30 0.42 0.44 0.42 0.47 0.43 0.39 0.40 0.37 0.38 0.49 0.45 0.31 0.24 0.21 0.18 0.12 0.10 0.07 0.05 0.03 0.01 0.01 0.01 0.01 0.02 0.02 0.01 0.00 0.00 0.00 0.00
0.07 0.09 0.11 0.11 0.11 0.09 0.08 0.12 0.16 0.20 0.28 0.41 0.41 0.29 0.29 0.37 0.37 0.33 0.30 0.27 0.28 0.32 0.30 0.26 0.23 0.22 0.17 0.13 0.12 0.09 0.06 0.03 0.01 0.01 0.00 0.00 0.00 0.00 0.00 0.00 0.00 0.00 0.00
0.05 0.08 0.10 0.10 0.10 0.09 0.08 0.13 0.19 0.14 0.15 0.20 0.19 0.14 0.14 0.21 0.29 0.28 0.23 0.22 0.22 0.22 0.22 0.21 0.19 0.20 0.20 0.18 0.13 0.10 0.07 0.03 0.01 0.01 0.01 0.01 0.01 0.01 0.00 0.00 0.00 0.00 0.00
0.05 0.09 0.12 0.12 0.11 0.10 0.10 0.10 0.10 0.10 0.09 0.07 0.07 0.07 0.05 0.04 0.09 0.16 0.20 0.21 0.22 0.21 0.20 0.21 0.22 0.20 0.19 0.20 0.15 0.09 0.05 0.03 0.02 0.02 0.03 0.04 0.03 0.01 0.00 0.00 0.00 0.00 0.00
0.05 0.09 0.12 0.14 0.14 0.15 0.12 0.08 0.06 0.05 0.04 0.03 0.03 0.03 0.03 0.02 0.02 0.04 0.07 0.10 0.12 0.14 0.14 0.17 0.21 0.20 0.18 0.16 0.12 0.08 0.07 0.06 0.03 0.02 0.03 0.03 0.02 0.01 0.00 0.00 0.00 0.00 0.00
0.07 0.10 0.14 0.16 0.18 0.19 0.15 0.11 0.08 0.05 0.03 0.03 0.02 0.02 0.02 0.01 0.01 0.01 0.01 0.02 0.04 0.05 0.06 0.09 0.11 0.12 0.11 0.10 0.07 0.06 0.05 0.04 0.02 0.01 0.01 0.02 0.01 0.02 0.02 0.01 0.00 0.00 0.00
0.12 0.12 0.14 0.17 0.19 0.21 0.19 0.14 0.11 0.07 0.05 0.04 0.02 0.01 0.02 0.02 0.00 0.01 0.01 0.01 0.01 0.02 0.02 0.03 0.03 0.03 0.02 0.02 0.02 0.02 0.01 0.01 0.00 0.00 0.00 0.01 0.02 0.03 0.05 0.03 0.00 0.00 0.00
0.17 0.16 0.15 0.17 0.21 0.25 0.24 0.18 0.13 0.09 0.08 0.06 0.04 0.01 0.01 0.00 0.00 0.00 0.01 0.02 0.01 0.00 0.00 0.00 0.00 0.00 0.00 0.00 0.00 0.00 0.00 0.00 0.00 0.00 0.00 0.01 0.01 0.02 0.04 0.02 0.01 0.00 0.00

GEFSMA_prec_meanprecacc_024.txt.gz
Total_Precipitation_Accumulation
0.51 0.53 0.42 0.36 0.29 0.50 0.70 0.72 0.67 0.79 0.86 0.76 0.59 0.55 0.58 0.51 0.44 0.44 0.47 0.57 0.60 0.55 0.59 0.57 0.41 0.35 0.31 0.24 0.21 0.20 0.17 0.15 0.12 0.10 0.13 0.17 0.14 0.07 0.05 0.07 0.11 0.13 0.11
0.70 0.68 0.62 0.59 0.48 0.61 0.81 0.93 0.87 0.97 0.88 0.82 0.58 0.49 0.49 0.47 0.43 0.42 0.38 0.40 0.44 0.44 0.40 0.45 0.45 0.40 0.34 0.28 0.24 0.19 0.15 0.12 0.11 0.10 0.10 0.12 0.12 0.10 0.08 0.08 0.11 0.14 0.14
1.09 1.18 1.06 0.78 0.65 0.78 0.88 0.84 0.80 1.02 0.82 0.74 0.61 0.61 0.55 0.46 0.44 0.40 0.39 0.36 0.32 0.37 0.31 0.31 0.39 0.39 0.37 0.35 0.35 0.31 0.24 0.14 0.09 0.07 0.07 0.09 0.09 0.08 0.08 0.08 0.09 0.15 0.16
1.03 1.14 0.88 0.60 0.65 0.87 0.97 0.88 0.85 1.01 0.92 0.78 0.67 0.64 0.55 0.43 0.34 0.32 0.29 0.26 0.22 0.14 0.14 0.22 0.32 0.37 0.43 0.44 0.45 0.49 0.40 0.21 0.09 0.04 0.03 0.06 0.07 0.05 0.04 0.05 0.08 0.14 0.13
0.52 0.63 0.45 0.37 0.51 0.65 0.59 0.49 0.62 0.80 0.79 0.77 0.72 0.48 0.36 0.28 0.19 0.17 0.15 0.11 0.12 0.13 0.09 0.12 0.24 0.33 0.42 0.52 0.54 0.53 0.50 0.37 0.21 0.12 0.07 0.06 0.07 0.04 0.02 0.04 0.10 0.13 0.12
0.20 0.27 0.25 0.20 0.28 0.28 0.21 0.31 0.46 0.56 0.46 0.49 0.51 0.30 0.22 0.18 0.17 0.15 0.11 0.07 0.07 0.07 0.06 0.07 0.14 0.23 0.32 0.42 0.47 0.44 0.42 0.41 0.31 0.25 0.16 0.12 0.13 0.07 0.02 0.04 0.11 0.09 0.09
0.08 0.10 0.10 0.10 0.14 0.11 0.06 0.16 0.28 0.25 0.15 0.31 0.35 0.19 0.11 0.08 0.09 0.09 0.08 0.05 0.04 0.04 0.04 0.07 0.10 0.16 0.20 0.23 0.32 0.39 0.43 0.42 0.38 0.32 0.25 0.21 0.20 0.13 0.04 0.04 0.05 0.04 0.08
0.02 0.02 0.03 0.04 0.04 0.05 0.03 0.06 0.17 0.21 0.17 0.25 0.28 0.21 0.09 0.05 0.04 0.03 0.04 0.04 0.02 0.04 0.04 0.07 0.14 0.20 0.24 0.27 0.36 0.40 0.50 0.50 0.50 0.48 0.43 0.37 0.30 0.21 0.12 0.09 0.07 0.05 0.06
0.00 0.00 0.00 0.01 0.01 0.02 0.02 0.04 0.10 0.14 0.15 0.14 0.19 0.24 0.11 0.03 0.04 0.03 0.03 0.05 0.06 0.06 0.09 0.15 0.23 0.32 0.41 0.49 0.48 0.44 0.43 0.47 0.57 0.64 0.61 0.45 0.27 0.20 0.19 0.20 0.19 0.12 0.07
0.00 0.00 0.00 0.00 0.01 0.01 0.03 0.03 0.05 0.10 0.12 0.09 0.08 0.11 0.13 0.13 0.10 0.04 0.03 0.03 0.05 0.08 0.14 0.20 0.30 0.39 0.45 0.57 0.62 0.55 0.44 0.43 0.53 0.60 0.57 0.48 0.33 0.22 0.24 0.34 0.39 0.32 0.20
0.01 0.01 0.00 0.01 0.01 0.02 0.04 0.06 0.07 0.09 0.11 0.11 0.12 0.13 0.17 0.21 0.19 0.13 0.05 0.03 0.07 0.10 0.18 0.29 0.38 0.42 0.45 0.59 0.79 0.75 0.72 0.59 0.51 0.48 0.46 0.45 0.44 0.42 0.41 0.47 0.58 0.62 0.53
0.03 0.02 0.01 0.02 0.02 0.02 0.03 0.05 0.06 0.08 0.12 0.15 0.18 0.18 0.20 0.18 0.16 0.19 0.14 0.10 0.12 0.14 0.28 0.44 0.49 0.54 0.54 0.66 0.75 0.75 0.65 0.53 0.41 0.33 0.30 0.28 0.26 0.26 0.28 0.36 0.54 0.71 0.83
0.07 0.06 0.05 0.03 0.03 0.02 0.03 0.04 0.05 0.06 0.09 0.13 0.15 0.17 0.20 0.23 0.27 0.30 0.29 0.25 0.26 0.28 0.38 0.50 0.60 0.63 0.61 0.66 0.64 0.61 0.46 0.31 0.21 0.17 0.15 0.14 0.14 0.20 0.28 0.34 0.40 0.51 0.64
0.15 0.13 0.11 0.08 0.06 0.04 0.05 0.06 0.07 0.09 0.10 0.11 0.10 0.16 0.19 0.23 0.35 0.38 0.40 0.46 0.40 0.39 0.49 0.58 0.67 0.70 0.79 0.77 0.65 0.50 0.35 0.23 0.13 0.09 0.08 0.07 0.06 0.06 0.12 0.23 0.36 0.50 0.62
0.19 0.17 0.16 0.14 0.12 0.09 0.07 0.07 0.06 0.08 0.10 0.10 0.14 0.21 0.24 0.29 0.38 0.40 0.44 0.51 0.51 0.46 0.55 0.62 0.52 0.51 0.60 0.58 0.47 0.34 0.19 0.13 0.09 0.06 0.05 0.04 0.03 0.02 0.03 0.03 0.06 0.11 0.18
0.18 0.18 0.17 0.15 0.14 0.12 0.10 0.08 0.07 0.08 0.11 0.14 0.20 0.26 0.29 0.33 0.38 0.37 0.44 0.51 0.52 0.53 0.59 0.57 0.44 0.41 0.43 0.34 0.26 0.18 0.10 0.07 0.04 0.04 0.03 0.02 0.02 0.01 0.02 0.02 0.02 0.03 0.04
0.12 0.12 0.14 0.15 0.15 0.14 0.14 0.15 0.15 0.15 0.18 0.21 0.24 0.30 0.35 0.39 0.41 0.39 0.47 0.49 0.46 0.54 0.51 0.41 0.40 0.39 0.35 0.27 0.16 0.11 0.07 0.04 0.03 0.03 0.03 0.03 0.02 0.01 0.01 0.01 0.01 0.01 0.02
0.11 0.11 0.11 0.12 0.12 0.11 0.13 0.18 0.23 0.20 0.19 0.21 0.31 0.43 0.46 0.49 0.44 0.40 0.45 0.44 0.43 0.56 0.55 0.38 0.34 0.31 0.32 0.26 0.19 0.14 0.09 0.04 0.02 0.03 0.02 0.02 0.02 0.01 0.00 0.00 0.00 0.00 0.01
0.10 0.10 0.11 0.10 0.10 0.09 0.10 0.16 0.24 0.22 0.24 0.31 0.42 0.44 0.42 0.47 0.43 0.39 0.40 0.39 0.41 0.55 0.53 0.40 0.34 0.34 0.33 0.23 0.18 0.13 0.08 0.05 0.02 0.02 0.02 0.01 0.02 0.02 0.01 0.00 0.00 0.00 0.00
0.07 0.09 0.11 0.11 0.11 0.09 0.09 0.14 0.21 0.25 0.32 0.45 0.43 0.29 0.30 0.37 0.37 0.33 0.30 0.28 0.31 0.36 0.36 0.35 0.35 0.36 0.33 0.27 0.21 0.15 0.09 0.05 0.03 0.01 0.01 0.00 0.00 0.01 0.00 0.00 0.00 0.00 0.00
0.05 0.08 0.10 0.10 0.10 0.09 0.08 0.15 0.22 0.18 0.20 0.25 0.23 0.16 0.15 0.21 0.29 0.28 0.23 0.22 0.24 0.24 0.25 0.26 0.27 0.29 0.32 0.30 0.23 0.15 0.11 0.06 0.03 0.01 0.01 0.01 0.01 0.01 0.00 0.00 0.00 0.00 0.00
0.06 0.09 0.12 0.12 0.12 0.10 0.10 0.11 0.13 0.14 0.14 0.13 0.12 0.11 0.07 0.05 0.09 0.17 0.20 0.21 0.23 0.23 0.23 0.25 0.27 0.26 0.25 0.25 0.20 0.13 0.08 0.05 0.04 0.03 0.04 0.04 0.03 0.02 0.00 0.00 0.00 0.00 0.00
0.06 0.10 0.13 0.14 0.15 0.15 0.13 0.08 0.07 0.08 0.09 0.08 0.09 0.08 0.06 0.03 0.03 0.04 0.08 0.10 0.13 0.16 0.18 0.22 0.26 0.26 0.24 0.21 0.16 0.13 0.09 0.07 0.05 0.03 0.04 0.04 0.02 0.01 0.00 0.00 0.00 0.00 0.00
0.08 0.11 0.14 0.17 0.19 0.19 0.16 0.11 0.10 0.08 0.08 0.09 0.09 0.08 0.06 0.03 0.02 0.01 0.02 0.03 0.05 0.07 0.09 0.12 0.16 0.18 0.18 0.16 0.13 0.11 0.09 0.08 0.05 0.04 0.02 0.03 0.02 0.02 0.02 0.01 0.00 0.00 0.00
0.13 0.13 0.14 0.18 0.20 0.22 0.20 0.14 0.12 0.09 0.10 0.11 0.11 0.10 0.08 0.05 0.02 0.01 0.01 0.01 0.02 0.04 0.07 0.09 0.10 0.11 0.13 0.11 0.08 0.06 0.05 0.03 0.04 0.03 0.02 0.02 0.02 0.03 0.05 0.03 0.00 0.00 0.00
0.18 0.17 0.15 0.18 0.22 0.25 0.24 0.18 0.15 0.12 0.14 0.15 0.16 0.14 0.12 0.07 0.03 0.01 0.02 0.02 0.01 0.01 0.02 0.04 0.05 0.06 0.05 0.05 0.05 0.04 0.03 0.02 0.02 0.02 0.01 0.01 0.01 0.02 0.04 0.02 0.01 0.00 0.00

GEFSMA_prec_meanprecacc_030.txt.gz
Total_Precipitation_Accumulation
0.63 0.68 0.54 0.50 0.44 0.68 0.94 1.00 0.91 1.00 1.10 1.00 0.77 0.68 0.69 0.62 0.55 0.56 0.59 0.66 0.75 0.68 0.72 0.72 0.57 0.54 0.52 0.43 0.38 0.34 0.28 0.23 0.18 0.14 0.16 0.20 0.17 0.10 0.06 0.08 0.11 0.13 0.11
0.91 0.90 0.82 0.78 0.64 0.78 0.98 1.11 1.03 1.13 1.05 1.01 0.71 0.59 0.62 0.61 0.54 0.50 0.45 0.46 0.53 0.54 0.51 0.58 0.62 0.60 0.55 0.49 0.42 0.34 0.27 0.21 0.18 0.15 0.13 0.14 0.15 0.13 0.11 0.10 0.12 0.15 0.14
1.31 1.42 1.28 0.95 0.77 0.89 0.97 0.93 0.90 1.10 0.89 0.82 0.69 0.70 0.65 0.54 0.52 0.48 0.44 0.40 0.35 0.42 0.38 0.40 0.52 0.56 0.56 0.54 0.54 0.46 0.37 0.25 0.18 0.13 0.11 0.11 0.10 0.10 0.12 0.13 0.14 0.19 0.18
1.25 1.35 1.04 0.70 0.72 0.93 1.02 0.93 0.89 1.05 0.96 0.83 0.71 0.68 0.59 0.46 0.37 0.35 0.31 0.28 0.23 0.16 0.16 0.28 0.41 0.49 0.61 0.64 0.64 0.67 0.57 0.36 0.21 0.13 0.09 0.09 0.09 0.06 0.06 0.09 0.13 0.20 0.18
0.67 0.74 0.53 0.42 0.54 0.67 0.61 0.51 0.63 0.81 0.80 0.79 0.74 0.51 0.39 0.30 0.21 0.19 0.16 0.12 0.13 0.14 0.11 0.14 0.28 0.40 0.54 0.72 0.75 0.74 0.70 0.52 0.33 0.23 0.17 0.14 0.12 0.07 0.04 0.06 0.13 0.18 0.18
0.31 0.34 0.29 0.22 0.29 0.29 0.22 0.31 0.47 0.57 0.46 0.50 0.52 0.31 0.24 0.20 0.18 0.15 0.11 0.08 0.07 0.08 0.07 0.09 0.16 0.25 0.38 0.52 0.59 0.59 0.58 0.56 0.44 0.38 0.30 0.26 0.25 0.16 0.07 0.07 0.13 0.12 0.13
0.20 0.16 0.12 0.11 0.15 0.11 0.06 0.16 0.28 0.25 0.15 0.32 0.36 0.19 0.11 0.08 0.09 0.09 0.08 0.05 0.04 0.04 0.05 0.07 0.11 0.18 0.21 0.26 0.37 0.47 0.54 0.57 0.53 0.46 0.38 0.35 0.35 0.27 0.15 0.11 0.10 0.07 0.10
0.11 0.08 0.06 0.04 0.04 0.05 0.03 0.06 0.17 0.21 0.17 0.25 0.28 0.21 0.09 0.05 0.04 0.03 0.04 0.04 0.02 0.04 0.04 0.08 0.14 0.20 0.25 0.28 0.37 0.42 0.56 0.61 0.64 0.63 0.57 0.51 0.46 0.36 0.27 0.23 0.17 0.11 0.09
0.07 0.05 0.04 0.02 0.01 0.02 0.02 0.04 0.10 0.14 0.15 0.14 0.19 0.24 0.11 0.03 0.04 0.03 0.03 0.05 0.06 0.06 0.09 0.15 0.23 0.32 0.41 0.49 0.49 0.45 0.45 0.51 0.66 0.77 0.77 0.61 0.41 0.32 0.31 0.35 0.32 0.22 0.15
0.08 0.06 0.04 0.02 0.02 0.02 0.03 0.03 0.05 0.10 0.12 0.09 0.08 0.11 0.13 0.13 0.10 0.04 0.03 0.03 0.05 0.08 0.14 0.20 0.30 0.39 0.45 0.57 0.62 0.55 0.45 0.46 0.58 0.69 0.71 0.65 0.49 0.35 0.35 0.45 0.53 0.46 0.30
0.16 0.13 0.10 0.07 0.05 0.04 0.05 0.06 0.07 0.09 0.11 0.11 0.12 0.13 0.17 0.21 0.19 0.13 0.05 0.03 0.07 0.10 0.18 0.29 0.38 0.42 0.45 0.60 0.80 0.76 0.73 0.61 0.54 0.54 0.55 0.58 0.60 0.59 0.57 0.61 0.74 0.79 0.70
0.22 0.21 0.18 0.16 0.13 0.11 0.09 0.07 0.07 0.08 0.12 0.16 0.18 0.18 0.20 0.18 0.16 0.19 0.14 0.10 0.12 0.14 0.28 0.44 0.49 0.54 0.54 0.67 0.77 0.76 0.67 0.55 0.44 0.38 0.38 0.39 0.40 0.43 0.47 0.56 0.73 0.90 1.02
0.19 0.21 0.21 0.19 0.19 0.18 0.16 0.11 0.08 0.07 0.10 0.13 0.15 0.17 0.20 0.23 0.27 0.30 0.30 0.25 0.27 0.28 0.38 0.50 0.60 0.63 0.62 0.68 0.67 0.63 0.48 0.34 0.24 0.19 0.20 0.23 0.26 0.33 0.43 0.50 0.56 0.65 0.77
0.19 0.19 0.19 0.18 0.18 0.20 0.21 0.19 0.14 0.12 0.12 0.11 0.10 0.16 0.19 0.23 0.35 0.38 0.40 0.46 0.40 0.39 0.49 0.58 0.67 0.71 0.80 0.78 0.68 0.55 0.39 0.27 0.16 0.12 0.11 0.12 0.13 0.15 0.21 0.32 0.46 0.59 0.69
0.20 0.20 0.20 0.19 0.20 0.20 0.21 0.22 0.18 0.15 0.14 0.11 0.14 0.21 0.24 0.29 0.38 0.40 0.44 0.51 0.51 0.46 0.55 0.62 0.53 0.51 0.61 0.59 0.50 0.37 0.23 0.18 0.14 0.09 0.08 0.08 0.08 0.08 0.09 0.10 0.12 0.16 0.22
0.18 0.19 0.19 0.18 0.18 0.19 0.20 0.20 0.19 0.19 0.18 0.18 0.22 0.26 0.29 0.33 0.38 0.37 0.44 0.51 0.52 0.54 0.60 0.57 0.45 0.42 0.43 0.35 0.28 0.20 0.13 0.11 0.08 0.08 0.06 0.06 0.05 0.05 0.06 0.07 0.07 0.06 0.07
0.12 0.12 0.14 0.16 0.17 0.19 0.22 0.26 0.28 0.28 0.30 0.30 0.31 0.33 0.37 0.40 0.41 0.39 0.47 0.49 0.47 0.54 0.51 0.41 0.40 0.40 0.36 0.28 0.18 0.13 0.09 0.06 0.05 0.06 0.06 0.06 0.05 0.03 0.03 0.03 0.04 0.04 0.04
0.11 0.11 0.11 0.12 0.13 0.13 0.19 0.28 0.38 0.38 0.36 0.35 0.42 0.50 0.50 0.52 0.45 0.40 0.45 0.44 0.43 0.56 0.56 0.39 0.35 0.33 0.34 0.27 0.20 0.16 0.10 0.06 0.03 0.05 0.05 0.05 0.04 0.03 0.01 0.01 0.01 0.01 0.01
0.10 0.10 0.11 0.10 0.10 0.09 0.11 0.19 0.31 0.36 0.42 0.51 0.60 0.57 0.51 0.52 0.46 0.41 0.41 0.39 0.41 0.55 0.54 0.41 0.35 0.36 0.36 0.27 0.21 0.16 0.11 0.07 0.04 0.04 0.03 0.03 0.03 0.03 0.02 0.01 0.00 0.00 0.00
0.07 0.09 0.11 0.11 0.11 0.09 0.09 0.15 0.22 0.29 0.41 0.58 0.61 0.49 0.47 0.49 0.44 0.36 0.32 0.29 0.31 0.36 0.36 0.37 0.37 0.40 0.38 0.33 0.26 0.19 0.14 0.08 0.05 0.02 0.02 0.01 0.01 0.01 0.01 0.00 0.00 0.00 0.00
0.05 0.08 0.10 0.10 0.10 0.09 0.08 0.15 0.22 0.19 0.22 0.30 0.33 0.29 0.31 0.39 0.43 0.36 0.26 0.23 0.24 0.24 0.26 0.28 0.30 0.33 0.38 0.38 0.30 0.20 0.15 0.11 0.06 0.03 0.02 0.01 0.01 0.01 0.00 0.00 0.00 0.00 0.00
0.06 0.09 0.12 0.12 0.12 0.10 0.10 0.11 0.13 0.14 0.14 0.14 0.15 0.18 0.17 0.18 0.22 0.28 0.27 0.24 0.24 0.23 0.24 0.27 0.30 0.30 0.29 0.29 0.23 0.15 0.11 0.09 0.08 0.06 0.05 0.04 0.03 0.02 0.00 0.00 0.00 0.00 0.00
0.06 0.10 0.13 0.14 0.15 0.15 0.13 0.08 0.07 0.08 0.09 0.08 0.09 0.10 0.11 0.11 0.12 0.13 0.16 0.15 0.15 0.16 0.18 0.23 0.28 0.28 0.26 0.23 0.18 0.15 0.12 0.10 0.07 0.06 0.05 0.05 0.02 0.01 0.00 0.00 0.00 0.00 0.00
0.08 0.11 0.14 0.17 0.19 0.19 0.16 0.11 0.10 0.08 0.08 0.09 0.09 0.08 0.08 0.08 0.09 0.09 0.09 0.08 0.08 0.09 0.10 0.13 0.18 0.20 0.21 0.19 0.16 0.14 0.12 0.11 0.07 0.05 0.03 0.04 0.02 0.02 0.02 0.01 0.00 0.00 0.00
0.15 0.14 0.15 0.18 0.20 0.22 0.20 0.14 0.13 0.10 0.10 0.11 0.11 0.11 0.10 0.08 0.08 0.09 0.08 0.05 0.04 0.07 0.09 0.11 0.14 0.17 0.20 0.18 0.14 0.11 0.10 0.08 0.07 0.05 0.03 0.02 0.02 0.04 0.05 0.03 0.00 0.00 0.00
0.21 0.19 0.17 0.18 0.22 0.25 0.24 0.18 0.15 0.12 0.14 0.15 0.16 0.16 0.16 0.12 0.10 0.09 0.09 0.07 0.03 0.03 0.05 0.07 0.11 0.16 0.15 0.15 0.14 0.10 0.08 0.06 0.04 0.03 0.02 0.01 0.02 0.02 0.04 0.02 0.01 0.00 0.00

GEFSMA_prec_meanprecacc_036.txt.gz
Total_Precipitation_Accumulation
0.73 0.80 0.65 0.60 0.53 0.77 1.01 1.11 1.08 1.19 1.33 1.28 1.01 0.87 0.87 0.78 0.66 0.65 0.66 0.73 0.85 0.79 0.82 0.81 0.67 0.66 0.68 0.61 0.59 0.57 0.51 0.46 0.37 0.29 0.27 0.28 0.25 0.16 0.10 0.10 0.11 0.14 0.12
1.06 1.06 0.98 0.92 0.76 0.90 1.14 1.29 1.23 1.35 1.29 1.28 0.92 0.76 0.77 0.80 0.70 0.62 0.54 0.55 0.63 0.65 0.60 0.67 0.73 0.74 0.72 0.66 0.61 0.55 0.50 0.46 0.41 0.32 0.25 0.22 0.22 0.22 0.20 0.16 0.16 0.17 0.15
1.50 1.63 1.47 1.12 0.95 1.09 1.20 1.15 1.11 1.34 1.11 1.05 0.89 0.90 0.84 0.72 0.66 0.60 0.56 0.50 0.44 0.48 0.43 0.46 0.59 0.67 0.70 0.71 0.72 0.63 0.55 0.45 0.39 0.32 0.26 0.21 0.17 0.16 0.21 0.23 0.24 0.25 0.21
1.47 1.58 1.28 0.93 0.96 1.18 1.25 1.14 1.09 1.27 1.20 1.09 0.98 0.92 0.82 0.66 0.54 0.49 0.45 0.37 0.30 0.20 0.20 0.32 0.47 0.57 0.72 0.78 0.82 0.85 0.74 0.52 0.38 0.30 0.24 0.21 0.16 0.11 0.10 0.16 0.22 0.29 0.24
0.93 0.99 0.78 0.66 0.78 0.89 0.78 0.64 0.76 0.95 0.97 0.97 0.91 0.68 0.56 0.45 0.34 0.30 0.24 0.19 0.21 0.19 0.16 0.19 0.30 0.44 0.60 0.84 0.90 0.90 0.87 0.66 0.45 0.36 0.31 0.27 0.22 0.13 0.06 0.09 0.18 0.25 0.24
0.63 0.64 0.53 0.43 0.47 0.43 0.34 0.42 0.56 0.65 0.55 0.59 0.58 0.39 0.32 0.27 0.24 0.21 0.15 0.11 0.11 0.11 0.09 0.12 0.19 0.27 0.39 0.57 0.68 0.70 0.72 0.69 0.53 0.46 0.40 0.37 0.37 0.25 0.12 0.10 0.15 0.16 0.18
0.53 0.47 0.37 0.31 0.30 0.24 0.17 0.24 0.33 0.29 0.18 0.35 0.39 0.23 0.15 0.11 0.12 0.12 0.10 0.07 0.05 0.05 0.05 0.08 0.12 0.20 0.23 0.27 0.39 0.50 0.60 0.65 0.62 0.53 0.45 0.43 0.44 0.36 0.22 0.16 0.13 0.09 0.12
0.48 0.44 0.35 0.27 0.21 0.17 0.13 0.12 0.22 0.24 0.19 0.27 0.29 0.22 0.10 0.06 0.05 0.03 0.04 0.04 0.03 0.04 0.04 0.08 0.14 0.21 0.26 0.30 0.38 0.43 0.59 0.65 0.71 0.71 0.64 0.58 0.52 0.42 0.33 0.28 0.21 0.14 0.12
0.30 0.29 0.26 0.20 0.17 0.15 0.12 0.13 0.16 0.18 0.17 0.15 0.20 0.24 0.11 0.04 0.04 0.03 0.03 0.06 0.07 0.07 0.09 0.16 0.23 0.32 0.42 0.50 0.50 0.46 0.46 0.53 0.70 0.84 0.85 0.69 0.48 0.37 0.36 0.40 0.37 0.26 0.18
0.22 0.22 0.20 0.17 0.15 0.14 0.13 0.11 0.12 0.17 0.16 0.10 0.09 0.12 0.14 0.13 0.10 0.04 0.03 0.03 0.05 0.08 0.14 0.20 0.30 0.39 0.45 0.57 0.63 0.56 0.45 0.46 0.60 0.73 0.77 0.72 0.54 0.39 0.38 0.49 0.58 0.51 0.34
0.23 0.22 0.21 0.18 0.17 0.15 0.14 0.14 0.14 0.16 0.18 0.15 0.13 0.14 0.17 0.21 0.19 0.13 0.05 0.03 0.07 0.10 0.18 0.29 0.38 0.43 0.46 0.60 0.81 0.76 0.73 0.61 0.54 0.55 0.58 0.63 0.66 0.63 0.60 0.64 0.79 0.87 0.77
0.25 0.25 0.25 0.25 0.24 0.22 0.20 0.17 0.15 0.15 0.18 0.22 0.22 0.20 0.21 0.19 0.16 0.19 0.14 0.10 0.12 0.14 0.28 0.44 0.49 0.54 0.54 0.68 0.77 0.77 0.68 0.56 0.44 0.38 0.39 0.41 0.44 0.48 0.51 0.61 0.80 0.99 1.12
0.20 0.22 0.23 0.24 0.26 0.28 0.28 0.23 0.20 0.17 0.18 0.21 0.21 0.21 0.21 0.23 0.27 0.30 0.30 0.25 0.27 0.28 0.38 0.50 0.60 0.63 0.62 0.68 0.67 0.63 0.49 0.35 0.25 0.21 0.23 0.26 0.29 0.37 0.47 0.56 0.65 0.77 0.90
0.19 0.20 0.20 0.19 0.21 0.25 0.30 0.32 0.29 0.27 0.24 0.20 0.17 0.23 0.24 0.25 0.36 0.38 0.40 0.46 0.40 0.39 0.49 0.58 0.67 0.71 0.80 0.78 0.68 0.55 0.40 0.28 0.18 0.15 0.14 0.14 0.16 0.19 0.27 0.39 0.53 0.68 0.80
0.20 0.20 0.20 0.20 0.20 0.22 0.26 0.30 0.30 0.32 0.33 0.29 0.27 0.30 0.32 0.33 0.40 0.41 0.45 0.51 0.52 0.46 0.55 0.63 0.53 0.52 0.61 0.59 0.50 0.38 0.24 0.19 0.15 0.11 0.10 0.10 0.10 0.11 0.13 0.16 0.20 0.24 0.31
0.18 0.19 0.19 0.18 0.18 0.19 0.21 0.23 0.26 0.33 0.39 0.42 0.46 0.45 0.42 0.41 0.44 0.40 0.46 0.51 0.52 0.55 0.60 0.58 0.46 0.43 0.44 0.35 0.28 0.21 0.13 0.12 0.10 0.09 0.08 0.08 0.08 0.09 0.10 0.12 0.12 0.14 0.17
0.12 0.12 0.14 0.16 0.17 0.19 0.23 0.27 0.31 0.35 0.45 0.57 0.64 0.65 0.63 0.57 0.53 0.47 0.51 0.51 0.47 0.55 0.52 0.42 0.41 0.41 0.37 0.29 0.18 0.14 0.09 0.07 0.07 0.08 0.09 0.10 0.09 0.08 0.08 0.09 0.10 0.12 0.12
0.11 0.11 0.11 0.12 0.13 0.13 0.19 0.28 0.39 0.41 0.43 0.51 0.73 0.93 0.92 0.86 0.70 0.57 0.55 0.50 0.46 0.58 0.56 0.40 0.36 0.35 0.35 0.29 0.21 0.16 0.10 0.06 0.04 0.06 0.07 0.08 0.08 0.07 0.05 0.06 0.06 0.07 0.07
0.10 0.11 0.11 0.11 0.10 0.09 0.11 0.19 0.32 0.36 0.45 0.59 0.75 0.87 0.97 1.03 0.87 0.71 0.61 0.51 0.48 0.59 0.56 0.43 0.38 0.38 0.38 0.29 0.22 0.17 0.11 0.07 0.04 0.05 0.05 0.05 0.05 0.06 0.05 0.04 0.04 0.04 0.04
0.07 0.10 0.11 0.11 0.11 0.09 0.09 0.15 0.23 0.29 0.42 0.60 0.66 0.61 0.72 0.95 0.99 0.84 0.66 0.53 0.48 0.47 0.42 0.41 0.41 0.43 0.41 0.35 0.27 0.20 0.15 0.09 0.05 0.03 0.03 0.02 0.02 0.03 0.03 0.03 0.03 0.03 0.04
0.06 0.09 0.11 0.12 0.11 0.09 0.09 0.16 0.23 0.20 0.23 0.31 0.35 0.34 0.40 0.59 0.85 0.95 0.81 0.63 0.50 0.41 0.37 0.36 0.36 0.38 0.41 0.40 0.31 0.21 0.16 0.11 0.07 0.04 0.02 0.02 0.02 0.01 0.01 0.01 0.01 0.01 0.01
0.08 0.12 0.15 0.15 0.14 0.10 0.10 0.12 0.14 0.15 0.15 0.16 0.17 0.20 0.22 0.26 0.39 0.61 0.76 0.77 0.69 0.52 0.40 0.37 0.38 0.36 0.33 0.32 0.24 0.16 0.12 0.09 0.09 0.07 0.05 0.05 0.04 0.02 0.00 0.00 0.00 0.00 0.00
0.11 0.15 0.19 0.20 0.20 0.19 0.14 0.09 0.07 0.10 0.12 0.12 0.12 0.13 0.13 0.15 0.21 0.28 0.41 0.50 0.55 0.51 0.43 0.39 0.38 0.36 0.32 0.27 0.20 0.16 0.13 0.10 0.07 0.06 0.06 0.06 0.03 0.02 0.01 0.00 0.00 0.00 0.00
0.16 0.19 0.22 0.24 0.27 0.26 0.19 0.12 0.10 0.09 0.13 0.14 0.14 0.12 0.11 0.11 0.13 0.19 0.25 0.29 0.33 0.34 0.31 0.28 0.29 0.31 0.31 0.27 0.21 0.17 0.14 0.12 0.09 0.07 0.05 0.05 0.04 0.03 0.02 0.01 0.00 0.00 0.00
0.23 0.23 0.25 0.28 0.30 0.32 0.25 0.17 0.14 0.13 0.16 0.17 0.17 0.15 0.14 0.12 0.10 0.11 0.16 0.21 0.24 0.25 0.26 0.25 0.25 0.29 0.31 0.26 0.21 0.15 0.12 0.10 0.10 0.08 0.04 0.04 0.04 0.05 0.06 0.03 0.01 0.00 0.00
0.31 0.29 0.27 0.29 0.33 0.37 0.32 0.21 0.17 0.17 0.20 0.21 0.23 0.22 0.17 0.14 0.12 0.10 0.12 0.15 0.17 0.20 0.21 0.20 0.21 0.23 0.23 0.21 0.19 0.14 0.10 0.08 0.07 0.07 0.04 0.02 0.03 0.03 0.05 0.03 0.01 0.00 0.00

GEFSMA_prec_meanprecacc_042.txt.gz
Total_Precipitation_Accumulation
0.95 1.04 0.88 0.81 0.69 0.92 1.21 1.30 1.24 1.39 1.52 1.47 1.19 1.02 1.00 0.87 0.72 0.71 0.82 0.91 0.98 0.87 0.86 0.83 0.68 0.68 0.70 0.64 0.63 0.63 0.60 0.58 0.53 0.44 0.39 0.35 0.30 0.20 0.12 0.11 0.12 0.14 0.12
1.31 1.36 1.30 1.20 0.97 1.07 1.33 1.57 1.51 1.63 1.55 1.54 1.11 0.92 0.91 0.96 0.83 0.72 0.71 0.83 0.84 0.76 0.66 0.71 0.76 0.76 0.74 0.68 0.64 0.59 0.56 0.54 0.51 0.45 0.39 0.34 0.31 0.27 0.23 0.18 0.17 0.17 0.15
1.73 1.91 1.78 1.42 1.23 1.36 1.50 1.48 1.47 1.73 1.47 1.37 1.19 1.19 1.11 0.99 0.87 0.76 0.73 0.75 0.67 0.63 0.52 0.52 0.64 0.71 0.75 0.76 0.75 0.66 0.59 0.50 0.45 0.39 0.35 0.31 0.26 0.23 0.27 0.27 0.26 0.26 0.21
1.64 1.82 1.55 1.22 1.35 1.60 1.67 1.54 1.49 1.71 1.60 1.49 1.38 1.25 1.14 0.96 0.79 0.76 0.71 0.61 0.54 0.39 0.36 0.41 0.54 0.64 0.78 0.83 0.86 0.90 0.79 0.57 0.42 0.35 0.30 0.29 0.25 0.17 0.15 0.20 0.26 0.30 0.25
1.06 1.17 1.00 0.94 1.16 1.40 1.36 1.15 1.21 1.41 1.41 1.37 1.24 0.95 0.78 0.64 0.54 0.54 0.51 0.44 0.47 0.42 0.40 0.37 0.41 0.51 0.67 0.89 0.96 0.97 0.93 0.71 0.49 0.41 0.37 0.34 0.31 0.22 0.13 0.13 0.22 0.28 0.26
0.75 0.83 0.81 0.78 0.86 0.89 0.89 1.01 1.10 1.16 0.98 0.98 0.87 0.63 0.54 0.42 0.38 0.36 0.28 0.25 0.27 0.26 0.24 0.28 0.35 0.34 0.44 0.61 0.74 0.78 0.80 0.75 0.58 0.51 0.46 0.45 0.46 0.34 0.20 0.16 0.20 0.20 0.20
0.64 0.64 0.61 0.62 0.68 0.66 0.64 0.75 0.81 0.73 0.52 0.64 0.65 0.43 0.29 0.22 0.21 0.19 0.17 0.14 0.13 0.12 0.11 0.19 0.24 0.26 0.28 0.30 0.43 0.55 0.67 0.72 0.68 0.59 0.51 0.50 0.52 0.44 0.30 0.23 0.19 0.13 0.15
0.54 0.53 0.50 0.48 0.48 0.50 0.51 0.51 0.58 0.56 0.46 0.52 0.52 0.40 0.23 0.17 0.12 0.06 0.07 0.08 0.07 0.09 0.09 0.13 0.18 0.27 0.31 0.36 0.41 0.45 0.62 0.70 0.78 0.79 0.69 0.63 0.58 0.48 0.38 0.34 0.27 0.19 0.15
0.33 0.33 0.32 0.32 0.33 0.37 0.40 0.44 0.48 0.48 0.41 0.36 0.39 0.40 0.21 0.11 0.10 0.07 0.06 0.07 0.08 0.09 0.12 0.18 0.25 0.34 0.44 0.52 0.54 0.49 0.47 0.55 0.74 0.91 0.93 0.75 0.52 0.40 0.39 0.43 0.41 0.30 0.22
0.23 0.23 0.21 0.21 0.21 0.24 0.31 0.33 0.40 0.48 0.45 0.32 0.28 0.27 0.23 0.20 0.18 0.12 0.09 0.05 0.07 0.09 0.15 0.21 0.30 0.41 0.47 0.59 0.66 0.57 0.47 0.47 0.63 0.78 0.85 0.80 0.60 0.42 0.40 0.51 0.62 0.55 0.38
0.23 0.23 0.22 0.20 0.20 0.20 0.22 0.27 0.33 0.42 0.47 0.40 0.33 0.32 0.33 0.30 0.23 0.19 0.12 0.08 0.11 0.11 0.19 0.30 0.39 0.44 0.47 0.62 0.83 0.78 0.74 0.61 0.55 0.58 0.63 0.69 0.72 0.69 0.65 0.69 0.86 0.93 0.83
0.25 0.25 0.25 0.26 0.26 0.25 0.25 0.24 0.25 0.30 0.41 0.48 0.47 0.43 0.42 0.35 0.24 0.23 0.17 0.13 0.16 0.15 0.29 0.45 0.50 0.55 0.56 0.71 0.79 0.78 0.68 0.56 0.44 0.39 0.41 0.44 0.48 0.53 0.57 0.68 0.90 1.10 1.24
0.20 0.22 0.23 0.24 0.27 0.29 0.29 0.27 0.26 0.26 0.33 0.41 0.44 0.46 0.43 0.40 0.39 0.37 0.34 0.27 0.28 0.29 0.39 0.51 0.61 0.64 0.63 0.71 0.69 0.64 0.49 0.35 0.25 0.22 0.23 0.27 0.30 0.39 0.51 0.63 0.75 0.90 1.07
0.19 0.20 0.20 0.19 0.21 0.26 0.30 0.33 0.31 0.31 0.33 0.34 0.35 0.47 0.51 0.44 0.48 0.48 0.48 0.52 0.44 0.43 0.53 0.60 0.68 0.72 0.82 0.81 0.69 0.55 0.40 0.28 0.18 0.15 0.14 0.15 0.17 0.20 0.28 0.42 0.58 0.75 0.89
0.21 0.20 0.20 0.20 0.20 0.22 0.26 0.30 0.31 0.33 0.35 0.36 0.38 0.47 0.54 0.60 0.60 0.54 0.56 0.58 0.58 0.53 0.62 0.68 0.57 0.55 0.64 0.61 0.50 0.40 0.26 0.19 0.15 0.11 0.10 0.10 0.11 0.12 0.15 0.19 0.22 0.28 0.35
0.18 0.19 0.19 0.18 0.18 0.20 0.21 0.24 0.26 0.33 0.39 0.44 0.51 0.56 0.58 0.63 0.71 0.62 0.61 0.60 0.59 0.61 0.67 0.64 0.51 0.48 0.46 0.36 0.28 0.23 0.14 0.12 0.10 0.09 0.08 0.08 0.09 0.09 0.11 0.13 0.14 0.17 0.20
0.12 0.13 0.14 0.16 0.17 0.20 0.23 0.28 0.31 0.35 0.46 0.58 0.66 0.70 0.73 0.74 0.76 0.74 0.77 0.71 0.61 0.64 0.61 0.51 0.52 0.51 0.42 0.31 0.19 0.15 0.10 0.08 0.07 0.08 0.09 0.10 0.09 0.08 0.09 0.10 0.12 0.13 0.14
0.11 0.11 0.12 0.13 0.13 0.13 0.19 0.28 0.39 0.41 0.44 0.52 0.74 0.96 0.98 0.98 0.88 0.80 0.87 0.81 0.71 0.77 0.70 0.57 0.58 0.52 0.46 0.36 0.25 0.19 0.11 0.07 0.04 0.07 0.07 0.08 0.08 0.07 0.06 0.06 0.07 0.08 0.08
0.11 0.11 0.12 0.12 0.11 0.10 0.12 0.20 0.32 0.37 0.46 0.59 0.76 0.88 1.01 1.12 1.01 0.91 0.88 0.86 0.84 0.88 0.78 0.63 0.62 0.62 0.55 0.39 0.28 0.18 0.12 0.08 0.04 0.05 0.05 0.05 0.06 0.06 0.05 0.05 0.04 0.04 0.04
0.09 0.11 0.13 0.13 0.13 0.11 0.11 0.16 0.24 0.31 0.43 0.62 0.67 0.62 0.73 0.99 1.09 1.00 0.89 0.83 0.84 0.85 0.76 0.70 0.69 0.70 0.61 0.49 0.34 0.22 0.16 0.09 0.05 0.03 0.03 0.03 0.03 0.03 0.03 0.03 0.03 0.04 0.05
0.08 0.11 0.14 0.15 0.14 0.12 0.10 0.17 0.25 0.21 0.26 0.34 0.37 0.36 0.42 0.61 0.89 1.05 1.00 0.89 0.85 0.79 0.74 0.72 0.72 0.68 0.61 0.55 0.39 0.25 0.17 0.12 0.07 0.04 0.03 0.02 0.02 0.01 0.01 0.01 0.01 0.01 0.02
0.11 0.16 0.19 0.19 0.19 0.13 0.11 0.13 0.15 0.17 0.19 0.22 0.23 0.25 0.25 0.28 0.40 0.64 0.85 0.96 0.99 0.90 0.79 0.74 0.77 0.71 0.58 0.51 0.39 0.23 0.14 0.10 0.10 0.08 0.06 0.06 0.04 0.02 0.01 0.00 0.00 0.00 0.01
0.16 0.21 0.24 0.26 0.27 0.26 0.18 0.12 0.09 0.12 0.16 0.19 0.22 0.23 0.18 0.16 0.23 0.30 0.44 0.59 0.75 0.81 0.80 0.78 0.76 0.75 0.67 0.58 0.46 0.29 0.17 0.11 0.08 0.07 0.06 0.07 0.03 0.02 0.01 0.00 0.00 0.00 0.00
0.22 0.26 0.29 0.31 0.36 0.35 0.25 0.17 0.13 0.11 0.16 0.20 0.23 0.23 0.20 0.18 0.19 0.24 0.30 0.34 0.42 0.51 0.55 0.58 0.64 0.69 0.70 0.65 0.55 0.42 0.26 0.15 0.10 0.07 0.05 0.06 0.04 0.03 0.02 0.01 0.00 0.00 0.00
0.30 0.31 0.32 0.37 0.40 0.43 0.33 0.21 0.17 0.19 0.23 0.23 0.23 0.23 0.23 0.22 0.19 0.16 0.23 0.28 0.31 0.36 0.43 0.49 0.53 0.60 0.66 0.65 0.59 0.44 0.27 0.14 0.10 0.08 0.04 0.04 0.04 0.05 0.06 0.03 0.01 0.00 0.00
0.39 0.38 0.36 0.40 0.44 0.50 0.43 0.25 0.20 0.24 0.31 0.31 0.34 0.32 0.25 0.24 0.22 0.14 0.17 0.22 0.25 0.29 0.33 0.36 0.42 0.47 0.46 0.48 0.53 0.41 0.26 0.13 0.08 0.07 0.04 0.02 0.03 0.03 0.05 0.03 0.01 0.00 0.00

GEFSMA_prec_meanprecacc_048.txt.gz
Total_Precipitation_Accumulation
1.01 1.10 0.93 0.87 0.79 1.09 1.43 1.59 1.56 1.70 1.79 1.73 1.42 1.21 1.13 0.97 0.81 0.81 0.92 1.06 1.17 1.08 1.06 1.00 0.81 0.77 0.75 0.67 0.65 0.66 0.64 0.63 0.56 0.46 0.40 0.36 0.30 0.20 0.12 0.11 0.12 0.14 0.12
1.34 1.39 1.33 1.24 1.04 1.18 1.49 1.82 1.86 2.01 1.91 1.89 1.43 1.19 1.13 1.12 0.97 0.86 0.85 0.99 1.05 0.99 0.89 0.92 0.93 0.88 0.82 0.73 0.67 0.61 0.58 0.58 0.56 0.48 0.40 0.35 0.31 0.28 0.24 0.19 0.17 0.18 0.15
1.76 1.93 1.80 1.45 1.27 1.44 1.61 1.66 1.77 2.19 1.98 1.87 1.63 1.57 1.46 1.27 1.10 0.96 0.92 0.93 0.87 0.86 0.74 0.72 0.81 0.85 0.85 0.82 0.79 0.69 0.61 0.53 0.47 0.41 0.37 0.34 0.28 0.24 0.27 0.27 0.26 0.26 0.21
1.66 1.83 1.56 1.24 1.38 1.64 1.76 1.66 1.68 2.02 2.03 1.99 1.91 1.75 1.57 1.33 1.11 1.03 0.97 0.85 0.75 0.57 0.54 0.61 0.71 0.77 0.88 0.90 0.91 0.94 0.82 0.59 0.44 0.36 0.32 0.31 0.28 0.20 0.16 0.20 0.26 0.31 0.25
1.06 1.18 1.01 0.94 1.17 1.42 1.41 1.24 1.35 1.61 1.69 1.73 1.67 1.42 1.20 0.98 0.82 0.80 0.76 0.66 0.67 0.59 0.55 0.52 0.60 0.67 0.80 0.98 1.04 1.05 1.00 0.76 0.52 0.43 0.39 0.36 0.34 0.25 0.16 0.15 0.23 0.28 0.26
0.75 0.83 0.82 0.78 0.86 0.90 0.91 1.06 1.19 1.33 1.22 1.28 1.20 0.98 0.91 0.76 0.67 0.62 0.49 0.44 0.46 0.42 0.39 0.46 0.49 0.46 0.57 0.73 0.85 0.90 0.91 0.84 0.63 0.54 0.49 0.47 0.50 0.38 0.22 0.19 0.22 0.21 0.21
0.64 0.64 0.61 0.62 0.68 0.67 0.66 0.80 0.92 0.92 0.75 0.90 0.96 0.75 0.59 0.50 0.46 0.42 0.34 0.29 0.26 0.25 0.26 0.34 0.37 0.35 0.34 0.36 0.50 0.66 0.79 0.83 0.77 0.64 0.55 0.54 0.57 0.47 0.31 0.25 0.21 0.15 0.17
0.54 0.53 0.50 0.48 0.48 0.51 0.52 0.57 0.68 0.68 0.60 0.71 0.79 0.71 0.50 0.41 0.34 0.23 0.21 0.17 0.14 0.18 0.21 0.27 0.35 0.40 0.39 0.40 0.43 0.49 0.68 0.80 0.89 0.87 0.75 0.66 0.63 0.51 0.40 0.36 0.29 0.21 0.18
0.33 0.33 0.32 0.32 0.34 0.38 0.41 0.47 0.54 0.56 0.50 0.49 0.58 0.65 0.46 0.31 0.27 0.23 0.20 0.18 0.17 0.17 0.19 0.29 0.37 0.45 0.53 0.59 0.58 0.51 0.51 0.61 0.84 1.01 1.01 0.80 0.55 0.42 0.40 0.45 0.44 0.33 0.24
0.23 0.23 0.21 0.21 0.21 0.25 0.31 0.34 0.42 0.52 0.50 0.41 0.43 0.50 0.47 0.39 0.31 0.25 0.24 0.20 0.21 0.19 0.22 0.28 0.38 0.48 0.54 0.66 0.71 0.60 0.48 0.50 0.70 0.89 0.95 0.89 0.64 0.44 0.41 0.53 0.65 0.59 0.40
0.23 0.23 0.22 0.20 0.20 0.20 0.23 0.27 0.34 0.43 0.50 0.45 0.41 0.47 0.53 0.48 0.36 0.29 0.23 0.23 0.27 0.21 0.25 0.35 0.44 0.51 0.54 0.68 0.88 0.82 0.76 0.63 0.59 0.64 0.71 0.77 0.78 0.71 0.66 0.71 0.89 0.99 0.87
0.25 0.25 0.25 0.26 0.26 0.25 0.25 0.25 0.26 0.31 0.42 0.50 0.50 0.50 0.53 0.51 0.38 0.32 0.25 0.22 0.27 0.23 0.35 0.50 0.54 0.58 0.60 0.76 0.83 0.81 0.71 0.58 0.47 0.41 0.44 0.48 0.53 0.57 0.59 0.71 0.94 1.17 1.31
0.20 0.22 0.23 0.24 0.27 0.29 0.29 0.27 0.27 0.27 0.34 0.43 0.46 0.50 0.50 0.49 0.52 0.50 0.43 0.35 0.36 0.37 0.48 0.57 0.64 0.66 0.65 0.75 0.75 0.68 0.53 0.38 0.27 0.23 0.25 0.29 0.33 0.42 0.53 0.65 0.79 0.97 1.17
0.19 0.20 0.20 0.19 0.21 0.26 0.31 0.33 0.31 0.31 0.34 0.36 0.37 0.50 0.55 0.50 0.59 0.62 0.63 0.64 0.55 0.54 0.66 0.70 0.75 0.76 0.84 0.83 0.73 0.60 0.44 0.31 0.21 0.17 0.15 0.16 0.18 0.21 0.30 0.43 0.60 0.78 0.95
0.21 0.20 0.20 0.20 0.20 0.22 0.26 0.30 0.31 0.33 0.36 0.36 0.40 0.49 0.57 0.64 0.67 0.63 0.72 0.77 0.75 0.67 0.73 0.79 0.68 0.63 0.68 0.64 0.53 0.43 0.29 0.23 0.18 0.13 0.11 0.11 0.11 0.12 0.16 0.19 0.23 0.29 0.37
0.18 0.19 0.19 0.18 0.18 0.20 0.21 0.24 0.26 0.33 0.39 0.45 0.51 0.56 0.59 0.66 0.75 0.68 0.73 0.78 0.77 0.78 0.81 0.74 0.63 0.61 0.57 0.42 0.32 0.26 0.17 0.15 0.12 0.10 0.09 0.09 0.10 0.10 0.11 0.14 0.15 0.17 0.20
0.12 0.13 0.15 0.16 0.18 0.20 0.23 0.28 0.31 0.36 0.46 0.58 0.67 0.70 0.73 0.75 0.78 0.77 0.83 0.84 0.76 0.81 0.77 0.63 0.67 0.71 0.59 0.40 0.24 0.18 0.12 0.10 0.08 0.09 0.10 0.10 0.10 0.09 0.09 0.11 0.12 0.14 0.15
0.11 0.11 0.12 0.13 0.13 0.14 0.19 0.29 0.40 0.41 0.44 0.52 0.74 0.96 0.98 0.98 0.89 0.82 0.90 0.88 0.84 0.94 0.87 0.73 0.80 0.78 0.71 0.53 0.35 0.23 0.12 0.07 0.04 0.07 0.08 0.09 0.09 0.07 0.06 0.06 0.07 0.08 0.08
0.11 0.11 0.12 0.12 0.11 0.10 0.12 0.20 0.33 0.38 0.46 0.60 0.76 0.89 1.01 1.12 1.02 0.92 0.89 0.90 0.93 1.01 0.96 0.84 0.84 0.93 0.90 0.67 0.43 0.24 0.13 0.08 0.04 0.05 0.05 0.05 0.06 0.06 0.06 0.05 0.04 0.04 0.04
0.09 0.11 0.13 0.13 0.13 0.11 0.11 0.16 0.24 0.31 0.44 0.62 0.68 0.62 0.74 0.99 1.09 1.01 0.90 0.85 0.90 0.94 0.93 0.93 0.97 1.05 1.01 0.86 0.58 0.31 0.18 0.10 0.05 0.03 0.04 0.03 0.04 0.04 0.04 0.04 0.04 0.05 0.05
0.08 0.11 0.14 0.15 0.14 0.12 0.10 0.17 0.26 0.22 0.26 0.35 0.38 0.36 0.42 0.61 0.89 1.05 1.01 0.90 0.88 0.85 0.86 0.93 1.00 1.05 0.98 0.89 0.68 0.41 0.23 0.13 0.08 0.04 0.03 0.02 0.02 0.02 0.01 0.02 0.02 0.02 0.02
0.11 0.16 0.19 0.19 0.19 0.13 0.11 0.13 0.15 0.17 0.20 0.23 0.24 0.26 0.26 0.29 0.42 0.65 0.86 0.97 1.01 0.93 0.86 0.89 1.01 1.03 0.92 0.80 0.67 0.46 0.25 0.13 0.10 0.09 0.06 0.06 0.04 0.03 0.01 0.00 0.01 0.01 0.01
0.16 0.21 0.24 0.26 0.27 0.26 0.18 0.12 0.09 0.12 0.16 0.20 0.23 0.25 0.19 0.17 0.24 0.31 0.45 0.61 0.76 0.83 0.85 0.89 0.94 1.01 1.01 0.93 0.75 0.53 0.32 0.18 0.10 0.07 0.07 0.07 0.04 0.02 0.01 0.01 0.02 0.01 0.01
0.22 0.26 0.29 0.32 0.36 0.35 0.26 0.17 0.13 0.12 0.17 0.21 0.25 0.25 0.22 0.20 0.22 0.27 0.33 0.36 0.43 0.52 0.58 0.64 0.76 0.91 1.04 1.05 0.93 0.75 0.53 0.31 0.16 0.09 0.05 0.06 0.05 0.04 0.02 0.02 0.02 0.01 0.01
0.30 0.31 0.32 0.37 0.41 0.43 0.33 0.21 0.18 0.19 0.24 0.25 0.26 0.26 0.26 0.24 0.22 0.21 0.28 0.31 0.33 0.38 0.44 0.53 0.61 0.78 1.00 1.10 1.03 0.84 0.59 0.36 0.23 0.13 0.05 0.04 0.05 0.05 0.06 0.04 0.01 0.01 0.01
0.39 0.39 0.37 0.40 0.45 0.50 0.44 0.26 0.21 0.25 0.32 0.33 0.37 0.37 0.31 0.29 0.26 0.19 0.23 0.27 0.27 0.31 0.36 0.40 0.48 0.57 0.69 0.86 1.00 0.79 0.54 0.35 0.24 0.15 0.06 0.02 0.03 0.03 0.05 0.03 0.01 0.00 0.00

GEFSMA_prec_meanprecacc_054.txt.gz
Total_Precipitation_Accumulation
1.13 1.22 1.03 0.97 0.87 1.14 1.48 1.67 1.68 1.83 1.93 1.89 1.61 1.39 1.28 1.05 0.86 0.84 0.93 1.08 1.21 1.12 1.13 1.10 0.94 0.90 0.88 0.77 0.72 0.71 0.69 0.66 0.58 0.48 0.41 0.36 0.30 0.20 0.12 0.11 0.12 0.14 0.12
1.44 1.49 1.41 1.31 1.10 1.23 1.53 1.87 1.93 2.11 2.04 2.04 1.58 1.34 1.25 1.22 1.05 0.92 0.89 1.02 1.09 1.05 0.98 1.03 1.06 1.04 0.99 0.86 0.76 0.68 0.63 0.63 0.61 0.51 0.43 0.36 0.32 0.28 0.24 0.19 0.17 0.18 0.16
1.80 1.98 1.84 1.49 1.32 1.49 1.67 1.70 1.82 2.25 2.06 1.96 1.73 1.68 1.60 1.40 1.19 1.04 0.99 0.98 0.92 0.94 0.85 0.84 0.96 1.03 1.06 1.01 0.93 0.80 0.69 0.58 0.53 0.47 0.41 0.36 0.31 0.26 0.28 0.28 0.26 0.26 0.21
1.68 1.86 1.59 1.26 1.41 1.68 1.79 1.69 1.69 2.04 2.06 2.02 1.94 1.81 1.68 1.48 1.26 1.16 1.08 0.94 0.82 0.65 0.63 0.75 0.88 1.00 1.14 1.16 1.13 1.10 0.94 0.67 0.49 0.42 0.37 0.35 0.32 0.24 0.19 0.22 0.27 0.31 0.25
1.07 1.19 1.02 0.95 1.18 1.44 1.43 1.25 1.36 1.63 1.70 1.75 1.69 1.45 1.26 1.08 0.94 0.93 0.88 0.77 0.77 0.68 0.64 0.62 0.76 0.88 1.05 1.25 1.32 1.31 1.22 0.90 0.60 0.49 0.44 0.42 0.41 0.31 0.20 0.18 0.25 0.29 0.26
0.75 0.83 0.82 0.78 0.87 0.90 0.91 1.06 1.20 1.34 1.24 1.29 1.22 1.00 0.95 0.81 0.75 0.71 0.57 0.53 0.55 0.51 0.48 0.55 0.61 0.61 0.79 0.99 1.12 1.19 1.22 1.10 0.80 0.63 0.55 0.55 0.59 0.45 0.26 0.22 0.26 0.24 0.22
0.64 0.64 0.61 0.62 0.68 0.67 0.67 0.81 0.92 0.92 0.75 0.90 0.97 0.76 0.60 0.53 0.51 0.49 0.43 0.39 0.35 0.33 0.37 0.45 0.49 0.48 0.48 0.54 0.71 0.90 1.09 1.15 1.03 0.82 0.65 0.62 0.65 0.55 0.36 0.29 0.26 0.21 0.22
0.54 0.53 0.50 0.48 0.48 0.51 0.52 0.57 0.68 0.69 0.61 0.72 0.80 0.72 0.52 0.44 0.37 0.28 0.28 0.25 0.22 0.26 0.29 0.36 0.44 0.51 0.51 0.53 0.54 0.63 0.90 1.07 1.15 1.11 0.92 0.77 0.71 0.57 0.43 0.40 0.33 0.27 0.24
0.33 0.33 0.32 0.32 0.34 0.38 0.41 0.47 0.54 0.56 0.51 0.50 0.61 0.70 0.52 0.37 0.32 0.28 0.25 0.24 0.24 0.24 0.25 0.36 0.43 0.52 0.62 0.71 0.68 0.61 0.67 0.79 1.08 1.28 1.23 0.95 0.63 0.48 0.44 0.48 0.48 0.37 0.28
0.23 0.23 0.21 0.21 0.21 0.25 0.31 0.34 0.43 0.52 0.51 0.41 0.44 0.53 0.52 0.47 0.40 0.33 0.30 0.26 0.29 0.28 0.29 0.35 0.43 0.53 0.60 0.73 0.79 0.68 0.56 0.60 0.85 1.10 1.19 1.09 0.77 0.50 0.44 0.56 0.69 0.63 0.44
0.23 0.23 0.22 0.20 0.20 0.20 0.23 0.27 0.35 0.43 0.50 0.45 0.42 0.48 0.56 0.54 0.45 0.39 0.32 0.32 0.38 0.29 0.33 0.43 0.52 0.56 0.59 0.73 0.93 0.88 0.82 0.70 0.68 0.77 0.88 0.97 0.96 0.82 0.71 0.75 0.94 1.05 0.93
0.25 0.25 0.25 0.26 0.26 0.25 0.25 0.25 0.26 0.31 0.42 0.50 0.50 0.50 0.54 0.54 0.43 0.40 0.31 0.29 0.36 0.35 0.44 0.58 0.61 0.64 0.67 0.82 0.88 0.85 0.77 0.65 0.52 0.48 0.52 0.58 0.66 0.70 0.69 0.77 1.01 1.25 1.39
0.20 0.22 0.23 0.24 0.27 0.29 0.29 0.27 0.27 0.27 0.34 0.43 0.46 0.50 0.50 0.50 0.53 0.54 0.48 0.40 0.41 0.45 0.56 0.64 0.71 0.74 0.73 0.82 0.80 0.74 0.60 0.45 0.33 0.28 0.30 0.34 0.39 0.50 0.62 0.72 0.87 1.05 1.27
0.19 0.20 0.20 0.19 0.21 0.26 0.31 0.33 0.31 0.31 0.34 0.36 0.37 0.50 0.55 0.50 0.60 0.64 0.66 0.69 0.61 0.61 0.73 0.76 0.81 0.83 0.91 0.89 0.80 0.69 0.51 0.38 0.27 0.22 0.19 0.20 0.21 0.24 0.34 0.47 0.64 0.83 1.01
0.21 0.20 0.20 0.20 0.20 0.22 0.26 0.30 0.31 0.33 0.36 0.36 0.40 0.49 0.57 0.64 0.68 0.65 0.74 0.81 0.82 0.75 0.80 0.85 0.74 0.70 0.76 0.72 0.62 0.52 0.37 0.31 0.25 0.19 0.16 0.15 0.15 0.16 0.18 0.22 0.25 0.30 0.38
0.18 0.19 0.19 0.18 0.18 0.20 0.21 0.24 0.26 0.33 0.39 0.45 0.51 0.56 0.59 0.66 0.75 0.69 0.74 0.80 0.81 0.86 0.89 0.82 0.71 0.69 0.65 0.51 0.41 0.35 0.27 0.27 0.22 0.17 0.14 0.13 0.13 0.14 0.15 0.16 0.16 0.18 0.21
0.12 0.13 0.15 0.16 0.18 0.20 0.23 0.28 0.31 0.36 0.46 0.58 0.67 0.70 0.73 0.75 0.78 0.78 0.84 0.85 0.79 0.86 0.85 0.71 0.77 0.81 0.70 0.50 0.34 0.27 0.21 0.20 0.17 0.17 0.16 0.14 0.13 0.11 0.12 0.13 0.14 0.15 0.16
0.11 0.11 0.12 0.13 0.13 0.14 0.19 0.29 0.40 0.41 0.44 0.52 0.74 0.96 0.98 0.98 0.89 0.82 0.90 0.89 0.85 0.97 0.92 0.81 0.89 0.90 0.84 0.65 0.46 0.33 0.22 0.16 0.13 0.14 0.13 0.13 0.12 0.09 0.08 0.09 0.09 0.10 0.10
0.11 0.11 0.12 0.12 0.11 0.10 0.12 0.20 0.33 0.38 0.46 0.60 0.76 0.89 1.01 1.12 1.02 0.92 0.89 0.90 0.93 1.03 0.99 0.89 0.93 1.05 1.07 0.86 0.58 0.36 0.21 0.16 0.11 0.11 0.10 0.09 0.10 0.09 0.08 0.07 0.06 0.06 0.06
0.09 0.11 0.13 0.13 0.13 0.11 0.11 0.16 0.24 0.31 0.44 0.62 0.68 0.62 0.74 0.99 1.09 1.01 0.90 0.85 0.90 0.95 0.95 0.97 1.03 1.16 1.19 1.09 0.79 0.48 0.29 0.16 0.10 0.07 0.08 0.07 0.07 0.07 0.06 0.05 0.05 0.06 0.07
0.08 0.11 0.14 0.15 0.14 0.12 0.10 0.17 0.26 0.22 0.26 0.35 0.38 0.36 0.42 0.61 0.89 1.05 1.01 0.90 0.88 0.85 0.87 0.95 1.05 1.15 1.16 1.15 0.94 0.63 0.38 0.23 0.12 0.07 0.05 0.05 0.04 0.04 0.03 0.03 0.03 0.03 0.03
0.11 0.16 0.19 0.19 0.19 0.13 0.11 0.13 0.15 0.17 0.20 0.23 0.24 0.26 0.26 0.29 0.42 0.65 0.86 0.97 1.01 0.93 0.87 0.90 1.05 1.09 1.08 1.05 0.97 0.79 0.49 0.26 0.16 0.11 0.08 0.08 0.06 0.04 0.03 0.02 0.03 0.02 0.02
0.16 0.21 0.24 0.26 0.27 0.26 0.18 0.12 0.09 0.12 0.16 0.20 0.23 0.25 0.19 0.17 0.24 0.31 0.45 0.61 0.76 0.83 0.85 0.89 0.96 1.06 1.12 1.17 1.08 0.89 0.63 0.39 0.19 0.11 0.08 0.09 0.06 0.04 0.03 0.03 0.04 0.03 0.02
0.22 0.26 0.29 0.32 0.36 0.35 0.26 0.17 0.13 0.12 0.17 0.21 0.25 0.25 0.22 0.20 0.22 0.27 0.33 0.36 0.44 0.52 0.58 0.64 0.77 0.94 1.12 1.24 1.27 1.14 0.92 0.62 0.36 0.19 0.09 0.08 0.06 0.05 0.04 0.04 0.04 0.03 0.02
0.30 0.31 0.32 0.37 0.41 0.43 0.33 0.21 0.18 0.19 0.24 0.25 0.26 0.26 0.26 0.24 0.22 0.21 0.28 0.31 0.34 0.38 0.45 0.53 0.62 0.80 1.08 1.28 1.32 1.28 1.07 0.77 0.50 0.28 0.11 0.07 0.06 0.06 0.08 0.05 0.03 0.03 0.02
0.39 0.39 0.37 0.40 0.45 0.50 0.44 0.26 0.21 0.25 0.32 0.33 0.37 0.37 0.31 0.29 0.26 0.19 0.23 0.27 0.28 0.32 0.37 0.41 0.49 0.59 0.74 1.01 1.24 1.10 0.95 0.76 0.53 0.32 0.13 0.05 0.04 0.04 0.06 0.04 0.02 0.02 0.02

GEFSMA_prec_meanprecacc_060.txt.gz
Total_Precipitation_Accumulation
1.32 1.41 1.23 1.15 1.01 1.26 1.60 1.79 1.84 1.97 2.05 2.01 1.73 1.51 1.39 1.16 0.94 0.89 0.97 1.11 1.24 1.15 1.17 1.17 1.04 1.05 1.07 0.94 0.84 0.79 0.74 0.69 0.60 0.49 0.42 0.37 0.31 0.21 0.13 0.11 0.12 0.15 0.13
1.58 1.64 1.57 1.45 1.22 1.33 1.63 1.97 2.03 2.21 2.14 2.14 1.67 1.45 1.36 1.33 1.14 0.98 0.95 1.08 1.13 1.09 1.01 1.07 1.12 1.14 1.13 1.03 0.91 0.79 0.72 0.69 0.65 0.54 0.45 0.38 0.33 0.29 0.24 0.19 0.17 0.18 0.16
1.86 2.03 1.91 1.58 1.42 1.58 1.75 1.76 1.86 2.30 2.12 2.03 1.79 1.77 1.69 1.48 1.27 1.11 1.06 1.06 0.97 0.98 0.89 0.87 1.00 1.10 1.17 1.15 1.09 0.95 0.81 0.66 0.59 0.52 0.45 0.39 0.32 0.27 0.29 0.28 0.26 0.26 0.21
1.70 1.87 1.61 1.29 1.44 1.71 1.82 1.72 1.72 2.07 2.10 2.06 1.99 1.87 1.75 1.55 1.33 1.23 1.16 1.01 0.90 0.71 0.70 0.78 0.91 1.04 1.20 1.27 1.28 1.29 1.12 0.82 0.60 0.49 0.42 0.39 0.35 0.26 0.20 0.22 0.27 0.31 0.25
1.07 1.19 1.02 0.96 1.19 1.45 1.45 1.27 1.38 1.64 1.72 1.77 1.73 1.49 1.31 1.12 0.99 0.98 0.92 0.82 0.84 0.75 0.72 0.68 0.80 0.92 1.09 1.31 1.43 1.46 1.40 1.08 0.76 0.60 0.52 0.47 0.45 0.36 0.22 0.19 0.26 0.29 0.26
0.75 0.83 0.82 0.78 0.87 0.91 0.92 1.07 1.22 1.36 1.25 1.31 1.24 1.02 0.97 0.84 0.78 0.74 0.61 0.59 0.62 0.58 0.55 0.63 0.70 0.65 0.83 1.05 1.22 1.32 1.38 1.29 0.96 0.77 0.67 0.63 0.65 0.50 0.30 0.25 0.28 0.24 0.22
0.64 0.64 0.61 0.62 0.69 0.68 0.67 0.81 0.93 0.94 0.77 0.92 0.99 0.77 0.62 0.54 0.53 0.53 0.47 0.45 0.43 0.41 0.46 0.54 0.59 0.56 0.53 0.58 0.76 0.98 1.21 1.31 1.21 0.98 0.80 0.73 0.75 0.61 0.39 0.33 0.28 0.22 0.23
0.54 0.53 0.50 0.48 0.48 0.51 0.53 0.57 0.69 0.69 0.61 0.73 0.81 0.74 0.53 0.45 0.39 0.30 0.31 0.30 0.28 0.35 0.39 0.45 0.55 0.62 0.59 0.61 0.59 0.67 0.99 1.22 1.33 1.27 1.08 0.92 0.82 0.65 0.49 0.45 0.37 0.29 0.26
0.33 0.33 0.32 0.32 0.34 0.38 0.42 0.47 0.55 0.57 0.51 0.50 0.62 0.71 0.54 0.39 0.34 0.30 0.28 0.29 0.32 0.35 0.36 0.48 0.56 0.65 0.74 0.82 0.77 0.68 0.75 0.91 1.25 1.47 1.41 1.11 0.77 0.58 0.50 0.53 0.53 0.41 0.31
0.23 0.23 0.21 0.21 0.21 0.25 0.32 0.34 0.43 0.53 0.51 0.42 0.45 0.53 0.53 0.49 0.42 0.35 0.32 0.31 0.34 0.35 0.39 0.45 0.54 0.66 0.73 0.86 0.90 0.76 0.63 0.69 0.98 1.29 1.39 1.27 0.92 0.61 0.51 0.60 0.74 0.68 0.48
0.23 0.23 0.22 0.20 0.21 0.20 0.23 0.28 0.35 0.44 0.51 0.45 0.42 0.48 0.57 0.55 0.46 0.42 0.34 0.35 0.40 0.34 0.40 0.52 0.61 0.67 0.70 0.85 1.06 0.98 0.90 0.77 0.76 0.89 1.04 1.14 1.14 0.97 0.81 0.82 1.01 1.11 0.98
0.25 0.25 0.25 0.26 0.26 0.26 0.25 0.25 0.26 0.32 0.43 0.51 0.51 0.50 0.54 0.55 0.44 0.41 0.33 0.30 0.38 0.38 0.50 0.66 0.71 0.75 0.79 0.95 0.99 0.96 0.87 0.73 0.60 0.55 0.61 0.70 0.80 0.85 0.82 0.88 1.11 1.33 1.46
0.20 0.22 0.23 0.24 0.27 0.29 0.30 0.27 0.27 0.27 0.35 0.44 0.47 0.50 0.51 0.50 0.54 0.54 0.49 0.40 0.42 0.47 0.62 0.73 0.84 0.88 0.86 0.97 0.95 0.88 0.70 0.54 0.41 0.35 0.37 0.42 0.48 0.60 0.74 0.85 0.99 1.17 1.37
0.19 0.20 0.20 0.19 0.21 0.26 0.31 0.33 0.31 0.32 0.35 0.36 0.37 0.50 0.55 0.51 0.60 0.64 0.67 0.70 0.62 0.62 0.76 0.83 0.94 0.98 1.06 1.05 0.97 0.87 0.66 0.49 0.35 0.29 0.26 0.27 0.28 0.31 0.41 0.55 0.72 0.91 1.09
0.21 0.20 0.20 0.20 0.21 0.23 0.26 0.30 0.31 0.33 0.36 0.37 0.40 0.50 0.57 0.64 0.68 0.65 0.75 0.82 0.83 0.76 0.83 0.90 0.85 0.83 0.88 0.86 0.79 0.67 0.52 0.44 0.36 0.27 0.23 0.22 0.22 0.22 0.24 0.27 0.30 0.34 0.42
0.18 0.19 0.19 0.18 0.19 0.20 0.22 0.24 0.27 0.34 0.40 0.45 0.52 0.57 0.59 0.66 0.75 0.69 0.74 0.81 0.83 0.87 0.91 0.86 0.77 0.76 0.73 0.61 0.57 0.49 0.42 0.44 0.35 0.27 0.23 0.21 0.20 0.21 0.21 0.22 0.22 0.23 0.25
0.12 0.13 0.15 0.17 0.18 0.20 0.23 0.28 0.32 0.36 0.47 0.58 0.67 0.71 0.74 0.76 0.79 0.78 0.84 0.86 0.80 0.87 0.86 0.74 0.81 0.86 0.75 0.57 0.45 0.40 0.35 0.36 0.33 0.30 0.26 0.24 0.21 0.18 0.18 0.19 0.20 0.20 0.19
0.12 0.12 0.12 0.13 0.13 0.14 0.19 0.29 0.40 0.42 0.45 0.53 0.75 0.97 0.99 0.99 0.90 0.82 0.91 0.90 0.86 0.99 0.94 0.84 0.93 0.95 0.90 0.72 0.56 0.45 0.34 0.29 0.28 0.31 0.27 0.26 0.23 0.18 0.15 0.14 0.15 0.15 0.14
0.11 0.12 0.12 0.12 0.11 0.11 0.12 0.20 0.33 0.38 0.47 0.60 0.77 0.90 1.02 1.13 1.03 0.93 0.90 0.91 0.94 1.04 1.01 0.91 0.96 1.09 1.13 0.94 0.68 0.46 0.33 0.28 0.25 0.27 0.27 0.24 0.22 0.21 0.18 0.14 0.12 0.12 0.11
0.09 0.11 0.13 0.14 0.13 0.11 0.11 0.17 0.24 0.31 0.44 0.63 0.69 0.63 0.75 1.00 1.10 1.02 0.91 0.86 0.91 0.96 0.97 0.98 1.05 1.19 1.24 1.18 0.91 0.61 0.42 0.30 0.24 0.21 0.23 0.22 0.21 0.20 0.19 0.15 0.13 0.12 0.12
0.08 0.11 0.14 0.15 0.14 0.12 0.10 0.17 0.26 0.22 0.27 0.36 0.39 0.38 0.43 0.62 0.90 1.06 1.01 0.91 0.89 0.86 0.88 0.97 1.06 1.16 1.19 1.21 1.05 0.78 0.55 0.41 0.28 0.23 0.22 0.19 0.18 0.15 0.14 0.14 0.11 0.09 0.08
0.11 0.16 0.19 0.20 0.19 0.13 0.11 0.13 0.15 0.18 0.20 0.23 0.25 0.28 0.28 0.30 0.42 0.65 0.86 0.97 1.02 0.95 0.88 0.92 1.06 1.11 1.09 1.08 1.05 0.92 0.69 0.47 0.34 0.26 0.24 0.24 0.20 0.17 0.12 0.10 0.10 0.08 0.07
0.16 0.21 0.25 0.26 0.27 0.26 0.18 0.12 0.09 0.12 0.17 0.20 0.24 0.27 0.21 0.18 0.25 0.32 0.46 0.62 0.77 0.84 0.85 0.90 0.98 1.07 1.13 1.20 1.14 1.00 0.80 0.62 0.44 0.31 0.27 0.27 0.22 0.18 0.14 0.12 0.13 0.10 0.08
0.23 0.27 0.29 0.32 0.37 0.35 0.26 0.17 0.14 0.12 0.17 0.22 0.26 0.27 0.24 0.22 0.24 0.29 0.35 0.38 0.45 0.53 0.58 0.65 0.78 0.96 1.14 1.27 1.32 1.24 1.08 0.85 0.66 0.51 0.38 0.30 0.22 0.17 0.14 0.11 0.12 0.10 0.08
0.31 0.31 0.33 0.38 0.41 0.44 0.33 0.21 0.18 0.19 0.25 0.26 0.27 0.27 0.27 0.26 0.23 0.21 0.29 0.33 0.36 0.40 0.45 0.54 0.62 0.81 1.09 1.29 1.35 1.36 1.22 0.98 0.76 0.57 0.43 0.33 0.25 0.19 0.18 0.12 0.09 0.10 0.08
0.40 0.39 0.37 0.41 0.46 0.51 0.44 0.26 0.21 0.25 0.32 0.34 0.38 0.38 0.32 0.29 0.27 0.19 0.24 0.30 0.31 0.34 0.39 0.43 0.50 0.59 0.74 1.02 1.25 1.14 1.05 0.94 0.76 0.56 0.37 0.30 0.29 0.22 0.18 0.11 0.06 0.05 0.05

GEFSMA_prec_meanprecacc_066.txt.gz
Total_Precipitation_Accumulation
1.40 1.50 1.34 1.29 1.15 1.43 1.76 1.96 2.03 2.18 2.27 2.23 1.92 1.67 1.55 1.28 1.02 1.00 1.20 1.35 1.36 1.21 1.20 1.20 1.07 1.08 1.11 0.98 0.87 0.82 0.76 0.72 0.62 0.51 0.44 0.39 0.34 0.23 0.14 0.11 0.12 0.15 0.13
1.62 1.68 1.63 1.53 1.30 1.43 1.75 2.10 2.17 2.38 2.32 2.33 1.83 1.59 1.51 1.47 1.24 1.08 1.11 1.35 1.29 1.16 1.06 1.10 1.14 1.17 1.16 1.08 0.96 0.83 0.75 0.72 0.67 0.55 0.46 0.39 0.34 0.30 0.26 0.19 0.17 0.18 0.16
1.88 2.05 1.94 1.62 1.46 1.64 1.82 1.84 1.95 2.42 2.24 2.15 1.91 1.89 1.81 1.60 1.38 1.24 1.17 1.22 1.18 1.13 0.97 0.91 1.03 1.12 1.19 1.18 1.13 1.00 0.85 0.70 0.61 0.53 0.46 0.39 0.33 0.28 0.30 0.28 0.26 0.26 0.21
1.71 1.88 1.62 1.31 1.47 1.75 1.87 1.77 1.77 2.12 2.17 2.14 2.07 1.95 1.85 1.63 1.40 1.31 1.24 1.11 1.04 0.86 0.85 0.86 0.96 1.08 1.24 1.30 1.31 1.33 1.18 0.86 0.64 0.51 0.43 0.40 0.36 0.27 0.21 0.23 0.27 0.31 0.25
1.08 1.19 1.03 0.97 1.21 1.48 1.48 1.31 1.43 1.69 1.77 1.83 1.78 1.54 1.35 1.15 1.03 1.01 0.96 0.87 0.92 0.87 0.83 0.79 0.90 0.99 1.15 1.35 1.46 1.49 1.44 1.13 0.79 0.63 0.54 0.49 0.47 0.36 0.23 0.19 0.26 0.29 0.26
0.75 0.83 0.82 0.79 0.88 0.92 0.94 1.09 1.24 1.39 1.28 1.34 1.27 1.06 1.01 0.87 0.80 0.76 0.63 0.62 0.67 0.64 0.62 0.74 0.83 0.73 0.89 1.10 1.25 1.36 1.43 1.34 1.00 0.80 0.69 0.65 0.67 0.51 0.30 0.25 0.28 0.25 0.22
0.64 0.64 0.61 0.63 0.69 0.68 0.68 0.82 0.95 0.95 0.78 0.94 1.01 0.79 0.64 0.57 0.56 0.56 0.50 0.48 0.47 0.48 0.55 0.68 0.73 0.69 0.63 0.64 0.81 1.03 1.26 1.36 1.25 1.03 0.83 0.76 0.78 0.62 0.40 0.33 0.29 0.22 0.23
0.54 0.53 0.50 0.48 0.48 0.52 0.53 0.59 0.70 0.70 0.62 0.73 0.82 0.75 0.55 0.48 0.43 0.33 0.36 0.35 0.34 0.42 0.47 0.56 0.68 0.78 0.74 0.77 0.66 0.72 1.05 1.28 1.38 1.32 1.13 0.95 0.85 0.68 0.50 0.46 0.38 0.30 0.26
0.33 0.33 0.32 0.32 0.34 0.39 0.42 0.48 0.56 0.59 0.52 0.51 0.62 0.72 0.55 0.40 0.36 0.33 0.33 0.35 0.40 0.43 0.45 0.58 0.67 0.81 0.90 1.01 0.92 0.77 0.83 0.99 1.34 1.56 1.48 1.16 0.80 0.60 0.52 0.54 0.54 0.42 0.32
0.23 0.23 0.21 0.21 0.22 0.25 0.33 0.35 0.44 0.54 0.53 0.43 0.46 0.55 0.54 0.50 0.43 0.36 0.35 0.34 0.39 0.40 0.46 0.52 0.63 0.78 0.87 1.03 1.07 0.89 0.73 0.79 1.09 1.42 1.52 1.38 0.98 0.65 0.54 0.62 0.76 0.70 0.49
0.23 0.23 0.22 0.20 0.21 0.21 0.24 0.28 0.36 0.46 0.52 0.47 0.44 0.49 0.58 0.56 0.48 0.43 0.35 0.37 0.43 0.36 0.44 0.56 0.66 0.73 0.80 0.98 1.21 1.10 1.00 0.86 0.87 1.00 1.18 1.30 1.26 1.04 0.86 0.86 1.05 1.15 1.00
0.25 0.25 0.25 0.26 0.26 0.26 0.26 0.26 0.28 0.33 0.45 0.53 0.53 0.51 0.55 0.56 0.46 0.43 0.34 0.31 0.39 0.39 0.51 0.68 0.73 0.79 0.85 1.03 1.09 1.06 0.97 0.83 0.70 0.65 0.71 0.82 0.94 0.97 0.92 0.96 1.18 1.40 1.51
0.20 0.22 0.23 0.25 0.27 0.30 0.30 0.28 0.28 0.28 0.36 0.46 0.49 0.52 0.52 0.51 0.54 0.55 0.50 0.41 0.43 0.47 0.62 0.75 0.86 0.92 0.93 1.06 1.05 0.98 0.80 0.64 0.51 0.44 0.46 0.51 0.58 0.70 0.84 0.94 1.09 1.27 1.47
0.19 0.20 0.20 0.19 0.22 0.27 0.31 0.34 0.32 0.33 0.36 0.38 0.38 0.52 0.57 0.51 0.61 0.65 0.68 0.71 0.63 0.63 0.77 0.84 0.97 1.02 1.12 1.14 1.06 0.95 0.75 0.60 0.44 0.38 0.34 0.34 0.36 0.40 0.51 0.65 0.81 1.00 1.19
0.21 0.20 0.20 0.20 0.22 0.24 0.28 0.32 0.32 0.34 0.37 0.38 0.41 0.51 0.59 0.65 0.69 0.66 0.75 0.83 0.85 0.77 0.84 0.92 0.88 0.87 0.92 0.93 0.87 0.74 0.61 0.55 0.45 0.35 0.31 0.30 0.30 0.30 0.33 0.36 0.38 0.41 0.49
0.19 0.20 0.20 0.19 0.20 0.21 0.23 0.26 0.28 0.35 0.42 0.47 0.54 0.59 0.61 0.67 0.76 0.69 0.75 0.81 0.84 0.88 0.92 0.86 0.78 0.78 0.76 0.64 0.61 0.56 0.52 0.57 0.47 0.37 0.31 0.28 0.28 0.28 0.28 0.30 0.30 0.29 0.30
0.13 0.14 0.16 0.18 0.19 0.21 0.25 0.31 0.34 0.38 0.48 0.60 0.69 0.72 0.75 0.77 0.80 0.79 0.85 0.86 0.81 0.89 0.88 0.75 0.81 0.87 0.77 0.59 0.48 0.46 0.46 0.50 0.47 0.43 0.38 0.33 0.29 0.26 0.26 0.26 0.27 0.28 0.26
0.12 0.12 0.13 0.14 0.14 0.15 0.21 0.31 0.42 0.43 0.46 0.55 0.77 0.99 1.01 1.01 0.92 0.84 0.92 0.91 0.87 1.00 0.96 0.85 0.94 0.96 0.91 0.73 0.58 0.49 0.41 0.42 0.44 0.44 0.40 0.38 0.34 0.29 0.24 0.23 0.23 0.23 0.21
0.11 0.12 0.13 0.13 0.12 0.12 0.14 0.22 0.35 0.40 0.49 0.62 0.79 0.92 1.04 1.16 1.05 0.95 0.93 0.93 0.96 1.05 1.03 0.93 0.97 1.11 1.14 0.95 0.70 0.49 0.38 0.38 0.39 0.44 0.40 0.35 0.34 0.33 0.29 0.24 0.21 0.20 0.18
0.10 0.12 0.14 0.14 0.14 0.12 0.12 0.18 0.26 0.33 0.47 0.65 0.71 0.66 0.77 1.03 1.14 1.06 0.94 0.90 0.94 0.99 0.99 1.01 1.06 1.20 1.25 1.19 0.93 0.64 0.47 0.37 0.34 0.36 0.40 0.35 0.32 0.32 0.29 0.25 0.21 0.20 0.19
0.08 0.12 0.15 0.15 0.15 0.13 0.11 0.18 0.27 0.23 0.28 0.37 0.41 0.41 0.46 0.65 0.92 1.08 1.03 0.93 0.92 0.90 0.91 1.00 1.08 1.18 1.20 1.23 1.07 0.81 0.61 0.50 0.40 0.37 0.39 0.36 0.32 0.26 0.24 0.24 0.21 0.17 0.15
0.12 0.17 0.20 0.20 0.20 0.14 0.11 0.13 0.16 0.18 0.21 0.24 0.27 0.31 0.31 0.32 0.43 0.66 0.86 0.97 1.02 0.96 0.89 0.94 1.08 1.13 1.13 1.12 1.10 0.96 0.75 0.58 0.47 0.42 0.42 0.43 0.42 0.37 0.27 0.22 0.20 0.17 0.14
0.16 0.21 0.25 0.27 0.29 0.28 0.18 0.12 0.09 0.12 0.17 0.20 0.26 0.29 0.23 0.20 0.28 0.37 0.50 0.64 0.78 0.84 0.85 0.91 0.99 1.09 1.16 1.24 1.22 1.06 0.86 0.72 0.58 0.51 0.49 0.47 0.45 0.45 0.41 0.33 0.31 0.23 0.18
0.23 0.27 0.30 0.33 0.39 0.37 0.26 0.17 0.14 0.12 0.17 0.22 0.27 0.30 0.29 0.27 0.29 0.35 0.41 0.44 0.50 0.57 0.60 0.66 0.78 0.96 1.15 1.30 1.40 1.30 1.15 0.93 0.80 0.71 0.63 0.52 0.45 0.42 0.40 0.38 0.36 0.31 0.24
0.31 0.32 0.34 0.39 0.43 0.47 0.35 0.21 0.18 0.19 0.25 0.26 0.28 0.30 0.32 0.31 0.28 0.23 0.31 0.36 0.38 0.43 0.47 0.54 0.63 0.81 1.09 1.29 1.36 1.39 1.26 1.04 0.85 0.73 0.63 0.55 0.48 0.43 0.40 0.34 0.32 0.31 0.26
0.40 0.39 0.37 0.42 0.47 0.54 0.46 0.26 0.21 0.26 0.33 0.35 0.41 0.42 0.35 0.31 0.29 0.20 0.26 0.33 0.33 0.37 0.42 0.46 0.53 0.60 0.74 1.02 1.25 1.15 1.06 0.98 0.84 0.68 0.51 0.46 0.48 0.45 0.39 0.30 0.25 0.24 0.21

GEFSMA_prec_meanprecacc_072.txt.gz
Total_Precipitation_Accumulation
1.41 1.52 1.35 1.29 1.17 1.46 1.82 2.02 2.08 2.22 2.31 2.26 1.96 1.70 1.60 1.36 1.14 1.18 1.42 1.69 1.74 1.58 1.49 1.41 1.21 1.18 1.17 1.02 0.90 0.84 0.77 0.72 0.62 0.51 0.44 0.39 0.34 0.24 0.14 0.12 0.12 0.15 0.13
1.63 1.69 1.64 1.54 1.31 1.45 1.77 2.13 2.21 2.41 2.36 2.38 1.87 1.63 1.55 1.53 1.31 1.18 1.25 1.56 1.54 1.41 1.30 1.31 1.31 1.30 1.27 1.15 1.01 0.87 0.77 0.73 0.67 0.55 0.46 0.40 0.34 0.31 0.26 0.20 0.17 0.18 0.16
1.88 2.06 1.95 1.63 1.47 1.65 1.84 1.85 1.97 2.43 2.25 2.17 1.94 1.92 1.84 1.64 1.42 1.29 1.24 1.31 1.27 1.32 1.21 1.14 1.21 1.29 1.33 1.30 1.21 1.06 0.90 0.72 0.62 0.54 0.46 0.39 0.33 0.28 0.30 0.29 0.26 0.26 0.21
1.71 1.88 1.62 1.31 1.47 1.75 1.88 1.78 1.78 2.13 2.17 2.15 2.08 1.97 1.86 1.65 1.43 1.33 1.27 1.17 1.11 0.96 0.99 1.04 1.15 1.26 1.41 1.44 1.42 1.42 1.26 0.92 0.67 0.52 0.43 0.40 0.36 0.27 0.21 0.23 0.27 0.31 0.25
1.08 1.19 1.03 0.98 1.21 1.48 1.48 1.31 1.43 1.69 1.77 1.84 1.79 1.55 1.36 1.16 1.04 1.02 0.98 0.90 0.97 0.94 0.91 0.89 1.06 1.16 1.33 1.55 1.64 1.64 1.55 1.20 0.85 0.67 0.56 0.49 0.47 0.37 0.23 0.19 0.26 0.29 0.26
0.75 0.83 0.82 0.79 0.88 0.92 0.94 1.09 1.24 1.39 1.28 1.34 1.28 1.07 1.02 0.87 0.81 0.77 0.64 0.63 0.70 0.69 0.67 0.79 0.91 0.84 1.04 1.27 1.44 1.55 1.60 1.46 1.08 0.86 0.73 0.68 0.68 0.51 0.30 0.25 0.28 0.25 0.22
0.64 0.64 0.61 0.63 0.69 0.68 0.68 0.82 0.95 0.95 0.78 0.94 1.01 0.80 0.65 0.58 0.57 0.56 0.50 0.49 0.49 0.51 0.60 0.74 0.79 0.76 0.72 0.78 0.95 1.19 1.44 1.53 1.39 1.12 0.90 0.81 0.81 0.64 0.40 0.33 0.29 0.22 0.23
0.54 0.53 0.50 0.48 0.48 0.52 0.53 0.59 0.70 0.70 0.62 0.73 0.82 0.75 0.55 0.48 0.43 0.34 0.37 0.37 0.36 0.45 0.51 0.61 0.76 0.86 0.82 0.86 0.73 0.85 1.23 1.47 1.58 1.48 1.24 1.03 0.92 0.71 0.52 0.46 0.38 0.30 0.26
0.33 0.33 0.32 0.32 0.34 0.39 0.42 0.48 0.56 0.59 0.52 0.51 0.62 0.72 0.55 0.40 0.37 0.34 0.34 0.36 0.42 0.45 0.48 0.62 0.72 0.86 0.96 1.07 1.01 0.88 1.00 1.18 1.57 1.80 1.67 1.30 0.90 0.66 0.54 0.56 0.55 0.42 0.32
0.23 0.23 0.21 0.21 0.22 0.25 0.33 0.35 0.44 0.54 0.53 0.43 0.46 0.55 0.55 0.50 0.43 0.36 0.35 0.34 0.40 0.42 0.48 0.54 0.66 0.82 0.92 1.09 1.13 0.97 0.82 0.92 1.28 1.66 1.76 1.60 1.16 0.76 0.59 0.65 0.79 0.72 0.49
0.23 0.23 0.22 0.20 0.21 0.21 0.24 0.28 0.36 0.46 0.52 0.47 0.44 0.49 0.58 0.57 0.48 0.43 0.35 0.37 0.43 0.36 0.45 0.57 0.67 0.76 0.84 1.03 1.25 1.15 1.06 0.94 0.97 1.15 1.37 1.52 1.50 1.26 1.02 0.97 1.14 1.20 1.03
0.25 0.25 0.25 0.26 0.26 0.26 0.26 0.26 0.28 0.33 0.45 0.53 0.53 0.51 0.55 0.56 0.46 0.43 0.34 0.31 0.39 0.39 0.51 0.69 0.74 0.80 0.87 1.05 1.12 1.09 1.01 0.87 0.75 0.72 0.82 0.97 1.13 1.19 1.14 1.16 1.35 1.52 1.59
0.20 0.22 0.23 0.25 0.27 0.30 0.30 0.28 0.28 0.28 0.36 0.46 0.49 0.52 0.52 0.51 0.54 0.55 0.51 0.41 0.43 0.47 0.62 0.75 0.87 0.93 0.94 1.06 1.06 1.00 0.83 0.67 0.54 0.48 0.52 0.61 0.70 0.85 1.02 1.14 1.28 1.43 1.60
0.19 0.20 0.20 0.19 0.22 0.27 0.31 0.34 0.32 0.33 0.36 0.38 0.38 0.52 0.57 0.51 0.61 0.65 0.68 0.71 0.63 0.63 0.77 0.85 0.98 1.03 1.13 1.15 1.07 0.96 0.76 0.61 0.47 0.42 0.39 0.40 0.44 0.49 0.62 0.77 0.94 1.15 1.33
0.21 0.20 0.20 0.20 0.22 0.24 0.28 0.32 0.32 0.34 0.37 0.38 0.41 0.51 0.59 0.65 0.69 0.66 0.76 0.84 0.85 0.77 0.84 0.92 0.88 0.88 0.93 0.94 0.88 0.75 0.62 0.56 0.47 0.38 0.35 0.34 0.35 0.36 0.40 0.44 0.47 0.51 0.58
0.19 0.20 0.20 0.19 0.20 0.21 0.23 0.26 0.28 0.35 0.42 0.47 0.54 0.59 0.61 0.67 0.76 0.69 0.75 0.82 0.84 0.89 0.92 0.86 0.78 0.79 0.76 0.65 0.62 0.57 0.53 0.57 0.47 0.38 0.32 0.31 0.31 0.32 0.34 0.36 0.36 0.37 0.39
0.13 0.14 0.16 0.18 0.19 0.21 0.25 0.31 0.34 0.38 0.48 0.60 0.69 0.72 0.75 0.77 0.81 0.79 0.85 0.86 0.81 0.89 0.88 0.75 0.81 0.87 0.77 0.59 0.48 0.46 0.47 0.50 0.47 0.44 0.38 0.34 0.31 0.28 0.28 0.30 0.32 0.34 0.33
0.12 0.12 0.13 0.14 0.14 0.15 0.21 0.31 0.42 0.44 0.47 0.55 0.77 0.99 1.01 1.01 0.93 0.84 0.92 0.91 0.87 1.01 0.96 0.85 0.94 0.96 0.91 0.73 0.58 0.49 0.42 0.42 0.45 0.45 0.40 0.39 0.36 0.30 0.26 0.26 0.27 0.27 0.26
0.11 0.12 0.13 0.13 0.12 0.12 0.14 0.22 0.35 0.40 0.49 0.63 0.79 0.92 1.04 1.16 1.05 0.95 0.93 0.93 0.96 1.05 1.03 0.93 0.97 1.11 1.14 0.95 0.70 0.49 0.38 0.38 0.40 0.45 0.41 0.36 0.36 0.35 0.31 0.27 0.24 0.24 0.23
0.10 0.12 0.14 0.14 0.14 0.12 0.12 0.18 0.26 0.34 0.47 0.65 0.72 0.67 0.77 1.03 1.14 1.06 0.95 0.90 0.94 0.99 0.99 1.01 1.06 1.20 1.25 1.19 0.93 0.64 0.48 0.38 0.34 0.37 0.42 0.38 0.35 0.34 0.33 0.29 0.26 0.25 0.25
0.08 0.12 0.15 0.15 0.15 0.13 0.11 0.18 0.27 0.23 0.28 0.37 0.41 0.41 0.46 0.65 0.92 1.09 1.03 0.93 0.92 0.90 0.91 1.00 1.08 1.18 1.20 1.23 1.07 0.82 0.62 0.51 0.41 0.38 0.41 0.39 0.36 0.31 0.29 0.29 0.27 0.23 0.21
0.12 0.17 0.20 0.20 0.20 0.14 0.11 0.13 0.16 0.18 0.21 0.24 0.27 0.31 0.31 0.32 0.43 0.66 0.87 0.98 1.02 0.96 0.89 0.94 1.08 1.13 1.13 1.12 1.10 0.96 0.75 0.58 0.48 0.44 0.45 0.45 0.46 0.41 0.32 0.26 0.26 0.23 0.20
0.16 0.21 0.25 0.27 0.29 0.28 0.18 0.12 0.09 0.12 0.17 0.20 0.26 0.29 0.23 0.20 0.28 0.37 0.50 0.64 0.78 0.84 0.85 0.91 0.99 1.09 1.16 1.24 1.22 1.06 0.86 0.72 0.59 0.52 0.51 0.49 0.49 0.49 0.46 0.38 0.36 0.29 0.24
0.23 0.27 0.30 0.33 0.39 0.37 0.26 0.17 0.14 0.12 0.17 0.22 0.27 0.30 0.29 0.27 0.29 0.35 0.42 0.44 0.50 0.57 0.61 0.67 0.79 0.96 1.15 1.31 1.40 1.30 1.15 0.93 0.80 0.72 0.65 0.54 0.48 0.46 0.46 0.46 0.45 0.38 0.31
0.31 0.32 0.34 0.39 0.43 0.47 0.35 0.21 0.18 0.19 0.25 0.26 0.28 0.30 0.32 0.32 0.28 0.23 0.32 0.36 0.38 0.43 0.47 0.55 0.63 0.81 1.09 1.29 1.36 1.39 1.26 1.05 0.86 0.74 0.66 0.58 0.51 0.48 0.48 0.42 0.40 0.40 0.35
0.40 0.39 0.37 0.42 0.47 0.54 0.46 0.26 0.21 0.26 0.33 0.35 0.41 0.42 0.35 0.32 0.29 0.20 0.26 0.33 0.34 0.37 0.43 0.46 0.53 0.60 0.74 1.02 1.25 1.15 1.06 0.98 0.84 0.69 0.53 0.50 0.52 0.51 0.46 0.37 0.32 0.31 0.29

GEFSMA_prec_meanprecacc_078.txt.gz
Total_Precipitation_Accumulation
1.41 1.53 1.36 1.31 1.19 1.49 1.84 2.05 2.10 2.25 2.34 2.30 1.99 1.73 1.63 1.40 1.17 1.20 1.44 1.74 1.84 1.70 1.63 1.58 1.37 1.30 1.27 1.09 0.94 0.87 0.80 0.73 0.63 0.52 0.46 0.41 0.36 0.24 0.14 0.12 0.13 0.15 0.13
1.63 1.70 1.64 1.55 1.33 1.47 1.79 2.15 2.23 2.44 2.39 2.42 1.91 1.67 1.59 1.56 1.33 1.21 1.27 1.59 1.61 1.51 1.43 1.49 1.52 1.48 1.43 1.27 1.09 0.93 0.82 0.75 0.69 0.57 0.47 0.41 0.36 0.32 0.27 0.20 0.17 0.18 0.16
1.88 2.06 1.95 1.63 1.48 1.66 1.85 1.87 1.98 2.44 2.28 2.21 1.98 1.95 1.87 1.67 1.46 1.32 1.27 1.33 1.31 1.41 1.33 1.30 1.41 1.51 1.57 1.54 1.38 1.18 0.98 0.78 0.66 0.56 0.47 0.41 0.35 0.29 0.31 0.29 0.27 0.26 0.21
1.71 1.88 1.62 1.31 1.48 1.76 1.89 1.79 1.79 2.14 2.18 2.17 2.10 1.99 1.89 1.69 1.47 1.37 1.30 1.19 1.14 1.00 1.09 1.20 1.34 1.48 1.67 1.70 1.68 1.64 1.43 1.04 0.74 0.57 0.46 0.42 0.37 0.28 0.22 0.23 0.27 0.31 0.25
1.08 1.19 1.03 0.98 1.21 1.48 1.48 1.31 1.43 1.69 1.78 1.84 1.80 1.56 1.37 1.18 1.06 1.05 1.00 0.92 0.99 0.97 0.97 0.99 1.22 1.36 1.60 1.84 1.93 1.93 1.78 1.39 0.99 0.76 0.62 0.52 0.49 0.38 0.24 0.20 0.26 0.29 0.26
0.75 0.83 0.82 0.79 0.88 0.92 0.94 1.09 1.24 1.39 1.28 1.34 1.28 1.07 1.02 0.87 0.81 0.78 0.65 0.65 0.72 0.71 0.71 0.84 0.98 0.93 1.21 1.52 1.72 1.85 1.87 1.69 1.27 1.01 0.84 0.74 0.71 0.53 0.32 0.26 0.29 0.25 0.22
0.64 0.64 0.61 0.63 0.69 0.68 0.68 0.82 0.95 0.95 0.78 0.94 1.01 0.80 0.65 0.58 0.57 0.56 0.51 0.50 0.50 0.52 0.62 0.76 0.82 0.81 0.78 0.90 1.11 1.41 1.70 1.79 1.63 1.33 1.07 0.93 0.89 0.68 0.43 0.35 0.30 0.23 0.24
0.54 0.53 0.50 0.48 0.48 0.52 0.53 0.59 0.70 0.70 0.62 0.73 0.82 0.75 0.55 0.48 0.43 0.34 0.37 0.37 0.36 0.46 0.52 0.63 0.78 0.89 0.87 0.91 0.80 1.00 1.46 1.74 1.86 1.75 1.47 1.23 1.09 0.84 0.59 0.50 0.40 0.31 0.27
0.33 0.33 0.32 0.32 0.34 0.39 0.42 0.48 0.56 0.59 0.52 0.51 0.62 0.72 0.55 0.40 0.37 0.34 0.34 0.36 0.42 0.46 0.49 0.63 0.73 0.89 1.00 1.11 1.05 0.97 1.15 1.39 1.83 2.07 1.94 1.53 1.09 0.82 0.66 0.64 0.60 0.44 0.33
0.23 0.23 0.21 0.21 0.22 0.25 0.33 0.35 0.44 0.54 0.53 0.43 0.46 0.55 0.55 0.50 0.43 0.36 0.35 0.34 0.40 0.42 0.48 0.55 0.67 0.84 0.94 1.11 1.16 1.01 0.90 1.04 1.48 1.91 2.02 1.84 1.38 0.97 0.76 0.79 0.91 0.79 0.53
0.23 0.23 0.22 0.20 0.21 0.21 0.24 0.28 0.36 0.46 0.52 0.47 0.44 0.49 0.58 0.57 0.48 0.43 0.35 0.37 0.43 0.36 0.45 0.58 0.68 0.76 0.85 1.04 1.27 1.17 1.10 1.00 1.05 1.29 1.54 1.72 1.71 1.48 1.24 1.17 1.32 1.35 1.14
0.25 0.25 0.25 0.26 0.26 0.26 0.26 0.26 0.28 0.33 0.45 0.53 0.53 0.51 0.55 0.56 0.46 0.43 0.34 0.31 0.39 0.39 0.51 0.69 0.74 0.80 0.87 1.06 1.13 1.12 1.04 0.91 0.80 0.78 0.93 1.10 1.28 1.37 1.32 1.37 1.59 1.73 1.75
0.20 0.22 0.23 0.25 0.27 0.30 0.30 0.28 0.28 0.28 0.36 0.46 0.49 0.52 0.52 0.51 0.54 0.55 0.51 0.41 0.43 0.47 0.62 0.75 0.87 0.93 0.94 1.07 1.07 1.02 0.87 0.71 0.58 0.52 0.57 0.68 0.81 0.99 1.17 1.30 1.47 1.66 1.81
0.19 0.20 0.20 0.19 0.22 0.27 0.31 0.34 0.32 0.33 0.36 0.38 0.38 0.52 0.57 0.51 0.61 0.65 0.68 0.71 0.63 0.63 0.77 0.85 0.98 1.03 1.13 1.15 1.08 0.97 0.78 0.65 0.51 0.45 0.42 0.44 0.51 0.59 0.73 0.90 1.08 1.32 1.52
0.21 0.20 0.20 0.20 0.22 0.24 0.28 0.32 0.32 0.34 0.37 0.38 0.41 0.51 0.59 0.65 0.69 0.66 0.76 0.84 0.85 0.77 0.84 0.92 0.88 0.88 0.93 0.94 0.88 0.75 0.62 0.57 0.49 0.41 0.37 0.36 0.38 0.41 0.47 0.53 0.57 0.62 0.71
0.19 0.20 0.20 0.19 0.20 0.21 0.23 0.26 0.28 0.35 0.42 0.47 0.54 0.59 0.61 0.67 0.76 0.69 0.75 0.82 0.84 0.89 0.92 0.86 0.78 0.79 0.76 0.65 0.62 0.57 0.53 0.57 0.47 0.38 0.33 0.31 0.32 0.34 0.37 0.40 0.42 0.45 0.47
0.13 0.14 0.16 0.18 0.19 0.21 0.25 0.31 0.34 0.38 0.48 0.60 0.69 0.72 0.75 0.77 0.81 0.79 0.85 0.86 0.81 0.89 0.88 0.75 0.81 0.87 0.77 0.59 0.48 0.46 0.47 0.50 0.47 0.44 0.38 0.34 0.31 0.28 0.29 0.32 0.35 0.38 0.38
0.12 0.12 0.13 0.14 0.14 0.15 0.21 0.31 0.42 0.44 0.47 0.55 0.77 0.99 1.01 1.01 0.93 0.84 0.92 0.91 0.87 1.01 0.96 0.85 0.94 0.96 0.91 0.73 0.58 0.49 0.42 0.42 0.45 0.45 0.40 0.39 0.36 0.31 0.26 0.26 0.28 0.28 0.29
0.11 0.12 0.13 0.13 0.12 0.12 0.14 0.22 0.35 0.40 0.49 0.63 0.79 0.92 1.04 1.16 1.05 0.95 0.93 0.93 0.96 1.05 1.03 0.93 0.97 1.11 1.14 0.95 0.70 0.49 0.38 0.38 0.40 0.45 0.41 0.36 0.36 0.35 0.32 0.27 0.25 0.25 0.24
0.10 0.12 0.14 0.14 0.14 0.12 0.12 0.18 0.26 0.34 0.47 0.65 0.72 0.67 0.77 1.03 1.14 1.06 0.95 0.90 0.94 0.99 0.99 1.01 1.06 1.20 1.25 1.19 0.93 0.64 0.48 0.38 0.34 0.37 0.42 0.38 0.35 0.34 0.33 0.29 0.26 0.25 0.26
0.08 0.12 0.15 0.15 0.15 0.13 0.11 0.18 0.27 0.23 0.28 0.37 0.41 0.41 0.46 0.65 0.92 1.09 1.03 0.93 0.92 0.90 0.91 1.00 1.08 1.18 1.20 1.23 1.07 0.82 0.62 0.51 0.41 0.38 0.41 0.39 0.36 0.31 0.29 0.29 0.27 0.24 0.22
0.12 0.17 0.20 0.20 0.20 0.14 0.11 0.13 0.16 0.18 0.21 0.24 0.27 0.31 0.31 0.32 0.43 0.66 0.87 0.98 1.02 0.96 0.89 0.94 1.08 1.13 1.13 1.12 1.10 0.96 0.75 0.58 0.48 0.44 0.45 0.45 0.46 0.41 0.32 0.27 0.27 0.24 0.21
0.16 0.21 0.25 0.27 0.29 0.28 0.18 0.12 0.09 0.12 0.17 0.20 0.26 0.29 0.23 0.20 0.28 0.37 0.50 0.64 0.78 0.84 0.85 0.91 0.99 1.09 1.16 1.24 1.22 1.06 0.86 0.72 0.59 0.52 0.51 0.49 0.49 0.49 0.46 0.38 0.37 0.29 0.25
0.23 0.27 0.30 0.33 0.39 0.37 0.26 0.17 0.14 0.12 0.17 0.22 0.27 0.30 0.29 0.27 0.29 0.35 0.42 0.44 0.50 0.57 0.61 0.67 0.79 0.96 1.15 1.31 1.40 1.30 1.15 0.93 0.80 0.72 0.65 0.54 0.48 0.46 0.46 0.46 0.45 0.39 0.32
0.31 0.32 0.34 0.39 0.43 0.47 0.35 0.21 0.18 0.19 0.25 0.26 0.28 0.30 0.32 0.32 0.28 0.23 0.32 0.36 0.38 0.43 0.47 0.55 0.63 0.81 1.09 1.29 1.36 1.39 1.26 1.05 0.86 0.74 0.66 0.58 0.51 0.48 0.48 0.42 0.40 0.40 0.36
0.41 0.40 0.38 0.42 0.48 0.55 0.46 0.26 0.21 0.26 0.33 0.35 0.41 0.42 0.35 0.32 0.29 0.20 0.26 0.33 0.34 0.37 0.43 0.46 0.53 0.60 0.74 1.02 1.25 1.15 1.07 0.98 0.84 0.69 0.53 0.50 0.52 0.51 0.47 0.38 0.32 0.32 0.29

GEFSMA_prec_meanprecacc_084.txt.gz
Total_Precipitation_Accumulation
1.43 1.55 1.38 1.34 1.21 1.51 1.87 2.08 2.14 2.30 2.38 2.33 2.02 1.76 1.67 1.44 1.21 1.24 1.48 1.79 1.90 1.78 1.78 1.77 1.53 1.43 1.39 1.19 1.02 0.93 0.84 0.76 0.66 0.54 0.49 0.44 0.38 0.26 0.14 0.12 0.13 0.16 0.13
1.64 1.70 1.65 1.57 1.34 1.49 1.82 2.17 2.26 2.47 2.42 2.44 1.93 1.69 1.61 1.59 1.36 1.23 1.30 1.63 1.65 1.57 1.53 1.66 1.70 1.65 1.60 1.41 1.21 1.03 0.91 0.82 0.74 0.60 0.49 0.44 0.39 0.33 0.27 0.20 0.18 0.19 0.17
1.88 2.06 1.95 1.63 1.48 1.67 1.86 1.88 2.00 2.46 2.30 2.23 2.00 1.97 1.90 1.70 1.48 1.34 1.29 1.36 1.35 1.45 1.41 1.43 1.59 1.70 1.76 1.74 1.57 1.32 1.11 0.88 0.73 0.61 0.51 0.44 0.38 0.31 0.32 0.30 0.27 0.27 0.22
1.71 1.89 1.62 1.31 1.48 1.76 1.90 1.80 1.80 2.16 2.20 2.18 2.12 2.01 1.91 1.71 1.48 1.38 1.32 1.21 1.17 1.03 1.15 1.30 1.48 1.64 1.84 1.90 1.91 1.86 1.61 1.19 0.87 0.66 0.53 0.47 0.42 0.31 0.24 0.24 0.28 0.32 0.25
1.08 1.19 1.03 0.98 1.21 1.48 1.48 1.31 1.44 1.70 1.78 1.85 1.80 1.57 1.38 1.20 1.08 1.06 1.02 0.94 1.02 1.01 1.04 1.07 1.30 1.47 1.75 2.04 2.17 2.21 2.04 1.58 1.14 0.89 0.71 0.59 0.55 0.42 0.27 0.23 0.28 0.30 0.26
0.75 0.83 0.82 0.79 0.88 0.92 0.94 1.10 1.25 1.39 1.28 1.35 1.28 1.07 1.02 0.88 0.82 0.79 0.67 0.66 0.73 0.73 0.75 0.92 1.11 1.04 1.32 1.68 1.92 2.07 2.10 1.91 1.47 1.17 0.97 0.84 0.79 0.59 0.37 0.30 0.31 0.26 0.23
0.64 0.64 0.61 0.63 0.69 0.68 0.68 0.82 0.95 0.95 0.79 0.94 1.01 0.80 0.65 0.58 0.57 0.56 0.51 0.50 0.50 0.54 0.65 0.83 0.94 0.93 0.89 1.01 1.23 1.58 1.89 1.99 1.83 1.51 1.23 1.06 0.98 0.76 0.49 0.39 0.34 0.26 0.25
0.54 0.53 0.50 0.48 0.48 0.52 0.54 0.59 0.71 0.71 0.62 0.74 0.83 0.76 0.55 0.48 0.43 0.34 0.37 0.37 0.37 0.47 0.53 0.64 0.82 0.97 0.96 1.04 0.89 1.11 1.64 1.92 2.05 1.94 1.66 1.39 1.22 0.95 0.68 0.57 0.45 0.35 0.30
0.33 0.33 0.32 0.32 0.34 0.39 0.42 0.48 0.56 0.59 0.53 0.51 0.63 0.72 0.55 0.41 0.37 0.34 0.34 0.36 0.42 0.46 0.49 0.64 0.74 0.93 1.06 1.20 1.15 1.05 1.25 1.51 1.99 2.26 2.14 1.71 1.24 0.94 0.76 0.72 0.67 0.50 0.37
0.23 0.23 0.21 0.21 0.22 0.25 0.33 0.35 0.44 0.54 0.53 0.43 0.46 0.55 0.55 0.50 0.43 0.37 0.35 0.35 0.40 0.42 0.48 0.55 0.68 0.85 0.96 1.16 1.22 1.06 0.95 1.11 1.57 2.05 2.20 2.04 1.55 1.10 0.88 0.89 1.01 0.88 0.60
0.23 0.23 0.22 0.21 0.21 0.21 0.24 0.28 0.36 0.46 0.52 0.47 0.44 0.49 0.58 0.57 0.48 0.43 0.36 0.37 0.43 0.36 0.45 0.59 0.69 0.78 0.86 1.07 1.32 1.21 1.12 1.02 1.11 1.36 1.64 1.86 1.87 1.62 1.36 1.30 1.45 1.48 1.25
0.25 0.25 0.25 0.26 0.26 0.26 0.26 0.26 0.28 0.33 0.45 0.53 0.53 0.51 0.55 0.56 0.46 0.43 0.34 0.32 0.39 0.39 0.51 0.69 0.75 0.82 0.88 1.07 1.14 1.12 1.05 0.92 0.82 0.82 0.97 1.16 1.38 1.49 1.45 1.49 1.71 1.86 1.89
0.20 0.22 0.23 0.25 0.27 0.30 0.31 0.28 0.28 0.28 0.36 0.46 0.49 0.52 0.52 0.51 0.54 0.55 0.51 0.41 0.43 0.47 0.62 0.75 0.87 0.94 0.94 1.07 1.09 1.02 0.87 0.72 0.59 0.54 0.59 0.72 0.85 1.06 1.26 1.40 1.58 1.80 1.97
0.20 0.20 0.20 0.19 0.22 0.27 0.32 0.34 0.32 0.33 0.36 0.38 0.38 0.52 0.57 0.51 0.61 0.65 0.68 0.72 0.63 0.63 0.77 0.85 0.98 1.03 1.13 1.15 1.08 0.97 0.78 0.65 0.52 0.46 0.44 0.46 0.54 0.62 0.78 0.97 1.17 1.42 1.64
0.21 0.20 0.20 0.20 0.22 0.24 0.28 0.32 0.32 0.34 0.38 0.38 0.41 0.51 0.59 0.65 0.69 0.66 0.76 0.84 0.85 0.78 0.84 0.92 0.88 0.88 0.93 0.94 0.88 0.75 0.63 0.57 0.49 0.42 0.40 0.39 0.41 0.46 0.52 0.57 0.64 0.71 0.80
0.19 0.20 0.20 0.19 0.20 0.21 0.23 0.26 0.28 0.35 0.42 0.47 0.54 0.59 0.61 0.67 0.76 0.69 0.75 0.82 0.84 0.89 0.92 0.86 0.78 0.79 0.76 0.65 0.62 0.57 0.53 0.57 0.47 0.38 0.33 0.34 0.35 0.38 0.41 0.46 0.48 0.52 0.55
0.13 0.14 0.16 0.18 0.19 0.21 0.25 0.31 0.34 0.38 0.48 0.60 0.69 0.72 0.75 0.77 0.81 0.79 0.85 0.86 0.81 0.89 0.88 0.75 0.81 0.87 0.77 0.59 0.48 0.46 0.47 0.50 0.47 0.44 0.38 0.35 0.31 0.29 0.31 0.35 0.39 0.42 0.43
0.12 0.12 0.13 0.14 0.14 0.15 0.21 0.31 0.42 0.44 0.47 0.55 0.77 0.99 1.01 1.01 0.93 0.85 0.92 0.91 0.87 1.01 0.97 0.85 0.94 0.97 0.91 0.73 0.58 0.49 0.42 0.42 0.45 0.45 0.40 0.39 0.36 0.31 0.27 0.27 0.28 0.30 0.31
0.12 0.12 0.13 0.13 0.12 0.12 0.14 0.22 0.35 0.40 0.49 0.63 0.79 0.92 1.04 1.16 1.06 0.95 0.94 0.93 0.96 1.05 1.03 0.93 0.97 1.11 1.14 0.95 0.70 0.49 0.38 0.38 0.40 0.45 0.41 0.36 0.36 0.35 0.32 0.27 0.25 0.25 0.24
0.10 0.12 0.14 0.14 0.14 0.12 0.12 0.18 0.26 0.34 0.47 0.65 0.72 0.67 0.77 1.03 1.14 1.06 0.95 0.90 0.94 0.99 0.99 1.01 1.06 1.20 1.25 1.19 0.93 0.64 0.48 0.38 0.34 0.37 0.42 0.38 0.35 0.34 0.33 0.29 0.26 0.25 0.26
0.08 0.12 0.15 0.15 0.15 0.13 0.11 0.18 0.27 0.23 0.28 0.37 0.41 0.41 0.46 0.65 0.92 1.09 1.03 0.93 0.92 0.90 0.91 1.00 1.08 1.18 1.21 1.23 1.07 0.82 0.62 0.51 0.41 0.38 0.41 0.39 0.36 0.31 0.29 0.29 0.27 0.24 0.22
0.12 0.17 0.20 0.20 0.20 0.14 0.11 0.13 0.16 0.18 0.21 0.24 0.27 0.31 0.31 0.32 0.43 0.66 0.87 0.98 1.02 0.96 0.90 0.94 1.08 1.13 1.13 1.13 1.11 0.97 0.75 0.58 0.48 0.44 0.45 0.45 0.46 0.41 0.32 0.27 0.27 0.24 0.21
0.16 0.21 0.25 0.27 0.29 0.28 0.18 0.12 0.09 0.12 0.17 0.20 0.26 0.29 0.23 0.20 0.28 0.37 0.50 0.64 0.78 0.84 0.85 0.91 0.99 1.09 1.16 1.25 1.23 1.07 0.88 0.74 0.60 0.53 0.52 0.49 0.49 0.49 0.46 0.38 0.37 0.29 0.25
0.23 0.27 0.30 0.33 0.39 0.38 0.26 0.17 0.14 0.12 0.17 0.22 0.27 0.30 0.29 0.27 0.29 0.35 0.42 0.44 0.51 0.57 0.61 0.67 0.79 0.97 1.16 1.32 1.42 1.32 1.18 0.95 0.81 0.73 0.66 0.55 0.48 0.46 0.46 0.46 0.45 0.39 0.32
0.32 0.32 0.34 0.39 0.44 0.47 0.36 0.22 0.19 0.20 0.25 0.26 0.28 0.30 0.33 0.32 0.28 0.24 0.32 0.36 0.39 0.43 0.47 0.55 0.63 0.81 1.09 1.30 1.37 1.40 1.27 1.06 0.86 0.74 0.67 0.59 0.51 0.48 0.48 0.42 0.40 0.40 0.36
0.41 0.41 0.39 0.43 0.49 0.56 0.48 0.28 0.22 0.26 0.33 0.36 0.42 0.43 0.35 0.32 0.29 0.21 0.26 0.33 0.34 0.37 0.44 0.47 0.53 0.61 0.74 1.02 1.25 1.15 1.07 1.00 0.86 0.70 0.54 0.51 0.53 0.52 0.47 0.38 0.33 0.32 0.30

GEFSMA_prec_meanprecacc_090.txt.gz
Total_Precipitation_Accumulation
1.47 1.58 1.41 1.36 1.24 1.54 1.92 2.13 2.18 2.34 2.42 2.37 2.06 1.80 1.70 1.48 1.28 1.40 1.66 1.89 1.95 1.82 1.83 1.84 1.62 1.51 1.47 1.26 1.09 1.01 0.91 0.83 0.74 0.61 0.55 0.50 0.42 0.27 0.15 0.13 0.15 0.17 0.14
1.66 1.72 1.67 1.58 1.35 1.51 1.85 2.20 2.28 2.49 2.44 2.47 1.96 1.71 1.63 1.61 1.39 1.28 1.38 1.73 1.71 1.61 1.57 1.71 1.76 1.72 1.68 1.50 1.31 1.13 0.99 0.89 0.82 0.67 0.56 0.52 0.45 0.36 0.29 0.21 0.20 0.21 0.18
1.88 2.06 1.95 1.64 1.49 1.67 1.87 1.90 2.02 2.47 2.31 2.25 2.03 2.00 1.93 1.72 1.51 1.37 1.33 1.42 1.42 1.50 1.46 1.47 1.65 1.76 1.83 1.81 1.67 1.43 1.20 0.97 0.81 0.67 0.56 0.50 0.45 0.38 0.36 0.31 0.28 0.28 0.22
1.71 1.89 1.62 1.31 1.48 1.76 1.90 1.81 1.81 2.17 2.21 2.19 2.15 2.04 1.94 1.73 1.51 1.40 1.34 1.24 1.21 1.08 1.20 1.36 1.55 1.69 1.91 1.97 2.01 1.97 1.72 1.29 0.95 0.73 0.59 0.52 0.47 0.38 0.29 0.27 0.29 0.32 0.25
1.08 1.19 1.03 0.98 1.21 1.48 1.48 1.32 1.44 1.71 1.79 1.86 1.82 1.59 1.41 1.22 1.10 1.09 1.04 0.96 1.05 1.04 1.07 1.13 1.36 1.52 1.81 2.14 2.30 2.37 2.20 1.70 1.23 0.97 0.78 0.65 0.61 0.48 0.32 0.27 0.30 0.31 0.27
0.75 0.83 0.82 0.79 0.88 0.92 0.94 1.10 1.25 1.39 1.29 1.35 1.28 1.07 1.03 0.90 0.84 0.80 0.68 0.67 0.75 0.75 0.78 0.97 1.18 1.10 1.38 1.78 2.04 2.23 2.25 2.05 1.59 1.28 1.06 0.91 0.86 0.65 0.41 0.34 0.35 0.29 0.25
0.64 0.64 0.61 0.63 0.69 0.69 0.68 0.83 0.95 0.96 0.79 0.95 1.02 0.80 0.65 0.58 0.57 0.56 0.51 0.50 0.51 0.55 0.67 0.88 1.01 1.01 0.96 1.06 1.29 1.65 1.98 2.11 1.97 1.66 1.35 1.16 1.08 0.84 0.56 0.43 0.37 0.29 0.28
0.54 0.53 0.50 0.48 0.49 0.52 0.54 0.60 0.71 0.71 0.63 0.74 0.83 0.76 0.56 0.50 0.44 0.34 0.37 0.38 0.37 0.48 0.55 0.67 0.88 1.06 1.04 1.15 0.96 1.16 1.72 2.03 2.16 2.07 1.79 1.49 1.31 1.03 0.74 0.62 0.50 0.39 0.34
0.33 0.33 0.32 0.32 0.34 0.39 0.42 0.49 0.57 0.59 0.54 0.52 0.63 0.73 0.56 0.43 0.38 0.34 0.34 0.36 0.43 0.47 0.51 0.65 0.76 0.97 1.12 1.31 1.26 1.13 1.34 1.60 2.08 2.37 2.26 1.81 1.33 1.00 0.82 0.79 0.73 0.55 0.41
0.23 0.23 0.21 0.21 0.22 0.25 0.33 0.35 0.44 0.55 0.54 0.43 0.46 0.55 0.55 0.51 0.44 0.38 0.37 0.35 0.40 0.42 0.49 0.56 0.70 0.88 1.00 1.21 1.29 1.10 0.99 1.15 1.64 2.14 2.32 2.17 1.66 1.18 0.95 0.97 1.08 0.95 0.65
0.24 0.23 0.22 0.21 0.21 0.21 0.24 0.28 0.36 0.46 0.52 0.47 0.44 0.49 0.58 0.57 0.49 0.44 0.38 0.38 0.43 0.37 0.45 0.59 0.70 0.79 0.88 1.10 1.36 1.23 1.13 1.04 1.13 1.40 1.69 1.94 1.98 1.72 1.46 1.38 1.53 1.56 1.33
0.25 0.25 0.25 0.26 0.26 0.26 0.26 0.26 0.28 0.33 0.45 0.53 0.53 0.51 0.55 0.56 0.46 0.43 0.35 0.32 0.40 0.39 0.51 0.70 0.76 0.83 0.89 1.09 1.15 1.13 1.05 0.92 0.82 0.83 0.99 1.19 1.43 1.58 1.54 1.58 1.80 1.95 1.99
0.20 0.22 0.23 0.25 0.28 0.30 0.31 0.28 0.29 0.28 0.36 0.46 0.49 0.52 0.52 0.51 0.54 0.55 0.51 0.41 0.43 0.47 0.62 0.75 0.87 0.94 0.95 1.09 1.09 1.02 0.87 0.72 0.59 0.54 0.60 0.72 0.86 1.09 1.32 1.47 1.66 1.89 2.07
0.20 0.20 0.20 0.19 0.22 0.27 0.32 0.34 0.32 0.33 0.36 0.38 0.39 0.52 0.57 0.51 0.61 0.65 0.68 0.72 0.63 0.63 0.77 0.85 0.98 1.03 1.13 1.16 1.08 0.97 0.78 0.65 0.52 0.46 0.44 0.46 0.54 0.63 0.79 1.00 1.20 1.46 1.71
0.21 0.20 0.20 0.20 0.22 0.24 0.28 0.32 0.32 0.34 0.38 0.39 0.41 0.51 0.59 0.65 0.69 0.66 0.76 0.84 0.85 0.78 0.84 0.92 0.88 0.88 0.93 0.94 0.88 0.75 0.63 0.57 0.49 0.42 0.40 0.39 0.41 0.46 0.52 0.59 0.66 0.74 0.84
0.19 0.20 0.20 0.19 0.20 0.21 0.23 0.27 0.29 0.35 0.42 0.47 0.54 0.59 0.61 0.67 0.76 0.69 0.75 0.82 0.84 0.89 0.92 0.87 0.78 0.79 0.76 0.65 0.62 0.57 0.53 0.57 0.47 0.38 0.33 0.34 0.35 0.38 0.41 0.46 0.50 0.54 0.59
0.13 0.14 0.16 0.18 0.19 0.21 0.25 0.31 0.34 0.38 0.48 0.60 0.69 0.73 0.75 0.77 0.81 0.79 0.85 0.86 0.81 0.89 0.89 0.75 0.81 0.87 0.77 0.59 0.48 0.46 0.47 0.50 0.47 0.44 0.38 0.35 0.31 0.29 0.32 0.35 0.40 0.44 0.47
0.13 0.13 0.13 0.14 0.14 0.15 0.21 0.31 0.42 0.44 0.47 0.55 0.77 0.99 1.01 1.01 0.93 0.85 0.93 0.91 0.87 1.01 0.97 0.86 0.94 0.97 0.91 0.73 0.58 0.49 0.42 0.42 0.45 0.45 0.40 0.39 0.36 0.31 0.27 0.27 0.28 0.30 0.32
0.13 0.13 0.14 0.13 0.13 0.12 0.14 0.22 0.35 0.40 0.49 0.63 0.79 0.92 1.04 1.16 1.06 0.96 0.94 0.93 0.96 1.05 1.03 0.93 0.97 1.11 1.14 0.95 0.70 0.49 0.38 0.38 0.40 0.45 0.41 0.36 0.36 0.35 0.32 0.27 0.25 0.25 0.24
0.11 0.13 0.14 0.14 0.14 0.12 0.12 0.18 0.26 0.34 0.47 0.65 0.72 0.67 0.78 1.03 1.14 1.06 0.95 0.90 0.94 0.99 0.99 1.01 1.06 1.20 1.25 1.19 0.93 0.65 0.48 0.38 0.34 0.37 0.42 0.38 0.35 0.34 0.33 0.29 0.26 0.25 0.26
0.10 0.13 0.16 0.16 0.16 0.13 0.11 0.18 0.27 0.23 0.29 0.37 0.42 0.41 0.47 0.65 0.92 1.09 1.03 0.93 0.93 0.90 0.91 1.00 1.08 1.18 1.21 1.24 1.08 0.82 0.62 0.51 0.41 0.38 0.41 0.39 0.36 0.31 0.29 0.29 0.27 0.24 0.22
0.15 0.19 0.22 0.23 0.21 0.15 0.12 0.13 0.16 0.18 0.21 0.24 0.27 0.31 0.32 0.33 0.44 0.66 0.87 0.98 1.02 0.96 0.90 0.94 1.08 1.13 1.13 1.13 1.11 0.97 0.75 0.59 0.48 0.44 0.45 0.45 0.46 0.42 0.32 0.27 0.27 0.24 0.21
0.21 0.25 0.29 0.32 0.32 0.30 0.20 0.12 0.09 0.13 0.17 0.21 0.26 0.30 0.24 0.20 0.29 0.38 0.51 0.64 0.78 0.84 0.85 0.91 0.99 1.09 1.16 1.26 1.24 1.08 0.89 0.75 0.61 0.53 0.53 0.50 0.49 0.49 0.46 0.38 0.37 0.29 0.25
0.30 0.32 0.34 0.37 0.42 0.39 0.27 0.18 0.14 0.12 0.17 0.22 0.28 0.31 0.31 0.29 0.31 0.38 0.45 0.47 0.52 0.58 0.61 0.67 0.79 0.97 1.16 1.32 1.43 1.33 1.18 0.96 0.82 0.73 0.67 0.55 0.48 0.46 0.46 0.46 0.45 0.39 0.32
0.39 0.38 0.38 0.43 0.47 0.50 0.38 0.25 0.21 0.21 0.26 0.27 0.29 0.31 0.35 0.35 0.32 0.29 0.37 0.40 0.42 0.45 0.48 0.56 0.63 0.82 1.09 1.30 1.37 1.40 1.28 1.06 0.87 0.75 0.67 0.60 0.51 0.48 0.48 0.42 0.40 0.40 0.36
0.53 0.49 0.46 0.49 0.54 0.61 0.52 0.31 0.26 0.30 0.35 0.37 0.44 0.46 0.38 0.34 0.32 0.24 0.30 0.38 0.38 0.40 0.47 0.51 0.57 0.62 0.75 1.02 1.25 1.15 1.07 1.00 0.86 0.70 0.54 0.52 0.53 0.53 0.48 0.38 0.33 0.32 0.30

GEFSMA_prec_meanprecacc_096.txt.gz
Total_Precipitation_Accumulation
1.47 1.59 1.41 1.37 1.24 1.55 1.92 2.13 2.19 2.35 2.44 2.39 2.07 1.83 1.75 1.57 1.36 1.51 1.81 2.01 2.05 1.92 1.93 1.93 1.68 1.56 1.50 1.29 1.12 1.03 0.93 0.85 0.75 0.62 0.57 0.52 0.43 0.28 0.16 0.14 0.15 0.18 0.15
1.66 1.72 1.67 1.58 1.36 1.51 1.85 2.20 2.28 2.50 2.46 2.48 1.97 1.73 1.66 1.65 1.44 1.33 1.45 1.79 1.77 1.67 1.65 1.80 1.85 1.81 1.74 1.55 1.34 1.16 1.01 0.92 0.83 0.67 0.57 0.54 0.47 0.38 0.30 0.22 0.20 0.21 0.18
1.88 2.06 1.95 1.64 1.49 1.68 1.87 1.90 2.02 2.48 2.31 2.25 2.04 2.00 1.95 1.74 1.53 1.40 1.36 1.45 1.44 1.55 1.53 1.56 1.73 1.84 1.91 1.88 1.72 1.47 1.23 1.01 0.83 0.68 0.57 0.51 0.46 0.39 0.37 0.32 0.29 0.28 0.23
1.71 1.89 1.62 1.31 1.48 1.76 1.90 1.81 1.81 2.17 2.21 2.19 2.15 2.04 1.94 1.74 1.52 1.42 1.37 1.27 1.23 1.10 1.24 1.42 1.61 1.76 1.97 2.03 2.08 2.05 1.78 1.33 0.99 0.77 0.61 0.53 0.48 0.39 0.30 0.28 0.30 0.33 0.26
1.08 1.19 1.03 0.98 1.21 1.48 1.49 1.32 1.44 1.71 1.79 1.86 1.82 1.60 1.41 1.23 1.11 1.09 1.06 0.99 1.07 1.06 1.10 1.16 1.41 1.57 1.86 2.20 2.38 2.47 2.30 1.78 1.30 1.02 0.83 0.69 0.63 0.50 0.34 0.28 0.32 0.32 0.27
0.75 0.83 0.82 0.79 0.88 0.92 0.94 1.10 1.25 1.40 1.29 1.36 1.29 1.08 1.03 0.90 0.84 0.81 0.69 0.69 0.77 0.77 0.80 0.99 1.21 1.12 1.42 1.83 2.12 2.32 2.35 2.15 1.67 1.33 1.12 0.97 0.91 0.69 0.44 0.36 0.37 0.30 0.26
0.64 0.64 0.61 0.63 0.69 0.69 0.68 0.83 0.95 0.96 0.79 0.95 1.02 0.81 0.66 0.58 0.57 0.57 0.52 0.51 0.52 0.56 0.69 0.88 1.03 1.02 0.98 1.09 1.33 1.72 2.08 2.21 2.06 1.73 1.42 1.23 1.15 0.90 0.60 0.47 0.41 0.32 0.29
0.54 0.53 0.50 0.48 0.49 0.52 0.54 0.60 0.71 0.71 0.63 0.74 0.84 0.76 0.57 0.50 0.45 0.34 0.37 0.38 0.37 0.48 0.55 0.67 0.88 1.07 1.06 1.17 0.98 1.22 1.80 2.12 2.27 2.17 1.88 1.56 1.37 1.08 0.78 0.66 0.54 0.42 0.36
0.33 0.33 0.32 0.32 0.34 0.39 0.42 0.49 0.57 0.59 0.54 0.52 0.63 0.73 0.57 0.43 0.39 0.34 0.34 0.36 0.43 0.47 0.51 0.66 0.77 0.97 1.13 1.32 1.27 1.16 1.38 1.66 2.15 2.46 2.35 1.90 1.39 1.05 0.86 0.82 0.76 0.57 0.43
0.23 0.23 0.21 0.21 0.22 0.25 0.33 0.35 0.44 0.55 0.54 0.43 0.46 0.55 0.55 0.51 0.44 0.39 0.37 0.35 0.40 0.42 0.49 0.56 0.70 0.88 1.00 1.22 1.29 1.10 1.00 1.18 1.68 2.21 2.41 2.25 1.72 1.22 0.98 1.01 1.12 0.99 0.69
0.24 0.23 0.22 0.21 0.21 0.21 0.24 0.28 0.36 0.46 0.52 0.47 0.44 0.49 0.58 0.57 0.49 0.44 0.38 0.38 0.43 0.37 0.45 0.59 0.70 0.79 0.88 1.10 1.36 1.23 1.13 1.05 1.14 1.42 1.72 1.99 2.03 1.76 1.49 1.43 1.59 1.62 1.39
0.25 0.25 0.25 0.26 0.26 0.26 0.26 0.26 0.28 0.33 0.45 0.53 0.53 0.51 0.55 0.56 0.46 0.43 0.35 0.32 0.40 0.39 0.51 0.70 0.76 0.83 0.89 1.09 1.15 1.13 1.05 0.92 0.82 0.83 0.99 1.21 1.46 1.62 1.58 1.63 1.85 2.02 2.07
0.20 0.22 0.23 0.25 0.28 0.30 0.31 0.28 0.29 0.28 0.36 0.46 0.49 0.52 0.52 0.51 0.54 0.55 0.51 0.41 0.43 0.47 0.62 0.75 0.87 0.94 0.95 1.09 1.09 1.03 0.87 0.72 0.59 0.54 0.60 0.73 0.87 1.10 1.34 1.50 1.70 1.94 2.13
0.20 0.20 0.20 0.19 0.22 0.27 0.32 0.34 0.32 0.33 0.36 0.38 0.39 0.52 0.57 0.51 0.61 0.65 0.68 0.72 0.63 0.63 0.77 0.85 0.98 1.03 1.13 1.16 1.08 0.97 0.78 0.65 0.52 0.46 0.44 0.47 0.55 0.63 0.80 1.00 1.22 1.49 1.74
0.21 0.20 0.20 0.20 0.22 0.24 0.28 0.32 0.32 0.34 0.38 0.39 0.41 0.51 0.59 0.65 0.69 0.66 0.76 0.84 0.85 0.78 0.84 0.92 0.88 0.88 0.93 0.94 0.88 0.75 0.63 0.57 0.49 0.42 0.40 0.39 0.41 0.46 0.52 0.59 0.67 0.74 0.84
0.19 0.20 0.20 0.19 0.20 0.21 0.23 0.27 0.29 0.35 0.42 0.47 0.54 0.59 0.61 0.67 0.76 0.69 0.75 0.82 0.84 0.89 0.92 0.87 0.78 0.79 0.76 0.65 0.62 0.57 0.53 0.57 0.47 0.38 0.33 0.34 0.35 0.38 0.41 0.46 0.50 0.55 0.59
0.13 0.14 0.16 0.18 0.19 0.21 0.25 0.31 0.34 0.38 0.48 0.60 0.69 0.73 0.75 0.77 0.81 0.79 0.85 0.86 0.81 0.89 0.89 0.75 0.81 0.87 0.77 0.59 0.48 0.46 0.47 0.50 0.47 0.44 0.38 0.35 0.31 0.29 0.32 0.35 0.40 0.44 0.47
0.14 0.13 0.13 0.14 0.14 0.15 0.21 0.31 0.42 0.44 0.47 0.55 0.77 0.99 1.01 1.01 0.93 0.85 0.93 0.91 0.87 1.01 0.97 0.86 0.94 0.97 0.91 0.73 0.58 0.49 0.42 0.42 0.45 0.45 0.40 0.39 0.36 0.31 0.27 0.27 0.28 0.30 0.32
0.14 0.14 0.14 0.14 0.13 0.12 0.14 0.22 0.35 0.40 0.49 0.63 0.79 0.92 1.04 1.16 1.06 0.96 0.94 0.93 0.96 1.05 1.03 0.93 0.97 1.11 1.14 0.95 0.70 0.49 0.38 0.38 0.40 0.45 0.41 0.36 0.36 0.35 0.32 0.27 0.25 0.25 0.24
0.14 0.15 0.16 0.15 0.15 0.13 0.13 0.18 0.26 0.34 0.47 0.66 0.72 0.67 0.78 1.03 1.14 1.06 0.95 0.90 0.94 0.99 0.99 1.01 1.06 1.20 1.25 1.19 0.93 0.65 0.48 0.38 0.34 0.37 0.42 0.38 0.35 0.34 0.33 0.29 0.26 0.25 0.26
0.16 0.18 0.19 0.19 0.18 0.15 0.12 0.19 0.28 0.24 0.29 0.38 0.42 0.41 0.47 0.66 0.93 1.09 1.03 0.93 0.93 0.91 0.92 1.00 1.08 1.18 1.21 1.24 1.08 0.82 0.62 0.51 0.41 0.38 0.41 0.39 0.36 0.31 0.29 0.29 0.27 0.24 0.22
0.29 0.31 0.32 0.30 0.27 0.20 0.18 0.18 0.20 0.22 0.24 0.27 0.29 0.32 0.33 0.34 0.44 0.67 0.88 1.00 1.05 0.98 0.91 0.95 1.09 1.13 1.13 1.14 1.12 0.97 0.75 0.59 0.48 0.44 0.45 0.45 0.46 0.42 0.32 0.27 0.27 0.24 0.21
0.49 0.48 0.48 0.47 0.45 0.43 0.31 0.23 0.18 0.19 0.22 0.24 0.28 0.32 0.25 0.22 0.31 0.40 0.54 0.67 0.81 0.87 0.88 0.93 1.00 1.09 1.17 1.26 1.25 1.08 0.89 0.76 0.61 0.54 0.53 0.50 0.49 0.49 0.46 0.38 0.37 0.29 0.25
0.71 0.66 0.62 0.59 0.60 0.55 0.40 0.28 0.22 0.18 0.21 0.26 0.30 0.34 0.34 0.31 0.33 0.41 0.48 0.50 0.54 0.59 0.63 0.69 0.80 0.98 1.17 1.33 1.44 1.34 1.19 0.96 0.82 0.73 0.67 0.55 0.48 0.46 0.46 0.46 0.45 0.39 0.32
0.77 0.68 0.63 0.64 0.66 0.66 0.51 0.35 0.29 0.27 0.31 0.31 0.34 0.36 0.38 0.36 0.34 0.30 0.38 0.42 0.43 0.46 0.49 0.57 0.64 0.82 1.10 1.31 1.39 1.42 1.29 1.07 0.87 0.75 0.67 0.60 0.52 0.48 0.48 0.42 0.40 0.40 0.36
0.89 0.82 0.73 0.74 0.76 0.81 0.69 0.45 0.37 0.38 0.42 0.42 0.48 0.50 0.42 0.38 0.34 0.26 0.32 0.40 0.39 0.40 0.49 0.53 0.58 0.63 0.76 1.04 1.27 1.17 1.10 1.02 0.87 0.70 0.54 0.53 0.53 0.53 0.48 0.38 0.33 0.32 0.30

GEFSMA_prec_meanprecacc_102.txt.gz
Total_Precipitation_Accumulation
1.49 1.60 1.42 1.38 1.25 1.56 1.93 2.15 2.21 2.36 2.45 2.41 2.10 1.85 1.76 1.59 1.38 1.53 1.84 2.05 2.11 1.98 2.01 2.01 1.74 1.61 1.58 1.36 1.18 1.08 0.96 0.88 0.78 0.65 0.58 0.53 0.44 0.28 0.16 0.14 0.16 0.19 0.15
1.66 1.73 1.68 1.58 1.36 1.51 1.85 2.21 2.30 2.52 2.48 2.50 2.00 1.75 1.68 1.67 1.45 1.34 1.47 1.82 1.83 1.74 1.74 1.90 1.95 1.91 1.84 1.63 1.41 1.23 1.07 0.96 0.86 0.70 0.59 0.56 0.48 0.38 0.30 0.22 0.20 0.21 0.18
1.89 2.07 1.96 1.65 1.49 1.68 1.87 1.91 2.03 2.49 2.33 2.26 2.06 2.03 1.97 1.76 1.55 1.42 1.38 1.47 1.47 1.60 1.61 1.65 1.83 1.96 2.04 1.98 1.81 1.56 1.32 1.07 0.88 0.73 0.61 0.53 0.48 0.41 0.39 0.33 0.29 0.29 0.23
1.72 1.89 1.63 1.32 1.48 1.76 1.90 1.81 1.82 2.19 2.22 2.20 2.16 2.07 1.96 1.76 1.53 1.44 1.40 1.30 1.26 1.12 1.29 1.50 1.70 1.85 2.08 2.16 2.20 2.16 1.89 1.44 1.07 0.82 0.66 0.57 0.51 0.42 0.33 0.30 0.31 0.34 0.26
1.08 1.20 1.03 0.98 1.21 1.48 1.49 1.32 1.45 1.71 1.80 1.87 1.83 1.62 1.43 1.25 1.13 1.11 1.07 1.01 1.10 1.09 1.12 1.21 1.49 1.66 1.95 2.33 2.56 2.64 2.45 1.91 1.38 1.09 0.90 0.75 0.69 0.54 0.37 0.30 0.33 0.33 0.28
0.75 0.83 0.82 0.79 0.88 0.92 0.94 1.10 1.25 1.40 1.29 1.36 1.30 1.09 1.05 0.91 0.84 0.81 0.70 0.70 0.78 0.79 0.83 1.02 1.24 1.16 1.49 1.94 2.26 2.47 2.49 2.27 1.77 1.42 1.21 1.06 1.00 0.75 0.48 0.39 0.39 0.33 0.27
0.64 0.64 0.61 0.63 0.69 0.69 0.68 0.83 0.95 0.96 0.79 0.95 1.03 0.81 0.66 0.59 0.57 0.57 0.52 0.51 0.53 0.58 0.71 0.91 1.04 1.03 1.01 1.15 1.41 1.81 2.20 2.34 2.18 1.83 1.50 1.31 1.24 0.98 0.66 0.52 0.45 0.36 0.33
0.54 0.53 0.50 0.48 0.49 0.52 0.54 0.60 0.71 0.72 0.63 0.74 0.84 0.77 0.57 0.50 0.45 0.34 0.37 0.38 0.38 0.49 0.56 0.69 0.89 1.08 1.07 1.19 1.01 1.28 1.89 2.23 2.40 2.30 2.00 1.67 1.46 1.17 0.85 0.72 0.59 0.47 0.41
0.33 0.33 0.32 0.32 0.34 0.39 0.42 0.49 0.57 0.60 0.54 0.52 0.63 0.73 0.57 0.43 0.39 0.34 0.34 0.36 0.43 0.47 0.51 0.66 0.77 0.98 1.14 1.33 1.29 1.19 1.43 1.72 2.25 2.60 2.50 2.02 1.47 1.11 0.92 0.89 0.83 0.63 0.48
0.23 0.23 0.21 0.21 0.22 0.25 0.33 0.35 0.44 0.55 0.54 0.44 0.47 0.55 0.55 0.51 0.44 0.39 0.37 0.35 0.40 0.43 0.49 0.56 0.70 0.88 1.01 1.23 1.30 1.12 1.03 1.22 1.75 2.32 2.53 2.36 1.80 1.28 1.04 1.06 1.20 1.06 0.75
0.24 0.23 0.22 0.21 0.21 0.21 0.24 0.28 0.36 0.46 0.52 0.47 0.44 0.50 0.59 0.57 0.49 0.45 0.38 0.39 0.43 0.37 0.46 0.59 0.70 0.79 0.88 1.11 1.37 1.24 1.14 1.07 1.17 1.46 1.77 2.05 2.10 1.82 1.55 1.50 1.67 1.71 1.48
0.26 0.25 0.25 0.26 0.26 0.26 0.26 0.26 0.28 0.33 0.45 0.53 0.53 0.51 0.56 0.56 0.46 0.43 0.35 0.32 0.40 0.39 0.52 0.70 0.76 0.83 0.89 1.09 1.15 1.13 1.06 0.93 0.83 0.84 1.01 1.24 1.50 1.67 1.63 1.69 1.92 2.10 2.16
0.20 0.22 0.23 0.25 0.28 0.30 0.31 0.28 0.29 0.28 0.36 0.46 0.49 0.52 0.52 0.51 0.54 0.55 0.51 0.41 0.43 0.47 0.62 0.75 0.87 0.94 0.95 1.09 1.09 1.03 0.87 0.72 0.59 0.54 0.61 0.74 0.89 1.13 1.37 1.53 1.74 2.00 2.20
0.20 0.20 0.20 0.19 0.22 0.27 0.32 0.34 0.32 0.33 0.36 0.38 0.39 0.52 0.57 0.51 0.61 0.65 0.68 0.72 0.63 0.63 0.77 0.85 0.98 1.03 1.13 1.16 1.08 0.97 0.78 0.66 0.52 0.46 0.44 0.47 0.55 0.63 0.81 1.02 1.24 1.51 1.77
0.22 0.20 0.20 0.20 0.22 0.24 0.28 0.32 0.32 0.34 0.38 0.39 0.41 0.51 0.59 0.65 0.69 0.66 0.76 0.84 0.85 0.78 0.84 0.92 0.88 0.88 0.93 0.94 0.88 0.75 0.63 0.57 0.49 0.42 0.40 0.39 0.41 0.46 0.53 0.60 0.67 0.75 0.85
0.20 0.20 0.20 0.19 0.20 0.21 0.23 0.27 0.29 0.35 0.42 0.47 0.54 0.59 0.61 0.67 0.76 0.69 0.75 0.82 0.84 0.89 0.92 0.87 0.78 0.79 0.76 0.65 0.62 0.57 0.53 0.57 0.47 0.38 0.33 0.34 0.35 0.38 0.41 0.46 0.50 0.55 0.60
0.15 0.15 0.16 0.18 0.19 0.22 0.25 0.31 0.34 0.38 0.48 0.60 0.69 0.73 0.75 0.77 0.81 0.79 0.85 0.86 0.81 0.89 0.89 0.75 0.81 0.87 0.77 0.59 0.48 0.46 0.47 0.50 0.47 0.44 0.38 0.35 0.31 0.29 0.32 0.35 0.40 0.44 0.47
0.16 0.14 0.14 0.15 0.15 0.16 0.22 0.32 0.42 0.44 0.47 0.55 0.77 0.99 1.01 1.01 0.93 0.85 0.93 0.91 0.87 1.01 0.97 0.86 0.94 0.97 0.91 0.73 0.58 0.49 0.42 0.42 0.45 0.45 0.40 0.39 0.36 0.31 0.27 0.27 0.28 0.30 0.32
0.17 0.16 0.16 0.16 0.14 0.13 0.15 0.23 0.35 0.40 0.49 0.63 0.79 0.92 1.04 1.16 1.06 0.96 0.94 0.93 0.96 1.05 1.03 0.93 0.97 1.11 1.14 0.95 0.70 0.49 0.38 0.38 0.40 0.45 0.41 0.36 0.36 0.35 0.32 0.27 0.25 0.25 0.24
0.17 0.19 0.19 0.18 0.17 0.15 0.14 0.19 0.27 0.35 0.48 0.66 0.72 0.67 0.78 1.04 1.14 1.07 0.95 0.90 0.94 0.99 1.00 1.01 1.06 1.20 1.25 1.19 0.93 0.65 0.48 0.38 0.34 0.37 0.42 0.38 0.35 0.34 0.33 0.29 0.26 0.25 0.26
0.24 0.26 0.26 0.24 0.23 0.19 0.15 0.21 0.30 0.26 0.31 0.39 0.43 0.43 0.49 0.66 0.93 1.10 1.04 0.94 0.94 0.92 0.92 1.01 1.09 1.18 1.21 1.24 1.08 0.82 0.62 0.51 0.41 0.38 0.41 0.39 0.36 0.31 0.29 0.29 0.27 0.24 0.22
0.43 0.45 0.43 0.40 0.37 0.27 0.22 0.21 0.23 0.25 0.27 0.30 0.32 0.35 0.35 0.35 0.46 0.68 0.90 1.02 1.07 1.00 0.92 0.96 1.09 1.14 1.14 1.14 1.12 0.98 0.76 0.59 0.48 0.44 0.46 0.45 0.46 0.42 0.32 0.27 0.27 0.24 0.21
0.67 0.67 0.63 0.59 0.55 0.52 0.40 0.29 0.24 0.25 0.26 0.27 0.31 0.34 0.28 0.24 0.33 0.42 0.56 0.70 0.83 0.89 0.90 0.95 1.01 1.10 1.17 1.26 1.25 1.09 0.90 0.76 0.61 0.54 0.53 0.50 0.49 0.49 0.46 0.38 0.37 0.29 0.25
0.89 0.84 0.78 0.73 0.73 0.68 0.53 0.38 0.31 0.25 0.27 0.31 0.35 0.39 0.38 0.35 0.37 0.44 0.51 0.52 0.56 0.61 0.65 0.72 0.82 0.98 1.17 1.34 1.45 1.35 1.20 0.97 0.82 0.73 0.67 0.55 0.48 0.46 0.46 0.46 0.45 0.39 0.32
0.92 0.84 0.79 0.80 0.81 0.81 0.67 0.49 0.41 0.39 0.42 0.42 0.43 0.44 0.44 0.41 0.38 0.34 0.41 0.44 0.45 0.47 0.52 0.59 0.66 0.83 1.10 1.32 1.40 1.43 1.29 1.08 0.88 0.75 0.68 0.60 0.52 0.48 0.48 0.42 0.40 0.40 0.36
1.02 0.98 0.90 0.90 0.92 0.95 0.84 0.58 0.49 0.49 0.52 0.52 0.57 0.57 0.47 0.43 0.38 0.30 0.35 0.42 0.40 0.42 0.50 0.55 0.60 0.64 0.77 1.05 1.29 1.19 1.11 1.04 0.88 0.71 0.54 0.53 0.54 0.53 0.48 0.38 0.33 0.32 0.30

GEFSMA_prec_meanprecacc_108.txt.gz
Total_Precipitation_Accumulation
1.54 1.64 1.45 1.40 1.27 1.58 1.95 2.17 2.23 2.39 2.49 2.44 2.11 1.88 1.80 1.63 1.42 1.57 1.88 2.10 2.17 2.05 2.11 2.11 1.84 1.71 1.66 1.43 1.23 1.12 1.01 0.92 0.82 0.68 0.62 0.57 0.46 0.30 0.17 0.15 0.16 0.19 0.16
1.71 1.76 1.71 1.62 1.39 1.54 1.87 2.23 2.31 2.54 2.51 2.53 2.03 1.78 1.71 1.72 1.51 1.40 1.52 1.88 1.90 1.82 1.83 2.01 2.06 2.00 1.92 1.71 1.48 1.29 1.12 1.00 0.90 0.74 0.63 0.59 0.51 0.40 0.31 0.24 0.22 0.22 0.19
1.93 2.10 1.99 1.68 1.52 1.70 1.89 1.92 2.04 2.50 2.34 2.28 2.09 2.06 2.00 1.80 1.60 1.48 1.44 1.54 1.54 1.67 1.70 1.75 1.94 2.06 2.13 2.06 1.89 1.63 1.40 1.15 0.93 0.77 0.64 0.56 0.50 0.43 0.41 0.35 0.31 0.30 0.24
1.76 1.92 1.66 1.35 1.51 1.78 1.92 1.83 1.84 2.20 2.24 2.23 2.21 2.11 2.00 1.81 1.57 1.49 1.45 1.36 1.33 1.18 1.36 1.57 1.78 1.94 2.17 2.25 2.30 2.25 1.98 1.52 1.13 0.86 0.69 0.59 0.53 0.44 0.35 0.31 0.32 0.35 0.27
1.10 1.22 1.06 1.01 1.23 1.49 1.50 1.33 1.46 1.72 1.81 1.90 1.86 1.65 1.46 1.27 1.14 1.12 1.10 1.04 1.14 1.16 1.21 1.27 1.53 1.71 2.02 2.41 2.64 2.73 2.53 1.98 1.45 1.15 0.94 0.79 0.72 0.57 0.39 0.32 0.34 0.34 0.29
0.76 0.84 0.84 0.80 0.89 0.93 0.96 1.11 1.27 1.41 1.30 1.38 1.31 1.10 1.06 0.92 0.85 0.82 0.71 0.71 0.81 0.82 0.87 1.07 1.30 1.20 1.53 1.99 2.33 2.54 2.56 2.33 1.83 1.48 1.26 1.11 1.05 0.79 0.51 0.42 0.41 0.34 0.28
0.65 0.65 0.61 0.63 0.70 0.69 0.69 0.84 0.96 0.97 0.80 0.96 1.03 0.82 0.67 0.60 0.59 0.58 0.54 0.52 0.54 0.59 0.74 0.95 1.10 1.08 1.05 1.19 1.44 1.86 2.25 2.40 2.24 1.89 1.56 1.37 1.30 1.05 0.72 0.57 0.48 0.39 0.36
0.54 0.54 0.51 0.49 0.49 0.52 0.55 0.60 0.72 0.73 0.64 0.75 0.84 0.77 0.58 0.52 0.46 0.35 0.38 0.39 0.40 0.50 0.57 0.71 0.92 1.13 1.12 1.25 1.04 1.31 1.93 2.28 2.45 2.37 2.07 1.75 1.53 1.24 0.91 0.77 0.62 0.51 0.45
0.33 0.33 0.32 0.32 0.34 0.39 0.42 0.49 0.57 0.60 0.54 0.52 0.63 0.73 0.57 0.44 0.40 0.35 0.34 0.37 0.44 0.49 0.52 0.67 0.79 1.01 1.18 1.39 1.34 1.22 1.46 1.75 2.30 2.67 2.59 2.10 1.53 1.16 0.97 0.94 0.87 0.67 0.52
0.24 0.24 0.22 0.22 0.22 0.25 0.33 0.35 0.45 0.55 0.54 0.44 0.47 0.55 0.55 0.51 0.45 0.40 0.38 0.36 0.41 0.44 0.50 0.57 0.72 0.90 1.03 1.26 1.33 1.13 1.04 1.24 1.78 2.36 2.59 2.42 1.86 1.33 1.07 1.11 1.25 1.12 0.82
0.25 0.24 0.22 0.21 0.21 0.21 0.24 0.29 0.37 0.46 0.53 0.47 0.44 0.50 0.59 0.57 0.49 0.46 0.40 0.40 0.45 0.38 0.46 0.60 0.72 0.81 0.90 1.12 1.38 1.25 1.14 1.07 1.18 1.47 1.80 2.08 2.14 1.86 1.59 1.54 1.72 1.78 1.55
0.26 0.26 0.26 0.27 0.27 0.26 0.26 0.26 0.28 0.34 0.45 0.54 0.53 0.51 0.56 0.56 0.46 0.43 0.36 0.34 0.41 0.40 0.53 0.71 0.77 0.83 0.90 1.09 1.16 1.13 1.06 0.93 0.83 0.84 1.02 1.26 1.53 1.70 1.66 1.72 1.96 2.16 2.24
0.20 0.23 0.24 0.25 0.28 0.31 0.31 0.28 0.29 0.29 0.36 0.46 0.49 0.52 0.52 0.51 0.54 0.55 0.51 0.42 0.44 0.49 0.64 0.76 0.88 0.95 0.95 1.09 1.09 1.03 0.87 0.72 0.59 0.54 0.61 0.74 0.90 1.15 1.39 1.56 1.77 2.04 2.26
0.20 0.20 0.21 0.20 0.22 0.27 0.32 0.34 0.32 0.33 0.36 0.38 0.39 0.52 0.57 0.51 0.61 0.65 0.68 0.72 0.64 0.64 0.79 0.86 0.99 1.03 1.13 1.16 1.08 0.97 0.79 0.66 0.52 0.46 0.44 0.47 0.55 0.64 0.81 1.03 1.25 1.52 1.79
0.23 0.21 0.21 0.21 0.22 0.24 0.28 0.32 0.33 0.35 0.38 0.39 0.41 0.51 0.59 0.65 0.69 0.66 0.76 0.84 0.85 0.78 0.85 0.93 0.89 0.88 0.93 0.94 0.88 0.75 0.63 0.57 0.49 0.42 0.40 0.39 0.41 0.46 0.53 0.60 0.68 0.75 0.85
0.22 0.22 0.21 0.20 0.20 0.22 0.24 0.27 0.29 0.36 0.42 0.47 0.54 0.59 0.61 0.67 0.76 0.69 0.75 0.82 0.84 0.89 0.92 0.87 0.78 0.79 0.76 0.65 0.62 0.57 0.53 0.57 0.47 0.38 0.33 0.34 0.35 0.38 0.41 0.46 0.50 0.55 0.60
0.19 0.17 0.19 0.20 0.21 0.23 0.26 0.32 0.35 0.39 0.49 0.60 0.69 0.73 0.76 0.78 0.81 0.79 0.85 0.86 0.81 0.89 0.89 0.75 0.81 0.87 0.77 0.59 0.48 0.46 0.47 0.50 0.47 0.44 0.38 0.35 0.31 0.29 0.32 0.35 0.40 0.44 0.47
0.23 0.20 0.20 0.20 0.18 0.17 0.24 0.34 0.44 0.45 0.48 0.55 0.77 0.99 1.01 1.01 0.93 0.85 0.93 0.91 0.87 1.01 0.97 0.86 0.94 0.97 0.92 0.74 0.58 0.50 0.42 0.42 0.45 0.45 0.40 0.39 0.36 0.31 0.27 0.27 0.28 0.30 0.32
0.26 0.24 0.23 0.21 0.18 0.16 0.17 0.25 0.37 0.42 0.51 0.64 0.80 0.93 1.05 1.17 1.06 0.97 0.95 0.94 0.96 1.06 1.04 0.94 0.97 1.11 1.14 0.95 0.71 0.50 0.38 0.38 0.40 0.45 0.41 0.36 0.36 0.35 0.32 0.27 0.25 0.25 0.24
0.28 0.28 0.27 0.25 0.23 0.18 0.17 0.21 0.29 0.36 0.49 0.68 0.74 0.68 0.79 1.05 1.16 1.09 0.97 0.92 0.96 1.00 1.01 1.02 1.07 1.20 1.26 1.20 0.95 0.66 0.49 0.39 0.35 0.37 0.43 0.38 0.35 0.34 0.33 0.29 0.26 0.25 0.26
0.33 0.36 0.34 0.32 0.30 0.24 0.18 0.25 0.33 0.28 0.33 0.42 0.46 0.46 0.51 0.69 0.95 1.12 1.05 0.96 0.96 0.94 0.95 1.03 1.10 1.19 1.22 1.26 1.10 0.84 0.63 0.52 0.42 0.39 0.42 0.40 0.37 0.31 0.29 0.29 0.27 0.24 0.22
0.52 0.55 0.53 0.49 0.45 0.33 0.29 0.27 0.29 0.31 0.33 0.35 0.36 0.40 0.39 0.38 0.49 0.70 0.91 1.04 1.09 1.02 0.95 0.99 1.12 1.16 1.17 1.18 1.16 1.00 0.78 0.60 0.49 0.45 0.47 0.45 0.46 0.42 0.32 0.27 0.27 0.24 0.21
0.77 0.77 0.74 0.69 0.65 0.61 0.48 0.36 0.29 0.30 0.31 0.32 0.36 0.40 0.32 0.27 0.36 0.44 0.59 0.72 0.85 0.92 0.93 0.98 1.04 1.13 1.21 1.31 1.30 1.12 0.93 0.79 0.63 0.55 0.56 0.51 0.49 0.49 0.46 0.38 0.37 0.29 0.25
0.98 0.96 0.90 0.83 0.82 0.76 0.61 0.45 0.37 0.31 0.33 0.38 0.42 0.45 0.44 0.40 0.41 0.48 0.54 0.55 0.59 0.64 0.68 0.74 0.84 1.01 1.19 1.37 1.48 1.37 1.23 0.99 0.83 0.74 0.69 0.56 0.49 0.47 0.46 0.46 0.45 0.39 0.32
1.03 0.93 0.87 0.86 0.87 0.87 0.74 0.56 0.49 0.46 0.50 0.50 0.51 0.51 0.50 0.46 0.44 0.39 0.45 0.48 0.49 0.52 0.55 0.62 0.68 0.85 1.12 1.33 1.42 1.44 1.31 1.10 0.89 0.76 0.70 0.62 0.53 0.49 0.48 0.42 0.41 0.40 0.36
1.08 1.05 0.96 0.97 0.99 1.01 0.91 0.65 0.57 0.56 0.60 0.61 0.66 0.64 0.54 0.48 0.43 0.35 0.39 0.46 0.45 0.47 0.55 0.59 0.63 0.66 0.78 1.07 1.32 1.21 1.13 1.06 0.90 0.72 0.56 0.56 0.55 0.55 0.49 0.38 0.33 0.33 0.30

GEFSMA_prec_meanprecacc_114.txt.gz
Total_Precipitation_Accumulation
1.61 1.69 1.49 1.44 1.31 1.61 1.99 2.20 2.25 2.41 2.50 2.45 2.12 1.89 1.81 1.66 1.47 1.62 1.94 2.13 2.19 2.07 2.12 2.13 1.87 1.74 1.70 1.46 1.25 1.14 1.03 0.95 0.85 0.70 0.64 0.60 0.48 0.31 0.18 0.15 0.17 0.19 0.16
1.77 1.81 1.75 1.65 1.42 1.56 1.90 2.25 2.33 2.56 2.52 2.54 2.04 1.80 1.72 1.74 1.55 1.46 1.59 1.92 1.92 1.84 1.85 2.03 2.08 2.02 1.94 1.74 1.52 1.31 1.14 1.03 0.93 0.76 0.64 0.60 0.52 0.41 0.32 0.25 0.22 0.23 0.19
1.98 2.13 2.03 1.71 1.55 1.71 1.91 1.93 2.05 2.52 2.36 2.30 2.11 2.08 2.02 1.82 1.62 1.52 1.49 1.58 1.57 1.70 1.72 1.77 1.97 2.09 2.16 2.09 1.91 1.65 1.42 1.17 0.96 0.79 0.66 0.57 0.52 0.44 0.41 0.35 0.32 0.31 0.24
1.79 1.96 1.70 1.37 1.53 1.80 1.93 1.85 1.85 2.21 2.25 2.25 2.24 2.14 2.03 1.83 1.59 1.51 1.48 1.38 1.37 1.24 1.40 1.59 1.80 1.96 2.21 2.29 2.34 2.28 2.00 1.53 1.15 0.89 0.71 0.61 0.54 0.45 0.36 0.32 0.33 0.35 0.27
1.13 1.25 1.10 1.04 1.25 1.50 1.50 1.33 1.47 1.73 1.84 1.93 1.88 1.67 1.48 1.29 1.16 1.14 1.11 1.05 1.17 1.21 1.25 1.29 1.54 1.72 2.04 2.44 2.69 2.77 2.56 2.01 1.47 1.16 0.96 0.81 0.73 0.58 0.40 0.33 0.35 0.34 0.29
0.80 0.87 0.87 0.83 0.90 0.94 0.96 1.11 1.28 1.43 1.33 1.40 1.32 1.12 1.09 0.96 0.87 0.84 0.72 0.72 0.82 0.84 0.89 1.09 1.31 1.21 1.54 2.01 2.37 2.60 2.62 2.38 1.86 1.50 1.29 1.15 1.09 0.82 0.52 0.42 0.42 0.35 0.28
0.67 0.67 0.64 0.65 0.71 0.70 0.70 0.84 0.97 0.98 0.81 0.98 1.06 0.86 0.71 0.63 0.61 0.60 0.55 0.53 0.55 0.61 0.75 0.98 1.12 1.11 1.07 1.20 1.46 1.90 2.31 2.46 2.29 1.93 1.60 1.41 1.35 1.09 0.75 0.58 0.50 0.40 0.37
0.55 0.55 0.53 0.50 0.50 0.54 0.56 0.61 0.73 0.74 0.64 0.76 0.87 0.82 0.63 0.57 0.49 0.36 0.39 0.40 0.41 0.52 0.59 0.72 0.94 1.15 1.14 1.27 1.06 1.33 1.96 2.31 2.50 2.44 2.13 1.80 1.58 1.27 0.94 0.79 0.65 0.53 0.47
0.35 0.35 0.34 0.33 0.35 0.40 0.44 0.50 0.58 0.61 0.56 0.53 0.64 0.76 0.62 0.50 0.43 0.37 0.35 0.38 0.45 0.50 0.54 0.69 0.80 1.02 1.19 1.42 1.37 1.23 1.47 1.76 2.32 2.72 2.65 2.14 1.56 1.19 1.00 0.97 0.91 0.70 0.55
0.25 0.25 0.23 0.23 0.23 0.26 0.34 0.36 0.45 0.56 0.55 0.45 0.48 0.56 0.56 0.54 0.48 0.43 0.39 0.37 0.42 0.45 0.51 0.58 0.73 0.92 1.04 1.27 1.35 1.15 1.05 1.25 1.79 2.38 2.63 2.46 1.89 1.35 1.09 1.13 1.29 1.16 0.86
0.26 0.24 0.24 0.22 0.22 0.22 0.25 0.29 0.37 0.47 0.53 0.48 0.44 0.50 0.59 0.58 0.50 0.47 0.42 0.42 0.46 0.39 0.47 0.61 0.73 0.81 0.91 1.13 1.40 1.26 1.15 1.08 1.18 1.48 1.81 2.10 2.16 1.88 1.61 1.57 1.75 1.82 1.60
0.27 0.27 0.27 0.28 0.28 0.27 0.27 0.27 0.28 0.34 0.46 0.54 0.53 0.52 0.56 0.57 0.47 0.44 0.37 0.35 0.42 0.41 0.53 0.72 0.78 0.84 0.90 1.10 1.16 1.14 1.07 0.93 0.83 0.85 1.03 1.26 1.54 1.70 1.67 1.73 1.98 2.19 2.28
0.22 0.24 0.25 0.27 0.30 0.32 0.32 0.30 0.29 0.29 0.36 0.46 0.49 0.53 0.53 0.52 0.55 0.56 0.51 0.43 0.45 0.50 0.65 0.77 0.89 0.95 0.95 1.09 1.10 1.03 0.87 0.72 0.59 0.54 0.61 0.74 0.90 1.16 1.40 1.56 1.77 2.05 2.28
0.22 0.23 0.23 0.22 0.24 0.29 0.33 0.36 0.33 0.33 0.37 0.39 0.39 0.52 0.57 0.52 0.61 0.65 0.68 0.72 0.64 0.65 0.80 0.87 0.99 1.04 1.14 1.16 1.08 0.97 0.79 0.66 0.52 0.46 0.44 0.47 0.55 0.64 0.82 1.03 1.25 1.53 1.79
0.27 0.25 0.24 0.24 0.24 0.27 0.31 0.34 0.34 0.36 0.39 0.39 0.42 0.52 0.59 0.65 0.69 0.66 0.76 0.84 0.85 0.79 0.86 0.94 0.90 0.89 0.94 0.95 0.88 0.75 0.63 0.57 0.49 0.42 0.40 0.39 0.41 0.46 0.53 0.60 0.68 0.75 0.85
0.28 0.27 0.26 0.24 0.25 0.26 0.28 0.31 0.32 0.38 0.44 0.49 0.55 0.60 0.62 0.67 0.76 0.69 0.75 0.82 0.84 0.89 0.93 0.87 0.79 0.79 0.76 0.66 0.62 0.57 0.53 0.57 0.47 0.38 0.33 0.34 0.35 0.38 0.41 0.46 0.50 0.55 0.60
0.28 0.25 0.26 0.27 0.27 0.29 0.33 0.38 0.40 0.43 0.52 0.63 0.71 0.74 0.77 0.78 0.81 0.79 0.85 0.86 0.81 0.89 0.89 0.75 0.82 0.87 0.77 0.60 0.48 0.47 0.47 0.51 0.47 0.44 0.39 0.35 0.31 0.29 0.32 0.35 0.40 0.44 0.47
0.34 0.31 0.31 0.31 0.25 0.25 0.34 0.43 0.51 0.51 0.53 0.59 0.81 1.02 1.04 1.04 0.96 0.86 0.94 0.92 0.88 1.02 0.97 0.86 0.94 0.97 0.92 0.74 0.60 0.50 0.42 0.42 0.45 0.46 0.41 0.39 0.36 0.31 0.27 0.27 0.28 0.30 0.32
0.38 0.37 0.36 0.35 0.29 0.26 0.27 0.34 0.46 0.50 0.57 0.69 0.85 0.97 1.08 1.20 1.10 1.00 0.98 0.97 0.99 1.08 1.06 0.95 0.98 1.13 1.15 0.98 0.74 0.53 0.39 0.40 0.41 0.46 0.43 0.37 0.36 0.35 0.32 0.27 0.25 0.25 0.24
0.39 0.41 0.39 0.39 0.37 0.30 0.27 0.32 0.39 0.47 0.60 0.77 0.82 0.75 0.85 1.10 1.21 1.14 1.03 0.97 1.01 1.06 1.07 1.07 1.10 1.24 1.29 1.23 1.01 0.71 0.53 0.44 0.38 0.38 0.44 0.39 0.35 0.34 0.33 0.29 0.26 0.25 0.26
0.43 0.47 0.49 0.48 0.45 0.37 0.29 0.36 0.46 0.41 0.48 0.57 0.60 0.58 0.61 0.78 1.02 1.18 1.10 1.02 1.02 1.00 1.01 1.08 1.15 1.24 1.28 1.33 1.18 0.92 0.71 0.58 0.45 0.40 0.44 0.41 0.38 0.33 0.31 0.30 0.28 0.24 0.22
0.67 0.72 0.71 0.67 0.62 0.45 0.39 0.37 0.39 0.44 0.48 0.52 0.55 0.59 0.54 0.49 0.57 0.76 0.95 1.07 1.13 1.07 1.01 1.07 1.20 1.25 1.27 1.28 1.26 1.09 0.87 0.68 0.55 0.47 0.51 0.48 0.47 0.43 0.33 0.28 0.28 0.25 0.21
0.97 0.96 0.92 0.86 0.81 0.75 0.59 0.44 0.38 0.40 0.43 0.47 0.53 0.57 0.46 0.37 0.45 0.51 0.64 0.77 0.90 0.95 0.95 1.02 1.10 1.20 1.31 1.41 1.40 1.22 1.03 0.87 0.69 0.59 0.62 0.54 0.51 0.51 0.47 0.39 0.39 0.31 0.26
1.14 1.11 1.04 0.99 0.97 0.90 0.72 0.53 0.44 0.38 0.43 0.48 0.52 0.55 0.54 0.49 0.47 0.53 0.61 0.62 0.65 0.71 0.74 0.79 0.89 1.05 1.25 1.44 1.57 1.46 1.31 1.06 0.88 0.78 0.77 0.64 0.52 0.49 0.47 0.48 0.48 0.41 0.33
1.14 1.04 0.97 0.96 0.97 0.96 0.81 0.62 0.54 0.52 0.58 0.58 0.57 0.57 0.58 0.53 0.51 0.44 0.50 0.55 0.57 0.61 0.62 0.69 0.74 0.90 1.16 1.37 1.46 1.49 1.37 1.16 0.94 0.79 0.76 0.72 0.58 0.52 0.50 0.44 0.43 0.44 0.38
1.17 1.13 1.04 1.04 1.06 1.06 0.95 0.69 0.60 0.60 0.67 0.69 0.73 0.71 0.61 0.54 0.48 0.40 0.44 0.53 0.53 0.56 0.63 0.66 0.71 0.74 0.85 1.13 1.39 1.26 1.19 1.12 0.97 0.78 0.61 0.64 0.62 0.61 0.54 0.39 0.34 0.36 0.33

GEFSMA_prec_meanprecacc_120.txt.gz
Total_Precipitation_Accumulation
1.64 1.71 1.50 1.46 1.32 1.63 2.00 2.21 2.27 2.44 2.54 2.51 2.19 1.96 1.91 1.76 1.59 1.67 1.97 2.19 2.23 2.10 2.15 2.14 1.88 1.75 1.70 1.47 1.26 1.15 1.04 0.96 0.85 0.71 0.65 0.60 0.48 0.31 0.19 0.16 0.17 0.20 0.16
1.79 1.84 1.77 1.67 1.43 1.58 1.91 2.26 2.34 2.58 2.55 2.58 2.10 1.86 1.79 1.81 1.61 1.50 1.62 1.96 1.98 1.89 1.89 2.05 2.10 2.05 1.96 1.75 1.53 1.32 1.15 1.04 0.94 0.77 0.65 0.61 0.53 0.41 0.33 0.25 0.22 0.23 0.19
2.00 2.15 2.06 1.73 1.56 1.73 1.92 1.94 2.06 2.53 2.37 2.32 2.15 2.13 2.06 1.87 1.67 1.56 1.51 1.60 1.59 1.73 1.77 1.81 2.01 2.13 2.20 2.13 1.94 1.68 1.44 1.19 0.97 0.80 0.67 0.58 0.52 0.45 0.42 0.36 0.32 0.31 0.24
1.81 1.97 1.71 1.39 1.55 1.81 1.94 1.85 1.86 2.22 2.26 2.27 2.26 2.18 2.08 1.87 1.64 1.54 1.51 1.40 1.38 1.25 1.43 1.63 1.84 2.00 2.25 2.34 2.37 2.31 2.03 1.56 1.17 0.91 0.73 0.62 0.55 0.45 0.36 0.33 0.33 0.36 0.28
1.15 1.26 1.11 1.05 1.27 1.51 1.51 1.34 1.47 1.74 1.84 1.94 1.89 1.69 1.51 1.32 1.19 1.18 1.15 1.08 1.19 1.22 1.26 1.31 1.58 1.76 2.08 2.49 2.75 2.84 2.61 2.04 1.50 1.18 0.99 0.83 0.75 0.59 0.40 0.33 0.35 0.34 0.29
0.81 0.88 0.88 0.84 0.92 0.95 0.98 1.12 1.29 1.43 1.34 1.40 1.34 1.15 1.11 0.98 0.90 0.87 0.76 0.76 0.85 0.86 0.91 1.10 1.33 1.23 1.57 2.07 2.44 2.68 2.71 2.44 1.90 1.53 1.32 1.18 1.13 0.85 0.54 0.43 0.42 0.35 0.29
0.68 0.69 0.66 0.66 0.72 0.71 0.71 0.85 0.98 0.99 0.83 1.00 1.09 0.90 0.75 0.67 0.64 0.63 0.57 0.56 0.58 0.63 0.79 1.00 1.14 1.12 1.08 1.23 1.49 1.95 2.37 2.52 2.35 1.98 1.63 1.44 1.38 1.12 0.77 0.60 0.51 0.41 0.38
0.57 0.56 0.54 0.51 0.50 0.54 0.56 0.62 0.74 0.75 0.66 0.78 0.88 0.85 0.66 0.59 0.52 0.38 0.40 0.41 0.42 0.54 0.62 0.77 0.98 1.16 1.15 1.28 1.07 1.36 2.01 2.36 2.56 2.51 2.19 1.85 1.61 1.29 0.96 0.81 0.66 0.54 0.48
0.36 0.37 0.34 0.34 0.36 0.40 0.44 0.50 0.59 0.62 0.57 0.55 0.65 0.77 0.62 0.51 0.44 0.39 0.36 0.38 0.46 0.51 0.55 0.71 0.83 1.03 1.20 1.43 1.38 1.24 1.49 1.80 2.36 2.77 2.70 2.19 1.60 1.21 1.02 0.99 0.93 0.72 0.57
0.28 0.26 0.24 0.23 0.24 0.26 0.34 0.36 0.45 0.56 0.56 0.45 0.48 0.56 0.56 0.54 0.48 0.43 0.40 0.37 0.42 0.45 0.51 0.59 0.74 0.93 1.06 1.28 1.36 1.15 1.05 1.26 1.81 2.40 2.66 2.49 1.92 1.38 1.12 1.16 1.32 1.19 0.89
0.30 0.27 0.26 0.24 0.24 0.23 0.26 0.30 0.38 0.47 0.53 0.48 0.44 0.50 0.59 0.58 0.50 0.47 0.42 0.42 0.46 0.39 0.48 0.62 0.73 0.82 0.91 1.13 1.41 1.26 1.15 1.08 1.18 1.49 1.83 2.13 2.19 1.90 1.63 1.59 1.77 1.85 1.64
0.30 0.29 0.28 0.29 0.29 0.28 0.28 0.28 0.29 0.34 0.46 0.54 0.54 0.52 0.57 0.58 0.48 0.44 0.37 0.35 0.42 0.41 0.54 0.72 0.78 0.84 0.90 1.10 1.16 1.14 1.07 0.93 0.83 0.85 1.03 1.27 1.55 1.72 1.69 1.75 2.00 2.20 2.30
0.24 0.26 0.26 0.28 0.30 0.33 0.32 0.30 0.30 0.30 0.37 0.47 0.49 0.53 0.53 0.52 0.56 0.56 0.51 0.43 0.45 0.50 0.65 0.77 0.89 0.95 0.95 1.09 1.10 1.03 0.87 0.72 0.59 0.54 0.61 0.74 0.90 1.16 1.41 1.57 1.79 2.06 2.29
0.24 0.24 0.24 0.24 0.26 0.30 0.34 0.36 0.34 0.34 0.37 0.39 0.39 0.52 0.57 0.52 0.61 0.65 0.68 0.72 0.64 0.65 0.80 0.87 0.99 1.04 1.14 1.16 1.09 0.97 0.79 0.66 0.52 0.46 0.44 0.47 0.55 0.64 0.82 1.03 1.26 1.53 1.80
0.30 0.27 0.26 0.26 0.27 0.29 0.33 0.35 0.35 0.37 0.39 0.40 0.42 0.52 0.59 0.66 0.70 0.66 0.76 0.84 0.85 0.79 0.86 0.95 0.90 0.89 0.94 0.95 0.88 0.75 0.63 0.58 0.49 0.42 0.40 0.39 0.41 0.46 0.53 0.60 0.68 0.75 0.85
0.34 0.32 0.30 0.28 0.28 0.29 0.30 0.33 0.34 0.41 0.46 0.50 0.56 0.61 0.62 0.67 0.76 0.70 0.75 0.82 0.84 0.89 0.93 0.87 0.79 0.79 0.77 0.66 0.62 0.57 0.53 0.57 0.47 0.38 0.34 0.34 0.35 0.38 0.41 0.46 0.50 0.55 0.60
0.39 0.33 0.33 0.34 0.33 0.34 0.36 0.42 0.43 0.46 0.55 0.66 0.73 0.75 0.78 0.79 0.82 0.80 0.85 0.87 0.82 0.89 0.89 0.75 0.82 0.88 0.77 0.60 0.49 0.47 0.47 0.51 0.48 0.45 0.39 0.35 0.31 0.30 0.32 0.35 0.40 0.44 0.47
0.51 0.45 0.41 0.39 0.32 0.30 0.39 0.48 0.56 0.54 0.56 0.64 0.85 1.05 1.06 1.06 0.97 0.88 0.95 0.93 0.89 1.02 0.97 0.86 0.94 0.97 0.93 0.75 0.60 0.51 0.42 0.43 0.46 0.47 0.42 0.39 0.36 0.31 0.27 0.27 0.29 0.30 0.32
0.59 0.56 0.51 0.45 0.37 0.33 0.35 0.41 0.53 0.55 0.61 0.74 0.90 1.02 1.13 1.24 1.13 1.03 1.00 0.99 1.00 1.09 1.08 0.96 0.99 1.13 1.16 0.99 0.76 0.54 0.40 0.41 0.42 0.47 0.44 0.38 0.37 0.35 0.32 0.28 0.26 0.25 0.24
0.62 0.62 0.59 0.56 0.51 0.41 0.37 0.41 0.47 0.54 0.67 0.85 0.90 0.83 0.93 1.18 1.27 1.20 1.07 1.00 1.04 1.09 1.09 1.08 1.11 1.24 1.30 1.25 1.03 0.74 0.56 0.47 0.40 0.39 0.45 0.40 0.36 0.35 0.33 0.30 0.27 0.26 0.26
0.63 0.67 0.68 0.67 0.62 0.51 0.41 0.46 0.55 0.49 0.56 0.66 0.69 0.66 0.68 0.85 1.09 1.25 1.16 1.07 1.07 1.03 1.04 1.10 1.17 1.26 1.29 1.36 1.22 0.96 0.75 0.62 0.48 0.43 0.47 0.43 0.40 0.35 0.32 0.32 0.30 0.25 0.23
0.88 0.94 0.93 0.87 0.80 0.58 0.51 0.49 0.49 0.53 0.59 0.64 0.64 0.65 0.59 0.53 0.62 0.82 1.02 1.14 1.19 1.10 1.04 1.09 1.21 1.26 1.28 1.30 1.28 1.12 0.90 0.71 0.57 0.50 0.56 0.51 0.50 0.47 0.37 0.31 0.31 0.27 0.23
1.22 1.21 1.13 1.03 0.96 0.87 0.70 0.55 0.47 0.49 0.52 0.54 0.59 0.62 0.50 0.42 0.50 0.55 0.69 0.81 0.93 0.98 0.98 1.04 1.11 1.21 1.32 1.43 1.42 1.24 1.05 0.89 0.70 0.61 0.65 0.56 0.53 0.54 0.50 0.42 0.42 0.34 0.29
1.36 1.30 1.21 1.12 1.09 0.99 0.81 0.60 0.51 0.44 0.49 0.53 0.58 0.60 0.58 0.52 0.50 0.56 0.62 0.64 0.68 0.74 0.78 0.82 0.91 1.07 1.27 1.46 1.60 1.49 1.34 1.08 0.89 0.80 0.80 0.66 0.53 0.51 0.49 0.50 0.50 0.44 0.36
1.30 1.16 1.08 1.06 1.04 1.02 0.87 0.69 0.61 0.58 0.64 0.64 0.62 0.61 0.61 0.57 0.56 0.47 0.52 0.56 0.59 0.63 0.65 0.71 0.76 0.92 1.18 1.39 1.48 1.50 1.39 1.19 0.97 0.82 0.80 0.76 0.60 0.54 0.52 0.46 0.45 0.48 0.42
1.30 1.24 1.14 1.12 1.13 1.12 1.00 0.73 0.64 0.64 0.71 0.72 0.76 0.74 0.64 0.56 0.50 0.41 0.46 0.55 0.56 0.59 0.67 0.70 0.74 0.76 0.86 1.14 1.40 1.27 1.20 1.13 0.99 0.79 0.63 0.67 0.65 0.64 0.57 0.42 0.37 0.39 0.36

GEFSMA_prec_meanprecacc_126.txt.gz
Total_Precipitation_Accumulation
1.65 1.72 1.51 1.46 1.33 1.63 2.00 2.22 2.27 2.45 2.57 2.53 2.20 1.97 1.93 1.80 1.61 1.68 1.99 2.24 2.28 2.15 2.20 2.19 1.92 1.79 1.74 1.50 1.28 1.17 1.06 0.98 0.88 0.73 0.67 0.62 0.50 0.32 0.19 0.16 0.17 0.20 0.16
1.81 1.85 1.78 1.67 1.44 1.59 1.92 2.27 2.35 2.59 2.57 2.59 2.11 1.88 1.81 1.83 1.64 1.53 1.64 2.01 2.06 1.95 1.96 2.13 2.18 2.11 2.01 1.78 1.56 1.35 1.18 1.07 0.96 0.79 0.68 0.63 0.55 0.44 0.34 0.26 0.23 0.23 0.20
2.02 2.17 2.07 1.73 1.58 1.75 1.93 1.95 2.08 2.55 2.38 2.34 2.16 2.14 2.08 1.89 1.69 1.58 1.53 1.62 1.64 1.80 1.85 1.89 2.09 2.21 2.27 2.17 1.98 1.73 1.49 1.23 1.01 0.82 0.70 0.60 0.54 0.47 0.43 0.37 0.33 0.31 0.25
1.84 1.99 1.72 1.40 1.55 1.82 1.95 1.87 1.88 2.24 2.28 2.29 2.28 2.19 2.10 1.89 1.65 1.55 1.52 1.41 1.40 1.29 1.49 1.71 1.92 2.08 2.34 2.44 2.46 2.40 2.10 1.62 1.22 0.95 0.76 0.65 0.57 0.47 0.38 0.34 0.34 0.36 0.28
1.18 1.28 1.12 1.06 1.28 1.53 1.53 1.35 1.49 1.76 1.86 1.95 1.91 1.71 1.53 1.34 1.21 1.19 1.16 1.09 1.20 1.24 1.29 1.37 1.66 1.83 2.15 2.59 2.88 2.95 2.72 2.12 1.55 1.22 1.02 0.86 0.79 0.62 0.42 0.34 0.36 0.35 0.30
0.83 0.90 0.89 0.84 0.93 0.98 1.00 1.14 1.30 1.45 1.35 1.42 1.36 1.17 1.14 1.00 0.91 0.89 0.78 0.77 0.87 0.87 0.93 1.12 1.37 1.28 1.64 2.15 2.54 2.79 2.80 2.52 1.95 1.58 1.36 1.22 1.16 0.88 0.56 0.45 0.44 0.36 0.30
0.71 0.71 0.68 0.68 0.74 0.72 0.73 0.88 1.00 1.01 0.85 1.02 1.12 0.95 0.78 0.68 0.65 0.63 0.58 0.57 0.59 0.65 0.80 1.01 1.16 1.14 1.10 1.28 1.56 2.04 2.46 2.62 2.44 2.04 1.68 1.48 1.42 1.17 0.81 0.64 0.53 0.44 0.41
0.61 0.59 0.57 0.54 0.53 0.57 0.59 0.65 0.75 0.76 0.68 0.80 0.91 0.87 0.68 0.60 0.52 0.38 0.41 0.42 0.43 0.56 0.64 0.78 0.99 1.17 1.16 1.29 1.08 1.41 2.07 2.44 2.66 2.60 2.26 1.90 1.66 1.34 1.01 0.85 0.70 0.58 0.52
0.41 0.40 0.37 0.37 0.39 0.42 0.45 0.52 0.60 0.63 0.59 0.56 0.67 0.77 0.63 0.51 0.45 0.39 0.37 0.39 0.46 0.51 0.56 0.71 0.83 1.03 1.20 1.43 1.38 1.26 1.52 1.83 2.42 2.85 2.78 2.26 1.65 1.26 1.06 1.03 0.97 0.76 0.62
0.32 0.30 0.26 0.26 0.26 0.28 0.36 0.37 0.46 0.56 0.57 0.46 0.48 0.56 0.56 0.54 0.48 0.44 0.40 0.37 0.42 0.45 0.52 0.59 0.74 0.93 1.06 1.29 1.37 1.16 1.06 1.27 1.83 2.45 2.72 2.55 1.96 1.41 1.15 1.20 1.36 1.24 0.93
0.33 0.30 0.29 0.26 0.26 0.24 0.27 0.30 0.38 0.47 0.54 0.48 0.45 0.50 0.59 0.58 0.50 0.47 0.42 0.42 0.46 0.39 0.48 0.62 0.73 0.82 0.91 1.14 1.41 1.27 1.16 1.08 1.19 1.50 1.85 2.15 2.21 1.93 1.65 1.62 1.81 1.90 1.70
0.33 0.31 0.31 0.33 0.31 0.30 0.29 0.28 0.30 0.35 0.47 0.55 0.54 0.52 0.57 0.58 0.48 0.44 0.37 0.35 0.42 0.41 0.54 0.72 0.78 0.84 0.90 1.10 1.16 1.14 1.07 0.93 0.83 0.85 1.03 1.28 1.56 1.73 1.70 1.77 2.03 2.25 2.36
0.27 0.28 0.28 0.30 0.32 0.34 0.33 0.31 0.31 0.31 0.38 0.48 0.50 0.53 0.53 0.52 0.56 0.56 0.51 0.43 0.45 0.50 0.65 0.77 0.89 0.95 0.95 1.09 1.10 1.03 0.87 0.72 0.59 0.54 0.61 0.75 0.91 1.17 1.42 1.58 1.81 2.09 2.33
0.26 0.27 0.26 0.26 0.28 0.32 0.36 0.38 0.35 0.35 0.39 0.41 0.41 0.53 0.57 0.52 0.61 0.65 0.68 0.72 0.64 0.65 0.80 0.87 1.00 1.04 1.14 1.16 1.09 0.98 0.79 0.66 0.52 0.46 0.44 0.47 0.55 0.64 0.82 1.03 1.26 1.54 1.81
0.33 0.30 0.29 0.29 0.30 0.32 0.36 0.38 0.37 0.37 0.41 0.41 0.43 0.53 0.60 0.66 0.70 0.66 0.76 0.84 0.85 0.79 0.86 0.95 0.90 0.89 0.94 0.96 0.89 0.76 0.64 0.58 0.50 0.42 0.40 0.40 0.42 0.46 0.53 0.60 0.68 0.75 0.85
0.38 0.35 0.33 0.32 0.32 0.33 0.34 0.36 0.37 0.43 0.48 0.51 0.57 0.61 0.63 0.68 0.77 0.70 0.75 0.82 0.84 0.89 0.93 0.87 0.79 0.79 0.77 0.66 0.62 0.57 0.54 0.58 0.48 0.39 0.34 0.34 0.36 0.38 0.41 0.46 0.50 0.55 0.60
0.46 0.40 0.39 0.40 0.39 0.38 0.40 0.45 0.47 0.49 0.57 0.67 0.74 0.76 0.79 0.80 0.83 0.80 0.86 0.87 0.82 0.89 0.89 0.75 0.82 0.88 0.77 0.60 0.49 0.47 0.47 0.51 0.48 0.45 0.40 0.36 0.32 0.30 0.32 0.35 0.40 0.44 0.47
0.62 0.56 0.50 0.46 0.38 0.34 0.42 0.52 0.59 0.57 0.60 0.67 0.87 1.07 1.08 1.07 0.98 0.88 0.96 0.93 0.89 1.02 0.97 0.86 0.94 0.97 0.93 0.75 0.60 0.52 0.43 0.43 0.47 0.47 0.42 0.40 0.36 0.31 0.27 0.27 0.29 0.30 0.32
0.71 0.72 0.66 0.57 0.44 0.37 0.39 0.44 0.56 0.58 0.65 0.77 0.92 1.05 1.15 1.26 1.14 1.04 1.01 0.99 1.01 1.10 1.08 0.96 0.99 1.14 1.16 0.99 0.76 0.54 0.40 0.42 0.42 0.47 0.44 0.39 0.38 0.37 0.33 0.29 0.27 0.26 0.25
0.75 0.78 0.75 0.70 0.62 0.50 0.43 0.45 0.51 0.57 0.70 0.87 0.92 0.85 0.95 1.20 1.29 1.21 1.09 1.01 1.04 1.09 1.09 1.08 1.11 1.25 1.30 1.25 1.03 0.74 0.56 0.48 0.41 0.40 0.46 0.41 0.37 0.36 0.34 0.31 0.27 0.27 0.27
0.83 0.87 0.88 0.85 0.77 0.63 0.49 0.52 0.60 0.54 0.61 0.70 0.72 0.68 0.70 0.87 1.11 1.27 1.18 1.09 1.09 1.05 1.05 1.11 1.17 1.26 1.30 1.37 1.22 0.96 0.75 0.63 0.49 0.43 0.47 0.44 0.40 0.35 0.33 0.33 0.31 0.26 0.24
1.14 1.19 1.15 1.06 0.96 0.70 0.61 0.58 0.56 0.59 0.64 0.69 0.69 0.68 0.61 0.56 0.64 0.84 1.04 1.16 1.22 1.13 1.06 1.11 1.22 1.27 1.29 1.31 1.29 1.13 0.90 0.72 0.57 0.50 0.56 0.52 0.51 0.47 0.38 0.32 0.32 0.29 0.25
1.50 1.49 1.39 1.23 1.11 1.00 0.80 0.64 0.56 0.56 0.58 0.60 0.64 0.66 0.54 0.45 0.53 0.57 0.72 0.84 0.96 1.00 1.00 1.05 1.13 1.24 1.34 1.44 1.44 1.25 1.06 0.91 0.72 0.62 0.65 0.57 0.54 0.55 0.50 0.43 0.43 0.35 0.30
1.61 1.57 1.47 1.34 1.26 1.12 0.91 0.70 0.61 0.52 0.56 0.59 0.63 0.65 0.63 0.57 0.55 0.60 0.65 0.66 0.70 0.76 0.81 0.84 0.94 1.11 1.30 1.48 1.61 1.50 1.35 1.10 0.91 0.81 0.81 0.66 0.54 0.52 0.50 0.51 0.52 0.45 0.37
1.50 1.38 1.31 1.28 1.24 1.21 1.03 0.80 0.71 0.67 0.73 0.72 0.70 0.69 0.69 0.64 0.63 0.53 0.56 0.60 0.63 0.67 0.70 0.75 0.80 0.95 1.20 1.41 1.49 1.51 1.40 1.20 0.98 0.83 0.81 0.78 0.62 0.56 0.53 0.46 0.45 0.48 0.43
1.44 1.39 1.31 1.29 1.28 1.26 1.13 0.83 0.74 0.73 0.79 0.80 0.82 0.81 0.72 0.63 0.58 0.49 0.51 0.59 0.59 0.61 0.68 0.72 0.76 0.79 0.88 1.16 1.42 1.29 1.21 1.15 1.00 0.81 0.64 0.68 0.66 0.65 0.57 0.42 0.37 0.40 0.38

GEFSMA_prec_meanprecacc_132.txt.gz
Total_Precipitation_Accumulation
1.68 1.75 1.55 1.50 1.36 1.66 2.02 2.23 2.28 2.46 2.59 2.55 2.22 2.00 1.96 1.82 1.65 1.72 2.05 2.29 2.33 2.20 2.26 2.25 1.98 1.84 1.79 1.54 1.32 1.20 1.08 1.00 0.89 0.74 0.68 0.63 0.51 0.34 0.20 0.17 0.18 0.20 0.17
1.84 1.88 1.81 1.71 1.47 1.61 1.95 2.29 2.36 2.61 2.60 2.64 2.15 1.93 1.87 1.88 1.68 1.56 1.68 2.06 2.11 1.99 2.01 2.19 2.24 2.16 2.07 1.84 1.60 1.38 1.21 1.09 0.98 0.80 0.69 0.64 0.56 0.45 0.35 0.27 0.24 0.23 0.20
2.06 2.21 2.11 1.77 1.62 1.79 1.96 1.98 2.10 2.57 2.42 2.38 2.23 2.21 2.17 1.96 1.74 1.62 1.56 1.67 1.68 1.84 1.90 1.94 2.14 2.27 2.33 2.24 2.03 1.78 1.54 1.27 1.03 0.84 0.71 0.62 0.55 0.47 0.44 0.38 0.34 0.32 0.25
1.89 2.04 1.77 1.43 1.59 1.85 1.98 1.91 1.90 2.26 2.32 2.34 2.35 2.28 2.16 1.97 1.70 1.60 1.56 1.46 1.45 1.34 1.55 1.75 1.96 2.12 2.39 2.49 2.53 2.47 2.17 1.69 1.27 0.97 0.78 0.67 0.58 0.48 0.38 0.35 0.35 0.37 0.28
1.23 1.33 1.17 1.10 1.30 1.54 1.56 1.38 1.51 1.78 1.89 2.02 1.98 1.78 1.59 1.39 1.26 1.23 1.21 1.13 1.24 1.27 1.35 1.41 1.70 1.86 2.18 2.64 2.97 3.05 2.81 2.20 1.60 1.26 1.05 0.88 0.81 0.64 0.44 0.35 0.37 0.36 0.30
0.88 0.95 0.95 0.89 0.95 1.00 1.03 1.17 1.35 1.49 1.40 1.49 1.41 1.22 1.17 1.03 0.95 0.93 0.81 0.80 0.90 0.89 0.95 1.14 1.40 1.30 1.66 2.19 2.59 2.85 2.87 2.58 2.01 1.62 1.39 1.25 1.20 0.92 0.59 0.46 0.45 0.37 0.31
0.75 0.77 0.73 0.74 0.79 0.75 0.76 0.91 1.03 1.05 0.89 1.07 1.19 1.02 0.83 0.71 0.68 0.68 0.62 0.61 0.62 0.67 0.82 1.05 1.19 1.18 1.13 1.30 1.58 2.06 2.51 2.69 2.51 2.10 1.72 1.51 1.46 1.21 0.84 0.66 0.55 0.46 0.43
0.65 0.63 0.63 0.61 0.59 0.62 0.64 0.68 0.79 0.80 0.72 0.85 0.97 0.94 0.74 0.65 0.56 0.40 0.44 0.45 0.46 0.59 0.66 0.80 1.02 1.21 1.19 1.31 1.09 1.42 2.10 2.49 2.72 2.67 2.32 1.94 1.70 1.38 1.04 0.88 0.72 0.60 0.54
0.46 0.44 0.41 0.42 0.44 0.47 0.50 0.56 0.63 0.67 0.63 0.59 0.70 0.81 0.66 0.54 0.48 0.42 0.38 0.40 0.48 0.54 0.58 0.73 0.84 1.05 1.22 1.44 1.39 1.26 1.53 1.85 2.45 2.90 2.84 2.31 1.69 1.29 1.09 1.05 0.99 0.78 0.63
0.37 0.34 0.31 0.31 0.31 0.32 0.40 0.40 0.48 0.59 0.61 0.50 0.51 0.58 0.58 0.56 0.51 0.46 0.41 0.38 0.43 0.47 0.53 0.60 0.75 0.94 1.07 1.30 1.38 1.16 1.06 1.27 1.85 2.48 2.76 2.59 2.01 1.45 1.18 1.23 1.39 1.26 0.95
0.39 0.35 0.34 0.31 0.30 0.28 0.29 0.32 0.40 0.51 0.57 0.52 0.48 0.52 0.61 0.61 0.52 0.50 0.45 0.44 0.47 0.40 0.48 0.62 0.74 0.83 0.92 1.14 1.43 1.28 1.16 1.09 1.20 1.51 1.86 2.17 2.25 1.96 1.68 1.64 1.84 1.94 1.75
0.38 0.36 0.36 0.38 0.35 0.32 0.31 0.30 0.32 0.38 0.50 0.59 0.57 0.54 0.58 0.60 0.50 0.46 0.39 0.37 0.44 0.42 0.54 0.73 0.78 0.84 0.91 1.10 1.17 1.15 1.07 0.93 0.84 0.85 1.04 1.29 1.58 1.75 1.72 1.79 2.05 2.29 2.42
0.31 0.31 0.31 0.34 0.36 0.37 0.36 0.35 0.34 0.33 0.41 0.51 0.53 0.55 0.54 0.54 0.56 0.56 0.52 0.44 0.47 0.51 0.66 0.78 0.89 0.95 0.96 1.09 1.10 1.03 0.88 0.72 0.59 0.55 0.62 0.75 0.91 1.17 1.43 1.60 1.82 2.11 2.36
0.31 0.30 0.29 0.29 0.31 0.35 0.39 0.42 0.38 0.38 0.41 0.43 0.42 0.55 0.59 0.53 0.62 0.66 0.69 0.73 0.66 0.67 0.81 0.88 1.00 1.04 1.14 1.17 1.09 0.98 0.79 0.66 0.52 0.47 0.44 0.47 0.55 0.64 0.82 1.04 1.26 1.54 1.82
0.38 0.34 0.31 0.32 0.33 0.36 0.39 0.42 0.40 0.40 0.43 0.43 0.46 0.56 0.62 0.67 0.71 0.67 0.77 0.85 0.88 0.81 0.88 0.96 0.91 0.89 0.94 0.96 0.89 0.76 0.64 0.58 0.50 0.42 0.40 0.40 0.42 0.46 0.53 0.60 0.68 0.76 0.85
0.42 0.39 0.37 0.36 0.38 0.38 0.38 0.41 0.41 0.46 0.50 0.54 0.60 0.64 0.65 0.69 0.78 0.72 0.76 0.83 0.86 0.91 0.95 0.88 0.80 0.80 0.77 0.66 0.63 0.58 0.54 0.58 0.48 0.39 0.34 0.34 0.36 0.39 0.42 0.46 0.50 0.55 0.60
0.51 0.47 0.46 0.46 0.45 0.45 0.47 0.52 0.53 0.56 0.63 0.72 0.78 0.80 0.82 0.84 0.87 0.84 0.89 0.89 0.84 0.91 0.91 0.77 0.84 0.90 0.79 0.62 0.50 0.48 0.48 0.52 0.49 0.46 0.40 0.36 0.32 0.30 0.32 0.36 0.40 0.45 0.48
0.70 0.65 0.60 0.56 0.48 0.46 0.51 0.58 0.65 0.62 0.64 0.70 0.91 1.11 1.12 1.11 1.03 0.94 1.01 0.98 0.93 1.06 1.00 0.90 0.99 1.02 0.97 0.77 0.63 0.53 0.44 0.44 0.48 0.48 0.43 0.40 0.36 0.31 0.28 0.28 0.29 0.31 0.32
0.81 0.81 0.76 0.66 0.55 0.48 0.47 0.52 0.62 0.64 0.70 0.82 0.97 1.10 1.20 1.30 1.19 1.09 1.07 1.05 1.06 1.14 1.13 1.02 1.04 1.18 1.20 1.01 0.79 0.57 0.42 0.44 0.43 0.47 0.44 0.39 0.38 0.37 0.34 0.29 0.27 0.26 0.25
0.84 0.88 0.85 0.80 0.72 0.59 0.52 0.53 0.57 0.63 0.77 0.94 0.99 0.92 1.00 1.24 1.34 1.28 1.15 1.08 1.11 1.16 1.16 1.14 1.17 1.31 1.36 1.28 1.06 0.77 0.59 0.51 0.43 0.41 0.47 0.42 0.38 0.36 0.34 0.31 0.28 0.27 0.27
0.94 0.99 1.02 0.98 0.90 0.77 0.62 0.64 0.71 0.64 0.70 0.78 0.80 0.74 0.75 0.91 1.15 1.31 1.23 1.16 1.16 1.14 1.14 1.21 1.27 1.36 1.38 1.43 1.27 1.00 0.79 0.67 0.53 0.46 0.51 0.47 0.43 0.38 0.36 0.36 0.32 0.28 0.26
1.35 1.38 1.33 1.24 1.13 0.86 0.78 0.72 0.69 0.69 0.74 0.77 0.76 0.75 0.66 0.60 0.68 0.89 1.08 1.21 1.27 1.19 1.13 1.20 1.31 1.35 1.36 1.36 1.34 1.17 0.95 0.76 0.62 0.53 0.59 0.55 0.54 0.50 0.41 0.36 0.35 0.31 0.27
1.76 1.77 1.66 1.48 1.33 1.18 0.97 0.80 0.70 0.67 0.68 0.70 0.73 0.73 0.60 0.51 0.59 0.62 0.77 0.89 1.01 1.06 1.05 1.10 1.18 1.27 1.37 1.48 1.48 1.29 1.10 0.95 0.75 0.64 0.67 0.60 0.56 0.57 0.52 0.45 0.46 0.37 0.32
1.82 1.78 1.68 1.55 1.47 1.35 1.12 0.88 0.78 0.66 0.69 0.71 0.73 0.74 0.71 0.64 0.62 0.66 0.70 0.71 0.74 0.80 0.85 0.88 0.98 1.14 1.33 1.51 1.64 1.53 1.38 1.13 0.93 0.83 0.82 0.68 0.55 0.53 0.51 0.52 0.53 0.46 0.38
1.61 1.49 1.44 1.44 1.41 1.41 1.24 0.99 0.89 0.82 0.87 0.86 0.84 0.82 0.80 0.74 0.73 0.62 0.63 0.67 0.68 0.72 0.74 0.79 0.84 0.99 1.24 1.44 1.52 1.53 1.42 1.22 1.00 0.85 0.82 0.79 0.62 0.56 0.54 0.48 0.47 0.49 0.43
1.50 1.46 1.39 1.39 1.39 1.38 1.28 0.99 0.91 0.88 0.96 0.96 0.97 0.94 0.85 0.75 0.69 0.59 0.59 0.67 0.66 0.67 0.74 0.76 0.79 0.81 0.90 1.18 1.44 1.30 1.23 1.17 1.02 0.83 0.66 0.70 0.68 0.67 0.59 0.44 0.39 0.41 0.39

GEFSMA_prec_meanprecacc_138.txt.gz
Total_Precipitation_Accumulation
1.77 1.85 1.65 1.62 1.44 1.71 2.07 2.27 2.31 2.52 2.65 2.59 2.26 2.03 1.98 1.88 1.70 1.77 2.07 2.30 2.34 2.21 2.27 2.26 1.99 1.85 1.80 1.56 1.34 1.21 1.10 1.01 0.90 0.75 0.68 0.63 0.51 0.34 0.20 0.18 0.18 0.21 0.18
1.93 1.97 1.88 1.78 1.55 1.66 1.98 2.32 2.39 2.64 2.63 2.68 2.20 1.96 1.90 1.92 1.72 1.61 1.71 2.07 2.11 2.00 2.02 2.20 2.25 2.17 2.07 1.85 1.61 1.39 1.23 1.11 0.99 0.81 0.69 0.64 0.56 0.45 0.35 0.28 0.25 0.24 0.21
2.14 2.28 2.18 1.84 1.68 1.83 2.00 2.01 2.14 2.60 2.44 2.42 2.26 2.24 2.21 2.00 1.77 1.66 1.63 1.71 1.70 1.85 1.90 1.96 2.15 2.28 2.35 2.25 2.04 1.79 1.54 1.28 1.05 0.85 0.71 0.62 0.55 0.47 0.44 0.38 0.35 0.33 0.25
1.94 2.10 1.83 1.48 1.62 1.88 2.01 1.93 1.93 2.29 2.35 2.37 2.39 2.33 2.22 2.01 1.73 1.63 1.60 1.51 1.49 1.36 1.56 1.76 1.97 2.13 2.41 2.51 2.54 2.49 2.20 1.70 1.28 0.98 0.78 0.67 0.58 0.48 0.39 0.35 0.36 0.38 0.29
1.26 1.37 1.23 1.16 1.32 1.56 1.58 1.39 1.53 1.80 1.94 2.07 2.00 1.82 1.61 1.41 1.29 1.25 1.24 1.15 1.28 1.31 1.37 1.43 1.71 1.86 2.20 2.67 3.01 3.09 2.84 2.22 1.61 1.27 1.06 0.89 0.82 0.65 0.45 0.35 0.37 0.36 0.31
0.91 1.00 0.99 0.92 0.97 1.02 1.07 1.21 1.40 1.53 1.46 1.54 1.44 1.26 1.20 1.06 0.97 0.95 0.83 0.83 0.94 0.92 0.97 1.17 1.41 1.31 1.67 2.20 2.63 2.89 2.89 2.60 2.03 1.64 1.41 1.27 1.22 0.94 0.60 0.47 0.45 0.38 0.31
0.79 0.81 0.78 0.79 0.81 0.79 0.81 0.95 1.07 1.10 0.94 1.11 1.25 1.09 0.89 0.74 0.71 0.70 0.64 0.64 0.65 0.70 0.86 1.09 1.23 1.22 1.16 1.31 1.59 2.07 2.52 2.70 2.53 2.12 1.74 1.54 1.50 1.24 0.87 0.68 0.57 0.47 0.43
0.69 0.66 0.69 0.65 0.61 0.67 0.68 0.72 0.84 0.86 0.77 0.88 1.01 1.02 0.84 0.74 0.62 0.42 0.46 0.47 0.49 0.62 0.69 0.83 1.05 1.25 1.23 1.35 1.10 1.42 2.11 2.50 2.74 2.70 2.34 1.97 1.73 1.41 1.06 0.90 0.74 0.61 0.55
0.50 0.48 0.45 0.45 0.48 0.50 0.55 0.60 0.68 0.73 0.70 0.65 0.73 0.86 0.75 0.65 0.56 0.46 0.39 0.41 0.49 0.56 0.60 0.75 0.86 1.06 1.24 1.48 1.43 1.28 1.55 1.86 2.47 2.93 2.87 2.33 1.71 1.31 1.10 1.07 1.01 0.79 0.64
0.42 0.39 0.35 0.34 0.34 0.35 0.45 0.43 0.51 0.63 0.67 0.57 0.55 0.60 0.60 0.60 0.58 0.55 0.47 0.39 0.45 0.48 0.54 0.61 0.76 0.95 1.08 1.32 1.41 1.17 1.07 1.28 1.86 2.50 2.79 2.63 2.03 1.47 1.20 1.25 1.42 1.30 0.98
0.45 0.40 0.38 0.35 0.34 0.31 0.34 0.35 0.46 0.55 0.62 0.56 0.51 0.54 0.63 0.64 0.55 0.55 0.53 0.50 0.52 0.41 0.49 0.63 0.74 0.83 0.92 1.15 1.44 1.28 1.16 1.09 1.20 1.52 1.88 2.20 2.27 1.98 1.70 1.66 1.87 1.98 1.78
0.47 0.42 0.42 0.43 0.39 0.36 0.36 0.36 0.39 0.42 0.55 0.63 0.60 0.57 0.61 0.64 0.53 0.50 0.44 0.43 0.49 0.43 0.55 0.73 0.79 0.85 0.91 1.11 1.17 1.15 1.07 0.93 0.84 0.85 1.04 1.29 1.59 1.76 1.74 1.81 2.08 2.32 2.45
0.39 0.39 0.38 0.41 0.42 0.42 0.41 0.41 0.42 0.40 0.47 0.56 0.56 0.57 0.56 0.55 0.58 0.58 0.55 0.48 0.50 0.53 0.67 0.78 0.89 0.95 0.96 1.10 1.11 1.04 0.88 0.73 0.60 0.55 0.62 0.75 0.92 1.18 1.43 1.61 1.84 2.13 2.38
0.39 0.37 0.36 0.35 0.38 0.41 0.44 0.49 0.45 0.45 0.47 0.48 0.45 0.58 0.61 0.54 0.64 0.68 0.72 0.77 0.69 0.70 0.83 0.89 1.00 1.05 1.15 1.18 1.11 1.00 0.81 0.67 0.53 0.47 0.44 0.47 0.55 0.64 0.82 1.04 1.27 1.55 1.82
0.45 0.42 0.38 0.40 0.43 0.44 0.47 0.50 0.48 0.47 0.49 0.47 0.49 0.58 0.64 0.69 0.73 0.68 0.78 0.87 0.91 0.86 0.94 1.00 0.94 0.91 0.95 0.98 0.92 0.80 0.67 0.59 0.50 0.42 0.41 0.40 0.42 0.46 0.53 0.60 0.68 0.76 0.86
0.52 0.51 0.48 0.46 0.48 0.49 0.49 0.52 0.50 0.54 0.57 0.59 0.63 0.68 0.68 0.72 0.81 0.73 0.78 0.85 0.88 0.95 1.00 0.93 0.84 0.82 0.79 0.68 0.66 0.61 0.56 0.60 0.49 0.39 0.34 0.34 0.36 0.39 0.42 0.46 0.50 0.55 0.60
0.61 0.59 0.59 0.59 0.58 0.58 0.60 0.64 0.63 0.65 0.71 0.80 0.83 0.85 0.87 0.89 0.92 0.89 0.94 0.93 0.88 0.96 0.97 0.82 0.89 0.95 0.84 0.67 0.56 0.52 0.53 0.57 0.53 0.50 0.42 0.37 0.32 0.30 0.32 0.36 0.40 0.45 0.48
0.81 0.76 0.72 0.69 0.62 0.61 0.68 0.71 0.74 0.71 0.73 0.79 0.97 1.18 1.18 1.17 1.10 1.00 1.07 1.03 0.98 1.12 1.08 0.99 1.09 1.13 1.07 0.86 0.72 0.60 0.47 0.48 0.53 0.56 0.47 0.42 0.37 0.32 0.28 0.28 0.29 0.31 0.33
0.92 0.93 0.89 0.80 0.69 0.63 0.61 0.65 0.74 0.76 0.79 0.90 1.05 1.18 1.27 1.38 1.27 1.17 1.13 1.11 1.13 1.20 1.21 1.12 1.16 1.29 1.28 1.08 0.86 0.63 0.46 0.50 0.47 0.53 0.49 0.42 0.40 0.38 0.34 0.30 0.27 0.27 0.26
0.97 1.02 1.01 0.96 0.88 0.75 0.66 0.65 0.69 0.76 0.91 1.08 1.12 1.04 1.11 1.35 1.44 1.37 1.24 1.17 1.19 1.25 1.26 1.26 1.29 1.41 1.44 1.36 1.14 0.85 0.67 0.59 0.48 0.45 0.51 0.45 0.42 0.40 0.37 0.33 0.29 0.28 0.28
1.06 1.12 1.16 1.14 1.05 0.91 0.75 0.77 0.83 0.78 0.88 0.95 0.96 0.88 0.85 0.99 1.22 1.37 1.28 1.23 1.24 1.24 1.26 1.33 1.38 1.44 1.45 1.49 1.34 1.06 0.86 0.74 0.59 0.49 0.54 0.52 0.49 0.44 0.43 0.41 0.35 0.30 0.27
1.46 1.52 1.47 1.38 1.26 0.96 0.89 0.84 0.82 0.85 0.88 0.89 0.87 0.84 0.74 0.65 0.72 0.92 1.11 1.24 1.32 1.26 1.21 1.29 1.40 1.42 1.41 1.40 1.38 1.22 1.00 0.82 0.68 0.57 0.61 0.58 0.58 0.55 0.46 0.40 0.37 0.33 0.29
1.86 1.87 1.78 1.60 1.45 1.31 1.11 0.92 0.84 0.82 0.82 0.82 0.85 0.83 0.66 0.56 0.63 0.66 0.80 0.92 1.04 1.09 1.09 1.16 1.24 1.33 1.43 1.53 1.53 1.35 1.16 1.00 0.79 0.67 0.70 0.63 0.61 0.62 0.56 0.48 0.48 0.39 0.33
1.90 1.86 1.77 1.64 1.56 1.46 1.26 1.01 0.90 0.77 0.81 0.83 0.84 0.84 0.79 0.73 0.69 0.73 0.76 0.76 0.78 0.84 0.88 0.91 1.01 1.18 1.37 1.54 1.67 1.56 1.41 1.15 0.96 0.85 0.84 0.70 0.57 0.55 0.53 0.53 0.54 0.48 0.39
1.69 1.58 1.52 1.51 1.48 1.49 1.33 1.09 0.99 0.91 0.97 0.97 0.94 0.93 0.91 0.85 0.84 0.71 0.70 0.73 0.73 0.77 0.78 0.84 0.88 1.03 1.28 1.47 1.54 1.56 1.44 1.24 1.02 0.87 0.84 0.80 0.64 0.57 0.55 0.48 0.47 0.50 0.44
1.55 1.50 1.44 1.45 1.45 1.45 1.36 1.06 0.98 0.95 1.04 1.06 1.08 1.06 0.97 0.86 0.81 0.68 0.66 0.73 0.73 0.73 0.78 0.80 0.83 0.84 0.92 1.19 1.45 1.31 1.24 1.18 1.04 0.84 0.67 0.71 0.69 0.68 0.60 0.45 0.40 0.42 0.40

GEFSMA_prec_meanprecacc_144.txt.gz
Total_Precipitation_Accumulation
1.79 1.87 1.67 1.65 1.47 1.73 2.09 2.30 2.35 2.58 2.71 2.66 2.33 2.11 2.09 1.98 1.83 1.84 2.09 2.33 2.36 2.23 2.28 2.27 2.00 1.86 1.80 1.56 1.34 1.21 1.11 1.02 0.90 0.75 0.68 0.64 0.52 0.36 0.22 0.18 0.19 0.21 0.18
1.95 1.99 1.91 1.81 1.58 1.69 2.00 2.34 2.42 2.69 2.68 2.74 2.30 2.03 1.97 1.98 1.78 1.68 1.74 2.09 2.13 2.02 2.03 2.21 2.26 2.18 2.08 1.86 1.62 1.40 1.24 1.12 1.00 0.81 0.70 0.64 0.56 0.46 0.36 0.28 0.25 0.25 0.21
2.20 2.32 2.23 1.89 1.72 1.86 2.03 2.04 2.17 2.63 2.49 2.49 2.35 2.31 2.27 2.06 1.82 1.71 1.66 1.74 1.71 1.86 1.93 1.99 2.18 2.31 2.37 2.27 2.05 1.79 1.55 1.29 1.06 0.86 0.72 0.62 0.55 0.48 0.44 0.38 0.35 0.33 0.26
2.03 2.13 1.86 1.51 1.66 1.91 2.04 1.97 1.98 2.34 2.40 2.44 2.46 2.40 2.27 2.07 1.78 1.67 1.63 1.53 1.51 1.37 1.59 1.81 2.00 2.17 2.44 2.55 2.57 2.52 2.23 1.72 1.29 0.99 0.79 0.68 0.59 0.48 0.39 0.35 0.36 0.38 0.29
1.30 1.39 1.25 1.18 1.33 1.58 1.60 1.43 1.57 1.84 1.98 2.12 2.05 1.87 1.68 1.48 1.34 1.29 1.27 1.18 1.31 1.34 1.40 1.46 1.75 1.89 2.24 2.71 3.05 3.12 2.88 2.25 1.64 1.29 1.07 0.91 0.83 0.66 0.45 0.36 0.37 0.36 0.31
0.96 1.02 1.01 0.93 0.98 1.04 1.09 1.24 1.43 1.56 1.49 1.59 1.50 1.34 1.28 1.12 1.01 0.98 0.87 0.87 0.98 0.95 1.01 1.20 1.43 1.33 1.71 2.25 2.67 2.94 2.94 2.64 2.06 1.67 1.43 1.30 1.25 0.97 0.63 0.49 0.47 0.38 0.32
0.83 0.85 0.81 0.81 0.82 0.80 0.82 0.97 1.09 1.13 0.98 1.16 1.31 1.18 0.97 0.80 0.75 0.74 0.69 0.71 0.71 0.74 0.91 1.13 1.25 1.23 1.17 1.33 1.62 2.12 2.57 2.76 2.58 2.17 1.77 1.57 1.53 1.28 0.90 0.71 0.59 0.49 0.45
0.72 0.69 0.73 0.67 0.63 0.69 0.70 0.74 0.85 0.88 0.80 0.90 1.05 1.07 0.89 0.80 0.66 0.46 0.50 0.52 0.53 0.67 0.77 0.90 1.08 1.27 1.25 1.36 1.11 1.45 2.16 2.56 2.80 2.76 2.39 2.01 1.76 1.45 1.10 0.94 0.77 0.63 0.57
0.52 0.50 0.49 0.48 0.50 0.52 0.56 0.62 0.70 0.76 0.72 0.67 0.75 0.87 0.77 0.67 0.59 0.49 0.41 0.44 0.53 0.61 0.64 0.80 0.90 1.09 1.27 1.51 1.45 1.29 1.58 1.90 2.51 2.98 2.91 2.37 1.73 1.33 1.13 1.09 1.03 0.82 0.67
0.45 0.42 0.39 0.39 0.38 0.37 0.46 0.44 0.53 0.65 0.68 0.58 0.57 0.61 0.61 0.61 0.59 0.56 0.50 0.43 0.48 0.52 0.58 0.66 0.80 0.99 1.12 1.37 1.45 1.19 1.08 1.31 1.90 2.54 2.84 2.67 2.06 1.49 1.22 1.27 1.45 1.33 1.01
0.50 0.44 0.43 0.39 0.37 0.33 0.35 0.37 0.47 0.56 0.63 0.58 0.52 0.56 0.64 0.64 0.56 0.56 0.55 0.53 0.55 0.44 0.51 0.66 0.77 0.86 0.95 1.19 1.46 1.29 1.17 1.10 1.21 1.54 1.90 2.23 2.30 2.01 1.73 1.69 1.90 2.02 1.83
0.53 0.48 0.47 0.48 0.43 0.40 0.39 0.38 0.41 0.45 0.57 0.65 0.62 0.58 0.61 0.64 0.54 0.51 0.45 0.44 0.51 0.46 0.58 0.76 0.81 0.87 0.93 1.13 1.18 1.16 1.08 0.95 0.85 0.86 1.05 1.31 1.60 1.78 1.76 1.84 2.11 2.36 2.50
0.42 0.42 0.42 0.44 0.46 0.47 0.46 0.45 0.45 0.44 0.49 0.58 0.58 0.58 0.57 0.56 0.59 0.59 0.55 0.48 0.51 0.54 0.68 0.80 0.91 0.97 0.99 1.13 1.13 1.06 0.90 0.77 0.63 0.57 0.63 0.76 0.92 1.19 1.45 1.63 1.87 2.16 2.42
0.42 0.40 0.39 0.39 0.42 0.47 0.49 0.54 0.50 0.50 0.51 0.52 0.48 0.60 0.63 0.55 0.65 0.69 0.72 0.77 0.70 0.71 0.85 0.91 1.03 1.08 1.18 1.20 1.14 1.04 0.84 0.71 0.57 0.50 0.46 0.48 0.56 0.64 0.82 1.04 1.28 1.56 1.84
0.50 0.47 0.44 0.47 0.50 0.53 0.55 0.59 0.56 0.54 0.54 0.52 0.53 0.62 0.67 0.70 0.74 0.70 0.80 0.89 0.92 0.87 0.95 1.02 0.98 0.97 0.99 1.01 0.97 0.83 0.69 0.62 0.54 0.46 0.43 0.42 0.43 0.47 0.54 0.61 0.69 0.76 0.86
0.56 0.56 0.54 0.53 0.56 0.57 0.57 0.61 0.60 0.64 0.66 0.66 0.69 0.72 0.71 0.75 0.83 0.75 0.80 0.88 0.90 0.97 1.03 0.94 0.88 0.87 0.84 0.72 0.70 0.65 0.60 0.65 0.56 0.45 0.39 0.38 0.38 0.40 0.43 0.47 0.51 0.56 0.60
0.67 0.66 0.66 0.67 0.67 0.68 0.70 0.74 0.74 0.77 0.82 0.91 0.93 0.91 0.91 0.94 0.95 0.91 0.96 0.95 0.89 0.99 1.00 0.83 0.92 0.99 0.89 0.72 0.62 0.58 0.57 0.62 0.60 0.59 0.49 0.42 0.35 0.32 0.34 0.37 0.40 0.45 0.48
0.92 0.86 0.80 0.78 0.73 0.74 0.81 0.84 0.87 0.83 0.83 0.88 1.05 1.25 1.25 1.24 1.16 1.04 1.10 1.05 1.01 1.15 1.11 1.02 1.11 1.16 1.11 0.91 0.78 0.67 0.54 0.55 0.59 0.62 0.52 0.46 0.41 0.35 0.30 0.30 0.31 0.32 0.33
1.07 1.06 1.02 0.92 0.81 0.76 0.75 0.78 0.87 0.88 0.90 1.01 1.16 1.29 1.38 1.49 1.36 1.23 1.19 1.15 1.17 1.24 1.25 1.16 1.19 1.32 1.31 1.11 0.91 0.70 0.53 0.56 0.51 0.57 0.53 0.46 0.44 0.42 0.37 0.32 0.29 0.28 0.27
1.08 1.12 1.13 1.09 1.01 0.88 0.78 0.77 0.82 0.88 1.03 1.21 1.27 1.20 1.27 1.50 1.55 1.46 1.31 1.23 1.24 1.29 1.31 1.30 1.32 1.44 1.47 1.38 1.18 0.89 0.71 0.63 0.52 0.48 0.54 0.49 0.45 0.44 0.40 0.36 0.32 0.31 0.31
1.16 1.22 1.27 1.25 1.17 1.04 0.86 0.87 0.94 0.91 1.03 1.10 1.09 1.01 0.99 1.12 1.33 1.45 1.34 1.28 1.29 1.27 1.29 1.36 1.41 1.48 1.50 1.55 1.39 1.11 0.90 0.79 0.63 0.53 0.57 0.54 0.51 0.47 0.46 0.45 0.40 0.35 0.31
1.54 1.60 1.56 1.46 1.35 1.04 0.97 0.93 0.91 0.95 0.99 1.00 0.97 0.94 0.83 0.77 0.83 1.01 1.17 1.29 1.36 1.29 1.24 1.32 1.44 1.47 1.46 1.45 1.42 1.26 1.04 0.86 0.71 0.60 0.66 0.63 0.61 0.58 0.49 0.42 0.41 0.37 0.33
1.95 1.96 1.86 1.69 1.55 1.42 1.23 1.02 0.93 0.91 0.91 0.92 0.95 0.93 0.75 0.66 0.74 0.76 0.88 0.98 1.09 1.14 1.13 1.20 1.27 1.36 1.45 1.55 1.55 1.37 1.18 1.02 0.82 0.69 0.72 0.65 0.63 0.64 0.58 0.50 0.52 0.43 0.37
1.98 1.96 1.86 1.74 1.65 1.55 1.36 1.12 1.01 0.86 0.89 0.92 0.96 0.95 0.89 0.82 0.79 0.81 0.83 0.82 0.84 0.90 0.93 0.95 1.04 1.20 1.39 1.56 1.69 1.57 1.43 1.17 0.97 0.86 0.85 0.71 0.59 0.57 0.55 0.56 0.57 0.50 0.43
1.75 1.64 1.59 1.58 1.55 1.58 1.44 1.18 1.08 0.99 1.06 1.06 1.04 1.02 1.00 0.93 0.94 0.80 0.77 0.79 0.80 0.82 0.83 0.87 0.90 1.05 1.30 1.49 1.56 1.57 1.46 1.27 1.04 0.89 0.85 0.81 0.64 0.58 0.56 0.50 0.49 0.52 0.46
1.61 1.56 1.49 1.51 1.52 1.52 1.45 1.15 1.07 1.03 1.12 1.13 1.15 1.13 1.05 0.93 0.88 0.75 0.72 0.79 0.78 0.78 0.82 0.83 0.85 0.86 0.93 1.20 1.46 1.32 1.24 1.19 1.04 0.85 0.67 0.71 0.69 0.68 0.61 0.45 0.41 0.43 0.41

GEFSMA_prec_meanprecacc_150.txt.gz
Total_Precipitation_Accumulation
1.80 1.87 1.67 1.65 1.47 1.73 2.10 2.32 2.36 2.60 2.73 2.68 2.35 2.14 2.10 2.00 1.84 1.85 2.10 2.34 2.38 2.24 2.30 2.29 2.02 1.87 1.82 1.59 1.36 1.23 1.12 1.03 0.92 0.76 0.69 0.66 0.53 0.36 0.23 0.19 0.19 0.22 0.19
1.96 2.01 1.92 1.81 1.58 1.70 2.02 2.35 2.43 2.70 2.70 2.76 2.32 2.06 1.98 2.00 1.79 1.69 1.75 2.11 2.16 2.04 2.06 2.23 2.29 2.20 2.10 1.88 1.64 1.41 1.25 1.14 1.01 0.82 0.70 0.65 0.57 0.46 0.37 0.28 0.25 0.25 0.21
2.22 2.34 2.25 1.90 1.73 1.88 2.05 2.06 2.20 2.66 2.52 2.52 2.39 2.35 2.30 2.09 1.84 1.72 1.67 1.75 1.73 1.89 1.97 2.03 2.22 2.35 2.41 2.29 2.07 1.81 1.57 1.32 1.08 0.87 0.73 0.63 0.56 0.48 0.45 0.39 0.36 0.34 0.26
2.04 2.15 1.89 1.54 1.68 1.92 2.07 2.00 2.01 2.37 2.44 2.49 2.51 2.44 2.31 2.10 1.81 1.69 1.64 1.54 1.53 1.39 1.63 1.87 2.06 2.21 2.49 2.59 2.61 2.56 2.27 1.76 1.32 1.01 0.81 0.69 0.60 0.50 0.40 0.36 0.37 0.39 0.29
1.32 1.41 1.28 1.20 1.35 1.60 1.64 1.46 1.59 1.87 2.02 2.17 2.09 1.91 1.72 1.52 1.36 1.31 1.29 1.20 1.32 1.35 1.42 1.50 1.81 1.95 2.30 2.78 3.10 3.18 2.94 2.30 1.68 1.32 1.11 0.94 0.86 0.68 0.47 0.37 0.39 0.38 0.32
0.99 1.05 1.05 0.97 1.01 1.05 1.11 1.25 1.44 1.58 1.53 1.63 1.54 1.39 1.32 1.16 1.05 1.01 0.89 0.90 1.00 0.97 1.02 1.21 1.45 1.37 1.77 2.32 2.74 3.01 3.02 2.71 2.12 1.71 1.47 1.34 1.29 1.01 0.65 0.50 0.48 0.40 0.33
0.89 0.90 0.86 0.84 0.85 0.82 0.83 0.98 1.10 1.14 1.01 1.18 1.35 1.21 1.00 0.84 0.79 0.77 0.72 0.74 0.73 0.77 0.93 1.15 1.27 1.25 1.19 1.37 1.68 2.21 2.66 2.85 2.67 2.24 1.84 1.63 1.59 1.32 0.93 0.74 0.62 0.51 0.48
0.78 0.75 0.77 0.71 0.67 0.72 0.72 0.75 0.87 0.90 0.82 0.93 1.08 1.09 0.90 0.81 0.68 0.48 0.52 0.55 0.55 0.69 0.79 0.92 1.10 1.29 1.26 1.38 1.14 1.52 2.24 2.64 2.89 2.84 2.48 2.08 1.82 1.49 1.14 0.98 0.81 0.68 0.62
0.57 0.55 0.53 0.52 0.54 0.55 0.58 0.64 0.72 0.79 0.74 0.69 0.77 0.90 0.78 0.68 0.60 0.49 0.43 0.46 0.54 0.62 0.66 0.81 0.93 1.12 1.29 1.52 1.46 1.32 1.63 1.96 2.58 3.05 2.98 2.42 1.78 1.36 1.16 1.13 1.07 0.87 0.72
0.49 0.46 0.43 0.41 0.41 0.40 0.48 0.47 0.57 0.69 0.71 0.61 0.60 0.63 0.63 0.61 0.59 0.57 0.51 0.44 0.49 0.53 0.60 0.67 0.82 1.02 1.15 1.39 1.47 1.21 1.10 1.33 1.94 2.60 2.90 2.72 2.10 1.52 1.24 1.30 1.48 1.36 1.05
0.56 0.48 0.46 0.42 0.40 0.35 0.38 0.42 0.51 0.61 0.68 0.62 0.55 0.58 0.66 0.65 0.56 0.56 0.55 0.53 0.56 0.45 0.52 0.67 0.79 0.88 0.98 1.21 1.48 1.32 1.19 1.12 1.24 1.58 1.95 2.28 2.35 2.05 1.76 1.73 1.94 2.07 1.89
0.59 0.51 0.50 0.52 0.47 0.43 0.40 0.40 0.45 0.49 0.60 0.68 0.65 0.60 0.63 0.65 0.55 0.51 0.45 0.44 0.52 0.46 0.59 0.77 0.82 0.89 0.96 1.15 1.20 1.19 1.11 0.98 0.88 0.89 1.09 1.35 1.64 1.82 1.80 1.88 2.16 2.42 2.56
0.46 0.45 0.45 0.47 0.49 0.50 0.49 0.48 0.48 0.47 0.52 0.60 0.60 0.61 0.59 0.57 0.60 0.60 0.56 0.48 0.51 0.55 0.69 0.81 0.92 0.99 1.00 1.15 1.15 1.09 0.93 0.81 0.68 0.61 0.67 0.79 0.96 1.22 1.48 1.65 1.90 2.20 2.46
0.46 0.45 0.44 0.42 0.45 0.50 0.53 0.59 0.55 0.54 0.57 0.56 0.51 0.64 0.66 0.57 0.66 0.71 0.74 0.78 0.71 0.72 0.85 0.92 1.04 1.09 1.19 1.22 1.16 1.06 0.87 0.75 0.61 0.55 0.51 0.53 0.60 0.69 0.86 1.07 1.30 1.58 1.85
0.53 0.51 0.49 0.52 0.56 0.59 0.63 0.66 0.61 0.58 0.60 0.56 0.57 0.66 0.70 0.74 0.77 0.72 0.83 0.92 0.94 0.88 0.96 1.03 0.99 0.98 1.00 1.03 0.99 0.86 0.73 0.67 0.58 0.50 0.48 0.47 0.48 0.51 0.57 0.64 0.70 0.77 0.87
0.60 0.61 0.60 0.59 0.63 0.63 0.63 0.67 0.65 0.70 0.73 0.72 0.75 0.78 0.76 0.80 0.88 0.78 0.83 0.91 0.92 0.99 1.04 0.96 0.89 0.89 0.87 0.74 0.73 0.69 0.64 0.69 0.59 0.48 0.43 0.42 0.42 0.44 0.47 0.50 0.53 0.58 0.62
0.72 0.73 0.73 0.74 0.73 0.74 0.78 0.82 0.82 0.87 0.94 1.03 1.05 1.02 1.00 1.01 1.01 0.96 1.00 0.99 0.92 1.01 1.03 0.85 0.94 1.01 0.91 0.76 0.66 0.62 0.61 0.66 0.63 0.61 0.53 0.46 0.39 0.35 0.36 0.40 0.43 0.48 0.50
0.96 0.93 0.87 0.86 0.81 0.84 0.93 0.95 0.97 0.94 0.93 0.96 1.13 1.33 1.32 1.30 1.21 1.08 1.14 1.09 1.04 1.19 1.14 1.04 1.13 1.17 1.12 0.93 0.81 0.71 0.58 0.58 0.62 0.66 0.57 0.50 0.44 0.37 0.33 0.32 0.33 0.34 0.35
1.12 1.13 1.09 0.99 0.89 0.87 0.88 0.92 0.99 1.00 1.01 1.10 1.24 1.36 1.45 1.55 1.41 1.28 1.23 1.20 1.22 1.29 1.30 1.20 1.21 1.34 1.33 1.12 0.93 0.72 0.55 0.58 0.53 0.60 0.56 0.50 0.48 0.46 0.41 0.36 0.33 0.32 0.30
1.13 1.17 1.17 1.14 1.08 0.96 0.88 0.89 0.92 0.96 1.11 1.28 1.34 1.27 1.35 1.59 1.64 1.55 1.40 1.31 1.31 1.36 1.36 1.35 1.36 1.47 1.50 1.42 1.21 0.93 0.74 0.65 0.55 0.52 0.60 0.55 0.52 0.50 0.46 0.42 0.38 0.37 0.37
1.20 1.27 1.33 1.31 1.23 1.10 0.93 0.94 1.01 0.97 1.09 1.17 1.16 1.09 1.07 1.23 1.44 1.55 1.43 1.37 1.37 1.36 1.38 1.44 1.49 1.54 1.56 1.61 1.46 1.17 0.97 0.85 0.69 0.58 0.62 0.58 0.55 0.50 0.50 0.50 0.45 0.40 0.37
1.58 1.65 1.60 1.50 1.39 1.08 1.03 1.00 0.98 1.00 1.06 1.06 1.05 1.02 0.92 0.86 0.93 1.11 1.27 1.39 1.46 1.39 1.33 1.42 1.53 1.55 1.55 1.54 1.51 1.34 1.10 0.91 0.76 0.64 0.68 0.65 0.63 0.60 0.50 0.44 0.43 0.39 0.36
1.99 2.01 1.91 1.73 1.59 1.47 1.30 1.10 1.00 0.97 0.97 0.97 1.00 0.99 0.82 0.74 0.83 0.85 0.99 1.10 1.21 1.27 1.25 1.31 1.37 1.45 1.54 1.64 1.63 1.43 1.24 1.07 0.86 0.73 0.75 0.68 0.65 0.66 0.60 0.52 0.54 0.44 0.39
2.03 2.02 1.92 1.79 1.70 1.60 1.44 1.19 1.09 0.93 0.95 0.98 1.01 1.01 0.96 0.90 0.87 0.91 0.94 0.94 0.94 1.00 1.05 1.06 1.15 1.30 1.48 1.64 1.76 1.64 1.49 1.21 1.01 0.89 0.88 0.74 0.61 0.58 0.56 0.57 0.58 0.52 0.44
1.78 1.68 1.63 1.65 1.64 1.67 1.53 1.25 1.14 1.04 1.12 1.13 1.12 1.10 1.09 1.03 1.06 0.90 0.85 0.88 0.89 0.91 0.94 0.98 1.01 1.15 1.39 1.57 1.63 1.63 1.51 1.31 1.08 0.92 0.88 0.84 0.67 0.61 0.59 0.52 0.50 0.53 0.47
1.64 1.59 1.53 1.55 1.57 1.58 1.52 1.21 1.11 1.07 1.17 1.19 1.22 1.20 1.14 1.01 0.96 0.82 0.78 0.85 0.84 0.85 0.89 0.91 0.92 0.93 1.00 1.26 1.51 1.36 1.28 1.23 1.08 0.89 0.71 0.75 0.73 0.72 0.64 0.48 0.42 0.44 0.41

GEFSMA_prec_meanprecacc_156.txt.gz
Total_Precipitation_Accumulation
1.84 1.92 1.72 1.69 1.50 1.76 2.13 2.36 2.40 2.63 2.78 2.72 2.38 2.16 2.12 2.02 1.85 1.86 2.12 2.36 2.40 2.27 2.33 2.31 2.05 1.90 1.86 1.62 1.40 1.25 1.14 1.05 0.93 0.77 0.71 0.67 0.55 0.38 0.24 0.19 0.20 0.23 0.20
2.02 2.05 1.96 1.86 1.63 1.74 2.06 2.41 2.48 2.74 2.74 2.80 2.35 2.08 2.01 2.02 1.81 1.70 1.77 2.14 2.18 2.06 2.08 2.26 2.31 2.23 2.13 1.91 1.67 1.43 1.28 1.16 1.03 0.83 0.71 0.66 0.59 0.47 0.39 0.29 0.26 0.25 0.22
2.28 2.39 2.29 1.95 1.79 1.93 2.11 2.14 2.26 2.69 2.55 2.55 2.42 2.37 2.32 2.11 1.86 1.74 1.69 1.78 1.76 1.91 1.99 2.06 2.25 2.38 2.44 2.33 2.11 1.85 1.61 1.36 1.10 0.88 0.74 0.64 0.56 0.49 0.45 0.40 0.36 0.34 0.26
2.09 2.19 1.93 1.59 1.74 1.98 2.13 2.07 2.06 2.42 2.49 2.53 2.57 2.49 2.35 2.14 1.84 1.72 1.66 1.56 1.56 1.43 1.67 1.90 2.09 2.24 2.52 2.62 2.65 2.60 2.31 1.81 1.35 1.04 0.83 0.72 0.62 0.51 0.40 0.37 0.37 0.39 0.30
1.37 1.46 1.33 1.26 1.42 1.68 1.72 1.52 1.65 1.93 2.07 2.23 2.15 1.96 1.76 1.56 1.42 1.34 1.31 1.21 1.34 1.38 1.46 1.54 1.83 1.97 2.32 2.81 3.15 3.24 3.01 2.35 1.72 1.36 1.14 0.97 0.90 0.71 0.48 0.38 0.39 0.38 0.33
1.06 1.13 1.12 1.03 1.08 1.14 1.19 1.34 1.54 1.65 1.58 1.68 1.58 1.44 1.38 1.19 1.09 1.05 0.91 0.92 1.02 0.99 1.05 1.26 1.51 1.40 1.79 2.35 2.79 3.07 3.09 2.80 2.18 1.76 1.52 1.38 1.34 1.05 0.68 0.52 0.49 0.40 0.34
0.97 1.02 0.95 0.95 0.95 0.90 0.92 1.04 1.17 1.22 1.06 1.23 1.43 1.30 1.06 0.86 0.83 0.81 0.75 0.77 0.76 0.79 0.95 1.20 1.34 1.31 1.25 1.40 1.70 2.24 2.70 2.90 2.74 2.31 1.90 1.68 1.64 1.37 0.97 0.77 0.63 0.53 0.50
0.85 0.83 0.88 0.80 0.76 0.82 0.82 0.85 0.97 0.98 0.87 0.97 1.14 1.17 0.97 0.87 0.73 0.49 0.56 0.59 0.57 0.72 0.82 0.95 1.15 1.37 1.33 1.44 1.17 1.53 2.28 2.68 2.95 2.92 2.54 2.14 1.87 1.53 1.17 1.01 0.83 0.70 0.64
0.66 0.63 0.62 0.59 0.62 0.63 0.67 0.74 0.82 0.89 0.84 0.76 0.83 0.97 0.85 0.75 0.66 0.52 0.44 0.47 0.56 0.65 0.68 0.84 0.95 1.17 1.34 1.58 1.52 1.35 1.65 1.99 2.63 3.13 3.09 2.51 1.84 1.40 1.19 1.16 1.11 0.90 0.75
0.58 0.55 0.51 0.50 0.48 0.45 0.56 0.54 0.63 0.78 0.82 0.69 0.67 0.69 0.68 0.67 0.68 0.62 0.54 0.45 0.51 0.55 0.61 0.69 0.84 1.04 1.19 1.45 1.54 1.24 1.11 1.34 1.97 2.65 2.98 2.79 2.15 1.55 1.27 1.32 1.52 1.40 1.08
0.66 0.56 0.52 0.49 0.47 0.41 0.45 0.48 0.57 0.68 0.75 0.69 0.62 0.64 0.72 0.71 0.62 0.62 0.62 0.58 0.58 0.46 0.53 0.68 0.81 0.91 1.01 1.26 1.55 1.36 1.20 1.12 1.25 1.61 1.99 2.33 2.39 2.08 1.79 1.75 1.98 2.11 1.93
0.68 0.60 0.57 0.60 0.54 0.49 0.47 0.47 0.52 0.56 0.69 0.77 0.74 0.67 0.69 0.71 0.59 0.56 0.51 0.51 0.56 0.48 0.60 0.79 0.84 0.90 0.97 1.17 1.22 1.20 1.11 0.98 0.88 0.90 1.10 1.37 1.67 1.85 1.83 1.92 2.21 2.47 2.61
0.53 0.56 0.53 0.56 0.56 0.57 0.57 0.57 0.58 0.54 0.61 0.70 0.69 0.68 0.64 0.63 0.65 0.64 0.61 0.53 0.56 0.57 0.71 0.82 0.93 0.99 1.02 1.16 1.18 1.10 0.94 0.82 0.69 0.63 0.69 0.82 0.98 1.24 1.50 1.69 1.94 2.25 2.52
0.54 0.54 0.52 0.49 0.52 0.58 0.60 0.68 0.63 0.63 0.64 0.63 0.60 0.72 0.71 0.62 0.70 0.74 0.78 0.83 0.77 0.77 0.91 0.96 1.06 1.10 1.21 1.24 1.18 1.08 0.89 0.76 0.63 0.56 0.53 0.55 0.62 0.71 0.89 1.10 1.33 1.61 1.88
0.60 0.58 0.57 0.60 0.63 0.67 0.70 0.75 0.69 0.66 0.68 0.62 0.63 0.73 0.76 0.78 0.80 0.75 0.86 0.96 1.01 0.97 1.06 1.11 1.04 1.01 1.03 1.05 1.02 0.89 0.76 0.69 0.60 0.52 0.49 0.48 0.50 0.54 0.60 0.66 0.72 0.79 0.89
0.67 0.69 0.67 0.66 0.70 0.68 0.68 0.74 0.72 0.77 0.80 0.78 0.81 0.85 0.84 0.86 0.94 0.86 0.92 1.00 1.03 1.10 1.15 1.04 0.96 0.93 0.90 0.77 0.76 0.72 0.67 0.72 0.61 0.49 0.44 0.43 0.44 0.46 0.48 0.52 0.55 0.60 0.63
0.79 0.79 0.81 0.82 0.81 0.81 0.84 0.88 0.87 0.92 1.01 1.13 1.15 1.13 1.13 1.15 1.15 1.08 1.12 1.10 1.05 1.15 1.16 0.96 1.01 1.05 0.95 0.79 0.69 0.65 0.64 0.69 0.65 0.63 0.54 0.47 0.40 0.37 0.38 0.41 0.45 0.50 0.52
1.02 0.98 0.93 0.93 0.87 0.89 0.99 1.02 1.03 1.01 1.01 1.06 1.24 1.45 1.45 1.43 1.33 1.19 1.24 1.20 1.16 1.31 1.26 1.15 1.22 1.23 1.18 0.98 0.87 0.76 0.61 0.61 0.65 0.69 0.59 0.53 0.46 0.40 0.35 0.34 0.36 0.37 0.38
1.19 1.19 1.14 1.05 0.96 0.94 0.96 1.00 1.08 1.09 1.11 1.19 1.33 1.45 1.54 1.65 1.52 1.39 1.33 1.29 1.31 1.38 1.40 1.31 1.32 1.42 1.40 1.18 1.00 0.78 0.60 0.64 0.58 0.64 0.61 0.54 0.52 0.49 0.44 0.40 0.37 0.36 0.34
1.22 1.27 1.26 1.21 1.15 1.04 0.96 0.98 1.02 1.06 1.19 1.35 1.40 1.34 1.43 1.68 1.74 1.68 1.52 1.42 1.42 1.47 1.48 1.47 1.48 1.59 1.62 1.53 1.31 1.02 0.83 0.74 0.62 0.58 0.65 0.60 0.56 0.54 0.51 0.46 0.43 0.42 0.41
1.24 1.33 1.40 1.39 1.32 1.18 1.00 1.02 1.11 1.07 1.17 1.23 1.22 1.15 1.14 1.31 1.53 1.66 1.54 1.48 1.49 1.48 1.48 1.55 1.61 1.68 1.69 1.73 1.57 1.27 1.07 0.95 0.78 0.66 0.69 0.64 0.60 0.55 0.55 0.55 0.50 0.45 0.41
1.62 1.69 1.65 1.55 1.45 1.14 1.10 1.06 1.05 1.07 1.13 1.14 1.12 1.09 1.00 0.94 1.02 1.20 1.36 1.49 1.56 1.49 1.44 1.52 1.66 1.70 1.70 1.69 1.65 1.48 1.24 1.03 0.87 0.74 0.78 0.76 0.73 0.68 0.57 0.49 0.48 0.43 0.39
2.04 2.05 1.97 1.79 1.65 1.53 1.36 1.15 1.05 1.01 1.01 1.02 1.05 1.05 0.89 0.81 0.91 0.91 1.06 1.18 1.30 1.36 1.35 1.42 1.52 1.61 1.71 1.81 1.80 1.60 1.40 1.23 1.02 0.87 0.89 0.82 0.77 0.76 0.67 0.57 0.58 0.47 0.41
2.08 2.08 2.01 1.89 1.80 1.69 1.51 1.24 1.16 0.99 1.00 1.03 1.06 1.06 1.02 0.96 0.94 0.97 1.00 1.01 1.02 1.09 1.16 1.17 1.28 1.45 1.63 1.79 1.91 1.79 1.65 1.38 1.17 1.04 1.01 0.86 0.70 0.65 0.61 0.60 0.62 0.54 0.46
1.81 1.72 1.70 1.71 1.71 1.76 1.62 1.32 1.20 1.09 1.17 1.17 1.16 1.16 1.15 1.09 1.14 0.99 0.93 0.97 0.99 1.02 1.05 1.08 1.11 1.25 1.50 1.67 1.73 1.73 1.63 1.44 1.21 1.03 0.96 0.91 0.73 0.65 0.62 0.55 0.53 0.56 0.49
1.65 1.61 1.54 1.57 1.60 1.61 1.57 1.25 1.15 1.09 1.19 1.21 1.24 1.23 1.17 1.05 1.02 0.88 0.82 0.90 0.91 0.91 0.96 0.97 0.98 0.99 1.06 1.33 1.58 1.43 1.35 1.31 1.16 0.95 0.76 0.79 0.78 0.77 0.69 0.52 0.46 0.47 0.44

GEFSMA_prec_meanprecacc_162.txt.gz
Total_Precipitation_Accumulation
1.93 2.02 1.83 1.81 1.59 1.82 2.20 2.44 2.48 2.69 2.83 2.75 2.40 2.18 2.17 2.09 1.87 1.88 2.14 2.37 2.40 2.28 2.33 2.31 2.05 1.91 1.87 1.63 1.41 1.26 1.15 1.06 0.94 0.77 0.71 0.68 0.56 0.38 0.24 0.19 0.20 0.23 0.20
2.10 2.14 2.05 1.94 1.69 1.79 2.13 2.48 2.56 2.81 2.80 2.86 2.39 2.10 2.03 2.04 1.83 1.72 1.80 2.16 2.18 2.07 2.09 2.26 2.31 2.23 2.14 1.92 1.68 1.45 1.29 1.17 1.04 0.84 0.71 0.67 0.60 0.48 0.40 0.30 0.26 0.26 0.22
2.34 2.45 2.36 2.00 1.84 1.98 2.16 2.19 2.33 2.75 2.61 2.61 2.48 2.41 2.35 2.13 1.88 1.76 1.71 1.82 1.78 1.92 2.00 2.07 2.26 2.39 2.45 2.34 2.12 1.86 1.62 1.37 1.12 0.89 0.75 0.65 0.57 0.50 0.46 0.40 0.37 0.35 0.27
2.11 2.24 1.98 1.63 1.78 2.03 2.18 2.13 2.11 2.48 2.55 2.59 2.63 2.54 2.39 2.17 1.85 1.73 1.67 1.59 1.60 1.46 1.68 1.90 2.09 2.25 2.54 2.64 2.67 2.62 2.33 1.82 1.37 1.05 0.83 0.72 0.63 0.52 0.41 0.37 0.38 0.40 0.30
1.38 1.49 1.39 1.32 1.45 1.72 1.78 1.57 1.72 2.00 2.14 2.30 2.20 2.01 1.79 1.59 1.44 1.35 1.32 1.22 1.36 1.42 1.49 1.56 1.84 1.99 2.36 2.85 3.19 3.27 3.04 2.37 1.73 1.37 1.15 0.99 0.91 0.73 0.49 0.39 0.40 0.38 0.33
1.08 1.16 1.16 1.06 1.11 1.19 1.25 1.41 1.63 1.73 1.67 1.75 1.62 1.52 1.41 1.21 1.12 1.07 0.93 0.93 1.03 1.01 1.08 1.31 1.57 1.43 1.82 2.38 2.83 3.11 3.12 2.83 2.21 1.78 1.54 1.40 1.36 1.06 0.69 0.53 0.49 0.41 0.35
1.00 1.07 1.01 1.01 0.99 0.96 0.98 1.10 1.25 1.31 1.15 1.29 1.52 1.43 1.15 0.90 0.86 0.83 0.76 0.78 0.79 0.83 0.98 1.27 1.44 1.42 1.32 1.44 1.72 2.26 2.72 2.94 2.79 2.35 1.92 1.71 1.67 1.40 0.98 0.78 0.65 0.54 0.51
0.89 0.88 0.94 0.84 0.82 0.90 0.88 0.91 1.04 1.07 0.95 1.04 1.22 1.30 1.11 1.01 0.82 0.52 0.58 0.60 0.59 0.74 0.84 0.98 1.20 1.45 1.41 1.56 1.22 1.55 2.30 2.72 3.00 2.97 2.58 2.17 1.90 1.56 1.20 1.03 0.85 0.72 0.66
0.70 0.68 0.68 0.65 0.68 0.68 0.74 0.81 0.88 0.98 0.94 0.85 0.89 1.04 0.96 0.91 0.82 0.59 0.47 0.48 0.57 0.68 0.70 0.86 0.98 1.23 1.40 1.68 1.60 1.39 1.67 2.02 2.66 3.17 3.14 2.56 1.87 1.42 1.21 1.19 1.13 0.92 0.77
0.65 0.61 0.57 0.56 0.55 0.51 0.65 0.59 0.69 0.85 0.91 0.78 0.74 0.73 0.73 0.77 0.82 0.78 0.63 0.49 0.55 0.58 0.65 0.74 0.89 1.12 1.26 1.54 1.62 1.29 1.13 1.36 1.98 2.67 3.02 2.84 2.19 1.58 1.29 1.35 1.56 1.45 1.12
0.75 0.62 0.60 0.58 0.56 0.48 0.53 0.56 0.68 0.76 0.82 0.76 0.71 0.71 0.79 0.79 0.69 0.72 0.73 0.68 0.66 0.53 0.60 0.74 0.86 0.98 1.07 1.32 1.64 1.40 1.24 1.15 1.27 1.62 2.01 2.37 2.44 2.12 1.82 1.79 2.03 2.16 1.97
0.80 0.68 0.65 0.71 0.64 0.60 0.59 0.58 0.63 0.66 0.79 0.86 0.82 0.74 0.77 0.79 0.67 0.65 0.60 0.59 0.66 0.58 0.68 0.85 0.91 0.97 1.03 1.22 1.26 1.22 1.14 1.00 0.90 0.91 1.12 1.39 1.70 1.89 1.88 1.96 2.24 2.51 2.66
0.65 0.68 0.64 0.68 0.66 0.69 0.66 0.67 0.70 0.64 0.70 0.80 0.77 0.75 0.71 0.67 0.70 0.72 0.71 0.64 0.69 0.68 0.81 0.89 0.98 1.05 1.06 1.21 1.21 1.12 0.95 0.83 0.70 0.64 0.70 0.84 1.00 1.27 1.54 1.73 1.99 2.30 2.57
0.65 0.64 0.61 0.59 0.62 0.66 0.69 0.82 0.74 0.73 0.75 0.73 0.68 0.84 0.81 0.68 0.75 0.80 0.87 0.96 0.92 0.91 1.04 1.07 1.15 1.18 1.28 1.31 1.23 1.11 0.90 0.77 0.64 0.57 0.54 0.57 0.64 0.73 0.91 1.12 1.35 1.63 1.91
0.70 0.69 0.65 0.71 0.76 0.78 0.81 0.89 0.82 0.78 0.81 0.74 0.74 0.85 0.86 0.85 0.87 0.81 0.94 1.09 1.17 1.13 1.19 1.22 1.13 1.11 1.14 1.14 1.08 0.94 0.79 0.73 0.63 0.54 0.51 0.51 0.52 0.56 0.62 0.68 0.74 0.82 0.91
0.79 0.80 0.78 0.79 0.85 0.84 0.83 0.90 0.87 0.91 0.95 0.92 0.93 0.96 0.96 0.96 1.03 0.94 1.01 1.11 1.16 1.24 1.28 1.12 1.03 1.02 0.99 0.85 0.84 0.78 0.73 0.80 0.68 0.54 0.48 0.47 0.48 0.49 0.51 0.55 0.58 0.62 0.66
0.90 0.89 0.90 0.94 0.93 0.94 0.98 1.04 1.01 1.06 1.16 1.28 1.27 1.23 1.24 1.27 1.26 1.19 1.23 1.21 1.17 1.29 1.30 1.06 1.13 1.17 1.06 0.90 0.79 0.74 0.70 0.75 0.72 0.71 0.60 0.52 0.45 0.40 0.41 0.44 0.49 0.54 0.56
1.12 1.07 1.01 1.01 0.96 0.98 1.11 1.16 1.19 1.19 1.19 1.22 1.39 1.61 1.60 1.56 1.46 1.32 1.37 1.31 1.27 1.44 1.39 1.26 1.33 1.35 1.29 1.09 0.96 0.85 0.70 0.68 0.72 0.79 0.68 0.61 0.54 0.48 0.43 0.41 0.42 0.42 0.42
1.30 1.28 1.23 1.13 1.06 1.06 1.09 1.14 1.23 1.23 1.27 1.35 1.49 1.60 1.67 1.78 1.64 1.50 1.44 1.39 1.41 1.50 1.56 1.46 1.45 1.55 1.52 1.28 1.10 0.87 0.69 0.72 0.66 0.75 0.71 0.63 0.61 0.58 0.53 0.47 0.44 0.41 0.38
1.32 1.38 1.35 1.30 1.27 1.16 1.07 1.08 1.11 1.16 1.31 1.46 1.50 1.44 1.53 1.78 1.85 1.80 1.63 1.55 1.55 1.62 1.65 1.64 1.62 1.70 1.73 1.64 1.42 1.12 0.94 0.85 0.74 0.70 0.78 0.71 0.66 0.63 0.58 0.52 0.48 0.47 0.47
1.32 1.42 1.49 1.50 1.43 1.27 1.08 1.11 1.19 1.15 1.26 1.32 1.31 1.22 1.21 1.39 1.62 1.75 1.61 1.56 1.58 1.59 1.61 1.68 1.71 1.76 1.78 1.83 1.67 1.37 1.17 1.05 0.89 0.76 0.79 0.73 0.69 0.64 0.63 0.62 0.57 0.52 0.47
1.69 1.76 1.71 1.63 1.54 1.22 1.20 1.15 1.13 1.16 1.22 1.22 1.20 1.17 1.07 1.01 1.07 1.24 1.41 1.54 1.64 1.57 1.53 1.63 1.75 1.79 1.78 1.79 1.78 1.62 1.37 1.16 1.01 0.87 0.91 0.90 0.85 0.80 0.66 0.57 0.56 0.50 0.45
2.09 2.12 2.03 1.85 1.70 1.58 1.43 1.21 1.11 1.08 1.10 1.10 1.13 1.12 0.94 0.85 0.95 0.94 1.10 1.23 1.35 1.41 1.40 1.49 1.60 1.70 1.81 1.93 1.95 1.76 1.56 1.39 1.18 1.01 1.00 0.93 0.86 0.85 0.75 0.65 0.65 0.53 0.46
2.12 2.14 2.07 1.95 1.86 1.73 1.55 1.27 1.19 1.04 1.06 1.08 1.11 1.11 1.06 1.00 0.97 1.00 1.03 1.03 1.04 1.11 1.19 1.22 1.33 1.52 1.71 1.90 2.03 1.93 1.79 1.50 1.27 1.12 1.08 0.93 0.77 0.72 0.67 0.66 0.67 0.59 0.50
1.86 1.77 1.75 1.76 1.76 1.80 1.65 1.34 1.22 1.12 1.20 1.20 1.18 1.18 1.17 1.10 1.15 1.01 0.95 0.98 1.00 1.04 1.07 1.11 1.13 1.28 1.54 1.71 1.79 1.81 1.72 1.53 1.29 1.10 1.02 0.96 0.78 0.70 0.66 0.59 0.57 0.59 0.52
1.70 1.66 1.59 1.61 1.64 1.65 1.59 1.27 1.16 1.10 1.21 1.23 1.26 1.25 1.19 1.06 1.03 0.89 0.83 0.91 0.92 0.93 0.98 0.99 1.00 1.01 1.08 1.36 1.62 1.46 1.40 1.36 1.21 1.01 0.81 0.84 0.82 0.81 0.74 0.56 0.49 0.50 0.47

GEFSMA_prec_meanprecacc_168.txt.gz
Total_Precipitation_Accumulation
1.97 2.05 1.89 1.87 1.65 1.86 2.24 2.49 2.54 2.74 2.87 2.79 2.44 2.22 2.21 2.16 1.94 1.92 2.16 2.39 2.41 2.29 2.34 2.33 2.06 1.93 1.89 1.65 1.42 1.27 1.16 1.06 0.94 0.78 0.72 0.70 0.58 0.39 0.24 0.19 0.20 0.23 0.20
2.13 2.18 2.10 2.00 1.76 1.83 2.17 2.51 2.60 2.87 2.85 2.89 2.42 2.13 2.06 2.08 1.87 1.75 1.82 2.18 2.20 2.08 2.10 2.28 2.34 2.27 2.17 1.94 1.70 1.47 1.31 1.18 1.04 0.84 0.72 0.68 0.61 0.49 0.41 0.31 0.27 0.26 0.22
2.37 2.48 2.38 2.05 1.89 2.01 2.19 2.23 2.37 2.81 2.65 2.64 2.50 2.44 2.37 2.16 1.92 1.78 1.73 1.84 1.79 1.93 2.02 2.08 2.28 2.41 2.47 2.36 2.14 1.88 1.64 1.38 1.13 0.90 0.75 0.65 0.58 0.51 0.47 0.41 0.38 0.35 0.27
2.13 2.26 1.99 1.66 1.80 2.05 2.21 2.16 2.14 2.51 2.58 2.63 2.67 2.57 2.42 2.20 1.89 1.75 1.69 1.61 1.62 1.48 1.70 1.92 2.11 2.27 2.56 2.66 2.69 2.65 2.35 1.83 1.38 1.05 0.84 0.73 0.64 0.53 0.41 0.38 0.38 0.40 0.31
1.40 1.51 1.40 1.34 1.47 1.75 1.81 1.61 1.75 2.02 2.17 2.33 2.23 2.05 1.83 1.63 1.48 1.38 1.34 1.24 1.39 1.45 1.51 1.58 1.86 2.01 2.39 2.89 3.22 3.30 3.07 2.40 1.75 1.38 1.16 1.00 0.92 0.74 0.50 0.39 0.40 0.39 0.34
1.09 1.18 1.17 1.08 1.13 1.21 1.27 1.45 1.67 1.76 1.69 1.79 1.66 1.56 1.46 1.26 1.18 1.13 0.96 0.96 1.07 1.04 1.11 1.34 1.60 1.46 1.86 2.42 2.87 3.14 3.16 2.87 2.25 1.81 1.56 1.42 1.37 1.08 0.70 0.54 0.50 0.41 0.36
1.02 1.09 1.03 1.02 1.01 0.99 1.00 1.13 1.28 1.34 1.18 1.34 1.58 1.48 1.23 0.99 0.93 0.90 0.81 0.83 0.84 0.88 1.05 1.36 1.49 1.45 1.35 1.47 1.75 2.29 2.76 3.00 2.84 2.38 1.95 1.74 1.69 1.42 1.00 0.80 0.66 0.56 0.53
0.92 0.90 0.96 0.86 0.83 0.92 0.90 0.95 1.07 1.09 0.98 1.08 1.28 1.35 1.17 1.11 0.90 0.59 0.64 0.66 0.64 0.80 0.92 1.04 1.26 1.50 1.46 1.59 1.24 1.57 2.33 2.75 3.05 3.03 2.63 2.22 1.94 1.60 1.23 1.06 0.88 0.74 0.68
0.74 0.71 0.71 0.68 0.70 0.70 0.76 0.84 0.91 1.00 0.96 0.88 0.93 1.08 0.99 0.95 0.87 0.66 0.53 0.56 0.67 0.76 0.77 0.94 1.06 1.31 1.50 1.74 1.64 1.42 1.71 2.05 2.70 3.22 3.20 2.60 1.91 1.45 1.24 1.22 1.17 0.95 0.80
0.71 0.67 0.60 0.60 0.61 0.57 0.69 0.63 0.73 0.88 0.93 0.80 0.79 0.79 0.79 0.84 0.85 0.81 0.68 0.57 0.68 0.71 0.77 0.86 1.01 1.26 1.38 1.63 1.68 1.32 1.15 1.38 2.01 2.72 3.08 2.90 2.22 1.60 1.32 1.39 1.59 1.49 1.15
0.81 0.67 0.65 0.65 0.64 0.54 0.58 0.61 0.73 0.80 0.85 0.78 0.74 0.77 0.84 0.84 0.73 0.76 0.78 0.74 0.75 0.63 0.74 0.89 1.00 1.12 1.19 1.41 1.69 1.44 1.27 1.18 1.30 1.65 2.05 2.42 2.49 2.17 1.87 1.84 2.07 2.21 2.02
0.85 0.74 0.72 0.78 0.71 0.66 0.65 0.63 0.68 0.71 0.82 0.88 0.85 0.78 0.81 0.85 0.72 0.70 0.64 0.63 0.72 0.67 0.81 0.99 1.04 1.10 1.13 1.31 1.33 1.26 1.18 1.04 0.94 0.95 1.15 1.43 1.75 1.94 1.93 2.03 2.33 2.59 2.75
0.74 0.76 0.74 0.78 0.75 0.78 0.72 0.73 0.74 0.67 0.74 0.83 0.80 0.78 0.74 0.71 0.76 0.79 0.78 0.70 0.74 0.76 0.92 1.00 1.09 1.16 1.16 1.30 1.29 1.20 1.02 0.90 0.76 0.70 0.77 0.89 1.05 1.32 1.59 1.78 2.05 2.37 2.67
0.73 0.71 0.68 0.68 0.71 0.75 0.75 0.89 0.81 0.79 0.81 0.78 0.74 0.89 0.85 0.72 0.81 0.86 0.94 1.03 0.99 0.99 1.13 1.16 1.24 1.28 1.39 1.43 1.35 1.23 1.00 0.88 0.75 0.67 0.63 0.64 0.70 0.78 0.96 1.17 1.40 1.69 1.97
0.80 0.78 0.75 0.80 0.83 0.85 0.89 0.99 0.93 0.89 0.93 0.83 0.83 0.94 0.94 0.91 0.92 0.88 1.03 1.19 1.29 1.24 1.29 1.31 1.21 1.18 1.21 1.25 1.19 1.03 0.88 0.84 0.75 0.67 0.64 0.60 0.59 0.61 0.66 0.71 0.78 0.85 0.94
0.87 0.89 0.87 0.87 0.93 0.91 0.91 1.01 1.00 1.05 1.09 1.06 1.05 1.07 1.05 1.04 1.12 1.04 1.11 1.22 1.30 1.40 1.41 1.20 1.10 1.07 1.05 0.92 0.91 0.87 0.82 0.90 0.81 0.69 0.62 0.59 0.57 0.57 0.57 0.59 0.62 0.65 0.69
0.97 0.96 0.97 1.02 1.00 1.02 1.07 1.14 1.09 1.15 1.26 1.40 1.39 1.35 1.36 1.39 1.37 1.30 1.33 1.32 1.30 1.42 1.40 1.14 1.19 1.23 1.12 0.96 0.86 0.82 0.78 0.83 0.82 0.82 0.71 0.62 0.54 0.49 0.49 0.51 0.54 0.59 0.61
1.18 1.14 1.08 1.08 1.02 1.04 1.17 1.24 1.27 1.29 1.31 1.34 1.50 1.70 1.69 1.63 1.53 1.39 1.44 1.38 1.35 1.52 1.47 1.34 1.40 1.42 1.36 1.17 1.05 0.93 0.77 0.74 0.79 0.88 0.77 0.69 0.63 0.57 0.52 0.52 0.53 0.53 0.53
1.37 1.37 1.30 1.20 1.13 1.11 1.16 1.22 1.30 1.30 1.33 1.40 1.53 1.64 1.72 1.82 1.68 1.55 1.49 1.44 1.47 1.57 1.64 1.54 1.53 1.64 1.61 1.37 1.19 0.96 0.77 0.80 0.75 0.86 0.83 0.76 0.74 0.70 0.65 0.60 0.56 0.53 0.50
1.44 1.50 1.44 1.38 1.34 1.23 1.14 1.13 1.15 1.20 1.35 1.49 1.53 1.48 1.58 1.83 1.90 1.84 1.67 1.59 1.61 1.69 1.73 1.72 1.70 1.78 1.80 1.70 1.50 1.21 1.04 0.96 0.85 0.82 0.89 0.82 0.77 0.73 0.68 0.61 0.57 0.55 0.55
1.43 1.54 1.61 1.61 1.53 1.34 1.13 1.14 1.23 1.19 1.31 1.38 1.35 1.27 1.26 1.45 1.67 1.78 1.64 1.59 1.62 1.63 1.66 1.73 1.76 1.80 1.82 1.88 1.73 1.45 1.25 1.14 0.98 0.85 0.88 0.83 0.78 0.72 0.71 0.71 0.66 0.60 0.56
1.80 1.88 1.82 1.72 1.61 1.26 1.24 1.18 1.16 1.20 1.27 1.28 1.25 1.22 1.11 1.05 1.10 1.27 1.43 1.56 1.66 1.59 1.55 1.66 1.79 1.82 1.81 1.83 1.83 1.68 1.45 1.26 1.11 0.97 1.02 1.03 0.98 0.92 0.77 0.67 0.66 0.58 0.52
2.14 2.17 2.08 1.90 1.74 1.61 1.47 1.25 1.15 1.11 1.13 1.12 1.15 1.14 0.97 0.88 0.97 0.96 1.11 1.24 1.36 1.43 1.42 1.51 1.62 1.72 1.84 1.97 1.99 1.81 1.62 1.46 1.26 1.11 1.10 1.02 0.95 0.95 0.86 0.75 0.75 0.61 0.52
2.14 2.16 2.10 1.99 1.89 1.76 1.57 1.29 1.21 1.05 1.07 1.09 1.12 1.12 1.08 1.02 0.99 1.02 1.04 1.05 1.06 1.12 1.20 1.23 1.35 1.53 1.73 1.92 2.07 1.97 1.83 1.55 1.32 1.17 1.12 0.98 0.82 0.77 0.73 0.72 0.73 0.64 0.53
1.89 1.81 1.79 1.81 1.80 1.83 1.68 1.36 1.23 1.12 1.21 1.21 1.19 1.19 1.19 1.12 1.19 1.05 0.98 1.00 1.01 1.04 1.08 1.12 1.15 1.30 1.55 1.73 1.81 1.84 1.75 1.56 1.32 1.13 1.05 1.01 0.83 0.74 0.70 0.62 0.60 0.63 0.55
1.75 1.71 1.66 1.68 1.70 1.71 1.64 1.30 1.18 1.12 1.23 1.24 1.27 1.26 1.20 1.08 1.05 0.92 0.86 0.93 0.93 0.94 0.99 1.00 1.01 1.02 1.09 1.37 1.64 1.48 1.41 1.38 1.24 1.03 0.83 0.88 0.87 0.85 0.78 0.59 0.51 0.52 0.49

GEFSMA_prec_meanprecacc_174.txt.gz
Total_Precipitation_Accumulation
1.98 2.07 1.90 1.88 1.66 1.88 2.25 2.50 2.56 2.75 2.89 2.81 2.45 2.22 2.23 2.17 1.94 1.93 2.18 2.41 2.43 2.31 2.36 2.35 2.09 1.96 1.91 1.67 1.45 1.30 1.17 1.07 0.95 0.79 0.73 0.71 0.59 0.40 0.25 0.20 0.20 0.24 0.21
2.16 2.21 2.13 2.03 1.78 1.86 2.19 2.53 2.61 2.88 2.87 2.92 2.43 2.14 2.07 2.09 1.87 1.75 1.83 2.20 2.23 2.11 2.14 2.31 2.37 2.30 2.20 1.96 1.72 1.49 1.33 1.19 1.05 0.85 0.73 0.69 0.62 0.50 0.42 0.31 0.27 0.27 0.23
2.40 2.51 2.41 2.07 1.91 2.04 2.22 2.24 2.39 2.83 2.67 2.67 2.52 2.45 2.38 2.16 1.93 1.78 1.74 1.85 1.80 1.95 2.05 2.12 2.32 2.45 2.50 2.39 2.16 1.91 1.66 1.40 1.14 0.91 0.77 0.66 0.58 0.51 0.48 0.42 0.39 0.36 0.28
2.16 2.29 2.03 1.69 1.83 2.08 2.23 2.18 2.18 2.56 2.63 2.67 2.69 2.59 2.43 2.21 1.89 1.75 1.70 1.62 1.62 1.48 1.72 1.95 2.16 2.32 2.61 2.72 2.74 2.70 2.38 1.85 1.39 1.06 0.85 0.74 0.64 0.54 0.42 0.39 0.39 0.41 0.31
1.43 1.54 1.43 1.37 1.50 1.77 1.84 1.63 1.77 2.05 2.20 2.37 2.27 2.08 1.85 1.64 1.49 1.38 1.35 1.25 1.40 1.45 1.52 1.60 1.90 2.06 2.44 2.96 3.31 3.38 3.13 2.46 1.79 1.40 1.18 1.01 0.93 0.75 0.51 0.40 0.42 0.40 0.34
1.12 1.21 1.21 1.10 1.15 1.23 1.29 1.46 1.70 1.79 1.71 1.80 1.68 1.59 1.49 1.28 1.19 1.14 0.98 0.97 1.09 1.06 1.13 1.36 1.62 1.49 1.91 2.49 2.95 3.22 3.23 2.92 2.29 1.84 1.59 1.46 1.40 1.10 0.72 0.55 0.52 0.43 0.37
1.08 1.14 1.07 1.04 1.03 1.00 1.01 1.15 1.31 1.38 1.21 1.36 1.60 1.50 1.25 1.01 0.96 0.93 0.83 0.86 0.86 0.90 1.06 1.39 1.53 1.49 1.38 1.51 1.81 2.37 2.85 3.08 2.91 2.43 1.99 1.78 1.73 1.44 1.03 0.83 0.69 0.58 0.55
1.01 0.97 1.01 0.90 0.86 0.94 0.93 0.97 1.11 1.14 1.02 1.11 1.32 1.39 1.20 1.13 0.92 0.61 0.67 0.70 0.68 0.83 0.95 1.08 1.29 1.52 1.49 1.63 1.28 1.64 2.43 2.86 3.15 3.13 2.71 2.27 2.00 1.65 1.28 1.10 0.91 0.77 0.71
0.84 0.80 0.78 0.74 0.75 0.73 0.78 0.87 0.96 1.05 1.00 0.91 0.96 1.11 1.02 0.97 0.88 0.68 0.55 0.59 0.70 0.81 0.84 1.00 1.11 1.37 1.57 1.81 1.69 1.46 1.77 2.12 2.80 3.34 3.30 2.68 1.96 1.49 1.29 1.27 1.21 0.99 0.84
0.85 0.78 0.69 0.67 0.67 0.61 0.72 0.66 0.76 0.91 0.96 0.81 0.81 0.81 0.81 0.86 0.86 0.82 0.69 0.58 0.69 0.73 0.80 0.90 1.07 1.33 1.46 1.69 1.75 1.39 1.20 1.43 2.08 2.81 3.19 3.00 2.31 1.68 1.38 1.45 1.66 1.55 1.21
0.92 0.76 0.73 0.70 0.70 0.58 0.62 0.65 0.77 0.83 0.87 0.80 0.77 0.79 0.86 0.86 0.74 0.77 0.78 0.74 0.76 0.64 0.76 0.93 1.04 1.17 1.24 1.46 1.75 1.50 1.35 1.24 1.34 1.70 2.13 2.51 2.60 2.28 1.96 1.93 2.17 2.31 2.13
0.91 0.80 0.78 0.84 0.77 0.71 0.70 0.68 0.71 0.74 0.85 0.91 0.88 0.81 0.83 0.86 0.74 0.72 0.66 0.64 0.73 0.68 0.84 1.04 1.09 1.14 1.17 1.36 1.38 1.34 1.26 1.12 1.03 1.03 1.22 1.50 1.83 2.05 2.04 2.15 2.47 2.75 2.89
0.77 0.79 0.77 0.81 0.80 0.83 0.78 0.79 0.79 0.72 0.78 0.87 0.84 0.82 0.79 0.75 0.80 0.83 0.82 0.73 0.77 0.78 0.96 1.04 1.14 1.21 1.20 1.35 1.35 1.26 1.07 0.97 0.85 0.79 0.86 0.99 1.14 1.40 1.67 1.88 2.18 2.50 2.79
0.75 0.74 0.72 0.71 0.76 0.80 0.79 0.94 0.88 0.86 0.88 0.85 0.80 0.95 0.90 0.78 0.87 0.91 0.99 1.08 1.03 1.02 1.16 1.20 1.28 1.32 1.44 1.49 1.43 1.30 1.06 0.95 0.82 0.74 0.72 0.73 0.79 0.86 1.03 1.25 1.50 1.79 2.07
0.83 0.82 0.79 0.85 0.88 0.88 0.92 1.04 1.01 0.97 1.02 0.91 0.88 0.98 0.98 0.95 0.98 0.95 1.10 1.26 1.34 1.28 1.32 1.35 1.26 1.23 1.27 1.31 1.26 1.10 0.94 0.91 0.82 0.74 0.71 0.68 0.67 0.69 0.75 0.81 0.87 0.95 1.05
0.91 0.93 0.91 0.92 0.99 0.96 0.96 1.07 1.08 1.13 1.17 1.12 1.09 1.10 1.09 1.08 1.16 1.09 1.17 1.29 1.37 1.47 1.48 1.27 1.17 1.15 1.12 0.98 0.97 0.92 0.87 0.97 0.87 0.76 0.70 0.68 0.66 0.65 0.66 0.69 0.71 0.75 0.78
1.01 1.00 1.02 1.06 1.06 1.09 1.15 1.21 1.14 1.20 1.31 1.45 1.43 1.39 1.41 1.44 1.42 1.35 1.40 1.39 1.36 1.50 1.49 1.22 1.27 1.30 1.18 1.02 0.92 0.89 0.85 0.90 0.89 0.89 0.77 0.67 0.59 0.55 0.57 0.60 0.63 0.67 0.70
1.21 1.17 1.13 1.12 1.05 1.08 1.23 1.28 1.31 1.33 1.35 1.38 1.53 1.74 1.73 1.67 1.56 1.43 1.49 1.44 1.39 1.58 1.53 1.39 1.45 1.48 1.43 1.23 1.11 1.00 0.83 0.80 0.84 0.94 0.82 0.74 0.69 0.63 0.60 0.61 0.63 0.63 0.62
1.42 1.42 1.35 1.25 1.17 1.16 1.21 1.27 1.34 1.35 1.37 1.44 1.56 1.67 1.74 1.86 1.72 1.58 1.52 1.48 1.51 1.62 1.69 1.59 1.58 1.69 1.67 1.44 1.25 1.02 0.83 0.85 0.79 0.91 0.88 0.81 0.80 0.77 0.73 0.68 0.65 0.62 0.59
1.50 1.55 1.50 1.44 1.41 1.31 1.21 1.18 1.19 1.24 1.38 1.52 1.56 1.51 1.61 1.86 1.93 1.86 1.70 1.62 1.65 1.74 1.79 1.78 1.76 1.84 1.88 1.78 1.56 1.28 1.10 1.01 0.90 0.86 0.95 0.87 0.83 0.79 0.74 0.68 0.64 0.63 0.64
1.49 1.61 1.69 1.68 1.60 1.42 1.20 1.19 1.26 1.22 1.34 1.41 1.39 1.31 1.31 1.49 1.71 1.81 1.67 1.62 1.66 1.66 1.69 1.77 1.80 1.84 1.86 1.92 1.77 1.49 1.29 1.18 1.02 0.88 0.92 0.87 0.83 0.76 0.77 0.78 0.74 0.68 0.63
1.90 1.95 1.90 1.82 1.70 1.35 1.30 1.23 1.21 1.24 1.30 1.31 1.28 1.24 1.13 1.07 1.13 1.29 1.45 1.58 1.68 1.61 1.57 1.68 1.81 1.84 1.84 1.85 1.85 1.71 1.48 1.28 1.15 1.00 1.05 1.06 1.01 0.95 0.82 0.74 0.75 0.69 0.63
2.25 2.28 2.16 1.98 1.83 1.71 1.55 1.31 1.21 1.15 1.16 1.16 1.18 1.17 0.99 0.89 0.98 0.97 1.12 1.25 1.38 1.45 1.44 1.53 1.64 1.74 1.86 1.98 2.01 1.83 1.64 1.49 1.29 1.14 1.13 1.05 0.98 0.99 0.90 0.81 0.83 0.71 0.66
2.17 2.20 2.15 2.02 1.93 1.82 1.64 1.35 1.26 1.10 1.11 1.13 1.15 1.14 1.09 1.03 1.00 1.04 1.06 1.07 1.08 1.15 1.23 1.25 1.36 1.54 1.75 1.94 2.09 1.99 1.86 1.58 1.35 1.20 1.15 1.01 0.85 0.80 0.77 0.77 0.81 0.74 0.66
1.90 1.82 1.81 1.83 1.82 1.85 1.72 1.41 1.28 1.17 1.25 1.25 1.23 1.21 1.21 1.15 1.21 1.08 1.01 1.02 1.03 1.06 1.10 1.15 1.17 1.32 1.58 1.76 1.84 1.87 1.78 1.59 1.35 1.15 1.07 1.03 0.85 0.77 0.74 0.66 0.66 0.70 0.62
1.76 1.72 1.67 1.70 1.72 1.73 1.67 1.33 1.22 1.16 1.27 1.29 1.31 1.29 1.23 1.11 1.09 0.97 0.89 0.96 0.96 0.96 1.01 1.03 1.04 1.04 1.11 1.39 1.67 1.52 1.45 1.42 1.27 1.06 0.86 0.90 0.89 0.88 0.82 0.63 0.55 0.56 0.53

GEFSMA_prec_meanprecacc_180.txt.gz
Total_Precipitation_Accumulation
2.02 2.12 1.94 1.92 1.69 1.89 2.26 2.53 2.59 2.79 2.92 2.83 2.48 2.26 2.26 2.19 1.98 1.96 2.21 2.43 2.45 2.34 2.40 2.39 2.13 2.00 1.95 1.68 1.47 1.32 1.19 1.09 0.97 0.81 0.74 0.71 0.59 0.41 0.26 0.21 0.21 0.24 0.21
2.20 2.27 2.18 2.07 1.81 1.88 2.21 2.57 2.65 2.92 2.91 2.95 2.47 2.18 2.10 2.11 1.89 1.77 1.86 2.24 2.25 2.13 2.17 2.35 2.41 2.34 2.23 1.99 1.75 1.51 1.35 1.21 1.06 0.86 0.74 0.70 0.63 0.51 0.43 0.32 0.28 0.27 0.23
2.44 2.56 2.47 2.14 1.96 2.08 2.26 2.29 2.45 2.89 2.72 2.70 2.56 2.49 2.42 2.19 1.94 1.79 1.76 1.88 1.82 1.97 2.07 2.15 2.36 2.50 2.54 2.42 2.19 1.93 1.69 1.41 1.15 0.92 0.78 0.67 0.59 0.52 0.49 0.43 0.39 0.36 0.28
2.21 2.35 2.09 1.76 1.90 2.14 2.30 2.25 2.25 2.64 2.71 2.74 2.75 2.64 2.48 2.25 1.91 1.77 1.72 1.64 1.65 1.51 1.75 1.98 2.18 2.37 2.65 2.76 2.79 2.74 2.42 1.88 1.42 1.08 0.87 0.75 0.65 0.54 0.43 0.39 0.40 0.42 0.32
1.48 1.60 1.51 1.46 1.56 1.84 1.91 1.68 1.84 2.13 2.28 2.44 2.32 2.15 1.90 1.67 1.51 1.40 1.36 1.26 1.42 1.48 1.55 1.63 1.91 2.09 2.49 3.03 3.40 3.46 3.19 2.50 1.82 1.43 1.20 1.03 0.95 0.76 0.52 0.41 0.43 0.41 0.35
1.19 1.29 1.28 1.16 1.20 1.30 1.36 1.54 1.79 1.88 1.80 1.87 1.71 1.62 1.53 1.30 1.22 1.16 0.99 1.00 1.12 1.07 1.14 1.38 1.67 1.52 1.93 2.54 3.01 3.29 3.29 2.98 2.34 1.88 1.61 1.49 1.43 1.12 0.73 0.57 0.53 0.45 0.38
1.15 1.24 1.14 1.11 1.08 1.06 1.08 1.21 1.39 1.46 1.28 1.42 1.66 1.54 1.28 1.04 0.98 0.95 0.86 0.89 0.90 0.93 1.08 1.42 1.59 1.56 1.42 1.53 1.83 2.41 2.90 3.15 2.97 2.49 2.04 1.82 1.76 1.47 1.05 0.85 0.70 0.60 0.57
1.08 1.04 1.09 0.97 0.92 1.01 0.99 1.05 1.21 1.24 1.10 1.18 1.39 1.46 1.26 1.17 0.96 0.63 0.70 0.73 0.72 0.88 0.99 1.11 1.34 1.60 1.55 1.69 1.31 1.66 2.47 2.92 3.24 3.22 2.79 2.33 2.05 1.69 1.31 1.12 0.93 0.79 0.73
0.89 0.85 0.83 0.80 0.83 0.78 0.85 0.96 1.05 1.17 1.12 0.98 1.00 1.19 1.09 1.03 0.94 0.71 0.58 0.61 0.74 0.85 0.88 1.05 1.16 1.43 1.64 1.89 1.78 1.52 1.81 2.17 2.87 3.45 3.41 2.77 2.05 1.56 1.34 1.31 1.25 1.03 0.87
0.91 0.84 0.73 0.74 0.75 0.67 0.80 0.73 0.82 1.00 1.06 0.90 0.88 0.87 0.87 0.94 0.94 0.89 0.74 0.60 0.71 0.76 0.84 0.94 1.10 1.36 1.51 1.75 1.82 1.44 1.23 1.46 2.13 2.88 3.29 3.12 2.42 1.76 1.45 1.51 1.73 1.62 1.27
1.00 0.82 0.79 0.80 0.78 0.65 0.69 0.74 0.85 0.91 0.95 0.90 0.87 0.87 0.94 0.94 0.81 0.84 0.86 0.81 0.80 0.67 0.79 0.97 1.08 1.20 1.28 1.51 1.80 1.55 1.39 1.27 1.38 1.75 2.19 2.58 2.67 2.36 2.06 2.02 2.28 2.43 2.24
0.99 0.86 0.84 0.92 0.86 0.81 0.78 0.77 0.78 0.81 0.92 1.00 0.99 0.90 0.92 0.95 0.83 0.81 0.73 0.71 0.80 0.73 0.88 1.08 1.13 1.19 1.22 1.41 1.43 1.38 1.30 1.16 1.07 1.07 1.26 1.54 1.88 2.11 2.10 2.21 2.56 2.87 3.03
0.83 0.86 0.84 0.89 0.88 0.91 0.86 0.89 0.88 0.80 0.86 0.97 0.94 0.91 0.88 0.85 0.90 0.93 0.90 0.80 0.84 0.84 1.00 1.07 1.17 1.25 1.25 1.41 1.42 1.32 1.11 1.01 0.88 0.81 0.89 1.04 1.19 1.45 1.72 1.93 2.24 2.58 2.89
0.80 0.79 0.78 0.77 0.81 0.86 0.85 1.04 0.98 0.95 0.96 0.94 0.88 1.04 0.99 0.85 0.94 0.99 1.08 1.18 1.12 1.11 1.25 1.29 1.35 1.38 1.50 1.57 1.50 1.37 1.12 1.00 0.86 0.78 0.76 0.78 0.84 0.92 1.09 1.31 1.56 1.85 2.14
0.87 0.87 0.85 0.91 0.94 0.94 0.97 1.12 1.09 1.05 1.11 1.01 0.98 1.06 1.05 1.01 1.03 0.99 1.15 1.32 1.44 1.40 1.44 1.45 1.34 1.29 1.34 1.39 1.35 1.17 1.00 0.96 0.86 0.77 0.75 0.72 0.71 0.74 0.79 0.85 0.92 1.00 1.10
0.96 0.99 0.99 1.00 1.05 1.02 1.01 1.13 1.16 1.21 1.25 1.19 1.16 1.17 1.16 1.14 1.22 1.15 1.21 1.34 1.45 1.59 1.58 1.35 1.26 1.23 1.21 1.07 1.07 0.99 0.93 1.03 0.92 0.81 0.76 0.74 0.73 0.72 0.71 0.73 0.74 0.78 0.81
1.07 1.07 1.10 1.14 1.12 1.15 1.21 1.29 1.21 1.26 1.37 1.51 1.48 1.44 1.48 1.53 1.50 1.42 1.45 1.44 1.44 1.61 1.61 1.32 1.36 1.38 1.27 1.10 0.99 0.94 0.90 0.96 0.96 0.98 0.84 0.73 0.64 0.59 0.60 0.63 0.67 0.70 0.73
1.28 1.23 1.19 1.20 1.13 1.14 1.28 1.34 1.36 1.38 1.40 1.42 1.58 1.78 1.77 1.72 1.61 1.48 1.54 1.50 1.47 1.67 1.63 1.48 1.54 1.57 1.51 1.30 1.18 1.06 0.90 0.88 0.92 1.01 0.86 0.77 0.71 0.65 0.62 0.63 0.65 0.65 0.66
1.48 1.48 1.42 1.33 1.23 1.20 1.24 1.30 1.38 1.39 1.41 1.49 1.60 1.71 1.78 1.90 1.76 1.62 1.57 1.54 1.58 1.68 1.76 1.66 1.65 1.78 1.75 1.51 1.34 1.12 0.93 0.94 0.84 0.95 0.91 0.84 0.83 0.79 0.75 0.69 0.66 0.65 0.62
1.54 1.62 1.57 1.52 1.48 1.37 1.25 1.22 1.24 1.29 1.43 1.57 1.61 1.56 1.66 1.91 1.98 1.91 1.74 1.66 1.70 1.80 1.85 1.85 1.83 1.91 1.95 1.86 1.64 1.35 1.16 1.06 0.93 0.88 0.97 0.90 0.85 0.81 0.76 0.70 0.66 0.66 0.66
1.52 1.65 1.75 1.75 1.67 1.47 1.25 1.25 1.32 1.28 1.40 1.47 1.44 1.35 1.34 1.53 1.75 1.85 1.70 1.66 1.69 1.70 1.73 1.80 1.84 1.87 1.89 1.96 1.80 1.53 1.33 1.21 1.04 0.90 0.93 0.88 0.84 0.77 0.78 0.80 0.75 0.69 0.64
1.93 1.98 1.94 1.87 1.76 1.39 1.36 1.29 1.27 1.30 1.38 1.39 1.36 1.31 1.19 1.13 1.18 1.34 1.49 1.61 1.72 1.65 1.60 1.71 1.84 1.87 1.86 1.88 1.89 1.75 1.52 1.32 1.18 1.03 1.06 1.07 1.01 0.96 0.83 0.75 0.77 0.71 0.65
2.28 2.31 2.20 2.02 1.88 1.78 1.62 1.38 1.27 1.23 1.25 1.25 1.27 1.25 1.05 0.95 1.03 1.02 1.17 1.29 1.41 1.48 1.47 1.56 1.68 1.77 1.89 2.02 2.06 1.87 1.69 1.53 1.32 1.16 1.15 1.06 1.00 1.00 0.92 0.83 0.86 0.74 0.69
2.19 2.23 2.20 2.08 1.98 1.90 1.74 1.44 1.33 1.16 1.17 1.19 1.21 1.20 1.16 1.09 1.06 1.08 1.10 1.10 1.11 1.17 1.25 1.27 1.38 1.57 1.77 1.97 2.13 2.04 1.91 1.63 1.39 1.23 1.18 1.04 0.88 0.83 0.80 0.80 0.85 0.78 0.70
1.93 1.85 1.83 1.85 1.84 1.89 1.80 1.47 1.32 1.20 1.28 1.29 1.28 1.26 1.26 1.20 1.26 1.11 1.04 1.05 1.06 1.08 1.12 1.17 1.19 1.33 1.60 1.79 1.88 1.91 1.82 1.64 1.41 1.20 1.12 1.07 0.89 0.81 0.77 0.69 0.71 0.75 0.67
1.78 1.74 1.69 1.72 1.73 1.74 1.69 1.35 1.24 1.18 1.29 1.31 1.34 1.33 1.27 1.16 1.13 0.99 0.92 0.99 0.98 0.98 1.04 1.06 1.07 1.08 1.15 1.44 1.72 1.56 1.50 1.48 1.33 1.11 0.90 0.96 0.95 0.95 0.88 0.67 0.59 0.60 0.56

GEFSMA_prec_meanprecacc_186.txt.gz
Total_Precipitation_Accumulation
2.08 2.19 2.01 2.01 1.79 1.95 2.30 2.59 2.64 2.84 2.97 2.86 2.50 2.28 2.28 2.21 1.99 1.97 2.22 2.43 2.46 2.35 2.41 2.40 2.15 2.03 1.97 1.69 1.48 1.32 1.20 1.10 0.98 0.82 0.75 0.72 0.60 0.42 0.26 0.21 0.22 0.24 0.21
2.28 2.35 2.24 2.14 1.87 1.91 2.24 2.61 2.69 2.97 2.96 2.98 2.49 2.19 2.11 2.12 1.91 1.79 1.88 2.26 2.26 2.13 2.17 2.36 2.42 2.36 2.25 2.00 1.76 1.52 1.36 1.21 1.07 0.86 0.75 0.70 0.63 0.52 0.43 0.33 0.29 0.28 0.23
2.52 2.66 2.56 2.19 2.00 2.11 2.30 2.32 2.48 2.93 2.77 2.75 2.60 2.51 2.43 2.21 1.96 1.81 1.77 1.90 1.84 1.98 2.08 2.16 2.37 2.51 2.55 2.43 2.20 1.94 1.70 1.42 1.16 0.93 0.78 0.68 0.60 0.53 0.49 0.44 0.40 0.37 0.29
2.27 2.43 2.17 1.82 1.95 2.18 2.33 2.29 2.30 2.69 2.78 2.80 2.82 2.69 2.51 2.27 1.93 1.79 1.74 1.66 1.68 1.53 1.76 1.98 2.18 2.38 2.67 2.77 2.80 2.76 2.44 1.90 1.44 1.09 0.87 0.75 0.66 0.56 0.44 0.40 0.41 0.43 0.33
1.52 1.67 1.59 1.54 1.62 1.90 1.95 1.72 1.91 2.21 2.37 2.52 2.37 2.19 1.92 1.69 1.53 1.41 1.37 1.28 1.44 1.51 1.56 1.64 1.92 2.10 2.51 3.05 3.43 3.49 3.21 2.52 1.84 1.44 1.22 1.05 0.96 0.77 0.53 0.43 0.44 0.43 0.36
1.24 1.36 1.36 1.23 1.25 1.37 1.44 1.61 1.88 1.97 1.90 1.97 1.76 1.67 1.55 1.32 1.24 1.18 1.01 1.01 1.14 1.09 1.15 1.41 1.70 1.54 1.95 2.55 3.04 3.33 3.33 3.02 2.38 1.92 1.65 1.52 1.45 1.14 0.75 0.59 0.55 0.46 0.39
1.23 1.33 1.22 1.20 1.14 1.14 1.16 1.28 1.48 1.56 1.37 1.50 1.75 1.62 1.32 1.06 1.02 0.97 0.88 0.91 0.92 0.95 1.11 1.47 1.64 1.62 1.46 1.56 1.86 2.44 2.94 3.20 3.04 2.56 2.10 1.87 1.80 1.51 1.08 0.87 0.72 0.61 0.58
1.15 1.11 1.20 1.05 0.99 1.10 1.07 1.14 1.33 1.37 1.20 1.26 1.51 1.61 1.40 1.29 1.03 0.67 0.73 0.77 0.76 0.93 1.03 1.16 1.41 1.71 1.66 1.80 1.39 1.71 2.51 2.98 3.33 3.32 2.86 2.40 2.11 1.75 1.36 1.16 0.96 0.81 0.75
0.93 0.90 0.89 0.87 0.91 0.84 0.95 1.07 1.18 1.33 1.28 1.08 1.09 1.34 1.27 1.22 1.10 0.81 0.65 0.68 0.80 0.93 0.95 1.13 1.23 1.53 1.76 2.08 1.95 1.61 1.85 2.21 2.94 3.56 3.50 2.85 2.11 1.61 1.39 1.36 1.31 1.08 0.91
0.97 0.89 0.78 0.80 0.82 0.73 0.92 0.80 0.93 1.14 1.22 1.04 1.00 0.97 1.01 1.08 1.11 1.04 0.86 0.71 0.85 0.89 0.93 1.01 1.17 1.45 1.61 1.89 1.95 1.54 1.31 1.51 2.19 2.96 3.36 3.19 2.48 1.82 1.51 1.58 1.81 1.70 1.34
1.08 0.88 0.86 0.89 0.88 0.74 0.78 0.83 0.97 1.01 1.06 1.01 1.00 0.99 1.10 1.11 0.96 0.99 1.03 0.97 0.94 0.77 0.86 1.04 1.14 1.27 1.38 1.64 1.93 1.68 1.49 1.36 1.45 1.81 2.26 2.64 2.74 2.44 2.14 2.11 2.38 2.53 2.34
1.09 0.96 0.95 1.06 0.99 0.93 0.87 0.86 0.89 0.92 1.06 1.15 1.13 1.01 1.04 1.09 0.98 0.96 0.87 0.87 0.94 0.84 0.97 1.17 1.21 1.28 1.32 1.51 1.54 1.48 1.39 1.24 1.13 1.12 1.30 1.59 1.94 2.17 2.16 2.27 2.61 2.93 3.10
0.95 0.98 0.95 1.03 1.00 1.02 0.97 1.02 1.02 0.93 1.01 1.11 1.06 1.02 0.98 0.95 1.00 1.04 1.02 0.92 0.96 0.96 1.14 1.22 1.28 1.35 1.34 1.50 1.51 1.40 1.17 1.06 0.92 0.85 0.92 1.07 1.22 1.48 1.75 1.96 2.28 2.62 2.93
0.87 0.86 0.87 0.88 0.92 0.96 0.94 1.17 1.08 1.07 1.08 1.04 0.97 1.15 1.10 0.95 1.04 1.10 1.19 1.30 1.26 1.26 1.41 1.42 1.45 1.46 1.59 1.65 1.59 1.45 1.18 1.06 0.90 0.81 0.78 0.80 0.86 0.93 1.11 1.33 1.59 1.88 2.17
0.94 0.95 0.94 1.02 1.07 1.06 1.08 1.24 1.21 1.16 1.23 1.11 1.07 1.16 1.14 1.10 1.12 1.07 1.25 1.44 1.58 1.54 1.56 1.53 1.41 1.37 1.42 1.46 1.43 1.24 1.07 1.02 0.90 0.81 0.78 0.76 0.74 0.77 0.82 0.89 0.96 1.04 1.14
1.04 1.07 1.08 1.10 1.16 1.12 1.12 1.26 1.27 1.32 1.35 1.28 1.26 1.26 1.24 1.21 1.30 1.22 1.29 1.42 1.55 1.72 1.69 1.43 1.33 1.31 1.29 1.14 1.15 1.06 0.99 1.09 0.97 0.85 0.80 0.78 0.77 0.76 0.75 0.76 0.77 0.80 0.83
1.14 1.14 1.18 1.23 1.20 1.23 1.32 1.41 1.31 1.35 1.46 1.60 1.55 1.51 1.56 1.62 1.58 1.49 1.52 1.52 1.54 1.74 1.72 1.39 1.42 1.46 1.35 1.17 1.07 1.00 0.96 1.02 1.02 1.04 0.90 0.78 0.68 0.62 0.62 0.65 0.68 0.72 0.75
1.34 1.29 1.25 1.27 1.19 1.21 1.37 1.42 1.42 1.44 1.46 1.48 1.63 1.84 1.82 1.78 1.67 1.53 1.61 1.57 1.56 1.79 1.73 1.55 1.61 1.64 1.58 1.36 1.23 1.12 0.96 0.94 0.99 1.09 0.91 0.80 0.73 0.67 0.64 0.64 0.66 0.67 0.67
1.54 1.54 1.50 1.41 1.31 1.28 1.33 1.38 1.43 1.44 1.48 1.55 1.66 1.75 1.82 1.94 1.81 1.67 1.63 1.61 1.66 1.78 1.86 1.75 1.73 1.86 1.82 1.59 1.42 1.20 0.99 1.00 0.89 0.99 0.94 0.86 0.85 0.80 0.75 0.70 0.68 0.66 0.63
1.60 1.68 1.64 1.58 1.54 1.44 1.32 1.30 1.31 1.36 1.50 1.63 1.67 1.61 1.72 1.97 2.04 1.97 1.80 1.74 1.79 1.90 1.96 1.95 1.91 1.99 2.02 1.93 1.71 1.41 1.23 1.11 0.97 0.91 1.00 0.92 0.87 0.82 0.77 0.71 0.67 0.66 0.67
1.57 1.71 1.80 1.80 1.72 1.54 1.32 1.32 1.40 1.37 1.50 1.55 1.50 1.41 1.41 1.60 1.82 1.92 1.77 1.74 1.79 1.80 1.83 1.90 1.92 1.95 1.96 2.03 1.87 1.58 1.38 1.26 1.09 0.94 0.98 0.92 0.86 0.78 0.79 0.81 0.76 0.70 0.65
1.97 2.02 1.99 1.92 1.81 1.47 1.46 1.40 1.40 1.44 1.52 1.50 1.43 1.37 1.25 1.20 1.24 1.40 1.55 1.67 1.78 1.73 1.69 1.81 1.94 1.97 1.94 1.96 1.97 1.82 1.58 1.37 1.23 1.07 1.10 1.10 1.03 0.98 0.84 0.76 0.78 0.73 0.66
2.33 2.35 2.24 2.06 1.92 1.82 1.67 1.44 1.37 1.33 1.34 1.34 1.35 1.32 1.12 1.01 1.10 1.07 1.23 1.36 1.48 1.55 1.55 1.65 1.78 1.88 1.99 2.11 2.15 1.94 1.75 1.59 1.37 1.19 1.17 1.09 1.02 1.03 0.94 0.85 0.89 0.77 0.72
2.25 2.28 2.24 2.12 2.01 1.92 1.76 1.45 1.36 1.20 1.21 1.24 1.26 1.25 1.20 1.13 1.10 1.14 1.16 1.16 1.17 1.25 1.35 1.37 1.49 1.69 1.89 2.08 2.21 2.10 1.96 1.68 1.42 1.25 1.21 1.07 0.90 0.86 0.82 0.82 0.87 0.81 0.73
1.99 1.91 1.88 1.89 1.87 1.93 1.84 1.50 1.33 1.21 1.31 1.32 1.31 1.30 1.29 1.23 1.30 1.15 1.07 1.09 1.11 1.16 1.21 1.27 1.29 1.44 1.71 1.88 1.95 1.97 1.88 1.69 1.46 1.24 1.15 1.11 0.92 0.83 0.79 0.71 0.73 0.79 0.71
1.88 1.83 1.75 1.76 1.76 1.77 1.72 1.36 1.25 1.19 1.31 1.33 1.36 1.35 1.30 1.19 1.17 1.04 0.96 1.04 1.04 1.06 1.12 1.12 1.14 1.15 1.22 1.51 1.80 1.64 1.59 1.58 1.42 1.20 0.98 1.03 1.02 1.02 0.94 0.71 0.63 0.64 0.61

GEFSMA_prec_meanprecacc_192.txt.gz
Total_Precipitation_Accumulation
2.17 2.28 2.10 2.11 1.89 2.00 2.35 2.63 2.67 2.88 3.01 2.89 2.53 2.30 2.30 2.24 2.01 1.99 2.24 2.45 2.48 2.38 2.45 2.44 2.19 2.05 1.98 1.70 1.49 1.33 1.20 1.10 0.99 0.82 0.75 0.72 0.61 0.42 0.26 0.22 0.22 0.24 0.22
2.35 2.44 2.33 2.28 1.98 1.98 2.29 2.64 2.72 3.00 2.99 3.01 2.53 2.22 2.14 2.15 1.93 1.81 1.89 2.27 2.28 2.15 2.20 2.39 2.44 2.37 2.26 2.01 1.77 1.53 1.36 1.22 1.08 0.87 0.75 0.70 0.64 0.52 0.44 0.33 0.30 0.29 0.24
2.56 2.71 2.64 2.29 2.07 2.17 2.35 2.37 2.51 2.96 2.80 2.77 2.62 2.54 2.46 2.24 1.98 1.83 1.79 1.91 1.84 1.99 2.09 2.17 2.38 2.52 2.56 2.44 2.21 1.95 1.70 1.43 1.17 0.93 0.78 0.68 0.60 0.53 0.50 0.44 0.41 0.38 0.30
2.31 2.48 2.25 1.90 2.00 2.23 2.38 2.35 2.35 2.73 2.82 2.84 2.85 2.71 2.53 2.30 1.95 1.81 1.76 1.68 1.70 1.54 1.77 2.00 2.20 2.39 2.69 2.80 2.83 2.78 2.45 1.90 1.45 1.10 0.88 0.76 0.67 0.56 0.45 0.41 0.42 0.44 0.34
1.55 1.71 1.65 1.60 1.67 1.93 1.98 1.75 1.97 2.25 2.42 2.56 2.40 2.22 1.95 1.72 1.57 1.45 1.41 1.31 1.48 1.56 1.61 1.67 1.94 2.12 2.55 3.10 3.49 3.53 3.24 2.54 1.87 1.47 1.24 1.07 0.98 0.79 0.54 0.44 0.46 0.44 0.37
1.27 1.41 1.40 1.28 1.31 1.41 1.47 1.64 1.92 2.01 1.94 2.01 1.79 1.70 1.60 1.37 1.28 1.24 1.06 1.06 1.20 1.17 1.24 1.48 1.75 1.60 2.03 2.65 3.13 3.40 3.38 3.08 2.44 1.96 1.69 1.56 1.49 1.17 0.77 0.60 0.57 0.48 0.41
1.27 1.37 1.26 1.26 1.20 1.20 1.21 1.33 1.53 1.61 1.42 1.55 1.80 1.67 1.38 1.12 1.09 1.06 0.97 1.02 1.01 1.06 1.23 1.57 1.74 1.73 1.59 1.68 1.96 2.53 3.03 3.30 3.16 2.66 2.18 1.93 1.85 1.55 1.11 0.91 0.76 0.65 0.61
1.19 1.14 1.23 1.08 1.05 1.15 1.10 1.17 1.37 1.41 1.24 1.32 1.57 1.66 1.44 1.35 1.11 0.75 0.84 0.91 0.89 1.09 1.20 1.30 1.56 1.87 1.80 1.95 1.49 1.79 2.61 3.09 3.45 3.43 2.95 2.47 2.18 1.82 1.41 1.22 1.02 0.87 0.80
0.98 0.94 0.92 0.90 0.95 0.88 0.98 1.10 1.21 1.37 1.33 1.14 1.15 1.39 1.34 1.27 1.14 0.86 0.73 0.79 0.95 1.11 1.12 1.27 1.37 1.65 1.89 2.19 2.08 1.72 1.92 2.30 3.04 3.66 3.60 2.94 2.19 1.68 1.45 1.42 1.37 1.14 0.96
1.02 0.95 0.82 0.85 0.86 0.77 0.96 0.83 0.95 1.17 1.27 1.09 1.05 1.03 1.07 1.14 1.15 1.08 0.92 0.80 0.96 1.03 1.08 1.13 1.28 1.56 1.75 2.03 2.10 1.66 1.40 1.61 2.30 3.08 3.48 3.29 2.57 1.89 1.58 1.66 1.90 1.78 1.42
1.13 0.93 0.91 0.96 0.94 0.79 0.83 0.87 1.02 1.06 1.11 1.05 1.04 1.04 1.15 1.17 1.01 1.04 1.07 1.03 1.02 0.85 0.97 1.16 1.26 1.40 1.54 1.83 2.11 1.84 1.64 1.49 1.57 1.93 2.38 2.74 2.84 2.54 2.22 2.20 2.47 2.64 2.44
1.13 1.02 1.02 1.14 1.07 0.99 0.91 0.90 0.93 0.97 1.11 1.20 1.18 1.07 1.10 1.14 1.04 1.03 0.92 0.91 0.99 0.88 1.05 1.30 1.35 1.40 1.42 1.61 1.63 1.58 1.51 1.38 1.29 1.26 1.40 1.67 2.01 2.23 2.23 2.34 2.68 3.01 3.18
0.97 1.02 1.02 1.11 1.10 1.10 1.03 1.08 1.08 1.00 1.09 1.18 1.13 1.08 1.03 1.00 1.07 1.12 1.08 0.97 1.01 1.01 1.22 1.34 1.43 1.47 1.42 1.58 1.59 1.48 1.24 1.14 1.02 0.94 0.99 1.13 1.27 1.53 1.80 2.00 2.32 2.66 2.98
0.89 0.89 0.92 0.95 0.98 1.03 1.01 1.24 1.15 1.15 1.16 1.11 1.03 1.22 1.16 1.00 1.10 1.17 1.27 1.38 1.33 1.32 1.47 1.50 1.57 1.57 1.69 1.73 1.66 1.52 1.23 1.13 0.98 0.88 0.84 0.84 0.89 0.97 1.15 1.36 1.61 1.90 2.20
0.98 0.98 0.99 1.08 1.15 1.16 1.17 1.31 1.27 1.21 1.28 1.14 1.10 1.20 1.18 1.13 1.16 1.13 1.33 1.51 1.65 1.60 1.59 1.57 1.47 1.44 1.49 1.54 1.51 1.29 1.11 1.07 0.95 0.85 0.81 0.78 0.77 0.80 0.85 0.91 0.98 1.07 1.17
1.11 1.13 1.14 1.18 1.24 1.21 1.20 1.33 1.33 1.37 1.40 1.32 1.29 1.29 1.26 1.24 1.33 1.26 1.33 1.47 1.61 1.79 1.74 1.47 1.38 1.37 1.35 1.20 1.21 1.10 1.03 1.14 1.02 0.91 0.85 0.83 0.81 0.80 0.78 0.78 0.79 0.82 0.85
1.19 1.19 1.24 1.30 1.28 1.32 1.40 1.48 1.37 1.41 1.50 1.63 1.57 1.53 1.58 1.64 1.60 1.52 1.55 1.56 1.60 1.81 1.78 1.43 1.47 1.52 1.42 1.24 1.13 1.06 1.01 1.07 1.08 1.11 0.96 0.84 0.72 0.66 0.64 0.67 0.69 0.73 0.76
1.41 1.35 1.34 1.35 1.26 1.28 1.44 1.50 1.48 1.49 1.50 1.52 1.67 1.87 1.85 1.81 1.69 1.55 1.63 1.59 1.59 1.83 1.78 1.58 1.64 1.69 1.64 1.42 1.30 1.19 1.03 1.01 1.07 1.18 1.00 0.87 0.78 0.71 0.67 0.67 0.69 0.69 0.69
1.61 1.63 1.58 1.47 1.38 1.33 1.37 1.43 1.48 1.49 1.53 1.60 1.71 1.80 1.87 1.98 1.83 1.70 1.66 1.64 1.69 1.81 1.90 1.79 1.76 1.92 1.88 1.64 1.49 1.27 1.07 1.09 0.97 1.08 1.04 0.94 0.90 0.85 0.80 0.74 0.72 0.71 0.68
1.66 1.77 1.72 1.66 1.62 1.50 1.37 1.34 1.37 1.42 1.57 1.71 1.75 1.69 1.79 2.03 2.09 2.04 1.86 1.79 1.85 1.96 2.01 2.00 1.97 2.05 2.08 1.99 1.78 1.48 1.30 1.17 1.03 0.97 1.06 0.98 0.93 0.89 0.83 0.76 0.71 0.70 0.70
1.63 1.78 1.87 1.87 1.79 1.62 1.39 1.38 1.47 1.45 1.59 1.64 1.61 1.52 1.53 1.71 1.92 2.02 1.86 1.82 1.88 1.89 1.91 1.97 2.00 2.04 2.05 2.13 1.96 1.66 1.46 1.33 1.15 1.00 1.04 0.98 0.93 0.84 0.83 0.84 0.78 0.72 0.66
2.01 2.06 2.03 1.97 1.87 1.51 1.54 1.51 1.49 1.54 1.63 1.66 1.63 1.57 1.45 1.37 1.37 1.50 1.64 1.76 1.87 1.82 1.78 1.91 2.05 2.08 2.04 2.06 2.06 1.90 1.66 1.43 1.28 1.11 1.15 1.14 1.08 1.02 0.88 0.79 0.81 0.75 0.68
2.38 2.39 2.27 2.10 1.96 1.86 1.73 1.52 1.45 1.39 1.41 1.43 1.50 1.49 1.27 1.15 1.22 1.17 1.31 1.42 1.53 1.60 1.60 1.71 1.84 1.94 2.06 2.20 2.24 2.03 1.83 1.66 1.42 1.23 1.21 1.13 1.06 1.07 0.97 0.88 0.91 0.79 0.74
2.32 2.33 2.28 2.16 2.05 1.96 1.80 1.48 1.40 1.23 1.25 1.28 1.31 1.30 1.26 1.21 1.20 1.23 1.24 1.22 1.21 1.28 1.38 1.41 1.53 1.74 1.97 2.17 2.30 2.18 2.04 1.75 1.48 1.31 1.27 1.15 0.98 0.92 0.86 0.87 0.92 0.85 0.77
2.05 1.96 1.93 1.94 1.91 1.97 1.88 1.53 1.36 1.23 1.33 1.34 1.33 1.33 1.32 1.25 1.33 1.19 1.13 1.16 1.16 1.20 1.25 1.31 1.34 1.51 1.76 1.94 2.01 2.03 1.96 1.78 1.54 1.32 1.22 1.19 0.99 0.91 0.87 0.77 0.77 0.83 0.75
1.94 1.88 1.78 1.80 1.80 1.80 1.76 1.42 1.30 1.24 1.34 1.36 1.38 1.37 1.33 1.21 1.19 1.05 0.97 1.07 1.07 1.09 1.14 1.15 1.17 1.18 1.25 1.56 1.85 1.69 1.66 1.67 1.51 1.28 1.05 1.11 1.10 1.09 1.01 0.78 0.68 0.69 0.66

GEFSMA_prec_meanprecacc_198.txt.gz
Total_Precipitation_Accumulation
2.19 2.30 2.11 2.13 1.93 2.05 2.39 2.65 2.68 2.89 3.04 2.90 2.54 2.32 2.31 2.24 2.04 2.02 2.28 2.51 2.53 2.43 2.51 2.49 2.22 2.08 2.01 1.73 1.52 1.37 1.22 1.11 0.99 0.83 0.77 0.73 0.62 0.43 0.27 0.22 0.23 0.25 0.22
2.37 2.45 2.35 2.30 2.01 2.02 2.33 2.67 2.74 3.02 3.01 3.03 2.54 2.23 2.15 2.15 1.94 1.82 1.92 2.31 2.33 2.20 2.24 2.44 2.47 2.40 2.29 2.05 1.80 1.56 1.39 1.23 1.09 0.88 0.76 0.71 0.65 0.53 0.45 0.34 0.31 0.30 0.25
2.59 2.74 2.66 2.31 2.09 2.19 2.38 2.40 2.53 2.98 2.83 2.80 2.64 2.55 2.48 2.25 1.99 1.84 1.80 1.93 1.87 2.03 2.14 2.23 2.42 2.56 2.61 2.50 2.27 1.99 1.74 1.45 1.18 0.95 0.80 0.70 0.62 0.55 0.51 0.45 0.42 0.40 0.32
2.33 2.52 2.29 1.94 2.01 2.24 2.40 2.37 2.38 2.76 2.86 2.88 2.88 2.74 2.58 2.33 1.97 1.83 1.78 1.70 1.72 1.56 1.81 2.05 2.27 2.46 2.75 2.86 2.91 2.87 2.50 1.93 1.47 1.12 0.90 0.79 0.70 0.58 0.47 0.43 0.43 0.45 0.36
1.58 1.76 1.71 1.64 1.69 1.95 1.99 1.77 2.00 2.28 2.44 2.59 2.43 2.25 1.99 1.75 1.58 1.47 1.43 1.33 1.50 1.59 1.65 1.71 2.00 2.20 2.62 3.19 3.61 3.64 3.29 2.59 1.91 1.51 1.28 1.10 1.01 0.81 0.57 0.46 0.48 0.47 0.40
1.31 1.44 1.45 1.33 1.35 1.45 1.50 1.67 1.95 2.03 1.96 2.04 1.82 1.72 1.62 1.40 1.31 1.26 1.08 1.08 1.23 1.22 1.30 1.53 1.79 1.65 2.12 2.78 3.28 3.53 3.49 3.19 2.54 2.04 1.76 1.61 1.53 1.22 0.82 0.64 0.60 0.51 0.44
1.32 1.41 1.30 1.29 1.24 1.26 1.26 1.38 1.59 1.65 1.45 1.59 1.83 1.69 1.40 1.16 1.12 1.09 1.01 1.07 1.09 1.14 1.31 1.64 1.81 1.79 1.67 1.77 2.06 2.65 3.19 3.45 3.30 2.78 2.27 2.01 1.93 1.62 1.18 0.97 0.81 0.69 0.65
1.25 1.19 1.29 1.12 1.08 1.18 1.15 1.24 1.43 1.45 1.28 1.37 1.62 1.69 1.47 1.38 1.13 0.77 0.88 0.97 0.97 1.17 1.27 1.36 1.61 1.96 1.90 2.03 1.56 1.87 2.74 3.24 3.59 3.57 3.08 2.59 2.30 1.92 1.51 1.31 1.11 0.96 0.88
1.04 0.99 0.98 0.95 0.98 0.91 1.01 1.15 1.26 1.41 1.37 1.18 1.20 1.44 1.37 1.30 1.16 0.88 0.75 0.82 0.99 1.15 1.17 1.31 1.42 1.71 1.95 2.24 2.14 1.77 1.99 2.38 3.18 3.84 3.78 3.12 2.35 1.82 1.58 1.54 1.49 1.25 1.07
1.07 1.01 0.88 0.91 0.91 0.82 1.01 0.88 1.00 1.21 1.30 1.12 1.11 1.10 1.13 1.18 1.19 1.10 0.94 0.82 0.99 1.05 1.11 1.17 1.33 1.61 1.81 2.09 2.17 1.73 1.47 1.68 2.40 3.24 3.67 3.47 2.73 2.04 1.70 1.77 2.00 1.87 1.52
1.18 0.98 0.95 1.00 1.00 0.87 0.89 0.92 1.07 1.11 1.15 1.09 1.08 1.09 1.23 1.23 1.06 1.07 1.09 1.05 1.03 0.87 0.99 1.19 1.31 1.45 1.60 1.89 2.17 1.90 1.71 1.57 1.65 2.02 2.49 2.87 2.96 2.66 2.35 2.32 2.59 2.76 2.58
1.17 1.05 1.05 1.16 1.12 1.05 0.98 0.96 0.99 1.04 1.17 1.25 1.22 1.11 1.14 1.18 1.09 1.08 0.95 0.93 1.01 0.90 1.07 1.32 1.38 1.44 1.46 1.66 1.68 1.64 1.56 1.46 1.38 1.35 1.51 1.78 2.13 2.34 2.33 2.43 2.78 3.13 3.32
1.01 1.07 1.06 1.15 1.14 1.15 1.10 1.15 1.15 1.07 1.15 1.23 1.17 1.12 1.07 1.04 1.11 1.17 1.12 1.00 1.04 1.03 1.24 1.36 1.45 1.49 1.45 1.61 1.64 1.54 1.30 1.21 1.10 1.04 1.12 1.25 1.39 1.64 1.90 2.08 2.39 2.74 3.06
0.93 0.94 0.98 1.00 1.03 1.07 1.06 1.29 1.20 1.21 1.23 1.16 1.08 1.27 1.21 1.05 1.16 1.23 1.33 1.43 1.37 1.36 1.50 1.52 1.59 1.60 1.72 1.77 1.70 1.58 1.30 1.21 1.07 0.99 0.94 0.93 0.96 1.03 1.21 1.42 1.67 1.97 2.27
1.04 1.05 1.05 1.14 1.19 1.20 1.22 1.38 1.34 1.28 1.34 1.19 1.14 1.24 1.22 1.18 1.21 1.20 1.41 1.60 1.72 1.66 1.64 1.61 1.50 1.47 1.53 1.58 1.54 1.33 1.15 1.15 1.05 0.95 0.91 0.86 0.83 0.85 0.89 0.95 1.02 1.11 1.21
1.16 1.21 1.22 1.27 1.32 1.28 1.27 1.40 1.40 1.44 1.46 1.36 1.34 1.33 1.31 1.29 1.38 1.32 1.40 1.53 1.68 1.86 1.79 1.50 1.41 1.41 1.38 1.23 1.24 1.13 1.07 1.20 1.09 0.98 0.92 0.89 0.88 0.86 0.83 0.84 0.84 0.87 0.89
1.23 1.25 1.31 1.37 1.34 1.38 1.47 1.56 1.44 1.49 1.56 1.68 1.62 1.57 1.61 1.68 1.65 1.56 1.59 1.60 1.64 1.85 1.82 1.46 1.49 1.54 1.44 1.26 1.15 1.07 1.04 1.10 1.12 1.18 1.02 0.90 0.80 0.75 0.73 0.74 0.76 0.79 0.81
1.44 1.38 1.39 1.41 1.31 1.33 1.50 1.58 1.56 1.56 1.57 1.58 1.73 1.92 1.90 1.86 1.74 1.61 1.68 1.63 1.62 1.86 1.80 1.60 1.65 1.70 1.65 1.43 1.32 1.21 1.06 1.04 1.10 1.23 1.06 0.93 0.86 0.80 0.76 0.76 0.77 0.76 0.75
1.65 1.67 1.63 1.52 1.43 1.39 1.45 1.53 1.59 1.58 1.61 1.67 1.78 1.86 1.93 2.03 1.88 1.76 1.71 1.68 1.73 1.85 1.93 1.80 1.77 1.93 1.89 1.67 1.52 1.30 1.11 1.12 1.01 1.12 1.09 1.00 0.97 0.93 0.88 0.82 0.79 0.76 0.73
1.70 1.83 1.79 1.71 1.67 1.56 1.43 1.41 1.43 1.49 1.65 1.79 1.84 1.76 1.84 2.07 2.12 2.07 1.90 1.82 1.89 2.00 2.05 2.02 1.99 2.08 2.11 2.03 1.81 1.51 1.33 1.21 1.07 1.01 1.10 1.03 1.00 0.95 0.89 0.82 0.77 0.76 0.75
1.68 1.84 1.91 1.91 1.84 1.66 1.44 1.45 1.54 1.51 1.65 1.71 1.67 1.58 1.59 1.78 1.99 2.07 1.90 1.85 1.92 1.93 1.95 2.01 2.02 2.07 2.09 2.17 1.99 1.69 1.50 1.37 1.19 1.04 1.08 1.03 0.98 0.90 0.89 0.90 0.84 0.78 0.71
2.07 2.11 2.07 2.01 1.90 1.55 1.58 1.56 1.55 1.60 1.69 1.70 1.67 1.62 1.51 1.46 1.50 1.64 1.76 1.86 1.95 1.89 1.84 1.96 2.10 2.13 2.10 2.12 2.13 1.97 1.73 1.51 1.36 1.18 1.22 1.22 1.14 1.07 0.92 0.84 0.87 0.80 0.73
2.43 2.43 2.31 2.14 2.00 1.89 1.76 1.55 1.49 1.44 1.46 1.49 1.54 1.53 1.32 1.21 1.30 1.26 1.43 1.55 1.66 1.72 1.71 1.81 1.92 2.00 2.11 2.25 2.30 2.11 1.93 1.76 1.52 1.32 1.29 1.19 1.11 1.11 1.02 0.94 0.99 0.85 0.80
2.36 2.37 2.32 2.19 2.08 1.99 1.84 1.52 1.42 1.26 1.29 1.35 1.38 1.37 1.32 1.27 1.26 1.30 1.31 1.30 1.29 1.36 1.45 1.46 1.58 1.79 2.01 2.21 2.34 2.24 2.11 1.82 1.55 1.36 1.31 1.19 1.03 0.98 0.93 0.95 1.03 0.95 0.85
2.08 2.00 1.97 1.98 1.95 2.00 1.91 1.57 1.39 1.25 1.35 1.38 1.39 1.40 1.41 1.34 1.43 1.30 1.23 1.26 1.27 1.30 1.34 1.39 1.42 1.57 1.82 1.99 2.06 2.08 2.01 1.83 1.59 1.36 1.27 1.24 1.04 0.96 0.92 0.84 0.87 0.93 0.84
1.96 1.91 1.82 1.84 1.84 1.85 1.80 1.45 1.33 1.26 1.37 1.40 1.43 1.43 1.42 1.31 1.28 1.14 1.06 1.17 1.19 1.22 1.27 1.27 1.27 1.27 1.32 1.61 1.89 1.72 1.69 1.71 1.55 1.32 1.09 1.15 1.14 1.14 1.06 0.83 0.74 0.75 0.72

GEFSMA_prec_meanprecacc_204.txt.gz
Total_Precipitation_Accumulation
2.23 2.35 2.15 2.16 1.96 2.09 2.43 2.70 2.73 2.93 3.07 2.93 2.57 2.35 2.36 2.29 2.07 2.06 2.35 2.55 2.58 2.47 2.55 2.53 2.26 2.12 2.06 1.76 1.55 1.41 1.25 1.13 1.01 0.84 0.78 0.75 0.63 0.44 0.29 0.23 0.23 0.25 0.22
2.43 2.51 2.39 2.34 2.03 2.04 2.35 2.71 2.78 3.07 3.06 3.07 2.58 2.26 2.18 2.18 1.97 1.88 1.98 2.37 2.38 2.25 2.27 2.47 2.52 2.46 2.35 2.09 1.85 1.61 1.43 1.26 1.10 0.89 0.77 0.72 0.66 0.55 0.46 0.36 0.32 0.30 0.26
2.65 2.79 2.71 2.36 2.13 2.22 2.41 2.43 2.57 3.03 2.88 2.84 2.68 2.60 2.53 2.29 2.04 1.93 1.88 2.01 1.93 2.07 2.17 2.27 2.47 2.63 2.66 2.54 2.32 2.05 1.79 1.47 1.20 0.96 0.81 0.71 0.63 0.56 0.52 0.46 0.43 0.40 0.33
2.37 2.57 2.34 1.99 2.06 2.29 2.44 2.42 2.43 2.81 2.92 2.93 2.93 2.78 2.62 2.37 2.00 1.87 1.82 1.75 1.75 1.59 1.84 2.08 2.31 2.53 2.81 2.93 2.98 2.94 2.55 1.96 1.49 1.14 0.91 0.80 0.71 0.60 0.48 0.44 0.44 0.47 0.37
1.62 1.80 1.78 1.71 1.73 1.99 2.05 1.81 2.04 2.33 2.50 2.65 2.48 2.31 2.02 1.78 1.61 1.49 1.46 1.36 1.54 1.63 1.68 1.74 2.03 2.23 2.67 3.28 3.70 3.73 3.37 2.65 1.96 1.56 1.32 1.14 1.04 0.84 0.59 0.48 0.50 0.49 0.42
1.36 1.51 1.52 1.41 1.40 1.52 1.58 1.76 2.04 2.11 2.03 2.10 1.85 1.75 1.66 1.43 1.34 1.29 1.11 1.11 1.27 1.25 1.34 1.57 1.84 1.70 2.16 2.84 3.38 3.65 3.61 3.28 2.63 2.11 1.82 1.67 1.59 1.27 0.87 0.69 0.63 0.54 0.47
1.41 1.52 1.36 1.38 1.32 1.35 1.35 1.47 1.67 1.74 1.54 1.70 1.91 1.74 1.43 1.18 1.15 1.12 1.05 1.11 1.12 1.18 1.35 1.69 1.86 1.86 1.73 1.81 2.11 2.74 3.32 3.57 3.41 2.87 2.35 2.07 2.00 1.69 1.23 1.03 0.87 0.75 0.70
1.36 1.27 1.36 1.19 1.15 1.26 1.23 1.33 1.53 1.53 1.35 1.47 1.72 1.78 1.54 1.43 1.17 0.80 0.92 1.02 1.02 1.22 1.31 1.39 1.66 2.02 1.98 2.11 1.61 1.91 2.80 3.33 3.73 3.71 3.19 2.68 2.39 2.01 1.59 1.40 1.20 1.04 0.95
1.11 1.08 1.08 1.03 1.06 0.98 1.09 1.25 1.37 1.50 1.46 1.28 1.29 1.55 1.49 1.41 1.24 0.92 0.79 0.86 1.02 1.20 1.21 1.35 1.45 1.75 2.00 2.32 2.22 1.82 2.02 2.41 3.24 3.96 3.93 3.24 2.46 1.93 1.70 1.67 1.61 1.36 1.16
1.14 1.09 0.99 1.03 1.02 0.92 1.13 0.99 1.09 1.33 1.42 1.24 1.23 1.21 1.24 1.30 1.30 1.18 1.01 0.88 1.04 1.10 1.15 1.21 1.36 1.64 1.85 2.14 2.22 1.76 1.50 1.71 2.44 3.32 3.78 3.60 2.88 2.17 1.82 1.89 2.13 2.00 1.63
1.26 1.04 1.02 1.10 1.11 0.97 1.00 1.03 1.18 1.22 1.26 1.21 1.20 1.21 1.35 1.35 1.18 1.19 1.19 1.12 1.10 0.92 1.04 1.24 1.37 1.51 1.65 1.94 2.23 1.96 1.75 1.60 1.67 2.07 2.55 2.95 3.07 2.78 2.45 2.43 2.73 2.91 2.72
1.23 1.12 1.12 1.25 1.21 1.14 1.08 1.07 1.10 1.15 1.26 1.34 1.33 1.21 1.25 1.30 1.23 1.26 1.11 1.04 1.10 0.97 1.12 1.36 1.45 1.50 1.52 1.71 1.73 1.68 1.60 1.49 1.41 1.39 1.56 1.84 2.23 2.48 2.47 2.57 2.91 3.28 3.46
1.08 1.14 1.14 1.24 1.21 1.22 1.17 1.24 1.25 1.17 1.24 1.32 1.27 1.22 1.18 1.15 1.23 1.31 1.27 1.13 1.13 1.11 1.31 1.42 1.52 1.56 1.49 1.65 1.69 1.59 1.33 1.24 1.14 1.09 1.16 1.31 1.48 1.76 2.05 2.25 2.55 2.89 3.19
0.99 0.99 1.04 1.07 1.10 1.13 1.12 1.38 1.29 1.30 1.35 1.29 1.18 1.39 1.33 1.16 1.27 1.34 1.46 1.57 1.49 1.44 1.57 1.61 1.68 1.68 1.78 1.82 1.76 1.62 1.34 1.25 1.11 1.03 0.99 0.99 1.03 1.12 1.32 1.54 1.77 2.05 2.34
1.08 1.08 1.09 1.19 1.25 1.27 1.29 1.45 1.42 1.38 1.47 1.31 1.26 1.36 1.31 1.25 1.28 1.28 1.53 1.73 1.86 1.78 1.75 1.71 1.59 1.55 1.61 1.65 1.61 1.38 1.21 1.20 1.08 0.98 0.95 0.91 0.90 0.93 0.97 1.01 1.08 1.16 1.25
1.21 1.25 1.26 1.32 1.37 1.34 1.34 1.49 1.50 1.54 1.58 1.48 1.44 1.42 1.40 1.38 1.47 1.41 1.51 1.66 1.81 1.99 1.92 1.61 1.51 1.49 1.44 1.27 1.29 1.17 1.11 1.23 1.11 0.99 0.94 0.92 0.90 0.89 0.87 0.88 0.89 0.92 0.94
1.27 1.29 1.36 1.42 1.39 1.44 1.53 1.62 1.51 1.55 1.64 1.76 1.70 1.65 1.71 1.78 1.74 1.66 1.69 1.70 1.75 1.97 1.95 1.58 1.56 1.59 1.47 1.28 1.17 1.10 1.06 1.13 1.15 1.22 1.06 0.93 0.83 0.78 0.77 0.78 0.80 0.84 0.88
1.46 1.42 1.45 1.47 1.36 1.38 1.56 1.63 1.61 1.63 1.64 1.65 1.80 2.01 1.98 1.95 1.83 1.70 1.77 1.72 1.72 1.96 1.90 1.68 1.70 1.73 1.67 1.46 1.35 1.23 1.08 1.07 1.14 1.29 1.10 0.97 0.89 0.84 0.81 0.81 0.83 0.83 0.83
1.70 1.72 1.68 1.58 1.49 1.46 1.51 1.60 1.67 1.68 1.71 1.77 1.88 1.95 2.00 2.11 1.97 1.87 1.80 1.76 1.79 1.91 1.99 1.86 1.82 1.97 1.93 1.70 1.55 1.33 1.14 1.17 1.05 1.16 1.13 1.03 1.01 0.96 0.91 0.85 0.82 0.80 0.77
1.74 1.87 1.83 1.75 1.71 1.61 1.48 1.47 1.50 1.56 1.73 1.88 1.92 1.84 1.92 2.15 2.19 2.13 1.96 1.88 1.95 2.06 2.11 2.08 2.04 2.12 2.15 2.06 1.85 1.55 1.38 1.26 1.11 1.04 1.13 1.06 1.03 0.99 0.93 0.86 0.81 0.80 0.80
1.70 1.88 1.95 1.94 1.88 1.72 1.49 1.50 1.59 1.59 1.76 1.81 1.76 1.66 1.65 1.84 2.06 2.14 1.98 1.95 2.04 2.04 2.04 2.08 2.08 2.12 2.13 2.21 2.04 1.73 1.54 1.41 1.22 1.07 1.12 1.07 1.02 0.95 0.95 0.97 0.90 0.83 0.76
2.11 2.16 2.12 2.06 1.96 1.61 1.64 1.62 1.61 1.65 1.75 1.76 1.73 1.68 1.57 1.52 1.56 1.72 1.87 2.00 2.12 2.08 2.04 2.14 2.27 2.28 2.21 2.19 2.17 2.01 1.77 1.55 1.42 1.25 1.29 1.29 1.22 1.15 1.00 0.90 0.92 0.84 0.75
2.50 2.51 2.39 2.22 2.07 1.96 1.83 1.61 1.56 1.50 1.51 1.53 1.58 1.58 1.37 1.26 1.35 1.30 1.47 1.62 1.77 1.85 1.87 2.00 2.13 2.20 2.27 2.36 2.38 2.17 1.99 1.82 1.58 1.39 1.36 1.26 1.17 1.17 1.07 0.99 1.05 0.90 0.83
2.44 2.45 2.38 2.24 2.13 2.04 1.88 1.56 1.47 1.29 1.32 1.37 1.41 1.40 1.36 1.31 1.30 1.34 1.35 1.34 1.33 1.41 1.53 1.56 1.68 1.90 2.11 2.30 2.43 2.32 2.19 1.88 1.60 1.41 1.36 1.25 1.07 1.03 0.99 1.00 1.09 0.99 0.89
2.13 2.04 2.01 2.01 1.98 2.02 1.93 1.59 1.41 1.28 1.38 1.41 1.43 1.44 1.44 1.37 1.47 1.35 1.31 1.35 1.37 1.40 1.45 1.50 1.52 1.67 1.92 2.08 2.14 2.17 2.11 1.93 1.67 1.42 1.32 1.29 1.09 1.01 0.96 0.88 0.90 0.96 0.87
2.01 1.95 1.85 1.87 1.87 1.87 1.84 1.48 1.36 1.29 1.41 1.43 1.47 1.47 1.45 1.34 1.33 1.20 1.14 1.27 1.30 1.33 1.37 1.38 1.39 1.41 1.48 1.78 2.05 1.86 1.83 1.83 1.65 1.39 1.15 1.20 1.19 1.18 1.09 0.85 0.76 0.77 0.74

GEFSMA_prec_meanprecacc_210.txt.gz
Total_Precipitation_Accumulation
2.29 2.40 2.20 2.24 2.02 2.14 2.49 2.78 2.79 2.99 3.13 2.99 2.62 2.41 2.43 2.38 2.16 2.12 2.40 2.59 2.60 2.49 2.57 2.55 2.28 2.14 2.09 1.79 1.57 1.44 1.27 1.15 1.03 0.86 0.79 0.75 0.64 0.45 0.29 0.24 0.24 0.26 0.23
2.49 2.57 2.46 2.41 2.10 2.09 2.41 2.78 2.85 3.13 3.15 3.16 2.66 2.33 2.25 2.25 2.03 1.93 2.04 2.42 2.41 2.27 2.30 2.50 2.54 2.49 2.38 2.12 1.86 1.63 1.44 1.28 1.12 0.91 0.78 0.73 0.67 0.55 0.47 0.37 0.33 0.31 0.26
2.71 2.86 2.78 2.42 2.18 2.25 2.46 2.50 2.63 3.09 2.97 2.92 2.76 2.66 2.59 2.35 2.10 2.00 1.94 2.08 1.98 2.10 2.19 2.28 2.48 2.66 2.68 2.57 2.34 2.07 1.82 1.50 1.21 0.97 0.82 0.72 0.64 0.57 0.53 0.48 0.44 0.41 0.34
2.43 2.63 2.41 2.04 2.11 2.32 2.48 2.48 2.49 2.87 2.99 3.00 2.98 2.83 2.67 2.42 2.05 1.92 1.89 1.82 1.81 1.62 1.86 2.09 2.33 2.57 2.85 2.97 3.02 2.97 2.59 1.99 1.51 1.16 0.93 0.82 0.73 0.61 0.49 0.45 0.46 0.48 0.39
1.66 1.88 1.85 1.77 1.78 2.03 2.08 1.85 2.09 2.39 2.57 2.71 2.52 2.35 2.06 1.82 1.66 1.54 1.53 1.41 1.59 1.67 1.72 1.76 2.05 2.27 2.72 3.34 3.77 3.79 3.42 2.70 2.00 1.59 1.36 1.18 1.08 0.88 0.63 0.52 0.53 0.51 0.43
1.41 1.59 1.58 1.45 1.45 1.58 1.64 1.83 2.12 2.19 2.09 2.14 1.87 1.79 1.70 1.48 1.41 1.37 1.17 1.18 1.34 1.30 1.40 1.64 1.92 1.76 2.20 2.90 3.45 3.73 3.67 3.34 2.67 2.15 1.87 1.72 1.65 1.35 0.96 0.78 0.72 0.62 0.52
1.47 1.61 1.45 1.46 1.38 1.43 1.44 1.53 1.74 1.82 1.60 1.75 1.97 1.80 1.51 1.26 1.25 1.24 1.16 1.22 1.25 1.30 1.46 1.81 1.99 1.98 1.83 1.88 2.18 2.82 3.39 3.64 3.47 2.92 2.40 2.13 2.05 1.75 1.30 1.10 0.94 0.82 0.77
1.44 1.34 1.44 1.26 1.22 1.37 1.34 1.43 1.64 1.65 1.45 1.56 1.83 1.90 1.67 1.57 1.29 0.89 1.03 1.15 1.16 1.38 1.43 1.49 1.77 2.16 2.11 2.23 1.70 1.97 2.84 3.39 3.80 3.78 3.26 2.73 2.43 2.05 1.63 1.44 1.24 1.08 1.01
1.17 1.16 1.17 1.09 1.14 1.04 1.20 1.38 1.48 1.64 1.60 1.41 1.41 1.67 1.63 1.61 1.42 1.03 0.88 0.96 1.16 1.35 1.33 1.45 1.53 1.84 2.10 2.42 2.31 1.90 2.08 2.47 3.32 4.06 4.04 3.35 2.55 1.99 1.75 1.72 1.65 1.41 1.22
1.21 1.16 1.07 1.12 1.12 0.99 1.22 1.05 1.18 1.46 1.56 1.38 1.39 1.34 1.37 1.48 1.52 1.40 1.17 1.00 1.13 1.19 1.24 1.29 1.44 1.73 1.93 2.23 2.33 1.85 1.58 1.75 2.49 3.41 3.89 3.71 2.97 2.24 1.89 1.96 2.21 2.08 1.71
1.33 1.11 1.11 1.21 1.24 1.08 1.12 1.14 1.30 1.33 1.36 1.35 1.35 1.35 1.50 1.53 1.37 1.40 1.41 1.29 1.21 1.00 1.11 1.32 1.46 1.59 1.72 2.01 2.31 2.03 1.84 1.66 1.72 2.12 2.60 3.00 3.12 2.84 2.52 2.50 2.80 2.99 2.80
1.32 1.19 1.23 1.38 1.32 1.26 1.23 1.19 1.22 1.26 1.40 1.48 1.46 1.34 1.40 1.45 1.40 1.47 1.33 1.25 1.28 1.10 1.23 1.48 1.55 1.59 1.59 1.77 1.80 1.77 1.67 1.54 1.46 1.43 1.59 1.87 2.26 2.52 2.53 2.65 3.02 3.36 3.53
1.17 1.23 1.25 1.37 1.33 1.36 1.28 1.37 1.38 1.32 1.39 1.45 1.41 1.37 1.30 1.28 1.37 1.48 1.46 1.30 1.30 1.25 1.45 1.55 1.65 1.67 1.58 1.75 1.80 1.70 1.40 1.30 1.18 1.12 1.19 1.34 1.51 1.80 2.11 2.33 2.66 3.00 3.31
1.05 1.07 1.14 1.18 1.21 1.25 1.23 1.53 1.42 1.42 1.47 1.40 1.30 1.55 1.48 1.29 1.41 1.50 1.62 1.75 1.65 1.58 1.71 1.74 1.80 1.79 1.89 1.94 1.91 1.75 1.45 1.36 1.19 1.08 1.03 1.02 1.06 1.16 1.37 1.59 1.83 2.12 2.43
1.13 1.14 1.15 1.29 1.38 1.40 1.42 1.59 1.55 1.50 1.61 1.45 1.41 1.53 1.48 1.43 1.44 1.42 1.69 1.91 2.05 1.96 1.90 1.86 1.71 1.64 1.70 1.74 1.72 1.47 1.32 1.30 1.14 1.03 0.99 0.95 0.94 0.98 1.02 1.07 1.13 1.20 1.30
1.27 1.31 1.33 1.40 1.47 1.44 1.45 1.59 1.58 1.63 1.69 1.59 1.58 1.59 1.56 1.53 1.62 1.54 1.66 1.86 2.02 2.19 2.08 1.75 1.63 1.57 1.52 1.34 1.36 1.24 1.19 1.30 1.16 1.03 0.97 0.95 0.95 0.95 0.93 0.93 0.94 0.97 1.00
1.30 1.33 1.40 1.48 1.46 1.51 1.62 1.71 1.58 1.62 1.71 1.84 1.79 1.78 1.83 1.90 1.86 1.77 1.83 1.86 1.94 2.16 2.14 1.76 1.71 1.71 1.58 1.38 1.25 1.16 1.10 1.18 1.21 1.28 1.12 1.00 0.91 0.85 0.83 0.84 0.86 0.89 0.92
1.50 1.46 1.49 1.52 1.42 1.45 1.62 1.70 1.68 1.70 1.71 1.73 1.88 2.12 2.09 2.07 1.97 1.83 1.90 1.86 1.90 2.15 2.06 1.81 1.84 1.85 1.78 1.55 1.44 1.30 1.13 1.12 1.19 1.36 1.16 1.02 0.95 0.89 0.86 0.86 0.87 0.87 0.86
1.74 1.76 1.73 1.63 1.54 1.51 1.57 1.66 1.74 1.75 1.78 1.85 1.97 2.05 2.09 2.21 2.09 1.99 1.92 1.88 1.93 2.06 2.13 1.97 1.92 2.06 2.01 1.77 1.63 1.40 1.21 1.24 1.10 1.23 1.18 1.07 1.05 1.00 0.95 0.89 0.85 0.83 0.80
1.79 1.92 1.87 1.79 1.76 1.66 1.54 1.53 1.56 1.62 1.80 1.96 2.01 1.92 1.99 2.21 2.26 2.21 2.05 1.98 2.05 2.18 2.22 2.17 2.12 2.21 2.23 2.15 1.95 1.65 1.48 1.34 1.19 1.11 1.19 1.10 1.07 1.03 0.96 0.88 0.83 0.81 0.81
1.74 1.92 1.99 1.98 1.91 1.75 1.53 1.54 1.65 1.64 1.82 1.88 1.83 1.73 1.71 1.89 2.10 2.20 2.03 2.02 2.13 2.14 2.14 2.17 2.18 2.23 2.26 2.37 2.21 1.90 1.67 1.53 1.32 1.15 1.18 1.12 1.07 0.99 0.99 1.00 0.92 0.84 0.78
2.15 2.19 2.15 2.10 2.01 1.65 1.68 1.67 1.65 1.69 1.81 1.83 1.80 1.74 1.62 1.57 1.60 1.76 1.91 2.04 2.17 2.14 2.13 2.27 2.42 2.46 2.44 2.42 2.38 2.17 1.90 1.67 1.52 1.34 1.37 1.35 1.27 1.20 1.04 0.94 0.97 0.88 0.78
2.54 2.55 2.43 2.27 2.13 2.01 1.89 1.66 1.61 1.55 1.59 1.62 1.67 1.66 1.42 1.29 1.39 1.34 1.52 1.66 1.80 1.88 1.91 2.06 2.22 2.32 2.42 2.52 2.53 2.30 2.11 1.92 1.67 1.46 1.42 1.31 1.22 1.23 1.12 1.05 1.10 0.95 0.86
2.47 2.49 2.42 2.28 2.17 2.08 1.92 1.60 1.52 1.34 1.39 1.44 1.47 1.45 1.41 1.35 1.34 1.39 1.40 1.39 1.38 1.46 1.57 1.58 1.72 1.95 2.19 2.38 2.51 2.40 2.27 1.96 1.68 1.48 1.43 1.30 1.14 1.10 1.05 1.06 1.14 1.04 0.93
2.16 2.08 2.05 2.06 2.02 2.05 1.97 1.62 1.43 1.30 1.42 1.45 1.46 1.48 1.48 1.42 1.52 1.39 1.35 1.41 1.43 1.46 1.49 1.54 1.55 1.70 1.95 2.13 2.21 2.25 2.21 2.04 1.78 1.53 1.43 1.39 1.18 1.08 1.03 0.94 0.94 0.99 0.89
2.06 2.00 1.92 1.93 1.92 1.92 1.88 1.51 1.38 1.33 1.45 1.47 1.51 1.51 1.50 1.38 1.37 1.22 1.18 1.31 1.34 1.38 1.42 1.43 1.44 1.47 1.54 1.84 2.13 1.96 1.94 1.94 1.74 1.47 1.22 1.28 1.26 1.25 1.15 0.90 0.79 0.79 0.75

GEFSMA_prec_meanprecacc_216.txt.gz
Total_Precipitation_Accumulation
2.32 2.43 2.23 2.26 2.05 2.17 2.52 2.82 2.84 3.03 3.16 3.02 2.65 2.43 2.46 2.42 2.19 2.17 2.44 2.62 2.63 2.52 2.61 2.58 2.30 2.18 2.13 1.82 1.59 1.45 1.29 1.17 1.04 0.88 0.80 0.77 0.65 0.46 0.30 0.25 0.25 0.27 0.24
2.52 2.60 2.48 2.43 2.12 2.12 2.44 2.81 2.88 3.17 3.19 3.20 2.70 2.36 2.29 2.29 2.08 1.99 2.08 2.48 2.47 2.32 2.34 2.54 2.59 2.53 2.43 2.15 1.89 1.64 1.46 1.30 1.14 0.92 0.80 0.75 0.69 0.58 0.49 0.39 0.35 0.33 0.28
2.74 2.90 2.81 2.45 2.21 2.28 2.48 2.52 2.66 3.14 3.01 2.96 2.79 2.69 2.63 2.40 2.15 2.06 1.98 2.13 2.05 2.16 2.25 2.33 2.52 2.72 2.75 2.61 2.38 2.11 1.85 1.53 1.24 1.00 0.84 0.74 0.67 0.60 0.56 0.50 0.46 0.44 0.35
2.46 2.68 2.45 2.07 2.15 2.35 2.50 2.51 2.53 2.91 3.03 3.04 3.02 2.87 2.72 2.48 2.12 1.98 1.93 1.86 1.85 1.67 1.92 2.15 2.39 2.64 2.94 3.06 3.10 3.04 2.64 2.04 1.55 1.20 0.98 0.86 0.76 0.64 0.52 0.48 0.48 0.51 0.41
1.69 1.91 1.88 1.80 1.81 2.06 2.11 1.87 2.11 2.42 2.62 2.74 2.55 2.41 2.10 1.88 1.73 1.64 1.62 1.51 1.67 1.75 1.85 1.85 2.13 2.36 2.83 3.46 3.89 3.88 3.48 2.75 2.04 1.63 1.40 1.21 1.11 0.91 0.66 0.55 0.56 0.54 0.47
1.45 1.63 1.64 1.50 1.49 1.62 1.67 1.85 2.14 2.21 2.13 2.18 1.90 1.83 1.75 1.55 1.51 1.47 1.30 1.31 1.46 1.44 1.55 1.74 2.00 1.83 2.29 3.00 3.54 3.81 3.75 3.40 2.72 2.20 1.92 1.77 1.69 1.38 0.99 0.82 0.77 0.67 0.58
1.51 1.66 1.50 1.51 1.43 1.47 1.47 1.56 1.77 1.84 1.62 1.79 2.03 1.85 1.56 1.33 1.35 1.32 1.26 1.32 1.39 1.46 1.58 1.91 2.08 2.06 1.90 1.95 2.26 2.90 3.51 3.77 3.57 2.99 2.47 2.18 2.10 1.80 1.34 1.14 0.98 0.87 0.82
1.49 1.38 1.48 1.32 1.28 1.43 1.40 1.48 1.68 1.69 1.48 1.61 1.88 1.95 1.70 1.62 1.35 0.96 1.14 1.25 1.29 1.55 1.63 1.65 1.89 2.26 2.21 2.32 1.80 2.06 2.97 3.55 3.95 3.93 3.38 2.81 2.51 2.12 1.70 1.50 1.29 1.12 1.04
1.23 1.23 1.23 1.14 1.19 1.10 1.25 1.42 1.54 1.69 1.65 1.48 1.46 1.73 1.68 1.64 1.47 1.09 0.96 1.05 1.27 1.51 1.50 1.60 1.66 1.97 2.25 2.58 2.46 2.03 2.19 2.59 3.45 4.21 4.17 3.45 2.63 2.06 1.80 1.76 1.71 1.48 1.29
1.25 1.21 1.13 1.19 1.19 1.05 1.28 1.10 1.24 1.51 1.62 1.44 1.46 1.41 1.43 1.54 1.58 1.45 1.24 1.08 1.22 1.30 1.38 1.42 1.57 1.86 2.06 2.35 2.46 1.97 1.66 1.81 2.56 3.49 3.99 3.80 3.08 2.35 1.96 2.03 2.27 2.15 1.78
1.37 1.15 1.15 1.28 1.32 1.17 1.19 1.20 1.37 1.38 1.41 1.41 1.41 1.40 1.56 1.59 1.44 1.47 1.47 1.36 1.29 1.08 1.22 1.44 1.58 1.72 1.84 2.11 2.40 2.12 1.92 1.74 1.77 2.16 2.67 3.09 3.23 2.94 2.61 2.59 2.89 3.07 2.89
1.35 1.23 1.28 1.43 1.39 1.34 1.29 1.25 1.27 1.31 1.45 1.55 1.53 1.43 1.50 1.55 1.50 1.58 1.42 1.34 1.38 1.20 1.32 1.57 1.64 1.70 1.71 1.88 1.89 1.85 1.76 1.65 1.56 1.53 1.67 1.95 2.34 2.60 2.62 2.75 3.13 3.49 3.64
1.19 1.26 1.28 1.42 1.40 1.42 1.34 1.44 1.45 1.39 1.46 1.54 1.50 1.45 1.40 1.36 1.46 1.59 1.60 1.44 1.42 1.36 1.54 1.64 1.73 1.76 1.68 1.86 1.93 1.83 1.53 1.44 1.32 1.24 1.30 1.42 1.58 1.88 2.20 2.44 2.79 3.16 3.49
1.07 1.09 1.16 1.21 1.25 1.30 1.28 1.58 1.48 1.48 1.54 1.48 1.38 1.65 1.58 1.37 1.50 1.62 1.78 1.90 1.78 1.67 1.79 1.84 1.91 1.89 1.99 2.05 2.06 1.94 1.62 1.56 1.38 1.26 1.17 1.12 1.14 1.23 1.45 1.68 1.95 2.27 2.61
1.16 1.17 1.18 1.32 1.42 1.44 1.47 1.65 1.60 1.56 1.67 1.51 1.48 1.61 1.57 1.51 1.55 1.55 1.85 2.07 2.20 2.08 2.00 1.95 1.80 1.72 1.79 1.86 1.87 1.61 1.44 1.46 1.36 1.22 1.12 1.06 1.02 1.04 1.09 1.15 1.22 1.31 1.40
1.29 1.34 1.35 1.43 1.50 1.48 1.48 1.63 1.63 1.69 1.75 1.65 1.63 1.65 1.62 1.58 1.69 1.63 1.75 1.96 2.13 2.31 2.19 1.83 1.69 1.61 1.58 1.42 1.45 1.32 1.28 1.40 1.27 1.14 1.08 1.05 1.04 1.05 1.03 1.03 1.03 1.04 1.07
1.32 1.35 1.42 1.50 1.47 1.53 1.65 1.74 1.62 1.66 1.76 1.91 1.85 1.84 1.89 1.97 1.91 1.82 1.88 1.94 2.05 2.29 2.25 1.85 1.78 1.76 1.64 1.45 1.32 1.24 1.19 1.27 1.30 1.38 1.23 1.12 1.03 0.96 0.94 0.92 0.94 0.97 1.00
1.51 1.47 1.51 1.54 1.44 1.47 1.66 1.74 1.72 1.74 1.77 1.79 1.95 2.17 2.14 2.12 2.02 1.88 1.96 1.92 1.96 2.23 2.14 1.89 1.92 1.93 1.86 1.63 1.51 1.39 1.23 1.21 1.28 1.43 1.25 1.13 1.05 1.00 0.96 0.94 0.94 0.93 0.92
1.76 1.79 1.77 1.67 1.58 1.55 1.62 1.71 1.79 1.82 1.86 1.92 2.03 2.12 2.15 2.28 2.14 2.04 1.98 1.94 1.99 2.15 2.22 2.06 2.01 2.14 2.07 1.83 1.70 1.50 1.31 1.33 1.19 1.31 1.27 1.18 1.14 1.08 1.02 0.94 0.91 0.88 0.85
1.82 1.96 1.92 1.84 1.80 1.70 1.58 1.57 1.61 1.69 1.87 2.02 2.07 1.98 2.05 2.26 2.31 2.27 2.10 2.04 2.12 2.25 2.30 2.26 2.21 2.29 2.29 2.22 2.04 1.77 1.63 1.52 1.37 1.26 1.31 1.20 1.15 1.10 1.03 0.94 0.89 0.87 0.87
1.76 1.94 2.01 2.02 1.96 1.81 1.58 1.60 1.71 1.71 1.87 1.93 1.89 1.79 1.78 1.96 2.16 2.25 2.06 2.04 2.16 2.18 2.18 2.23 2.23 2.28 2.30 2.42 2.27 1.98 1.77 1.64 1.43 1.26 1.27 1.18 1.13 1.04 1.05 1.04 0.96 0.88 0.81
2.18 2.23 2.19 2.14 2.05 1.70 1.74 1.73 1.71 1.73 1.83 1.87 1.84 1.78 1.66 1.62 1.64 1.79 1.94 2.06 2.19 2.16 2.15 2.29 2.45 2.50 2.48 2.47 2.43 2.22 1.96 1.73 1.58 1.40 1.44 1.40 1.31 1.24 1.06 0.96 0.99 0.91 0.82
2.57 2.59 2.47 2.30 2.16 2.05 1.93 1.71 1.66 1.58 1.60 1.64 1.69 1.69 1.45 1.32 1.42 1.37 1.54 1.69 1.82 1.90 1.92 2.07 2.23 2.35 2.46 2.59 2.60 2.37 2.17 1.98 1.72 1.52 1.49 1.37 1.27 1.28 1.17 1.08 1.13 0.98 0.90
2.49 2.51 2.45 2.32 2.22 2.12 1.97 1.64 1.54 1.35 1.40 1.46 1.49 1.48 1.42 1.36 1.35 1.40 1.42 1.41 1.40 1.48 1.59 1.60 1.73 1.97 2.22 2.42 2.56 2.46 2.34 2.04 1.74 1.52 1.47 1.34 1.18 1.14 1.09 1.11 1.20 1.10 0.98
2.18 2.10 2.08 2.09 2.06 2.10 2.02 1.65 1.45 1.31 1.43 1.46 1.47 1.49 1.51 1.43 1.54 1.41 1.37 1.42 1.44 1.47 1.52 1.56 1.57 1.73 1.98 2.16 2.24 2.29 2.27 2.12 1.87 1.63 1.52 1.48 1.27 1.17 1.12 1.03 1.04 1.09 0.97
2.07 2.03 1.96 1.98 1.97 1.95 1.91 1.53 1.39 1.33 1.46 1.48 1.53 1.53 1.52 1.40 1.40 1.25 1.19 1.32 1.35 1.39 1.44 1.45 1.47 1.50 1.58 1.89 2.18 2.00 2.00 2.02 1.84 1.58 1.35 1.39 1.34 1.31 1.21 0.95 0.84 0.85 0.80

GEFSMA_prec_meanprecacc_222.txt.gz
Total_Precipitation_Accumulation
2.33 2.45 2.24 2.27 2.06 2.18 2.54 2.84 2.86 3.05 3.19 3.04 2.66 2.44 2.47 2.43 2.21 2.20 2.48 2.67 2.68 2.58 2.68 2.69 2.40 2.23 2.18 1.87 1.63 1.48 1.30 1.19 1.05 0.90 0.82 0.78 0.67 0.48 0.32 0.27 0.26 0.28 0.25
2.54 2.64 2.50 2.45 2.14 2.14 2.45 2.82 2.89 3.19 3.22 3.23 2.72 2.38 2.31 2.30 2.10 2.02 2.12 2.52 2.52 2.39 2.42 2.65 2.71 2.64 2.53 2.23 1.95 1.69 1.50 1.33 1.17 0.96 0.83 0.79 0.73 0.62 0.53 0.42 0.37 0.35 0.29
2.77 2.94 2.84 2.47 2.23 2.30 2.50 2.54 2.69 3.17 3.04 2.99 2.82 2.71 2.65 2.42 2.17 2.10 2.02 2.18 2.10 2.23 2.34 2.42 2.64 2.85 2.88 2.73 2.50 2.21 1.93 1.59 1.29 1.05 0.90 0.79 0.71 0.64 0.60 0.54 0.49 0.47 0.38
2.51 2.72 2.49 2.10 2.17 2.37 2.52 2.54 2.55 2.94 3.05 3.07 3.05 2.89 2.75 2.53 2.16 2.05 1.99 1.93 1.93 1.73 1.98 2.24 2.49 2.75 3.06 3.20 3.25 3.17 2.76 2.13 1.63 1.27 1.04 0.92 0.82 0.69 0.56 0.52 0.53 0.54 0.44
1.73 1.96 1.92 1.83 1.85 2.10 2.15 1.89 2.13 2.44 2.64 2.76 2.57 2.43 2.14 1.93 1.77 1.69 1.68 1.58 1.75 1.83 1.92 1.93 2.23 2.47 2.96 3.61 4.06 4.04 3.63 2.87 2.14 1.73 1.48 1.28 1.17 0.96 0.71 0.59 0.59 0.56 0.49
1.49 1.68 1.68 1.52 1.52 1.66 1.71 1.87 2.15 2.24 2.16 2.20 1.92 1.85 1.78 1.58 1.54 1.53 1.36 1.38 1.53 1.51 1.63 1.85 2.12 1.94 2.41 3.14 3.67 3.94 3.89 3.52 2.84 2.29 2.01 1.86 1.77 1.46 1.06 0.88 0.82 0.71 0.62
1.56 1.72 1.56 1.57 1.48 1.51 1.51 1.59 1.80 1.88 1.67 1.84 2.07 1.88 1.58 1.35 1.37 1.35 1.29 1.37 1.44 1.52 1.63 1.97 2.16 2.17 2.00 2.07 2.40 3.03 3.63 3.89 3.68 3.10 2.57 2.27 2.17 1.86 1.40 1.19 1.03 0.92 0.86
1.54 1.44 1.55 1.38 1.33 1.48 1.45 1.52 1.72 1.72 1.52 1.65 1.92 1.98 1.73 1.64 1.36 0.97 1.15 1.28 1.33 1.60 1.70 1.72 1.97 2.36 2.31 2.42 1.89 2.16 3.08 3.65 4.06 4.06 3.52 2.91 2.57 2.17 1.75 1.56 1.34 1.18 1.10
1.27 1.29 1.29 1.19 1.26 1.15 1.30 1.47 1.59 1.73 1.69 1.52 1.50 1.78 1.71 1.66 1.48 1.10 0.97 1.07 1.31 1.56 1.56 1.66 1.73 2.04 2.32 2.66 2.54 2.11 2.30 2.70 3.56 4.35 4.31 3.55 2.71 2.12 1.85 1.81 1.76 1.54 1.36
1.28 1.26 1.18 1.25 1.24 1.10 1.32 1.14 1.29 1.55 1.66 1.50 1.51 1.45 1.48 1.59 1.61 1.46 1.25 1.09 1.25 1.34 1.43 1.47 1.62 1.92 2.13 2.43 2.54 2.04 1.74 1.93 2.70 3.64 4.16 3.94 3.20 2.45 2.07 2.14 2.35 2.22 1.86
1.41 1.20 1.21 1.35 1.38 1.24 1.25 1.25 1.41 1.43 1.47 1.48 1.49 1.47 1.62 1.64 1.48 1.50 1.49 1.40 1.34 1.12 1.26 1.50 1.65 1.78 1.91 2.18 2.47 2.19 2.01 1.84 1.87 2.28 2.81 3.26 3.38 3.09 2.78 2.74 3.01 3.18 3.01
1.38 1.26 1.32 1.50 1.46 1.41 1.37 1.31 1.34 1.39 1.54 1.64 1.61 1.51 1.57 1.62 1.57 1.65 1.49 1.41 1.45 1.27 1.41 1.66 1.73 1.80 1.78 1.94 1.95 1.92 1.84 1.74 1.65 1.63 1.80 2.11 2.52 2.80 2.83 2.93 3.30 3.66 3.79
1.20 1.28 1.32 1.46 1.43 1.45 1.38 1.50 1.52 1.47 1.55 1.62 1.59 1.53 1.47 1.41 1.51 1.64 1.65 1.51 1.51 1.44 1.62 1.71 1.80 1.84 1.76 1.93 1.99 1.91 1.62 1.55 1.43 1.34 1.40 1.57 1.78 2.09 2.38 2.61 2.99 3.37 3.66
1.09 1.10 1.18 1.24 1.28 1.32 1.32 1.62 1.52 1.54 1.61 1.55 1.45 1.72 1.65 1.43 1.57 1.69 1.86 2.00 1.88 1.76 1.87 1.89 1.96 1.95 2.05 2.11 2.13 2.03 1.71 1.66 1.48 1.35 1.27 1.24 1.28 1.39 1.63 1.86 2.12 2.45 2.79
1.17 1.18 1.20 1.35 1.44 1.46 1.51 1.70 1.63 1.60 1.72 1.57 1.55 1.67 1.64 1.59 1.63 1.63 1.93 2.18 2.29 2.14 2.04 1.99 1.84 1.78 1.86 1.94 1.95 1.67 1.50 1.54 1.45 1.32 1.24 1.18 1.14 1.18 1.25 1.31 1.38 1.47 1.58
1.30 1.36 1.37 1.46 1.52 1.50 1.51 1.67 1.66 1.72 1.78 1.69 1.67 1.69 1.67 1.64 1.74 1.69 1.81 2.02 2.20 2.37 2.23 1.86 1.73 1.67 1.63 1.48 1.53 1.38 1.34 1.50 1.38 1.25 1.21 1.19 1.18 1.18 1.15 1.15 1.16 1.17 1.20
1.33 1.36 1.43 1.52 1.50 1.56 1.68 1.76 1.64 1.69 1.79 1.94 1.89 1.87 1.93 2.00 1.95 1.85 1.92 1.98 2.11 2.36 2.33 1.92 1.83 1.81 1.69 1.50 1.38 1.30 1.26 1.35 1.40 1.50 1.36 1.26 1.16 1.09 1.05 1.04 1.05 1.08 1.10
1.52 1.48 1.52 1.55 1.46 1.50 1.69 1.77 1.75 1.77 1.81 1.85 2.02 2.23 2.20 2.18 2.09 1.95 2.04 1.99 2.03 2.30 2.21 1.97 1.99 1.99 1.91 1.68 1.56 1.44 1.29 1.29 1.37 1.54 1.33 1.21 1.15 1.10 1.07 1.06 1.05 1.01 0.99
1.77 1.81 1.79 1.69 1.60 1.58 1.65 1.75 1.84 1.86 1.90 1.97 2.08 2.18 2.21 2.34 2.21 2.11 2.05 2.01 2.05 2.22 2.30 2.12 2.06 2.20 2.13 1.88 1.75 1.54 1.36 1.39 1.25 1.38 1.34 1.25 1.22 1.15 1.09 1.02 0.99 0.96 0.93
1.83 1.97 1.93 1.85 1.82 1.73 1.61 1.60 1.64 1.73 1.90 2.04 2.09 2.01 2.09 2.32 2.36 2.31 2.15 2.10 2.18 2.31 2.35 2.30 2.26 2.35 2.34 2.26 2.09 1.82 1.67 1.56 1.42 1.33 1.38 1.27 1.24 1.19 1.12 1.04 0.98 0.95 0.94
1.77 1.95 2.03 2.03 1.98 1.82 1.60 1.61 1.73 1.74 1.90 1.95 1.91 1.81 1.80 2.00 2.22 2.30 2.12 2.08 2.19 2.21 2.21 2.26 2.27 2.32 2.34 2.45 2.30 2.00 1.79 1.67 1.47 1.30 1.31 1.22 1.17 1.08 1.09 1.09 1.00 0.92 0.85
2.20 2.25 2.21 2.15 2.07 1.72 1.76 1.76 1.73 1.76 1.86 1.89 1.87 1.81 1.69 1.66 1.69 1.84 1.97 2.09 2.21 2.18 2.17 2.31 2.47 2.52 2.50 2.49 2.46 2.25 1.98 1.76 1.61 1.42 1.46 1.43 1.35 1.27 1.09 0.98 1.02 0.93 0.83
2.59 2.62 2.50 2.33 2.18 2.08 1.96 1.74 1.68 1.60 1.63 1.66 1.71 1.71 1.47 1.33 1.44 1.38 1.56 1.71 1.84 1.92 1.94 2.09 2.25 2.36 2.48 2.61 2.64 2.42 2.22 2.02 1.76 1.56 1.54 1.43 1.33 1.33 1.21 1.13 1.18 1.01 0.92
2.50 2.53 2.46 2.33 2.23 2.14 2.00 1.66 1.57 1.37 1.42 1.47 1.50 1.50 1.45 1.38 1.36 1.41 1.43 1.42 1.41 1.48 1.60 1.61 1.74 1.98 2.23 2.43 2.58 2.50 2.39 2.10 1.81 1.59 1.53 1.43 1.27 1.25 1.20 1.21 1.30 1.19 1.06
2.19 2.10 2.08 2.09 2.07 2.11 2.03 1.67 1.48 1.33 1.44 1.48 1.49 1.51 1.54 1.46 1.55 1.42 1.37 1.42 1.45 1.48 1.52 1.56 1.58 1.74 2.00 2.18 2.26 2.32 2.29 2.15 1.91 1.68 1.60 1.59 1.39 1.29 1.23 1.12 1.12 1.18 1.06
2.08 2.03 1.96 1.99 1.98 1.95 1.93 1.55 1.42 1.35 1.47 1.49 1.53 1.54 1.53 1.42 1.42 1.26 1.20 1.33 1.35 1.39 1.44 1.46 1.48 1.51 1.59 1.91 2.20 2.02 2.01 2.05 1.87 1.60 1.37 1.42 1.39 1.37 1.26 0.99 0.88 0.89 0.86

GEFSMA_prec_meanprecacc_228.txt.gz
Total_Precipitation_Accumulation
2.37 2.49 2.29 2.34 2.13 2.27 2.63 2.93 2.94 3.13 3.25 3.09 2.69 2.46 2.48 2.46 2.25 2.25 2.55 2.77 2.82 2.73 2.83 2.83 2.56 2.40 2.32 1.97 1.70 1.55 1.38 1.26 1.11 0.94 0.85 0.81 0.71 0.52 0.35 0.29 0.29 0.30 0.28
2.59 2.68 2.53 2.48 2.19 2.19 2.51 2.89 2.95 3.25 3.28 3.28 2.76 2.41 2.34 2.33 2.13 2.05 2.17 2.61 2.61 2.48 2.54 2.75 2.84 2.79 2.69 2.38 2.08 1.80 1.59 1.42 1.24 1.00 0.87 0.82 0.77 0.66 0.57 0.46 0.40 0.38 0.33
2.81 2.98 2.88 2.50 2.26 2.35 2.56 2.59 2.74 3.23 3.09 3.04 2.86 2.75 2.69 2.47 2.21 2.13 2.06 2.24 2.16 2.29 2.42 2.51 2.72 2.95 3.06 2.96 2.70 2.35 2.04 1.69 1.37 1.11 0.94 0.82 0.75 0.67 0.63 0.57 0.53 0.51 0.43
2.55 2.77 2.54 2.15 2.21 2.42 2.59 2.60 2.61 3.00 3.13 3.15 3.13 2.96 2.80 2.59 2.19 2.08 2.03 1.98 2.00 1.81 2.07 2.33 2.58 2.87 3.24 3.44 3.48 3.34 2.90 2.25 1.73 1.35 1.10 0.96 0.86 0.72 0.59 0.55 0.57 0.58 0.48
1.76 2.00 1.97 1.90 1.90 2.16 2.20 1.94 2.19 2.51 2.71 2.85 2.64 2.49 2.19 1.97 1.82 1.73 1.71 1.62 1.79 1.90 2.00 2.00 2.30 2.57 3.10 3.78 4.26 4.24 3.80 3.01 2.25 1.83 1.57 1.34 1.21 0.99 0.74 0.62 0.62 0.60 0.53
1.53 1.73 1.73 1.58 1.56 1.72 1.78 1.94 2.24 2.33 2.24 2.29 1.98 1.89 1.83 1.63 1.59 1.58 1.41 1.42 1.57 1.54 1.67 1.89 2.17 2.00 2.49 3.26 3.85 4.14 4.08 3.68 2.94 2.38 2.09 1.93 1.83 1.51 1.11 0.93 0.86 0.75 0.66
1.61 1.78 1.61 1.63 1.54 1.56 1.59 1.68 1.89 1.98 1.75 1.91 2.15 1.94 1.63 1.38 1.40 1.39 1.33 1.41 1.47 1.55 1.67 2.02 2.23 2.26 2.09 2.15 2.52 3.15 3.75 4.04 3.83 3.21 2.65 2.34 2.24 1.92 1.45 1.25 1.08 0.96 0.91
1.61 1.49 1.62 1.44 1.39 1.56 1.54 1.60 1.81 1.82 1.60 1.72 2.00 2.06 1.80 1.69 1.39 0.99 1.18 1.30 1.35 1.63 1.73 1.75 2.00 2.43 2.40 2.51 1.96 2.22 3.16 3.78 4.22 4.22 3.63 3.00 2.65 2.24 1.81 1.62 1.40 1.23 1.15
1.36 1.38 1.36 1.26 1.33 1.23 1.39 1.56 1.68 1.84 1.80 1.62 1.61 1.90 1.82 1.76 1.55 1.14 1.00 1.09 1.33 1.59 1.60 1.70 1.76 2.08 2.38 2.73 2.60 2.15 2.34 2.77 3.68 4.50 4.46 3.69 2.83 2.21 1.92 1.87 1.83 1.60 1.42
1.35 1.34 1.26 1.32 1.31 1.17 1.42 1.22 1.36 1.64 1.78 1.61 1.61 1.55 1.58 1.68 1.71 1.54 1.31 1.14 1.29 1.38 1.48 1.52 1.67 1.97 2.19 2.50 2.61 2.09 1.78 1.98 2.79 3.78 4.32 4.13 3.38 2.56 2.14 2.23 2.47 2.32 1.95
1.45 1.23 1.26 1.41 1.46 1.31 1.33 1.31 1.48 1.51 1.55 1.57 1.58 1.56 1.72 1.73 1.56 1.58 1.58 1.47 1.40 1.18 1.33 1.59 1.76 1.88 1.99 2.26 2.55 2.26 2.07 1.90 1.95 2.39 2.93 3.38 3.52 3.19 2.86 2.84 3.13 3.31 3.13
1.41 1.29 1.36 1.57 1.56 1.51 1.47 1.40 1.41 1.46 1.62 1.72 1.71 1.59 1.65 1.70 1.65 1.73 1.57 1.50 1.56 1.37 1.51 1.80 1.87 1.92 1.88 2.02 2.02 1.98 1.90 1.79 1.71 1.70 1.88 2.21 2.65 2.94 2.97 3.09 3.46 3.83 3.96
1.22 1.31 1.36 1.51 1.50 1.52 1.46 1.58 1.60 1.53 1.62 1.70 1.68 1.63 1.56 1.49 1.58 1.72 1.75 1.61 1.63 1.58 1.80 1.85 1.87 1.88 1.80 1.98 2.06 1.96 1.67 1.61 1.49 1.40 1.46 1.63 1.88 2.26 2.61 2.84 3.19 3.55 3.82
1.11 1.13 1.22 1.27 1.32 1.37 1.36 1.68 1.58 1.60 1.68 1.62 1.52 1.80 1.72 1.49 1.62 1.75 1.94 2.10 1.99 1.89 1.98 1.97 2.00 1.98 2.09 2.17 2.19 2.07 1.75 1.71 1.54 1.40 1.31 1.29 1.36 1.52 1.82 2.10 2.38 2.67 2.95
1.19 1.21 1.23 1.38 1.49 1.51 1.55 1.74 1.67 1.65 1.77 1.63 1.61 1.74 1.71 1.64 1.68 1.68 1.99 2.26 2.37 2.21 2.10 2.03 1.87 1.80 1.88 1.97 2.00 1.72 1.54 1.59 1.49 1.36 1.28 1.22 1.20 1.27 1.38 1.49 1.57 1.65 1.73
1.32 1.38 1.40 1.50 1.56 1.54 1.54 1.70 1.69 1.76 1.83 1.73 1.71 1.74 1.72 1.70 1.81 1.76 1.88 2.08 2.26 2.44 2.30 1.91 1.77 1.70 1.67 1.51 1.57 1.43 1.40 1.57 1.45 1.31 1.26 1.24 1.25 1.26 1.24 1.26 1.29 1.31 1.34
1.36 1.39 1.47 1.55 1.54 1.59 1.71 1.80 1.68 1.74 1.84 2.00 1.92 1.90 1.97 2.05 2.01 1.94 2.00 2.06 2.20 2.46 2.42 1.99 1.89 1.87 1.75 1.55 1.45 1.37 1.34 1.44 1.47 1.56 1.42 1.32 1.23 1.15 1.12 1.11 1.12 1.17 1.21
1.55 1.52 1.55 1.59 1.49 1.53 1.72 1.79 1.78 1.81 1.85 1.91 2.06 2.27 2.23 2.23 2.15 2.01 2.10 2.06 2.12 2.39 2.31 2.07 2.09 2.08 1.99 1.76 1.64 1.51 1.36 1.36 1.44 1.61 1.40 1.27 1.21 1.15 1.13 1.12 1.10 1.08 1.06
1.80 1.83 1.81 1.71 1.62 1.60 1.67 1.77 1.86 1.88 1.93 1.99 2.11 2.21 2.24 2.38 2.25 2.15 2.10 2.06 2.12 2.29 2.37 2.20 2.15 2.29 2.22 1.96 1.81 1.61 1.42 1.45 1.30 1.43 1.39 1.29 1.26 1.19 1.14 1.08 1.05 1.03 1.00
1.86 1.99 1.95 1.88 1.84 1.75 1.62 1.61 1.66 1.74 1.91 2.05 2.10 2.02 2.11 2.34 2.39 2.34 2.18 2.13 2.22 2.36 2.41 2.36 2.31 2.40 2.41 2.33 2.15 1.88 1.73 1.61 1.46 1.36 1.41 1.30 1.26 1.21 1.15 1.07 1.02 1.00 1.00
1.81 1.98 2.05 2.05 1.99 1.83 1.61 1.62 1.74 1.75 1.91 1.96 1.92 1.82 1.82 2.01 2.24 2.33 2.14 2.11 2.23 2.24 2.25 2.30 2.31 2.36 2.39 2.50 2.36 2.06 1.85 1.72 1.52 1.34 1.36 1.26 1.20 1.11 1.12 1.12 1.05 0.97 0.89
2.23 2.27 2.23 2.16 2.07 1.72 1.77 1.76 1.75 1.78 1.88 1.92 1.89 1.83 1.70 1.67 1.70 1.85 1.99 2.12 2.23 2.19 2.18 2.33 2.50 2.55 2.53 2.53 2.51 2.30 2.03 1.80 1.66 1.46 1.50 1.48 1.40 1.32 1.15 1.04 1.07 0.98 0.87
2.60 2.63 2.51 2.34 2.19 2.09 1.97 1.75 1.70 1.62 1.66 1.70 1.75 1.74 1.49 1.34 1.45 1.39 1.57 1.73 1.86 1.94 1.96 2.11 2.27 2.38 2.50 2.64 2.68 2.46 2.26 2.06 1.81 1.61 1.58 1.46 1.36 1.37 1.26 1.19 1.25 1.07 0.98
2.50 2.53 2.47 2.34 2.24 2.16 2.01 1.67 1.58 1.39 1.45 1.49 1.53 1.53 1.47 1.39 1.38 1.43 1.45 1.44 1.43 1.51 1.62 1.63 1.75 1.99 2.24 2.46 2.61 2.53 2.41 2.13 1.84 1.63 1.56 1.45 1.30 1.27 1.22 1.23 1.33 1.22 1.09
2.21 2.12 2.09 2.10 2.08 2.12 2.04 1.68 1.49 1.34 1.46 1.49 1.51 1.53 1.56 1.48 1.58 1.45 1.40 1.45 1.47 1.49 1.53 1.57 1.59 1.75 2.01 2.19 2.29 2.34 2.31 2.18 1.94 1.70 1.61 1.61 1.41 1.32 1.25 1.15 1.15 1.20 1.08
2.10 2.05 1.97 2.00 1.99 1.96 1.94 1.56 1.43 1.36 1.48 1.50 1.54 1.55 1.53 1.42 1.43 1.29 1.24 1.37 1.40 1.42 1.47 1.47 1.49 1.52 1.60 1.92 2.22 2.05 2.04 2.07 1.89 1.63 1.39 1.44 1.41 1.39 1.29 1.02 0.91 0.92 0.89

GEFSMA_prec_meanprecacc_234.txt.gz
Total_Precipitation_Accumulation
2.46 2.59 2.38 2.46 2.24 2.37 2.73 3.04 3.06 3.25 3.41 3.24 2.80 2.55 2.56 2.52 2.32 2.32 2.60 2.83 2.88 2.82 2.95 3.00 2.70 2.52 2.44 2.10 1.79 1.62 1.45 1.32 1.17 0.99 0.89 0.84 0.75 0.56 0.39 0.32 0.31 0.33 0.31
2.67 2.75 2.60 2.58 2.29 2.32 2.64 3.00 3.06 3.38 3.43 3.42 2.87 2.49 2.43 2.41 2.18 2.09 2.23 2.70 2.72 2.62 2.67 2.92 2.98 2.89 2.80 2.51 2.22 1.94 1.70 1.49 1.30 1.05 0.90 0.85 0.81 0.71 0.61 0.50 0.44 0.41 0.36
2.89 3.05 2.96 2.59 2.37 2.48 2.69 2.71 2.86 3.36 3.22 3.14 2.97 2.84 2.75 2.54 2.26 2.20 2.14 2.33 2.27 2.38 2.53 2.65 2.84 3.06 3.17 3.08 2.84 2.49 2.15 1.77 1.45 1.17 0.99 0.87 0.79 0.70 0.65 0.60 0.56 0.54 0.47
2.59 2.83 2.60 2.22 2.30 2.51 2.68 2.70 2.72 3.12 3.26 3.26 3.25 3.06 2.89 2.67 2.25 2.14 2.09 2.06 2.09 1.89 2.14 2.40 2.65 2.95 3.34 3.55 3.58 3.46 3.03 2.36 1.81 1.44 1.17 1.03 0.91 0.77 0.63 0.59 0.60 0.61 0.51
1.78 2.06 2.05 1.98 1.97 2.23 2.28 2.01 2.29 2.63 2.85 2.97 2.74 2.58 2.26 2.03 1.87 1.77 1.75 1.65 1.85 1.98 2.09 2.07 2.35 2.61 3.15 3.84 4.33 4.36 3.95 3.20 2.44 1.98 1.69 1.44 1.30 1.07 0.81 0.67 0.67 0.64 0.57
1.55 1.80 1.83 1.66 1.62 1.79 1.86 2.02 2.35 2.44 2.36 2.41 2.07 1.98 1.90 1.70 1.66 1.63 1.45 1.46 1.61 1.58 1.74 1.97 2.26 2.06 2.52 3.30 3.91 4.23 4.20 3.81 3.09 2.50 2.18 2.01 1.90 1.57 1.16 0.98 0.91 0.80 0.70
1.65 1.86 1.70 1.72 1.61 1.63 1.66 1.75 1.98 2.08 1.85 2.01 2.28 2.06 1.72 1.46 1.48 1.44 1.39 1.48 1.52 1.59 1.72 2.09 2.32 2.35 2.15 2.20 2.55 3.20 3.83 4.13 3.93 3.33 2.76 2.43 2.33 1.99 1.48 1.27 1.11 0.99 0.95
1.65 1.55 1.71 1.54 1.47 1.65 1.62 1.68 1.90 1.91 1.68 1.80 2.12 2.22 1.95 1.83 1.50 1.07 1.26 1.37 1.42 1.70 1.79 1.80 2.04 2.49 2.48 2.58 2.00 2.27 3.22 3.85 4.31 4.33 3.77 3.11 2.74 2.32 1.87 1.65 1.44 1.27 1.21
1.39 1.43 1.42 1.34 1.41 1.33 1.49 1.64 1.76 1.93 1.89 1.71 1.70 2.04 1.99 1.95 1.72 1.27 1.07 1.14 1.39 1.66 1.65 1.74 1.79 2.13 2.43 2.80 2.66 2.20 2.37 2.80 3.72 4.57 4.55 3.81 2.97 2.37 2.08 1.98 1.90 1.67 1.48
1.37 1.37 1.30 1.38 1.39 1.27 1.53 1.31 1.46 1.76 1.90 1.74 1.72 1.66 1.70 1.84 1.88 1.71 1.43 1.20 1.33 1.43 1.52 1.57 1.73 2.04 2.26 2.57 2.66 2.11 1.80 1.99 2.81 3.82 4.39 4.25 3.56 2.77 2.32 2.37 2.57 2.40 2.02
1.48 1.25 1.29 1.47 1.53 1.40 1.42 1.41 1.60 1.63 1.67 1.69 1.68 1.66 1.83 1.86 1.69 1.73 1.73 1.60 1.48 1.23 1.37 1.64 1.84 1.96 2.10 2.37 2.64 2.33 2.13 1.94 1.98 2.43 3.00 3.49 3.67 3.36 3.00 2.96 3.27 3.43 3.23
1.46 1.34 1.40 1.62 1.63 1.59 1.55 1.49 1.50 1.56 1.72 1.82 1.81 1.69 1.76 1.82 1.78 1.87 1.72 1.65 1.67 1.45 1.58 1.86 1.94 1.98 1.95 2.12 2.15 2.11 2.03 1.90 1.81 1.79 1.96 2.28 2.73 3.04 3.07 3.20 3.58 3.95 4.08
1.27 1.36 1.41 1.58 1.57 1.59 1.52 1.65 1.68 1.62 1.71 1.78 1.77 1.72 1.65 1.59 1.70 1.85 1.89 1.74 1.76 1.70 1.91 1.94 1.97 1.97 1.88 2.12 2.20 2.09 1.78 1.71 1.58 1.47 1.51 1.68 1.93 2.32 2.69 2.93 3.29 3.67 3.97
1.15 1.17 1.27 1.33 1.37 1.41 1.40 1.74 1.64 1.66 1.75 1.68 1.59 1.88 1.79 1.55 1.70 1.84 2.05 2.22 2.10 2.00 2.10 2.06 2.06 2.03 2.15 2.22 2.25 2.15 1.83 1.78 1.59 1.45 1.35 1.33 1.40 1.58 1.90 2.19 2.47 2.77 3.07
1.22 1.25 1.29 1.45 1.54 1.56 1.58 1.78 1.73 1.71 1.84 1.69 1.67 1.81 1.77 1.71 1.73 1.73 2.06 2.35 2.47 2.32 2.21 2.13 1.95 1.86 1.94 2.04 2.05 1.77 1.60 1.64 1.53 1.40 1.32 1.27 1.25 1.32 1.45 1.56 1.64 1.72 1.83
1.36 1.43 1.46 1.56 1.62 1.58 1.57 1.73 1.74 1.83 1.90 1.80 1.78 1.81 1.78 1.77 1.87 1.80 1.93 2.15 2.35 2.54 2.40 1.99 1.84 1.76 1.73 1.58 1.64 1.46 1.44 1.61 1.48 1.33 1.29 1.28 1.29 1.30 1.29 1.31 1.34 1.36 1.39
1.39 1.44 1.53 1.60 1.58 1.64 1.75 1.85 1.72 1.78 1.90 2.06 1.98 1.96 2.02 2.12 2.08 1.99 2.05 2.13 2.27 2.55 2.52 2.07 1.96 1.96 1.83 1.62 1.53 1.45 1.41 1.51 1.51 1.60 1.46 1.36 1.27 1.19 1.17 1.16 1.17 1.21 1.26
1.58 1.56 1.59 1.62 1.52 1.56 1.76 1.83 1.82 1.85 1.90 1.95 2.11 2.32 2.28 2.29 2.21 2.07 2.17 2.14 2.20 2.47 2.40 2.18 2.20 2.19 2.13 1.87 1.74 1.60 1.45 1.44 1.50 1.69 1.47 1.34 1.27 1.20 1.17 1.16 1.15 1.12 1.11
1.83 1.86 1.84 1.74 1.65 1.64 1.71 1.81 1.90 1.92 1.96 2.03 2.14 2.25 2.29 2.43 2.31 2.21 2.15 2.12 2.20 2.36 2.45 2.29 2.25 2.40 2.31 2.05 1.90 1.69 1.50 1.53 1.38 1.51 1.48 1.37 1.33 1.25 1.19 1.13 1.11 1.10 1.06
1.89 2.02 1.99 1.93 1.89 1.79 1.66 1.64 1.68 1.77 1.94 2.08 2.13 2.06 2.14 2.37 2.43 2.39 2.23 2.18 2.27 2.42 2.46 2.40 2.35 2.46 2.47 2.39 2.21 1.95 1.80 1.68 1.53 1.42 1.47 1.36 1.31 1.25 1.18 1.10 1.05 1.04 1.05
1.85 2.02 2.09 2.10 2.04 1.87 1.64 1.65 1.77 1.77 1.94 1.98 1.94 1.84 1.83 2.03 2.26 2.35 2.16 2.14 2.26 2.29 2.30 2.33 2.34 2.40 2.44 2.54 2.41 2.12 1.90 1.77 1.56 1.39 1.40 1.30 1.24 1.14 1.15 1.14 1.07 1.00 0.92
2.27 2.31 2.25 2.19 2.10 1.74 1.79 1.78 1.76 1.79 1.91 1.94 1.92 1.85 1.72 1.69 1.72 1.87 2.00 2.13 2.25 2.22 2.21 2.37 2.53 2.58 2.57 2.58 2.57 2.35 2.07 1.84 1.70 1.50 1.54 1.52 1.43 1.36 1.18 1.07 1.10 1.01 0.92
2.63 2.66 2.54 2.36 2.21 2.11 1.99 1.76 1.71 1.63 1.68 1.72 1.77 1.76 1.50 1.36 1.47 1.41 1.59 1.74 1.87 1.95 1.98 2.13 2.30 2.42 2.54 2.68 2.72 2.48 2.29 2.10 1.85 1.64 1.61 1.50 1.40 1.40 1.29 1.21 1.27 1.10 1.01
2.52 2.55 2.49 2.36 2.26 2.17 2.02 1.68 1.59 1.40 1.46 1.51 1.54 1.54 1.49 1.41 1.39 1.45 1.46 1.45 1.44 1.52 1.63 1.65 1.78 2.02 2.26 2.48 2.64 2.55 2.43 2.15 1.87 1.66 1.60 1.49 1.34 1.31 1.25 1.26 1.35 1.24 1.11
2.23 2.13 2.11 2.12 2.10 2.14 2.05 1.69 1.49 1.35 1.47 1.50 1.51 1.54 1.57 1.49 1.59 1.46 1.42 1.46 1.48 1.50 1.54 1.58 1.60 1.76 2.02 2.20 2.30 2.37 2.34 2.19 1.95 1.73 1.64 1.63 1.44 1.35 1.29 1.18 1.17 1.22 1.10
2.12 2.06 1.99 2.02 2.01 1.99 1.97 1.58 1.43 1.36 1.49 1.51 1.55 1.55 1.54 1.43 1.43 1.30 1.25 1.39 1.41 1.43 1.47 1.48 1.49 1.52 1.61 1.92 2.23 2.07 2.07 2.10 1.92 1.65 1.41 1.46 1.44 1.43 1.33 1.06 0.95 0.94 0.91

GEFSMA_prec_meanprecacc_240.txt.gz
Total_Precipitation_Accumulation
2.48 2.62 2.41 2.50 2.28 2.41 2.79 3.09 3.10 3.30 3.47 3.33 2.90 2.65 2.66 2.60 2.41 2.41 2.66 2.90 2.94 2.88 3.03 3.08 2.77 2.60 2.52 2.16 1.85 1.67 1.49 1.35 1.19 1.01 0.91 0.87 0.77 0.59 0.41 0.35 0.34 0.36 0.33
2.69 2.78 2.64 2.61 2.34 2.36 2.69 3.06 3.11 3.43 3.50 3.51 2.98 2.60 2.55 2.51 2.25 2.15 2.29 2.76 2.79 2.69 2.75 3.01 3.06 2.98 2.88 2.57 2.28 1.99 1.74 1.52 1.33 1.07 0.93 0.88 0.83 0.73 0.63 0.52 0.45 0.43 0.38
2.90 3.07 2.98 2.62 2.40 2.51 2.73 2.77 2.92 3.42 3.30 3.25 3.09 2.96 2.88 2.66 2.36 2.29 2.23 2.41 2.33 2.44 2.60 2.73 2.93 3.16 3.27 3.17 2.93 2.56 2.21 1.82 1.48 1.20 1.02 0.90 0.82 0.73 0.68 0.62 0.57 0.55 0.48
2.61 2.85 2.62 2.26 2.33 2.55 2.74 2.75 2.78 3.18 3.34 3.36 3.38 3.17 3.00 2.77 2.36 2.23 2.20 2.15 2.16 1.96 2.22 2.48 2.77 3.07 3.46 3.68 3.70 3.57 3.13 2.43 1.87 1.49 1.23 1.08 0.95 0.81 0.67 0.64 0.64 0.64 0.53
1.80 2.09 2.08 2.03 2.03 2.29 2.35 2.07 2.34 2.69 2.93 3.05 2.83 2.67 2.33 2.10 1.96 1.84 1.82 1.73 1.93 2.08 2.20 2.17 2.49 2.77 3.30 3.98 4.46 4.48 4.04 3.28 2.51 2.07 1.78 1.52 1.37 1.14 0.86 0.72 0.72 0.69 0.61
1.58 1.83 1.87 1.72 1.69 1.86 1.94 2.09 2.41 2.51 2.43 2.48 2.16 2.07 1.99 1.79 1.74 1.69 1.52 1.54 1.70 1.71 1.89 2.09 2.38 2.19 2.67 3.43 4.04 4.35 4.30 3.89 3.15 2.57 2.25 2.10 1.99 1.64 1.21 1.03 0.96 0.84 0.74
1.70 1.90 1.74 1.76 1.66 1.68 1.72 1.80 2.05 2.14 1.93 2.09 2.38 2.16 1.83 1.57 1.57 1.50 1.44 1.56 1.62 1.71 1.86 2.21 2.44 2.46 2.25 2.29 2.64 3.28 3.90 4.19 4.00 3.40 2.84 2.51 2.41 2.05 1.54 1.32 1.15 1.03 0.99
1.69 1.59 1.75 1.57 1.51 1.69 1.66 1.72 1.95 1.97 1.74 1.87 2.21 2.32 2.04 1.93 1.58 1.14 1.35 1.46 1.52 1.81 1.90 1.91 2.16 2.57 2.54 2.64 2.05 2.31 3.28 3.94 4.40 4.41 3.84 3.19 2.81 2.39 1.93 1.70 1.48 1.31 1.24
1.43 1.46 1.45 1.36 1.45 1.37 1.53 1.68 1.80 1.97 1.95 1.76 1.77 2.12 2.06 2.00 1.78 1.35 1.16 1.25 1.49 1.75 1.75 1.83 1.88 2.20 2.49 2.86 2.71 2.24 2.40 2.85 3.80 4.66 4.64 3.89 3.04 2.43 2.15 2.07 1.99 1.74 1.53
1.40 1.39 1.33 1.42 1.42 1.30 1.56 1.35 1.50 1.82 1.96 1.77 1.76 1.70 1.74 1.90 1.93 1.77 1.51 1.29 1.42 1.51 1.60 1.65 1.82 2.13 2.33 2.63 2.71 2.15 1.83 2.03 2.86 3.89 4.48 4.35 3.65 2.84 2.39 2.46 2.68 2.53 2.13
1.50 1.27 1.32 1.50 1.56 1.42 1.43 1.44 1.64 1.67 1.71 1.73 1.72 1.71 1.88 1.92 1.73 1.79 1.79 1.66 1.56 1.30 1.43 1.69 1.91 2.05 2.19 2.43 2.69 2.37 2.19 2.00 2.05 2.52 3.11 3.61 3.79 3.47 3.10 3.07 3.38 3.57 3.39
1.48 1.36 1.41 1.64 1.65 1.61 1.56 1.52 1.53 1.60 1.76 1.86 1.84 1.73 1.79 1.87 1.85 1.95 1.78 1.70 1.74 1.52 1.65 1.92 2.00 2.05 2.02 2.20 2.24 2.21 2.12 2.00 1.91 1.90 2.10 2.46 2.91 3.20 3.21 3.34 3.72 4.10 4.25
1.30 1.38 1.43 1.61 1.59 1.61 1.54 1.67 1.70 1.64 1.74 1.81 1.79 1.75 1.69 1.62 1.74 1.91 1.96 1.81 1.80 1.74 1.97 1.99 2.02 2.02 1.93 2.18 2.29 2.19 1.86 1.81 1.67 1.57 1.64 1.83 2.07 2.46 2.83 3.07 3.44 3.84 4.14
1.17 1.19 1.29 1.35 1.40 1.44 1.42 1.76 1.66 1.68 1.77 1.70 1.60 1.91 1.83 1.58 1.74 1.89 2.10 2.27 2.14 2.04 2.14 2.10 2.10 2.08 2.20 2.28 2.31 2.21 1.91 1.89 1.69 1.54 1.45 1.44 1.52 1.70 2.00 2.29 2.58 2.89 3.20
1.24 1.26 1.31 1.47 1.56 1.58 1.61 1.81 1.76 1.73 1.86 1.70 1.68 1.84 1.82 1.76 1.77 1.76 2.10 2.40 2.51 2.34 2.24 2.16 1.97 1.89 1.97 2.08 2.10 1.82 1.65 1.71 1.61 1.47 1.38 1.34 1.34 1.41 1.51 1.61 1.70 1.78 1.90
1.36 1.45 1.48 1.58 1.64 1.60 1.60 1.76 1.76 1.85 1.92 1.82 1.81 1.85 1.83 1.83 1.92 1.84 1.97 2.20 2.38 2.57 2.43 2.02 1.86 1.78 1.75 1.60 1.69 1.52 1.50 1.67 1.54 1.38 1.33 1.33 1.34 1.36 1.34 1.36 1.40 1.41 1.45
1.40 1.45 1.54 1.61 1.59 1.65 1.76 1.86 1.74 1.81 1.92 2.09 2.03 2.01 2.07 2.17 2.13 2.03 2.11 2.18 2.32 2.59 2.56 2.10 1.99 2.00 1.88 1.69 1.60 1.52 1.48 1.57 1.57 1.65 1.49 1.39 1.31 1.24 1.22 1.21 1.22 1.26 1.31
1.60 1.57 1.61 1.64 1.53 1.57 1.77 1.85 1.83 1.87 1.93 1.98 2.15 2.36 2.33 2.36 2.28 2.14 2.23 2.18 2.25 2.53 2.46 2.23 2.24 2.24 2.19 1.99 1.84 1.68 1.52 1.50 1.57 1.77 1.53 1.39 1.31 1.25 1.22 1.22 1.21 1.19 1.18
1.84 1.88 1.86 1.75 1.67 1.65 1.72 1.82 1.91 1.94 1.98 2.05 2.19 2.29 2.34 2.48 2.36 2.26 2.19 2.15 2.23 2.40 2.48 2.32 2.28 2.43 2.34 2.09 1.95 1.73 1.55 1.59 1.43 1.57 1.54 1.45 1.40 1.31 1.26 1.19 1.17 1.16 1.13
1.91 2.04 2.00 1.94 1.90 1.81 1.67 1.65 1.70 1.79 1.96 2.11 2.17 2.10 2.18 2.41 2.47 2.45 2.27 2.21 2.30 2.44 2.48 2.42 2.37 2.47 2.49 2.42 2.24 1.98 1.85 1.72 1.55 1.45 1.52 1.43 1.39 1.33 1.25 1.17 1.12 1.10 1.11
1.87 2.03 2.10 2.10 2.04 1.88 1.65 1.68 1.82 1.82 2.00 2.03 1.98 1.88 1.86 2.06 2.30 2.39 2.18 2.17 2.28 2.31 2.32 2.36 2.37 2.42 2.47 2.59 2.46 2.17 1.94 1.80 1.58 1.40 1.42 1.33 1.28 1.20 1.22 1.22 1.14 1.06 0.98
2.28 2.32 2.26 2.19 2.10 1.75 1.82 1.84 1.82 1.88 2.01 2.04 1.99 1.90 1.76 1.72 1.75 1.89 2.03 2.16 2.27 2.24 2.24 2.39 2.56 2.61 2.60 2.60 2.59 2.37 2.10 1.87 1.72 1.51 1.55 1.54 1.46 1.39 1.22 1.11 1.15 1.07 0.98
2.64 2.67 2.55 2.37 2.22 2.12 2.01 1.78 1.73 1.65 1.73 1.78 1.83 1.81 1.53 1.37 1.48 1.42 1.61 1.77 1.89 1.97 2.00 2.15 2.32 2.43 2.55 2.69 2.73 2.50 2.30 2.11 1.86 1.66 1.63 1.52 1.41 1.41 1.30 1.23 1.29 1.12 1.04
2.53 2.56 2.50 2.38 2.27 2.19 2.04 1.70 1.61 1.42 1.47 1.52 1.56 1.56 1.50 1.42 1.40 1.46 1.47 1.46 1.45 1.53 1.64 1.67 1.79 2.03 2.28 2.49 2.65 2.56 2.45 2.17 1.88 1.67 1.61 1.49 1.34 1.31 1.25 1.26 1.36 1.25 1.13
2.25 2.15 2.12 2.13 2.11 2.15 2.08 1.72 1.53 1.37 1.48 1.51 1.52 1.55 1.57 1.49 1.59 1.47 1.42 1.47 1.48 1.51 1.55 1.59 1.61 1.78 2.03 2.21 2.31 2.38 2.35 2.20 1.97 1.74 1.65 1.64 1.46 1.37 1.31 1.19 1.19 1.24 1.12
2.16 2.10 2.01 2.03 2.02 2.01 2.01 1.63 1.47 1.39 1.50 1.52 1.55 1.56 1.55 1.43 1.44 1.31 1.26 1.39 1.41 1.44 1.48 1.49 1.51 1.54 1.62 1.93 2.23 2.08 2.08 2.11 1.93 1.66 1.43 1.48 1.46 1.44 1.35 1.08 0.96 0.96 0.93